﻿<?xml version="1.0" encoding="UTF-8" standalone="no"?>
<gpx xmlns="http://www.topografix.com/GPX/1/1" xmlns:gpxtpx="http://www.garmin.com/xmlschemas/TrackPointExtension/v1" xmlns:xsi="http://www.w3.org/2001/XMLSchema-instance" creator="Hribi.net" version="1.1" xsi:schemaLocation="http://www.topografix.com/GPX/1/1 http://www.topografix.com/GPX/1/1/gpx.xsd http://www.garmin.com/xmlschemas/TrackPointExtension/v1 http://www.garmin.com/xmlschemas/TrackPointExtensionv1.xsd">
  <metadata>
    <name>GPS sled</name>
    <desc>www.hribi.net</desc>
    <author>
      <name>hribi.net</name>
    </author>
    <link href="http://www.hribi.net">
      <text>Hribi.net</text>
    </link>
  </metadata>
  <trk>
    <trkseg>
      <trkpt lat="46.301439" lon="13.864450">
        <ele>1053.2671921152</ele>
        <time>2016-05-29T05:34:42Z</time>
      </trkpt>
      <trkpt lat="46.301438" lon="13.864453">
        <ele>1053.2671921152</ele>
        <time>2016-05-29T05:34:42Z</time>
      </trkpt>
      <trkpt lat="46.301377" lon="13.864535">
        <ele>1053.337191264</ele>
        <time>2016-05-29T05:35:00Z</time>
      </trkpt>
      <trkpt lat="46.301429" lon="13.864564">
        <ele>1053.337191264</ele>
        <time>2016-05-29T05:35:09Z</time>
      </trkpt>
      <trkpt lat="46.301454" lon="13.864547">
        <ele>1053.1471935744</ele>
        <time>2016-05-29T05:35:24Z</time>
      </trkpt>
      <trkpt lat="46.301435" lon="13.864513">
        <ele>1053.2071928448</ele>
        <time>2016-05-29T05:35:40Z</time>
      </trkpt>
      <trkpt lat="46.301347" lon="13.864649">
        <ele>1052.8771968576</ele>
        <time>2016-05-29T05:38:13Z</time>
      </trkpt>
      <trkpt lat="46.301333" lon="13.864657">
        <ele>1053.1171939392</ele>
        <time>2016-05-29T05:38:26Z</time>
      </trkpt>
      <trkpt lat="46.301324" lon="13.864681">
        <ele>1052.7071989248</ele>
        <time>2016-05-29T05:38:37Z</time>
      </trkpt>
      <trkpt lat="46.301271" lon="13.864632">
        <ele>1052.8471972224</ele>
        <time>2016-05-29T05:38:47Z</time>
      </trkpt>
      <trkpt lat="46.301225" lon="13.864573">
        <ele>1052.0472069504</ele>
        <time>2016-05-29T05:38:59Z</time>
      </trkpt>
      <trkpt lat="46.301157" lon="13.864546">
        <ele>1051.4172146112</ele>
        <time>2016-05-29T05:39:08Z</time>
      </trkpt>
      <trkpt lat="46.301129" lon="13.864547">
        <ele>1050.8672212992</ele>
        <time>2016-05-29T05:39:11Z</time>
      </trkpt>
      <trkpt lat="46.301029" lon="13.864569">
        <ele>1049.7772345536</ele>
        <time>2016-05-29T05:39:19Z</time>
      </trkpt>
      <trkpt lat="46.301008" lon="13.864569">
        <ele>1049.6072366208</ele>
        <time>2016-05-29T05:39:22Z</time>
      </trkpt>
      <trkpt lat="46.300962" lon="13.864580">
        <ele>1048.9572445248</ele>
        <time>2016-05-29T05:39:27Z</time>
      </trkpt>
      <trkpt lat="46.300965" lon="13.864600">
        <ele>1048.4772503616</ele>
        <time>2016-05-29T05:39:38Z</time>
      </trkpt>
      <trkpt lat="46.300967" lon="13.864617">
        <ele>1048.2972525504</ele>
        <time>2016-05-29T05:39:50Z</time>
      </trkpt>
      <trkpt lat="46.300958" lon="13.864615">
        <ele>1048.3272521856</ele>
        <time>2016-05-29T05:39:53Z</time>
      </trkpt>
      <trkpt lat="46.300922" lon="13.864618">
        <ele>1048.287252672</ele>
        <time>2016-05-29T05:39:55Z</time>
      </trkpt>
      <trkpt lat="46.300858" lon="13.864664">
        <ele>1047.8272582656</ele>
        <time>2016-05-29T05:40:02Z</time>
      </trkpt>
      <trkpt lat="46.300773" lon="13.864760">
        <ele>1047.4172632512</ele>
        <time>2016-05-29T05:40:12Z</time>
      </trkpt>
      <trkpt lat="46.300712" lon="13.864813">
        <ele>1047.187266048</ele>
        <time>2016-05-29T05:40:20Z</time>
      </trkpt>
      <trkpt lat="46.300704" lon="13.864823">
        <ele>1046.9472689664</ele>
        <time>2016-05-29T05:40:24Z</time>
      </trkpt>
      <trkpt lat="46.300689" lon="13.864844">
        <ele>1046.9172693312</ele>
        <time>2016-05-29T05:40:25Z</time>
      </trkpt>
      <trkpt lat="46.300653" lon="13.864880">
        <ele>1046.8772698176</ele>
        <time>2016-05-29T05:40:29Z</time>
      </trkpt>
      <trkpt lat="46.300581" lon="13.864958">
        <ele>1046.7072718848</ele>
        <time>2016-05-29T05:40:37Z</time>
      </trkpt>
      <trkpt lat="46.300503" lon="13.865018">
        <ele>1046.3672760192</ele>
        <time>2016-05-29T05:40:45Z</time>
      </trkpt>
      <trkpt lat="46.300419" lon="13.865076">
        <ele>1046.2372776</ele>
        <time>2016-05-29T05:40:56Z</time>
      </trkpt>
      <trkpt lat="46.300347" lon="13.865153">
        <ele>1046.2172778432</ele>
        <time>2016-05-29T05:41:04Z</time>
      </trkpt>
      <trkpt lat="46.300301" lon="13.865219">
        <ele>1045.8772819776</ele>
        <time>2016-05-29T05:41:12Z</time>
      </trkpt>
      <trkpt lat="46.300291" lon="13.865262">
        <ele>1045.0572919488</ele>
        <time>2016-05-29T05:41:19Z</time>
      </trkpt>
      <trkpt lat="46.300236" lon="13.865344">
        <ele>1043.9573053248</ele>
        <time>2016-05-29T05:41:29Z</time>
      </trkpt>
      <trkpt lat="46.300242" lon="13.865395">
        <ele>1043.1773148096</ele>
        <time>2016-05-29T05:41:38Z</time>
      </trkpt>
      <trkpt lat="46.300158" lon="13.865458">
        <ele>1042.0473285504</ele>
        <time>2016-05-29T05:41:50Z</time>
      </trkpt>
      <trkpt lat="46.300152" lon="13.865430">
        <ele>1041.337337184</ele>
        <time>2016-05-29T05:42:01Z</time>
      </trkpt>
      <trkpt lat="46.300125" lon="13.865434">
        <ele>1041.1273397376</ele>
        <time>2016-05-29T05:42:09Z</time>
      </trkpt>
      <trkpt lat="46.300131" lon="13.865435">
        <ele>1040.6673453312</ele>
        <time>2016-05-29T05:42:20Z</time>
      </trkpt>
      <trkpt lat="46.300105" lon="13.865423">
        <ele>1040.4173483712</ele>
        <time>2016-05-29T05:42:36Z</time>
      </trkpt>
      <trkpt lat="46.300084" lon="13.865379">
        <ele>1040.5973461824</ele>
        <time>2016-05-29T05:42:51Z</time>
      </trkpt>
      <trkpt lat="46.300076" lon="13.865376">
        <ele>1040.3673489792</ele>
        <time>2016-05-29T05:43:04Z</time>
      </trkpt>
      <trkpt lat="46.300076" lon="13.865383">
        <ele>1040.4773476416</ele>
        <time>2016-05-29T05:43:18Z</time>
      </trkpt>
      <trkpt lat="46.300027" lon="13.865441">
        <ele>1040.1973510464</ele>
        <time>2016-05-29T05:43:30Z</time>
      </trkpt>
      <trkpt lat="46.299926" lon="13.865533">
        <ele>1037.6673818112</ele>
        <time>2016-05-29T05:43:42Z</time>
      </trkpt>
      <trkpt lat="46.299813" lon="13.865608">
        <ele>1035.1274126976</ele>
        <time>2016-05-29T05:43:53Z</time>
      </trkpt>
      <trkpt lat="46.299736" lon="13.865636">
        <ele>1033.8674280192</ele>
        <time>2016-05-29T05:44:00Z</time>
      </trkpt>
      <trkpt lat="46.299672" lon="13.865636">
        <ele>1032.7574415168</ele>
        <time>2016-05-29T05:44:05Z</time>
      </trkpt>
      <trkpt lat="46.299601" lon="13.865639">
        <ele>1031.3574585408</ele>
        <time>2016-05-29T05:44:12Z</time>
      </trkpt>
      <trkpt lat="46.299550" lon="13.865624">
        <ele>1030.7674657152</ele>
        <time>2016-05-29T05:44:20Z</time>
      </trkpt>
      <trkpt lat="46.299483" lon="13.865593">
        <ele>1030.7974653504</ele>
        <time>2016-05-29T05:44:29Z</time>
      </trkpt>
      <trkpt lat="46.299441" lon="13.865612">
        <ele>1030.7974653504</ele>
        <time>2016-05-29T05:44:36Z</time>
      </trkpt>
      <trkpt lat="46.299410" lon="13.865600">
        <ele>1030.7674657152</ele>
        <time>2016-05-29T05:44:47Z</time>
      </trkpt>
      <trkpt lat="46.299423" lon="13.865578">
        <ele>1030.73746608</ele>
        <time>2016-05-29T05:44:55Z</time>
      </trkpt>
      <trkpt lat="46.299332" lon="13.865547">
        <ele>1030.6474671744</ele>
        <time>2016-05-29T05:45:05Z</time>
      </trkpt>
      <trkpt lat="46.299321" lon="13.865548">
        <ele>1030.6274674176</ele>
        <time>2016-05-29T05:45:06Z</time>
      </trkpt>
      <trkpt lat="46.299256" lon="13.865514">
        <ele>1030.48746912</ele>
        <time>2016-05-29T05:45:10Z</time>
      </trkpt>
      <trkpt lat="46.299171" lon="13.865487">
        <ele>1030.5074688768</ele>
        <time>2016-05-29T05:45:17Z</time>
      </trkpt>
      <trkpt lat="46.299121" lon="13.865473">
        <ele>1030.4974689984</ele>
        <time>2016-05-29T05:45:21Z</time>
      </trkpt>
      <trkpt lat="46.299040" lon="13.865456">
        <ele>1030.4774692416</ele>
        <time>2016-05-29T05:45:26Z</time>
      </trkpt>
      <trkpt lat="46.298995" lon="13.865424">
        <ele>1030.2474720384</ele>
        <time>2016-05-29T05:45:34Z</time>
      </trkpt>
      <trkpt lat="46.298975" lon="13.865406">
        <ele>1030.2574719168</ele>
        <time>2016-05-29T05:45:41Z</time>
      </trkpt>
      <trkpt lat="46.298946" lon="13.865398">
        <ele>1030.2074725248</ele>
        <time>2016-05-29T05:45:42Z</time>
      </trkpt>
      <trkpt lat="46.298823" lon="13.865315">
        <ele>1029.8474769024</ele>
        <time>2016-05-29T05:45:53Z</time>
      </trkpt>
      <trkpt lat="46.298774" lon="13.865282">
        <ele>1029.687478848</ele>
        <time>2016-05-29T05:46:00Z</time>
      </trkpt>
      <trkpt lat="46.298697" lon="13.865203">
        <ele>1029.23748432</ele>
        <time>2016-05-29T05:46:07Z</time>
      </trkpt>
      <trkpt lat="46.298566" lon="13.865182">
        <ele>1028.1774972096</ele>
        <time>2016-05-29T05:46:15Z</time>
      </trkpt>
      <trkpt lat="46.298535" lon="13.865167">
        <ele>1027.387506816</ele>
        <time>2016-05-29T05:46:23Z</time>
      </trkpt>
      <trkpt lat="46.298498" lon="13.865129">
        <ele>1026.9975115584</ele>
        <time>2016-05-29T05:46:31Z</time>
      </trkpt>
      <trkpt lat="46.298488" lon="13.865123">
        <ele>1026.9675119232</ele>
        <time>2016-05-29T05:46:32Z</time>
      </trkpt>
      <trkpt lat="46.298438" lon="13.865091">
        <ele>1026.4075187328</ele>
        <time>2016-05-29T05:46:42Z</time>
      </trkpt>
      <trkpt lat="46.298466" lon="13.865100">
        <ele>1026.1175222592</ele>
        <time>2016-05-29T05:46:50Z</time>
      </trkpt>
      <trkpt lat="46.298442" lon="13.865098">
        <ele>1026.1175222592</ele>
        <time>2016-05-29T05:46:59Z</time>
      </trkpt>
      <trkpt lat="46.298346" lon="13.865048">
        <ele>1025.637528096</ele>
        <time>2016-05-29T05:47:07Z</time>
      </trkpt>
      <trkpt lat="46.298244" lon="13.865004">
        <ele>1024.73753904</ele>
        <time>2016-05-29T05:47:15Z</time>
      </trkpt>
      <trkpt lat="46.298165" lon="13.864941">
        <ele>1023.9275488896</ele>
        <time>2016-05-29T05:47:25Z</time>
      </trkpt>
      <trkpt lat="46.298160" lon="13.864944">
        <ele>1023.837549984</ele>
        <time>2016-05-29T05:47:25Z</time>
      </trkpt>
      <trkpt lat="46.298126" lon="13.865051">
        <ele>1023.3775555776</ele>
        <time>2016-05-29T05:47:36Z</time>
      </trkpt>
      <trkpt lat="46.298128" lon="13.865071">
        <ele>1023.5675532672</ele>
        <time>2016-05-29T05:47:45Z</time>
      </trkpt>
      <trkpt lat="46.298133" lon="13.865094">
        <ele>1023.287556672</ele>
        <time>2016-05-29T05:47:56Z</time>
      </trkpt>
      <trkpt lat="46.298158" lon="13.865057">
        <ele>1023.2275574016</ele>
        <time>2016-05-29T05:48:04Z</time>
      </trkpt>
      <trkpt lat="46.298158" lon="13.864880">
        <ele>1023.0575594688</ele>
        <time>2016-05-29T05:48:12Z</time>
      </trkpt>
      <trkpt lat="46.298161" lon="13.864814">
        <ele>1023.1475583744</ele>
        <time>2016-05-29T05:48:16Z</time>
      </trkpt>
      <trkpt lat="46.298156" lon="13.864785">
        <ele>1023.2175575232</ele>
        <time>2016-05-29T05:48:19Z</time>
      </trkpt>
      <trkpt lat="46.298153" lon="13.864664">
        <ele>1023.787550592</ele>
        <time>2016-05-29T05:48:26Z</time>
      </trkpt>
      <trkpt lat="46.298158" lon="13.864499">
        <ele>1024.9475364864</ele>
        <time>2016-05-29T05:48:35Z</time>
      </trkpt>
      <trkpt lat="46.298170" lon="13.864367">
        <ele>1026.1175222592</ele>
        <time>2016-05-29T05:48:43Z</time>
      </trkpt>
      <trkpt lat="46.298169" lon="13.864279">
        <ele>1027.4975054784</ele>
        <time>2016-05-29T05:48:50Z</time>
      </trkpt>
      <trkpt lat="46.298169" lon="13.864167">
        <ele>1028.98748736</ele>
        <time>2016-05-29T05:49:02Z</time>
      </trkpt>
      <trkpt lat="46.298172" lon="13.864031">
        <ele>1030.9974629184</ele>
        <time>2016-05-29T05:49:13Z</time>
      </trkpt>
      <trkpt lat="46.298188" lon="13.863918">
        <ele>1033.2974349504</ele>
        <time>2016-05-29T05:49:26Z</time>
      </trkpt>
      <trkpt lat="46.298169" lon="13.863852">
        <ele>1035.7274054016</ele>
        <time>2016-05-29T05:49:40Z</time>
      </trkpt>
      <trkpt lat="46.298142" lon="13.863750">
        <ele>1037.7673805952</ele>
        <time>2016-05-29T05:49:53Z</time>
      </trkpt>
      <trkpt lat="46.298127" lon="13.863652">
        <ele>1039.7773561536</ele>
        <time>2016-05-29T05:50:04Z</time>
      </trkpt>
      <trkpt lat="46.298107" lon="13.863581">
        <ele>1041.437335968</ele>
        <time>2016-05-29T05:50:15Z</time>
      </trkpt>
      <trkpt lat="46.298079" lon="13.863419">
        <ele>1042.9073180928</ele>
        <time>2016-05-29T05:50:27Z</time>
      </trkpt>
      <trkpt lat="46.298034" lon="13.863307">
        <ele>1044.0273044736</ele>
        <time>2016-05-29T05:50:38Z</time>
      </trkpt>
      <trkpt lat="46.297987" lon="13.863201">
        <ele>1045.6772844096</ele>
        <time>2016-05-29T05:50:49Z</time>
      </trkpt>
      <trkpt lat="46.297970" lon="13.863192">
        <ele>1046.037280032</ele>
        <time>2016-05-29T05:50:51Z</time>
      </trkpt>
      <trkpt lat="46.297877" lon="13.863133">
        <ele>1047.7172596032</ele>
        <time>2016-05-29T05:51:02Z</time>
      </trkpt>
      <trkpt lat="46.297791" lon="13.863091">
        <ele>1049.337239904</ele>
        <time>2016-05-29T05:51:14Z</time>
      </trkpt>
      <trkpt lat="46.297714" lon="13.863044">
        <ele>1051.5972124224</ele>
        <time>2016-05-29T05:51:27Z</time>
      </trkpt>
      <trkpt lat="46.297689" lon="13.862903">
        <ele>1053.5071891968</ele>
        <time>2016-05-29T05:51:40Z</time>
      </trkpt>
      <trkpt lat="46.297705" lon="13.862796">
        <ele>1055.2971674304</ele>
        <time>2016-05-29T05:51:52Z</time>
      </trkpt>
      <trkpt lat="46.297691" lon="13.862678">
        <ele>1057.2771433536</ele>
        <time>2016-05-29T05:52:04Z</time>
      </trkpt>
      <trkpt lat="46.297650" lon="13.862620">
        <ele>1059.6571144128</ele>
        <time>2016-05-29T05:52:17Z</time>
      </trkpt>
      <trkpt lat="46.297598" lon="13.862562">
        <ele>1061.137096416</ele>
        <time>2016-05-29T05:52:26Z</time>
      </trkpt>
      <trkpt lat="46.297540" lon="13.862506">
        <ele>1062.8170759872</ele>
        <time>2016-05-29T05:52:35Z</time>
      </trkpt>
      <trkpt lat="46.297478" lon="13.862420">
        <ele>1064.3270576256</ele>
        <time>2016-05-29T05:52:46Z</time>
      </trkpt>
      <trkpt lat="46.297411" lon="13.862366">
        <ele>1065.1570475328</ele>
        <time>2016-05-29T05:52:57Z</time>
      </trkpt>
      <trkpt lat="46.297369" lon="13.862238">
        <ele>1065.98703744</ele>
        <time>2016-05-29T05:53:08Z</time>
      </trkpt>
      <trkpt lat="46.297365" lon="13.862230">
        <ele>1066.0570365888</ele>
        <time>2016-05-29T05:53:09Z</time>
      </trkpt>
      <trkpt lat="46.297284" lon="13.862151">
        <ele>1066.8570268608</ele>
        <time>2016-05-29T05:53:20Z</time>
      </trkpt>
      <trkpt lat="46.297267" lon="13.862138">
        <ele>1066.8770266176</ele>
        <time>2016-05-29T05:53:23Z</time>
      </trkpt>
      <trkpt lat="46.297156" lon="13.862015">
        <ele>1067.1170236992</ele>
        <time>2016-05-29T05:53:38Z</time>
      </trkpt>
      <trkpt lat="46.297031" lon="13.861917">
        <ele>1067.9570134848</ele>
        <time>2016-05-29T05:53:51Z</time>
      </trkpt>
      <trkpt lat="46.296952" lon="13.861824">
        <ele>1069.1069995008</ele>
        <time>2016-05-29T05:54:02Z</time>
      </trkpt>
      <trkpt lat="46.296864" lon="13.861752">
        <ele>1070.686980288</ele>
        <time>2016-05-29T05:54:13Z</time>
      </trkpt>
      <trkpt lat="46.296795" lon="13.861645">
        <ele>1071.786966912</ele>
        <time>2016-05-29T05:54:23Z</time>
      </trkpt>
      <trkpt lat="46.296716" lon="13.861487">
        <ele>1073.036951712</ele>
        <time>2016-05-29T05:54:36Z</time>
      </trkpt>
      <trkpt lat="46.296650" lon="13.861385">
        <ele>1073.8469418624</ele>
        <time>2016-05-29T05:54:45Z</time>
      </trkpt>
      <trkpt lat="46.296632" lon="13.861286">
        <ele>1075.1169264192</ele>
        <time>2016-05-29T05:54:57Z</time>
      </trkpt>
      <trkpt lat="46.296592" lon="13.861171">
        <ele>1076.4269104896</ele>
        <time>2016-05-29T05:55:07Z</time>
      </trkpt>
      <trkpt lat="46.296577" lon="13.861073">
        <ele>1076.9169045312</ele>
        <time>2016-05-29T05:55:16Z</time>
      </trkpt>
      <trkpt lat="46.296493" lon="13.860864">
        <ele>1077.98689152</ele>
        <time>2016-05-29T05:55:31Z</time>
      </trkpt>
      <trkpt lat="46.296423" lon="13.860738">
        <ele>1078.636883616</ele>
        <time>2016-05-29T05:55:43Z</time>
      </trkpt>
      <trkpt lat="46.296317" lon="13.860627">
        <ele>1080.3468628224</ele>
        <time>2016-05-29T05:55:55Z</time>
      </trkpt>
      <trkpt lat="46.296241" lon="13.860548">
        <ele>1080.2668637952</ele>
        <time>2016-05-29T05:56:06Z</time>
      </trkpt>
      <trkpt lat="46.296177" lon="13.860475">
        <ele>1080.0268667136</ele>
        <time>2016-05-29T05:56:17Z</time>
      </trkpt>
      <trkpt lat="46.296116" lon="13.860397">
        <ele>1080.036866592</ele>
        <time>2016-05-29T05:56:24Z</time>
      </trkpt>
      <trkpt lat="46.295981" lon="13.860293">
        <ele>1080.4268618496</ele>
        <time>2016-05-29T05:56:37Z</time>
      </trkpt>
      <trkpt lat="46.295891" lon="13.860163">
        <ele>1081.2068523648</ele>
        <time>2016-05-29T05:56:48Z</time>
      </trkpt>
      <trkpt lat="46.295818" lon="13.860065">
        <ele>1082.6168352192</ele>
        <time>2016-05-29T05:56:56Z</time>
      </trkpt>
      <trkpt lat="46.295741" lon="13.859998">
        <ele>1084.4268132096</ele>
        <time>2016-05-29T05:57:08Z</time>
      </trkpt>
      <trkpt lat="46.295665" lon="13.859878">
        <ele>1086.0267937536</ele>
        <time>2016-05-29T05:57:20Z</time>
      </trkpt>
      <trkpt lat="46.295576" lon="13.859795">
        <ele>1087.3567775808</ele>
        <time>2016-05-29T05:57:31Z</time>
      </trkpt>
      <trkpt lat="46.295509" lon="13.859659">
        <ele>1087.8767712576</ele>
        <time>2016-05-29T05:57:43Z</time>
      </trkpt>
      <trkpt lat="46.295487" lon="13.859518">
        <ele>1089.1567556928</ele>
        <time>2016-05-29T05:57:54Z</time>
      </trkpt>
      <trkpt lat="46.295475" lon="13.859337">
        <ele>1089.5467509504</ele>
        <time>2016-05-29T05:58:05Z</time>
      </trkpt>
      <trkpt lat="46.295464" lon="13.859200">
        <ele>1089.9067465728</ele>
        <time>2016-05-29T05:58:14Z</time>
      </trkpt>
      <trkpt lat="46.295436" lon="13.859092">
        <ele>1090.1067441408</ele>
        <time>2016-05-29T05:58:24Z</time>
      </trkpt>
      <trkpt lat="46.295417" lon="13.858968">
        <ele>1090.9567338048</ele>
        <time>2016-05-29T05:58:36Z</time>
      </trkpt>
      <trkpt lat="46.295383" lon="13.858869">
        <ele>1092.1067198208</ele>
        <time>2016-05-29T05:58:45Z</time>
      </trkpt>
      <trkpt lat="46.295333" lon="13.858727">
        <ele>1094.3066930688</ele>
        <time>2016-05-29T05:59:00Z</time>
      </trkpt>
      <trkpt lat="46.295285" lon="13.858633">
        <ele>1096.2466694784</ele>
        <time>2016-05-29T05:59:10Z</time>
      </trkpt>
      <trkpt lat="46.295261" lon="13.858529">
        <ele>1098.1066468608</ele>
        <time>2016-05-29T05:59:20Z</time>
      </trkpt>
      <trkpt lat="46.295237" lon="13.858454">
        <ele>1100.2266210816</ele>
        <time>2016-05-29T05:59:31Z</time>
      </trkpt>
      <trkpt lat="46.295229" lon="13.858327">
        <ele>1102.1665974912</ele>
        <time>2016-05-29T05:59:45Z</time>
      </trkpt>
      <trkpt lat="46.295228" lon="13.858218">
        <ele>1103.9065763328</ele>
        <time>2016-05-29T05:59:58Z</time>
      </trkpt>
      <trkpt lat="46.295189" lon="13.858060">
        <ele>1104.9265639296</ele>
        <time>2016-05-29T06:00:08Z</time>
      </trkpt>
      <trkpt lat="46.295177" lon="13.857868">
        <ele>1106.1465490944</ele>
        <time>2016-05-29T06:00:20Z</time>
      </trkpt>
      <trkpt lat="46.295183" lon="13.857705">
        <ele>1107.936527328</ele>
        <time>2016-05-29T06:00:32Z</time>
      </trkpt>
      <trkpt lat="46.295190" lon="13.857604">
        <ele>1108.9765146816</ele>
        <time>2016-05-29T06:00:41Z</time>
      </trkpt>
      <trkpt lat="46.295189" lon="13.857581">
        <ele>1109.23651152</ele>
        <time>2016-05-29T06:00:44Z</time>
      </trkpt>
      <trkpt lat="46.295187" lon="13.857502">
        <ele>1110.086501184</ele>
        <time>2016-05-29T06:00:55Z</time>
      </trkpt>
      <trkpt lat="46.295158" lon="13.857378">
        <ele>1110.936490848</ele>
        <time>2016-05-29T06:01:07Z</time>
      </trkpt>
      <trkpt lat="46.295134" lon="13.857215">
        <ele>1111.7764806336</ele>
        <time>2016-05-29T06:01:18Z</time>
      </trkpt>
      <trkpt lat="46.295135" lon="13.857078">
        <ele>1112.5964706624</ele>
        <time>2016-05-29T06:01:29Z</time>
      </trkpt>
      <trkpt lat="46.295151" lon="13.856890">
        <ele>1114.186451328</ele>
        <time>2016-05-29T06:01:42Z</time>
      </trkpt>
      <trkpt lat="46.295161" lon="13.856718">
        <ele>1115.5464347904</ele>
        <time>2016-05-29T06:01:54Z</time>
      </trkpt>
      <trkpt lat="46.295126" lon="13.856574">
        <ele>1116.436423968</ele>
        <time>2016-05-29T06:02:06Z</time>
      </trkpt>
      <trkpt lat="46.295080" lon="13.856424">
        <ele>1116.4964232384</ele>
        <time>2016-05-29T06:02:20Z</time>
      </trkpt>
      <trkpt lat="46.295015" lon="13.856281">
        <ele>1117.2964135104</ele>
        <time>2016-05-29T06:02:29Z</time>
      </trkpt>
      <trkpt lat="46.294971" lon="13.856134">
        <ele>1118.4663992832</ele>
        <time>2016-05-29T06:02:42Z</time>
      </trkpt>
      <trkpt lat="46.294926" lon="13.855963">
        <ele>1119.7463837184</ele>
        <time>2016-05-29T06:02:54Z</time>
      </trkpt>
      <trkpt lat="46.294923" lon="13.855845">
        <ele>1120.5463739904</ele>
        <time>2016-05-29T06:03:03Z</time>
      </trkpt>
      <trkpt lat="46.294894" lon="13.855763">
        <ele>1121.5663615872</ele>
        <time>2016-05-29T06:03:13Z</time>
      </trkpt>
      <trkpt lat="46.294883" lon="13.855680">
        <ele>1123.2963405504</ele>
        <time>2016-05-29T06:03:22Z</time>
      </trkpt>
      <trkpt lat="46.294937" lon="13.855622">
        <ele>1124.8763213376</ele>
        <time>2016-05-29T06:03:34Z</time>
      </trkpt>
      <trkpt lat="46.294935" lon="13.855569">
        <ele>1125.886309056</ele>
        <time>2016-05-29T06:03:42Z</time>
      </trkpt>
      <trkpt lat="46.294965" lon="13.855477">
        <ele>1126.3963028544</ele>
        <time>2016-05-29T06:03:52Z</time>
      </trkpt>
      <trkpt lat="46.294991" lon="13.855466">
        <ele>1126.4963016384</ele>
        <time>2016-05-29T06:03:54Z</time>
      </trkpt>
      <trkpt lat="46.295069" lon="13.855445">
        <ele>1126.7262988416</ele>
        <time>2016-05-29T06:04:07Z</time>
      </trkpt>
      <trkpt lat="46.295140" lon="13.855341">
        <ele>1126.4963016384</ele>
        <time>2016-05-29T06:04:17Z</time>
      </trkpt>
      <trkpt lat="46.295225" lon="13.855234">
        <ele>1125.9063088128</ele>
        <time>2016-05-29T06:04:28Z</time>
      </trkpt>
      <trkpt lat="46.295307" lon="13.855143">
        <ele>1125.1563179328</ele>
        <time>2016-05-29T06:04:39Z</time>
      </trkpt>
      <trkpt lat="46.295364" lon="13.855031">
        <ele>1125.0163196352</ele>
        <time>2016-05-29T06:04:47Z</time>
      </trkpt>
      <trkpt lat="46.295397" lon="13.854806">
        <ele>1125.436314528</ele>
        <time>2016-05-29T06:05:01Z</time>
      </trkpt>
      <trkpt lat="46.295438" lon="13.854686">
        <ele>1125.386315136</ele>
        <time>2016-05-29T06:05:11Z</time>
      </trkpt>
      <trkpt lat="46.295433" lon="13.854618">
        <ele>1125.1063185408</ele>
        <time>2016-05-29T06:05:20Z</time>
      </trkpt>
      <trkpt lat="46.295430" lon="13.854607">
        <ele>1125.2163172032</ele>
        <time>2016-05-29T06:05:33Z</time>
      </trkpt>
      <trkpt lat="46.295435" lon="13.854614">
        <ele>1125.2563167168</ele>
        <time>2016-05-29T06:05:34Z</time>
      </trkpt>
      <trkpt lat="46.295482" lon="13.854601">
        <ele>1125.2663165952</ele>
        <time>2016-05-29T06:05:45Z</time>
      </trkpt>
      <trkpt lat="46.295493" lon="13.854456">
        <ele>1125.6663117312</ele>
        <time>2016-05-29T06:05:55Z</time>
      </trkpt>
      <trkpt lat="46.295529" lon="13.854307">
        <ele>1126.8762970176</ele>
        <time>2016-05-29T06:06:07Z</time>
      </trkpt>
      <trkpt lat="46.295559" lon="13.854156">
        <ele>1127.9562838848</ele>
        <time>2016-05-29T06:06:16Z</time>
      </trkpt>
      <trkpt lat="46.295597" lon="13.854016">
        <ele>1128.0062832768</ele>
        <time>2016-05-29T06:06:27Z</time>
      </trkpt>
      <trkpt lat="46.295634" lon="13.853874">
        <ele>1128.3462791424</ele>
        <time>2016-05-29T06:06:39Z</time>
      </trkpt>
      <trkpt lat="46.295701" lon="13.853767">
        <ele>1128.6962748864</ele>
        <time>2016-05-29T06:06:51Z</time>
      </trkpt>
      <trkpt lat="46.295755" lon="13.853645">
        <ele>1129.186268928</ele>
        <time>2016-05-29T06:07:02Z</time>
      </trkpt>
      <trkpt lat="46.295810" lon="13.853496">
        <ele>1129.5562644288</ele>
        <time>2016-05-29T06:07:13Z</time>
      </trkpt>
      <trkpt lat="46.295893" lon="13.853351">
        <ele>1129.9562595648</ele>
        <time>2016-05-29T06:07:24Z</time>
      </trkpt>
      <trkpt lat="46.295939" lon="13.853253">
        <ele>1130.1762568896</ele>
        <time>2016-05-29T06:07:30Z</time>
      </trkpt>
      <trkpt lat="46.295982" lon="13.853154">
        <ele>1129.4562656448</ele>
        <time>2016-05-29T06:07:39Z</time>
      </trkpt>
      <trkpt lat="46.296020" lon="13.853011">
        <ele>1128.9162722112</ele>
        <time>2016-05-29T06:07:48Z</time>
      </trkpt>
      <trkpt lat="46.296055" lon="13.852971">
        <ele>1128.936271968</ele>
        <time>2016-05-29T06:07:52Z</time>
      </trkpt>
      <trkpt lat="46.296123" lon="13.852867">
        <ele>1128.6462754944</ele>
        <time>2016-05-29T06:07:57Z</time>
      </trkpt>
      <trkpt lat="46.296152" lon="13.852781">
        <ele>1128.48627744</ele>
        <time>2016-05-29T06:08:03Z</time>
      </trkpt>
      <trkpt lat="46.296192" lon="13.852664">
        <ele>1127.686287168</ele>
        <time>2016-05-29T06:08:11Z</time>
      </trkpt>
      <trkpt lat="46.296230" lon="13.852593">
        <ele>1127.1962931264</ele>
        <time>2016-05-29T06:08:16Z</time>
      </trkpt>
      <trkpt lat="46.296224" lon="13.852480">
        <ele>1127.0762945856</ele>
        <time>2016-05-29T06:08:23Z</time>
      </trkpt>
      <trkpt lat="46.296259" lon="13.852332">
        <ele>1127.3062917888</ele>
        <time>2016-05-29T06:08:34Z</time>
      </trkpt>
      <trkpt lat="46.296281" lon="13.852240">
        <ele>1127.5162892352</ele>
        <time>2016-05-29T06:08:41Z</time>
      </trkpt>
      <trkpt lat="46.296342" lon="13.852080">
        <ele>1128.0762824256</ele>
        <time>2016-05-29T06:08:51Z</time>
      </trkpt>
      <trkpt lat="46.296373" lon="13.851937">
        <ele>1128.48627744</ele>
        <time>2016-05-29T06:09:01Z</time>
      </trkpt>
      <trkpt lat="46.296399" lon="13.851833">
        <ele>1129.3162673472</ele>
        <time>2016-05-29T06:09:09Z</time>
      </trkpt>
      <trkpt lat="46.296388" lon="13.851733">
        <ele>1130.4762532416</ele>
        <time>2016-05-29T06:09:17Z</time>
      </trkpt>
      <trkpt lat="46.296414" lon="13.851652">
        <ele>1132.3262307456</ele>
        <time>2016-05-29T06:09:29Z</time>
      </trkpt>
      <trkpt lat="46.296450" lon="13.851567">
        <ele>1134.4462049664</ele>
        <time>2016-05-29T06:09:43Z</time>
      </trkpt>
      <trkpt lat="46.296492" lon="13.851511">
        <ele>1136.1461842944</ele>
        <time>2016-05-29T06:09:54Z</time>
      </trkpt>
      <trkpt lat="46.296532" lon="13.851412">
        <ele>1138.5461551104</ele>
        <time>2016-05-29T06:10:07Z</time>
      </trkpt>
      <trkpt lat="46.296574" lon="13.851332">
        <ele>1140.6961289664</ele>
        <time>2016-05-29T06:10:19Z</time>
      </trkpt>
      <trkpt lat="46.296593" lon="13.851264">
        <ele>1143.1560990528</ele>
        <time>2016-05-29T06:10:30Z</time>
      </trkpt>
      <trkpt lat="46.296579" lon="13.851179">
        <ele>1145.4660709632</ele>
        <time>2016-05-29T06:10:44Z</time>
      </trkpt>
      <trkpt lat="46.296605" lon="13.851054">
        <ele>1147.98604032</ele>
        <time>2016-05-29T06:10:57Z</time>
      </trkpt>
      <trkpt lat="46.296651" lon="13.850959">
        <ele>1150.1660138112</ele>
        <time>2016-05-29T06:11:09Z</time>
      </trkpt>
      <trkpt lat="46.296705" lon="13.850974">
        <ele>1151.0260033536</ele>
        <time>2016-05-29T06:11:24Z</time>
      </trkpt>
      <trkpt lat="46.296736" lon="13.850971">
        <ele>1150.9160046912</ele>
        <time>2016-05-29T06:11:31Z</time>
      </trkpt>
      <trkpt lat="46.296750" lon="13.850975">
        <ele>1150.8960049344</ele>
        <time>2016-05-29T06:11:32Z</time>
      </trkpt>
      <trkpt lat="46.296822" lon="13.850971">
        <ele>1151.0160034752</ele>
        <time>2016-05-29T06:11:42Z</time>
      </trkpt>
      <trkpt lat="46.296825" lon="13.850915">
        <ele>1150.9960037184</ele>
        <time>2016-05-29T06:11:52Z</time>
      </trkpt>
      <trkpt lat="46.296792" lon="13.850912">
        <ele>1151.1260021376</ele>
        <time>2016-05-29T06:11:55Z</time>
      </trkpt>
      <trkpt lat="46.296667" lon="13.850911">
        <ele>1151.3959988544</ele>
        <time>2016-05-29T06:12:11Z</time>
      </trkpt>
      <trkpt lat="46.296605" lon="13.850899">
        <ele>1151.1960012864</ele>
        <time>2016-05-29T06:12:26Z</time>
      </trkpt>
      <trkpt lat="46.296586" lon="13.850928">
        <ele>1151.4459982464</ele>
        <time>2016-05-29T06:12:42Z</time>
      </trkpt>
      <trkpt lat="46.296578" lon="13.850940">
        <ele>1151.5259972736</ele>
        <time>2016-05-29T06:12:56Z</time>
      </trkpt>
      <trkpt lat="46.296592" lon="13.850988">
        <ele>1151.4959976384</ele>
        <time>2016-05-29T06:13:09Z</time>
      </trkpt>
      <trkpt lat="46.296528" lon="13.850900">
        <ele>1151.3659992192</ele>
        <time>2016-05-29T06:13:26Z</time>
      </trkpt>
      <trkpt lat="46.296539" lon="13.850863">
        <ele>1151.385998976</ele>
        <time>2016-05-29T06:13:43Z</time>
      </trkpt>
      <trkpt lat="46.296509" lon="13.850789">
        <ele>1151.5159973952</ele>
        <time>2016-05-29T06:13:58Z</time>
      </trkpt>
      <trkpt lat="46.296511" lon="13.850732">
        <ele>1151.4959976384</ele>
        <time>2016-05-29T06:14:13Z</time>
      </trkpt>
      <trkpt lat="46.296566" lon="13.850746">
        <ele>1151.9059926528</ele>
        <time>2016-05-29T06:14:22Z</time>
      </trkpt>
      <trkpt lat="46.296625" lon="13.850719">
        <ele>1153.385974656</ele>
        <time>2016-05-29T06:14:33Z</time>
      </trkpt>
      <trkpt lat="46.296667" lon="13.850652">
        <ele>1155.5559482688</ele>
        <time>2016-05-29T06:14:45Z</time>
      </trkpt>
      <trkpt lat="46.296706" lon="13.850606">
        <ele>1157.8559203008</ele>
        <time>2016-05-29T06:14:56Z</time>
      </trkpt>
      <trkpt lat="46.296738" lon="13.850513">
        <ele>1160.1658922112</ele>
        <time>2016-05-29T06:15:08Z</time>
      </trkpt>
      <trkpt lat="46.296769" lon="13.850419">
        <ele>1162.2158672832</ele>
        <time>2016-05-29T06:15:19Z</time>
      </trkpt>
      <trkpt lat="46.296778" lon="13.850329">
        <ele>1164.035845152</ele>
        <time>2016-05-29T06:15:31Z</time>
      </trkpt>
      <trkpt lat="46.296796" lon="13.850268">
        <ele>1165.5058272768</ele>
        <time>2016-05-29T06:15:39Z</time>
      </trkpt>
      <trkpt lat="46.296791" lon="13.850190">
        <ele>1167.4858032</ele>
        <time>2016-05-29T06:15:50Z</time>
      </trkpt>
      <trkpt lat="46.296796" lon="13.850073">
        <ele>1169.8957738944</ele>
        <time>2016-05-29T06:16:02Z</time>
      </trkpt>
      <trkpt lat="46.296784" lon="13.849957">
        <ele>1171.9757486016</ele>
        <time>2016-05-29T06:16:14Z</time>
      </trkpt>
      <trkpt lat="46.296784" lon="13.849827">
        <ele>1173.6557281728</ele>
        <time>2016-05-29T06:16:25Z</time>
      </trkpt>
      <trkpt lat="46.296766" lon="13.849785">
        <ele>1174.2157213632</ele>
        <time>2016-05-29T06:16:32Z</time>
      </trkpt>
      <trkpt lat="46.296716" lon="13.849650">
        <ele>1176.0656988672</ele>
        <time>2016-05-29T06:16:44Z</time>
      </trkpt>
      <trkpt lat="46.296706" lon="13.849518">
        <ele>1178.2256726016</ele>
        <time>2016-05-29T06:16:56Z</time>
      </trkpt>
      <trkpt lat="46.296679" lon="13.849389">
        <ele>1180.2456480384</ele>
        <time>2016-05-29T06:17:10Z</time>
      </trkpt>
      <trkpt lat="46.296621" lon="13.849262">
        <ele>1181.7756294336</ele>
        <time>2016-05-29T06:17:22Z</time>
      </trkpt>
      <trkpt lat="46.296606" lon="13.849147">
        <ele>1183.0456139904</ele>
        <time>2016-05-29T06:17:31Z</time>
      </trkpt>
      <trkpt lat="46.296606" lon="13.849034">
        <ele>1184.1456006144</ele>
        <time>2016-05-29T06:17:41Z</time>
      </trkpt>
      <trkpt lat="46.296612" lon="13.848899">
        <ele>1185.085589184</ele>
        <time>2016-05-29T06:17:50Z</time>
      </trkpt>
      <trkpt lat="46.296600" lon="13.848766">
        <ele>1186.2355752</ele>
        <time>2016-05-29T06:18:01Z</time>
      </trkpt>
      <trkpt lat="46.296585" lon="13.848644">
        <ele>1187.7055573248</ele>
        <time>2016-05-29T06:18:13Z</time>
      </trkpt>
      <trkpt lat="46.296599" lon="13.848464">
        <ele>1189.1555396928</ele>
        <time>2016-05-29T06:18:27Z</time>
      </trkpt>
      <trkpt lat="46.296602" lon="13.848300">
        <ele>1190.1555275328</ele>
        <time>2016-05-29T06:18:40Z</time>
      </trkpt>
      <trkpt lat="46.296589" lon="13.848159">
        <ele>1191.7255084416</ele>
        <time>2016-05-29T06:18:52Z</time>
      </trkpt>
      <trkpt lat="46.296567" lon="13.848017">
        <ele>1193.4954869184</ele>
        <time>2016-05-29T06:19:03Z</time>
      </trkpt>
      <trkpt lat="46.296491" lon="13.847931">
        <ele>1195.7054600448</ele>
        <time>2016-05-29T06:19:17Z</time>
      </trkpt>
      <trkpt lat="46.296445" lon="13.847785">
        <ele>1197.6054369408</ele>
        <time>2016-05-29T06:19:29Z</time>
      </trkpt>
      <trkpt lat="46.296428" lon="13.847736">
        <ele>1197.8954334144</ele>
        <time>2016-05-29T06:19:33Z</time>
      </trkpt>
      <trkpt lat="46.296360" lon="13.847640">
        <ele>1199.7654106752</ele>
        <time>2016-05-29T06:19:46Z</time>
      </trkpt>
      <trkpt lat="46.296314" lon="13.847563">
        <ele>1201.435390368</ele>
        <time>2016-05-29T06:19:57Z</time>
      </trkpt>
      <trkpt lat="46.296278" lon="13.847509">
        <ele>1203.9053603328</ele>
        <time>2016-05-29T06:20:09Z</time>
      </trkpt>
      <trkpt lat="46.296225" lon="13.847429">
        <ele>1206.2753315136</ele>
        <time>2016-05-29T06:20:21Z</time>
      </trkpt>
      <trkpt lat="46.296188" lon="13.847373">
        <ele>1208.1253090176</ele>
        <time>2016-05-29T06:20:32Z</time>
      </trkpt>
      <trkpt lat="46.296156" lon="13.847325">
        <ele>1210.3952814144</ele>
        <time>2016-05-29T06:20:44Z</time>
      </trkpt>
      <trkpt lat="46.296106" lon="13.847250">
        <ele>1212.7252530816</ele>
        <time>2016-05-29T06:20:58Z</time>
      </trkpt>
      <trkpt lat="46.296081" lon="13.847135">
        <ele>1215.1952230464</ele>
        <time>2016-05-29T06:21:11Z</time>
      </trkpt>
      <trkpt lat="46.296081" lon="13.847046">
        <ele>1216.8752026176</ele>
        <time>2016-05-29T06:21:23Z</time>
      </trkpt>
      <trkpt lat="46.296039" lon="13.847010">
        <ele>1217.2751977536</ele>
        <time>2016-05-29T06:21:37Z</time>
      </trkpt>
      <trkpt lat="46.296041" lon="13.847008">
        <ele>1217.0152009152</ele>
        <time>2016-05-29T06:21:50Z</time>
      </trkpt>
      <trkpt lat="46.296079" lon="13.847030">
        <ele>1217.1751989696</ele>
        <time>2016-05-29T06:22:04Z</time>
      </trkpt>
      <trkpt lat="46.296068" lon="13.847001">
        <ele>1217.1751989696</ele>
        <time>2016-05-29T06:22:08Z</time>
      </trkpt>
      <trkpt lat="46.296042" lon="13.847000">
        <ele>1217.3051973888</ele>
        <time>2016-05-29T06:22:21Z</time>
      </trkpt>
      <trkpt lat="46.296065" lon="13.847016">
        <ele>1217.23519824</ele>
        <time>2016-05-29T06:22:30Z</time>
      </trkpt>
      <trkpt lat="46.296056" lon="13.846922">
        <ele>1217.1151996992</ele>
        <time>2016-05-29T06:22:39Z</time>
      </trkpt>
      <trkpt lat="46.296066" lon="13.846900">
        <ele>1217.2151984832</ele>
        <time>2016-05-29T06:22:51Z</time>
      </trkpt>
      <trkpt lat="46.296050" lon="13.846883">
        <ele>1218.3451847424</ele>
        <time>2016-05-29T06:23:02Z</time>
      </trkpt>
      <trkpt lat="46.296025" lon="13.846806">
        <ele>1220.1051633408</ele>
        <time>2016-05-29T06:23:14Z</time>
      </trkpt>
      <trkpt lat="46.296038" lon="13.846732">
        <ele>1221.7951427904</ele>
        <time>2016-05-29T06:23:24Z</time>
      </trkpt>
      <trkpt lat="46.296054" lon="13.846626">
        <ele>1223.7051195648</ele>
        <time>2016-05-29T06:23:37Z</time>
      </trkpt>
      <trkpt lat="46.296044" lon="13.846491">
        <ele>1225.3051001088</ele>
        <time>2016-05-29T06:23:48Z</time>
      </trkpt>
      <trkpt lat="46.296028" lon="13.846362">
        <ele>1226.1150902592</ele>
        <time>2016-05-29T06:23:57Z</time>
      </trkpt>
      <trkpt lat="46.296025" lon="13.846231">
        <ele>1227.6050721408</ele>
        <time>2016-05-29T06:24:09Z</time>
      </trkpt>
      <trkpt lat="46.295992" lon="13.846157">
        <ele>1229.4150501312</ele>
        <time>2016-05-29T06:24:19Z</time>
      </trkpt>
      <trkpt lat="46.295965" lon="13.846059">
        <ele>1231.885020096</ele>
        <time>2016-05-29T06:24:32Z</time>
      </trkpt>
      <trkpt lat="46.295938" lon="13.845954">
        <ele>1233.6249989376</ele>
        <time>2016-05-29T06:24:43Z</time>
      </trkpt>
      <trkpt lat="46.295931" lon="13.845882">
        <ele>1235.1149808192</ele>
        <time>2016-05-29T06:24:54Z</time>
      </trkpt>
      <trkpt lat="46.295915" lon="13.845763">
        <ele>1236.9949579584</ele>
        <time>2016-05-29T06:25:05Z</time>
      </trkpt>
      <trkpt lat="46.295889" lon="13.845668">
        <ele>1237.7549487168</ele>
        <time>2016-05-29T06:25:14Z</time>
      </trkpt>
      <trkpt lat="46.295825" lon="13.845540">
        <ele>1237.484952</ele>
        <time>2016-05-29T06:25:25Z</time>
      </trkpt>
      <trkpt lat="46.295778" lon="13.845462">
        <ele>1238.0249454336</ele>
        <time>2016-05-29T06:25:36Z</time>
      </trkpt>
      <trkpt lat="46.295722" lon="13.845384">
        <ele>1239.1949312064</ele>
        <time>2016-05-29T06:25:44Z</time>
      </trkpt>
      <trkpt lat="46.295645" lon="13.845261">
        <ele>1239.2649303552</ele>
        <time>2016-05-29T06:25:56Z</time>
      </trkpt>
      <trkpt lat="46.295619" lon="13.845127">
        <ele>1238.5949385024</ele>
        <time>2016-05-29T06:26:04Z</time>
      </trkpt>
      <trkpt lat="46.295604" lon="13.844997">
        <ele>1238.0049456768</ele>
        <time>2016-05-29T06:26:15Z</time>
      </trkpt>
      <trkpt lat="46.295601" lon="13.844854">
        <ele>1239.4649279232</ele>
        <time>2016-05-29T06:26:27Z</time>
      </trkpt>
      <trkpt lat="46.295584" lon="13.844702">
        <ele>1241.8948983744</ele>
        <time>2016-05-29T06:26:41Z</time>
      </trkpt>
      <trkpt lat="46.295558" lon="13.844606">
        <ele>1243.6248773376</ele>
        <time>2016-05-29T06:26:51Z</time>
      </trkpt>
      <trkpt lat="46.295552" lon="13.844494">
        <ele>1245.4948545984</ele>
        <time>2016-05-29T06:27:04Z</time>
      </trkpt>
      <trkpt lat="46.295539" lon="13.844377">
        <ele>1246.9748366016</ele>
        <time>2016-05-29T06:27:14Z</time>
      </trkpt>
      <trkpt lat="46.295492" lon="13.844228">
        <ele>1247.7148276032</ele>
        <time>2016-05-29T06:27:27Z</time>
      </trkpt>
      <trkpt lat="46.295435" lon="13.844114">
        <ele>1248.0948229824</ele>
        <time>2016-05-29T06:27:37Z</time>
      </trkpt>
      <trkpt lat="46.295384" lon="13.844008">
        <ele>1249.2248092416</ele>
        <time>2016-05-29T06:27:48Z</time>
      </trkpt>
      <trkpt lat="46.295349" lon="13.843909">
        <ele>1251.0247873536</ele>
        <time>2016-05-29T06:27:59Z</time>
      </trkpt>
      <trkpt lat="46.295340" lon="13.843771">
        <ele>1252.1747733696</ele>
        <time>2016-05-29T06:28:10Z</time>
      </trkpt>
      <trkpt lat="46.295311" lon="13.843619">
        <ele>1253.6247557376</ele>
        <time>2016-05-29T06:28:21Z</time>
      </trkpt>
      <trkpt lat="46.295292" lon="13.843509">
        <ele>1255.0047389568</ele>
        <time>2016-05-29T06:28:31Z</time>
      </trkpt>
      <trkpt lat="46.295260" lon="13.843397">
        <ele>1256.8447165824</ele>
        <time>2016-05-29T06:28:42Z</time>
      </trkpt>
      <trkpt lat="46.295221" lon="13.843257">
        <ele>1257.584707584</ele>
        <time>2016-05-29T06:28:53Z</time>
      </trkpt>
      <trkpt lat="46.295206" lon="13.843163">
        <ele>1257.4847088</ele>
        <time>2016-05-29T06:29:01Z</time>
      </trkpt>
      <trkpt lat="46.295201" lon="13.843055">
        <ele>1257.4647090432</ele>
        <time>2016-05-29T06:29:11Z</time>
      </trkpt>
      <trkpt lat="46.295185" lon="13.842953">
        <ele>1259.2146877632</ele>
        <time>2016-05-29T06:29:23Z</time>
      </trkpt>
      <trkpt lat="46.295206" lon="13.842870">
        <ele>1261.1546641728</ele>
        <time>2016-05-29T06:29:35Z</time>
      </trkpt>
      <trkpt lat="46.295210" lon="13.842769">
        <ele>1263.084640704</ele>
        <time>2016-05-29T06:29:47Z</time>
      </trkpt>
      <trkpt lat="46.295223" lon="13.842677">
        <ele>1265.2546143168</ele>
        <time>2016-05-29T06:29:59Z</time>
      </trkpt>
      <trkpt lat="46.295216" lon="13.842534">
        <ele>1267.434587808</ele>
        <time>2016-05-29T06:30:11Z</time>
      </trkpt>
      <trkpt lat="46.295190" lon="13.842424">
        <ele>1269.23456592</ele>
        <time>2016-05-29T06:30:22Z</time>
      </trkpt>
      <trkpt lat="46.295144" lon="13.842289">
        <ele>1271.4045395328</ele>
        <time>2016-05-29T06:30:34Z</time>
      </trkpt>
      <trkpt lat="46.295142" lon="13.842269">
        <ele>1272.8545219008</ele>
        <time>2016-05-29T06:30:45Z</time>
      </trkpt>
      <trkpt lat="46.295135" lon="13.842230">
        <ele>1273.0945189824</ele>
        <time>2016-05-29T06:30:59Z</time>
      </trkpt>
      <trkpt lat="46.295152" lon="13.842222">
        <ele>1273.0245198336</ele>
        <time>2016-05-29T06:31:12Z</time>
      </trkpt>
      <trkpt lat="46.295161" lon="13.842222">
        <ele>1272.9545206848</ele>
        <time>2016-05-29T06:31:24Z</time>
      </trkpt>
      <trkpt lat="46.295180" lon="13.842251">
        <ele>1272.7545231168</ele>
        <time>2016-05-29T06:31:38Z</time>
      </trkpt>
      <trkpt lat="46.295167" lon="13.842287">
        <ele>1272.7245234816</ele>
        <time>2016-05-29T06:31:48Z</time>
      </trkpt>
      <trkpt lat="46.295171" lon="13.842344">
        <ele>1272.584525184</ele>
        <time>2016-05-29T06:32:03Z</time>
      </trkpt>
      <trkpt lat="46.295180" lon="13.842349">
        <ele>1272.6945238464</ele>
        <time>2016-05-29T06:32:18Z</time>
      </trkpt>
      <trkpt lat="46.295151" lon="13.842330">
        <ele>1273.1545182528</ele>
        <time>2016-05-29T06:32:29Z</time>
      </trkpt>
      <trkpt lat="46.295153" lon="13.842340">
        <ele>1272.8445220224</ele>
        <time>2016-05-29T06:32:40Z</time>
      </trkpt>
      <trkpt lat="46.295148" lon="13.842321">
        <ele>1272.7445232384</ele>
        <time>2016-05-29T06:32:52Z</time>
      </trkpt>
      <trkpt lat="46.295147" lon="13.842290">
        <ele>1272.6245246976</ele>
        <time>2016-05-29T06:33:04Z</time>
      </trkpt>
      <trkpt lat="46.295181" lon="13.842272">
        <ele>1273.6245125376</ele>
        <time>2016-05-29T06:33:15Z</time>
      </trkpt>
      <trkpt lat="46.295183" lon="13.842178">
        <ele>1275.184493568</ele>
        <time>2016-05-29T06:33:24Z</time>
      </trkpt>
      <trkpt lat="46.295176" lon="13.842066">
        <ele>1276.5144773952</ele>
        <time>2016-05-29T06:33:35Z</time>
      </trkpt>
      <trkpt lat="46.295185" lon="13.841917">
        <ele>1278.2744559936</ele>
        <time>2016-05-29T06:33:47Z</time>
      </trkpt>
      <trkpt lat="46.295182" lon="13.841755">
        <ele>1279.9644354432</ele>
        <time>2016-05-29T06:34:01Z</time>
      </trkpt>
      <trkpt lat="46.295193" lon="13.841658">
        <ele>1281.3544185408</ele>
        <time>2016-05-29T06:34:12Z</time>
      </trkpt>
      <trkpt lat="46.295262" lon="13.841551">
        <ele>1282.7544015168</ele>
        <time>2016-05-29T06:34:22Z</time>
      </trkpt>
      <trkpt lat="46.295293" lon="13.841509">
        <ele>1284.5443797504</ele>
        <time>2016-05-29T06:34:33Z</time>
      </trkpt>
      <trkpt lat="46.295336" lon="13.841458">
        <ele>1285.0243739136</ele>
        <time>2016-05-29T06:34:44Z</time>
      </trkpt>
      <trkpt lat="46.295337" lon="13.841462">
        <ele>1285.084373184</ele>
        <time>2016-05-29T06:34:57Z</time>
      </trkpt>
      <trkpt lat="46.295337" lon="13.841476">
        <ele>1284.8443761024</ele>
        <time>2016-05-29T06:35:11Z</time>
      </trkpt>
      <trkpt lat="46.295347" lon="13.841454">
        <ele>1285.0043741568</ele>
        <time>2016-05-29T06:35:26Z</time>
      </trkpt>
      <trkpt lat="46.295309" lon="13.841285">
        <ele>1285.434368928</ele>
        <time>2016-05-29T06:35:37Z</time>
      </trkpt>
      <trkpt lat="46.295269" lon="13.841087">
        <ele>1285.384369536</ele>
        <time>2016-05-29T06:35:47Z</time>
      </trkpt>
      <trkpt lat="46.295283" lon="13.840923">
        <ele>1284.4743806016</ele>
        <time>2016-05-29T06:36:00Z</time>
      </trkpt>
      <trkpt lat="46.295299" lon="13.840801">
        <ele>1285.23437136</ele>
        <time>2016-05-29T06:36:09Z</time>
      </trkpt>
      <trkpt lat="46.295311" lon="13.840672">
        <ele>1285.384369536</ele>
        <time>2016-05-29T06:36:18Z</time>
      </trkpt>
      <trkpt lat="46.295362" lon="13.840639">
        <ele>1285.4143691712</ele>
        <time>2016-05-29T06:36:27Z</time>
      </trkpt>
      <trkpt lat="46.295341" lon="13.840557">
        <ele>1286.3643576192</ele>
        <time>2016-05-29T06:36:36Z</time>
      </trkpt>
      <trkpt lat="46.295373" lon="13.840423">
        <ele>1286.9143509312</ele>
        <time>2016-05-29T06:36:45Z</time>
      </trkpt>
      <trkpt lat="46.295407" lon="13.840244">
        <ele>1288.3543334208</ele>
        <time>2016-05-29T06:36:59Z</time>
      </trkpt>
      <trkpt lat="46.295406" lon="13.840054">
        <ele>1290.0743125056</ele>
        <time>2016-05-29T06:37:11Z</time>
      </trkpt>
      <trkpt lat="46.295403" lon="13.839984">
        <ele>1291.5942940224</ele>
        <time>2016-05-29T06:37:19Z</time>
      </trkpt>
      <trkpt lat="46.295316" lon="13.839856">
        <ele>1292.584281984</ele>
        <time>2016-05-29T06:37:30Z</time>
      </trkpt>
      <trkpt lat="46.295306" lon="13.839846">
        <ele>1292.6642810112</ele>
        <time>2016-05-29T06:37:30Z</time>
      </trkpt>
      <trkpt lat="46.295287" lon="13.839808">
        <ele>1292.9142779712</ele>
        <time>2016-05-29T06:37:38Z</time>
      </trkpt>
      <trkpt lat="46.295264" lon="13.839723">
        <ele>1292.9742772416</ele>
        <time>2016-05-29T06:37:49Z</time>
      </trkpt>
      <trkpt lat="46.295233" lon="13.839726">
        <ele>1293.9642652032</ele>
        <time>2016-05-29T06:38:00Z</time>
      </trkpt>
      <trkpt lat="46.295185" lon="13.839696">
        <ele>1294.5642579072</ele>
        <time>2016-05-29T06:38:09Z</time>
      </trkpt>
      <trkpt lat="46.295117" lon="13.839590">
        <ele>1296.0642396672</ele>
        <time>2016-05-29T06:38:20Z</time>
      </trkpt>
      <trkpt lat="46.295082" lon="13.839512">
        <ele>1297.4642226432</ele>
        <time>2016-05-29T06:38:29Z</time>
      </trkpt>
      <trkpt lat="46.295060" lon="13.839413">
        <ele>1298.634208416</ele>
        <time>2016-05-29T06:38:39Z</time>
      </trkpt>
      <trkpt lat="46.295054" lon="13.839279">
        <ele>1300.2741884736</ele>
        <time>2016-05-29T06:38:50Z</time>
      </trkpt>
      <trkpt lat="46.295056" lon="13.839175">
        <ele>1300.9741799616</ele>
        <time>2016-05-29T06:38:59Z</time>
      </trkpt>
      <trkpt lat="46.295036" lon="13.839034">
        <ele>1302.2141648832</ele>
        <time>2016-05-29T06:39:10Z</time>
      </trkpt>
      <trkpt lat="46.295016" lon="13.838863">
        <ele>1303.9741434816</ele>
        <time>2016-05-29T06:39:22Z</time>
      </trkpt>
      <trkpt lat="46.294993" lon="13.838786">
        <ele>1305.8141211072</ele>
        <time>2016-05-29T06:39:32Z</time>
      </trkpt>
      <trkpt lat="46.294973" lon="13.838706">
        <ele>1307.6240990976</ele>
        <time>2016-05-29T06:39:42Z</time>
      </trkpt>
      <trkpt lat="46.294970" lon="13.838620">
        <ele>1309.8740717376</ele>
        <time>2016-05-29T06:39:53Z</time>
      </trkpt>
      <trkpt lat="46.294972" lon="13.838566">
        <ele>1312.0140457152</ele>
        <time>2016-05-29T06:40:07Z</time>
      </trkpt>
      <trkpt lat="46.294996" lon="13.838543">
        <ele>1312.4440404864</ele>
        <time>2016-05-29T06:40:23Z</time>
      </trkpt>
      <trkpt lat="46.295031" lon="13.838533">
        <ele>1312.8240358656</ele>
        <time>2016-05-29T06:40:38Z</time>
      </trkpt>
      <trkpt lat="46.295012" lon="13.838538">
        <ele>1312.8140359872</ele>
        <time>2016-05-29T06:40:48Z</time>
      </trkpt>
      <trkpt lat="46.294981" lon="13.838562">
        <ele>1312.834035744</ele>
        <time>2016-05-29T06:41:06Z</time>
      </trkpt>
      <trkpt lat="46.295040" lon="13.838563">
        <ele>1313.0440331904</ele>
        <time>2016-05-29T06:41:20Z</time>
      </trkpt>
      <trkpt lat="46.295041" lon="13.838567">
        <ele>1313.1740316096</ele>
        <time>2016-05-29T06:41:32Z</time>
      </trkpt>
      <trkpt lat="46.295038" lon="13.838547">
        <ele>1313.2240310016</ele>
        <time>2016-05-29T06:41:48Z</time>
      </trkpt>
      <trkpt lat="46.295038" lon="13.838574">
        <ele>1313.2140311232</ele>
        <time>2016-05-29T06:42:00Z</time>
      </trkpt>
      <trkpt lat="46.295039" lon="13.838577">
        <ele>1313.434028448</ele>
        <time>2016-05-29T06:42:12Z</time>
      </trkpt>
      <trkpt lat="46.295003" lon="13.838566">
        <ele>1313.5940265024</ele>
        <time>2016-05-29T06:42:27Z</time>
      </trkpt>
      <trkpt lat="46.295002" lon="13.838530">
        <ele>1314.8940106944</ele>
        <time>2016-05-29T06:42:39Z</time>
      </trkpt>
      <trkpt lat="46.295011" lon="13.838485">
        <ele>1317.1439833344</ele>
        <time>2016-05-29T06:42:50Z</time>
      </trkpt>
      <trkpt lat="46.295020" lon="13.838414">
        <ele>1319.2139581632</ele>
        <time>2016-05-29T06:43:02Z</time>
      </trkpt>
      <trkpt lat="46.295017" lon="13.838312">
        <ele>1321.7939267904</ele>
        <time>2016-05-29T06:43:14Z</time>
      </trkpt>
      <trkpt lat="46.295014" lon="13.838201">
        <ele>1324.6638918912</ele>
        <time>2016-05-29T06:43:26Z</time>
      </trkpt>
      <trkpt lat="46.294989" lon="13.838142">
        <ele>1326.7938659904</ele>
        <time>2016-05-29T06:43:37Z</time>
      </trkpt>
      <trkpt lat="46.294960" lon="13.838104">
        <ele>1328.8138414272</ele>
        <time>2016-05-29T06:43:47Z</time>
      </trkpt>
      <trkpt lat="46.294875" lon="13.838061">
        <ele>1330.8738163776</ele>
        <time>2016-05-29T06:44:00Z</time>
      </trkpt>
      <trkpt lat="46.294831" lon="13.837996">
        <ele>1332.2737993536</ele>
        <time>2016-05-29T06:44:11Z</time>
      </trkpt>
      <trkpt lat="46.294841" lon="13.838000">
        <ele>1332.583795584</ele>
        <time>2016-05-29T06:44:23Z</time>
      </trkpt>
      <trkpt lat="46.294833" lon="13.838052">
        <ele>1332.6637946112</ele>
        <time>2016-05-29T06:44:37Z</time>
      </trkpt>
      <trkpt lat="46.294821" lon="13.838029">
        <ele>1332.5137964352</ele>
        <time>2016-05-29T06:44:49Z</time>
      </trkpt>
      <trkpt lat="46.294786" lon="13.837949">
        <ele>1333.1037892608</ele>
        <time>2016-05-29T06:45:01Z</time>
      </trkpt>
      <trkpt lat="46.294753" lon="13.837841">
        <ele>1335.0037661568</ele>
        <time>2016-05-29T06:45:13Z</time>
      </trkpt>
      <trkpt lat="46.294726" lon="13.837701">
        <ele>1337.5437352704</ele>
        <time>2016-05-29T06:45:25Z</time>
      </trkpt>
      <trkpt lat="46.294693" lon="13.837515">
        <ele>1338.7737203136</ele>
        <time>2016-05-29T06:45:37Z</time>
      </trkpt>
      <trkpt lat="46.294667" lon="13.837379">
        <ele>1339.1437158144</ele>
        <time>2016-05-29T06:45:47Z</time>
      </trkpt>
      <trkpt lat="46.294641" lon="13.837321">
        <ele>1339.4537120448</ele>
        <time>2016-05-29T06:45:54Z</time>
      </trkpt>
      <trkpt lat="46.294583" lon="13.837205">
        <ele>1339.9737057216</ele>
        <time>2016-05-29T06:46:03Z</time>
      </trkpt>
      <trkpt lat="46.294504" lon="13.837091">
        <ele>1340.2637021952</ele>
        <time>2016-05-29T06:46:15Z</time>
      </trkpt>
      <trkpt lat="46.294431" lon="13.836983">
        <ele>1340.033704992</ele>
        <time>2016-05-29T06:46:26Z</time>
      </trkpt>
      <trkpt lat="46.294355" lon="13.836865">
        <ele>1340.6436975744</ele>
        <time>2016-05-29T06:46:38Z</time>
      </trkpt>
      <trkpt lat="46.294288" lon="13.836701">
        <ele>1341.4236880896</ele>
        <time>2016-05-29T06:46:50Z</time>
      </trkpt>
      <trkpt lat="46.294321" lon="13.836554">
        <ele>1342.1136796992</ele>
        <time>2016-05-29T06:47:02Z</time>
      </trkpt>
      <trkpt lat="46.294386" lon="13.836429">
        <ele>1342.9236698496</ele>
        <time>2016-05-29T06:47:15Z</time>
      </trkpt>
      <trkpt lat="46.294427" lon="13.836301">
        <ele>1344.0136565952</ele>
        <time>2016-05-29T06:47:25Z</time>
      </trkpt>
      <trkpt lat="46.294459" lon="13.836120">
        <ele>1343.6436610944</ele>
        <time>2016-05-29T06:47:39Z</time>
      </trkpt>
      <trkpt lat="46.294482" lon="13.835985">
        <ele>1343.73366</ele>
        <time>2016-05-29T06:47:47Z</time>
      </trkpt>
      <trkpt lat="46.294503" lon="13.835878">
        <ele>1344.1136553792</ele>
        <time>2016-05-29T06:47:55Z</time>
      </trkpt>
      <trkpt lat="46.294483" lon="13.835754">
        <ele>1344.5236503936</ele>
        <time>2016-05-29T06:48:06Z</time>
      </trkpt>
      <trkpt lat="46.294512" lon="13.835549">
        <ele>1345.73363568</ele>
        <time>2016-05-29T06:48:18Z</time>
      </trkpt>
      <trkpt lat="46.294511" lon="13.835395">
        <ele>1346.933621088</ele>
        <time>2016-05-29T06:48:30Z</time>
      </trkpt>
      <trkpt lat="46.294427" lon="13.835185">
        <ele>1348.6136006592</ele>
        <time>2016-05-29T06:48:42Z</time>
      </trkpt>
      <trkpt lat="46.294415" lon="13.835086">
        <ele>1349.6535880128</ele>
        <time>2016-05-29T06:48:50Z</time>
      </trkpt>
      <trkpt lat="46.294373" lon="13.835000">
        <ele>1350.5035776768</ele>
        <time>2016-05-29T06:49:01Z</time>
      </trkpt>
      <trkpt lat="46.294322" lon="13.834899">
        <ele>1350.2435808384</ele>
        <time>2016-05-29T06:49:09Z</time>
      </trkpt>
      <trkpt lat="46.294264" lon="13.834840">
        <ele>1350.0435832704</ele>
        <time>2016-05-29T06:49:20Z</time>
      </trkpt>
      <trkpt lat="46.294237" lon="13.834751">
        <ele>1351.5535649088</ele>
        <time>2016-05-29T06:49:31Z</time>
      </trkpt>
      <trkpt lat="46.294215" lon="13.834649">
        <ele>1353.4035424128</ele>
        <time>2016-05-29T06:49:42Z</time>
      </trkpt>
      <trkpt lat="46.294213" lon="13.834565">
        <ele>1354.9235239296</ele>
        <time>2016-05-29T06:49:51Z</time>
      </trkpt>
      <trkpt lat="46.294173" lon="13.834457">
        <ele>1356.0235105536</ele>
        <time>2016-05-29T06:50:02Z</time>
      </trkpt>
      <trkpt lat="46.294085" lon="13.834344">
        <ele>1355.7935133504</ele>
        <time>2016-05-29T06:50:11Z</time>
      </trkpt>
      <trkpt lat="46.293989" lon="13.834226">
        <ele>1355.183520768</ele>
        <time>2016-05-29T06:50:24Z</time>
      </trkpt>
      <trkpt lat="46.293890" lon="13.834087">
        <ele>1354.9635234432</ele>
        <time>2016-05-29T06:50:37Z</time>
      </trkpt>
      <trkpt lat="46.293802" lon="13.834026">
        <ele>1354.8135252672</ele>
        <time>2016-05-29T06:50:48Z</time>
      </trkpt>
      <trkpt lat="46.293726" lon="13.833965">
        <ele>1355.4735172416</ele>
        <time>2016-05-29T06:51:00Z</time>
      </trkpt>
      <trkpt lat="46.293654" lon="13.833882">
        <ele>1355.9635112832</ele>
        <time>2016-05-29T06:51:08Z</time>
      </trkpt>
      <trkpt lat="46.293576" lon="13.833955">
        <ele>1357.1034974208</ele>
        <time>2016-05-29T06:51:19Z</time>
      </trkpt>
      <trkpt lat="46.293548" lon="13.833951">
        <ele>1358.0434859904</ele>
        <time>2016-05-29T06:51:28Z</time>
      </trkpt>
      <trkpt lat="46.293538" lon="13.833950">
        <ele>1358.3734819776</ele>
        <time>2016-05-29T06:51:39Z</time>
      </trkpt>
      <trkpt lat="46.293548" lon="13.833973">
        <ele>1358.2734831936</ele>
        <time>2016-05-29T06:51:46Z</time>
      </trkpt>
      <trkpt lat="46.293545" lon="13.833955">
        <ele>1358.4434811264</ele>
        <time>2016-05-29T06:51:55Z</time>
      </trkpt>
      <trkpt lat="46.293530" lon="13.833954">
        <ele>1358.6134790592</ele>
        <time>2016-05-29T06:52:08Z</time>
      </trkpt>
      <trkpt lat="46.293542" lon="13.833954">
        <ele>1358.6234789376</ele>
        <time>2016-05-29T06:52:17Z</time>
      </trkpt>
      <trkpt lat="46.293537" lon="13.833969">
        <ele>1358.4134814912</ele>
        <time>2016-05-29T06:52:28Z</time>
      </trkpt>
      <trkpt lat="46.293537" lon="13.833947">
        <ele>1358.3934817344</ele>
        <time>2016-05-29T06:52:37Z</time>
      </trkpt>
      <trkpt lat="46.293520" lon="13.833916">
        <ele>1358.683478208</ele>
        <time>2016-05-29T06:52:49Z</time>
      </trkpt>
      <trkpt lat="46.293537" lon="13.833918">
        <ele>1358.783476992</ele>
        <time>2016-05-29T06:53:00Z</time>
      </trkpt>
      <trkpt lat="46.293529" lon="13.833922">
        <ele>1358.5134802752</ele>
        <time>2016-05-29T06:53:11Z</time>
      </trkpt>
      <trkpt lat="46.293522" lon="13.833925">
        <ele>1358.3634820992</ele>
        <time>2016-05-29T06:53:22Z</time>
      </trkpt>
      <trkpt lat="46.293509" lon="13.833944">
        <ele>1358.4534810048</ele>
        <time>2016-05-29T06:53:31Z</time>
      </trkpt>
      <trkpt lat="46.293500" lon="13.833974">
        <ele>1358.4534810048</ele>
        <time>2016-05-29T06:53:41Z</time>
      </trkpt>
      <trkpt lat="46.293507" lon="13.833987">
        <ele>1358.633478816</ele>
        <time>2016-05-29T06:53:50Z</time>
      </trkpt>
      <trkpt lat="46.293516" lon="13.833992">
        <ele>1358.633478816</ele>
        <time>2016-05-29T06:53:58Z</time>
      </trkpt>
      <trkpt lat="46.293518" lon="13.833994">
        <ele>1358.4734807616</ele>
        <time>2016-05-29T06:54:09Z</time>
      </trkpt>
      <trkpt lat="46.293518" lon="13.833972">
        <ele>1358.5434799104</ele>
        <time>2016-05-29T06:54:21Z</time>
      </trkpt>
      <trkpt lat="46.293512" lon="13.833970">
        <ele>1358.6134790592</ele>
        <time>2016-05-29T06:54:28Z</time>
      </trkpt>
      <trkpt lat="46.293498" lon="13.833934">
        <ele>1358.6134790592</ele>
        <time>2016-05-29T06:54:40Z</time>
      </trkpt>
      <trkpt lat="46.293497" lon="13.833902">
        <ele>1358.4734807616</ele>
        <time>2016-05-29T06:54:54Z</time>
      </trkpt>
      <trkpt lat="46.293503" lon="13.833899">
        <ele>1358.4934805184</ele>
        <time>2016-05-29T06:55:07Z</time>
      </trkpt>
      <trkpt lat="46.293518" lon="13.833922">
        <ele>1358.5034803968</ele>
        <time>2016-05-29T06:55:19Z</time>
      </trkpt>
      <trkpt lat="46.293555" lon="13.833893">
        <ele>1358.4234813696</ele>
        <time>2016-05-29T06:55:27Z</time>
      </trkpt>
      <trkpt lat="46.293642" lon="13.833876">
        <ele>1357.083497664</ele>
        <time>2016-05-29T06:55:38Z</time>
      </trkpt>
      <trkpt lat="46.293633" lon="13.833782">
        <ele>1357.8234886656</ele>
        <time>2016-05-29T06:55:49Z</time>
      </trkpt>
      <trkpt lat="46.293632" lon="13.833661">
        <ele>1358.6734783296</ele>
        <time>2016-05-29T06:55:58Z</time>
      </trkpt>
      <trkpt lat="46.293627" lon="13.833535">
        <ele>1359.583467264</ele>
        <time>2016-05-29T06:56:09Z</time>
      </trkpt>
      <trkpt lat="46.293579" lon="13.833384">
        <ele>1358.8234765056</ele>
        <time>2016-05-29T06:56:21Z</time>
      </trkpt>
      <trkpt lat="46.293522" lon="13.833232">
        <ele>1359.3934695744</ele>
        <time>2016-05-29T06:56:32Z</time>
      </trkpt>
      <trkpt lat="46.293458" lon="13.833054">
        <ele>1360.6634541312</ele>
        <time>2016-05-29T06:56:43Z</time>
      </trkpt>
      <trkpt lat="46.293447" lon="13.832927">
        <ele>1362.2734345536</ele>
        <time>2016-05-29T06:56:54Z</time>
      </trkpt>
      <trkpt lat="46.293419" lon="13.832786">
        <ele>1364.2134109632</ele>
        <time>2016-05-29T06:57:06Z</time>
      </trkpt>
      <trkpt lat="46.293414" lon="13.832674">
        <ele>1365.6733932096</ele>
        <time>2016-05-29T06:57:17Z</time>
      </trkpt>
      <trkpt lat="46.293422" lon="13.832561">
        <ele>1367.4833712</ele>
        <time>2016-05-29T06:57:27Z</time>
      </trkpt>
      <trkpt lat="46.293414" lon="13.832489">
        <ele>1369.1433510144</ele>
        <time>2016-05-29T06:57:37Z</time>
      </trkpt>
      <trkpt lat="46.293419" lon="13.832467">
        <ele>1371.333324384</ele>
        <time>2016-05-29T06:57:49Z</time>
      </trkpt>
      <trkpt lat="46.293456" lon="13.832407">
        <ele>1373.683295808</ele>
        <time>2016-05-29T06:58:01Z</time>
      </trkpt>
      <trkpt lat="46.293479" lon="13.832286">
        <ele>1376.5232612736</ele>
        <time>2016-05-29T06:58:13Z</time>
      </trkpt>
      <trkpt lat="46.293560" lon="13.832191">
        <ele>1378.3732387776</ele>
        <time>2016-05-29T06:58:28Z</time>
      </trkpt>
      <trkpt lat="46.293665" lon="13.832123">
        <ele>1379.1932288064</ele>
        <time>2016-05-29T06:58:39Z</time>
      </trkpt>
      <trkpt lat="46.293740" lon="13.832121">
        <ele>1380.4532134848</ele>
        <time>2016-05-29T06:58:51Z</time>
      </trkpt>
      <trkpt lat="46.293797" lon="13.832141">
        <ele>1380.8132091072</ele>
        <time>2016-05-29T06:58:57Z</time>
      </trkpt>
      <trkpt lat="46.293905" lon="13.832134">
        <ele>1380.883208256</ele>
        <time>2016-05-29T06:59:10Z</time>
      </trkpt>
      <trkpt lat="46.293965" lon="13.832077">
        <ele>1381.7531976768</ele>
        <time>2016-05-29T06:59:18Z</time>
      </trkpt>
      <trkpt lat="46.294030" lon="13.832030">
        <ele>1381.9231956096</ele>
        <time>2016-05-29T06:59:30Z</time>
      </trkpt>
      <trkpt lat="46.294097" lon="13.832039">
        <ele>1382.98318272</ele>
        <time>2016-05-29T06:59:41Z</time>
      </trkpt>
      <trkpt lat="46.294186" lon="13.831969">
        <ele>1384.7231615616</ele>
        <time>2016-05-29T06:59:52Z</time>
      </trkpt>
      <trkpt lat="46.294290" lon="13.831950">
        <ele>1385.4231530496</ele>
        <time>2016-05-29T07:00:01Z</time>
      </trkpt>
      <trkpt lat="46.294399" lon="13.831939">
        <ele>1386.2031435648</ele>
        <time>2016-05-29T07:00:14Z</time>
      </trkpt>
      <trkpt lat="46.294486" lon="13.831921">
        <ele>1387.4231287296</ele>
        <time>2016-05-29T07:00:24Z</time>
      </trkpt>
      <trkpt lat="46.294536" lon="13.831922">
        <ele>1388.9531101248</ele>
        <time>2016-05-29T07:00:34Z</time>
      </trkpt>
      <trkpt lat="46.294611" lon="13.831880">
        <ele>1391.1030839808</ele>
        <time>2016-05-29T07:00:43Z</time>
      </trkpt>
      <trkpt lat="46.294697" lon="13.831814">
        <ele>1392.4530675648</ele>
        <time>2016-05-29T07:00:51Z</time>
      </trkpt>
      <trkpt lat="46.294799" lon="13.831783">
        <ele>1392.433067808</ele>
        <time>2016-05-29T07:01:03Z</time>
      </trkpt>
      <trkpt lat="46.294792" lon="13.831799">
        <ele>1392.3930682944</ele>
        <time>2016-05-29T07:01:06Z</time>
      </trkpt>
      <trkpt lat="46.294820" lon="13.831846">
        <ele>1392.3730685376</ele>
        <time>2016-05-29T07:01:17Z</time>
      </trkpt>
      <trkpt lat="46.294826" lon="13.831850">
        <ele>1392.3030693888</ele>
        <time>2016-05-29T07:01:17Z</time>
      </trkpt>
      <trkpt lat="46.294911" lon="13.831809">
        <ele>1391.283081792</ele>
        <time>2016-05-29T07:01:28Z</time>
      </trkpt>
      <trkpt lat="46.295035" lon="13.831750">
        <ele>1390.9630856832</ele>
        <time>2016-05-29T07:01:40Z</time>
      </trkpt>
      <trkpt lat="46.295159" lon="13.831604">
        <ele>1392.383068416</ele>
        <time>2016-05-29T07:01:51Z</time>
      </trkpt>
      <trkpt lat="46.295261" lon="13.831519">
        <ele>1393.2630577152</ele>
        <time>2016-05-29T07:01:59Z</time>
      </trkpt>
      <trkpt lat="46.295306" lon="13.831478">
        <ele>1393.4530554048</ele>
        <time>2016-05-29T07:02:02Z</time>
      </trkpt>
      <trkpt lat="46.295299" lon="13.831430">
        <ele>1394.1530468928</ele>
        <time>2016-05-29T07:02:14Z</time>
      </trkpt>
      <trkpt lat="46.295359" lon="13.831334">
        <ele>1392.883062336</ele>
        <time>2016-05-29T07:02:24Z</time>
      </trkpt>
      <trkpt lat="46.295403" lon="13.831192">
        <ele>1391.98307328</ele>
        <time>2016-05-29T07:02:34Z</time>
      </trkpt>
      <trkpt lat="46.295425" lon="13.831094">
        <ele>1391.2130826432</ele>
        <time>2016-05-29T07:02:42Z</time>
      </trkpt>
      <trkpt lat="46.295399" lon="13.830995">
        <ele>1390.4530918848</ele>
        <time>2016-05-29T07:02:50Z</time>
      </trkpt>
      <trkpt lat="46.295380" lon="13.830871">
        <ele>1390.4030924928</ele>
        <time>2016-05-29T07:03:02Z</time>
      </trkpt>
      <trkpt lat="46.295389" lon="13.830725">
        <ele>1392.1030718208</ele>
        <time>2016-05-29T07:03:14Z</time>
      </trkpt>
      <trkpt lat="46.295396" lon="13.830598">
        <ele>1393.583053824</ele>
        <time>2016-05-29T07:03:25Z</time>
      </trkpt>
      <trkpt lat="46.295395" lon="13.830499">
        <ele>1394.0130485952</ele>
        <time>2016-05-29T07:03:35Z</time>
      </trkpt>
      <trkpt lat="46.295419" lon="13.830371">
        <ele>1394.6130412992</ele>
        <time>2016-05-29T07:03:44Z</time>
      </trkpt>
      <trkpt lat="46.295411" lon="13.830261">
        <ele>1395.8430263424</ele>
        <time>2016-05-29T07:03:55Z</time>
      </trkpt>
      <trkpt lat="46.295447" lon="13.830105">
        <ele>1397.2930087104</ele>
        <time>2016-05-29T07:04:06Z</time>
      </trkpt>
      <trkpt lat="46.295476" lon="13.830015">
        <ele>1397.3130084672</ele>
        <time>2016-05-29T07:04:15Z</time>
      </trkpt>
      <trkpt lat="46.295508" lon="13.829924">
        <ele>1398.4729943616</ele>
        <time>2016-05-29T07:04:27Z</time>
      </trkpt>
      <trkpt lat="46.295570" lon="13.829915">
        <ele>1400.23297296</ele>
        <time>2016-05-29T07:04:38Z</time>
      </trkpt>
      <trkpt lat="46.295652" lon="13.829833">
        <ele>1401.8529532608</ele>
        <time>2016-05-29T07:04:48Z</time>
      </trkpt>
      <trkpt lat="46.295676" lon="13.829765">
        <ele>1404.73291824</ele>
        <time>2016-05-29T07:05:01Z</time>
      </trkpt>
      <trkpt lat="46.295704" lon="13.829796">
        <ele>1406.682894528</ele>
        <time>2016-05-29T07:05:12Z</time>
      </trkpt>
      <trkpt lat="46.295703" lon="13.829760">
        <ele>1408.8528681408</ele>
        <time>2016-05-29T07:05:24Z</time>
      </trkpt>
      <trkpt lat="46.295711" lon="13.829809">
        <ele>1409.3228624256</ele>
        <time>2016-05-29T07:05:36Z</time>
      </trkpt>
      <trkpt lat="46.295713" lon="13.829859">
        <ele>1409.532859872</ele>
        <time>2016-05-29T07:05:51Z</time>
      </trkpt>
      <trkpt lat="46.295730" lon="13.829822">
        <ele>1409.4628607232</ele>
        <time>2016-05-29T07:06:05Z</time>
      </trkpt>
      <trkpt lat="46.295709" lon="13.829786">
        <ele>1409.6528584128</ele>
        <time>2016-05-29T07:06:21Z</time>
      </trkpt>
      <trkpt lat="46.295676" lon="13.829830">
        <ele>1409.5228599936</ele>
        <time>2016-05-29T07:06:37Z</time>
      </trkpt>
      <trkpt lat="46.295696" lon="13.829820">
        <ele>1409.4228612096</ele>
        <time>2016-05-29T07:06:52Z</time>
      </trkpt>
      <trkpt lat="46.295697" lon="13.829852">
        <ele>1409.5628595072</ele>
        <time>2016-05-29T07:07:07Z</time>
      </trkpt>
      <trkpt lat="46.295694" lon="13.829816">
        <ele>1409.6428585344</ele>
        <time>2016-05-29T07:07:24Z</time>
      </trkpt>
      <trkpt lat="46.295715" lon="13.829800">
        <ele>1409.3428621824</ele>
        <time>2016-05-29T07:07:39Z</time>
      </trkpt>
      <trkpt lat="46.295733" lon="13.829810">
        <ele>1409.282862912</ele>
        <time>2016-05-29T07:07:55Z</time>
      </trkpt>
      <trkpt lat="46.295728" lon="13.829810">
        <ele>1409.2028638848</ele>
        <time>2016-05-29T07:08:10Z</time>
      </trkpt>
      <trkpt lat="46.295776" lon="13.829834">
        <ele>1410.9028432128</ele>
        <time>2016-05-29T07:08:22Z</time>
      </trkpt>
      <trkpt lat="46.295818" lon="13.829801">
        <ele>1412.4128248512</ele>
        <time>2016-05-29T07:08:32Z</time>
      </trkpt>
      <trkpt lat="46.295837" lon="13.829735">
        <ele>1414.6427977344</ele>
        <time>2016-05-29T07:08:41Z</time>
      </trkpt>
      <trkpt lat="46.295847" lon="13.829670">
        <ele>1416.6527732928</ele>
        <time>2016-05-29T07:08:53Z</time>
      </trkpt>
      <trkpt lat="46.295859" lon="13.829602">
        <ele>1419.0527441088</ele>
        <time>2016-05-29T07:09:04Z</time>
      </trkpt>
      <trkpt lat="46.295897" lon="13.829579">
        <ele>1421.4227152896</ele>
        <time>2016-05-29T07:09:18Z</time>
      </trkpt>
      <trkpt lat="46.295908" lon="13.829563">
        <ele>1423.5626892672</ele>
        <time>2016-05-29T07:09:27Z</time>
      </trkpt>
      <trkpt lat="46.295930" lon="13.829526">
        <ele>1424.5026778368</ele>
        <time>2016-05-29T07:09:43Z</time>
      </trkpt>
      <trkpt lat="46.295937" lon="13.829519">
        <ele>1424.5526772288</ele>
        <time>2016-05-29T07:09:43Z</time>
      </trkpt>
      <trkpt lat="46.295978" lon="13.829486">
        <ele>1424.3126801472</ele>
        <time>2016-05-29T07:10:01Z</time>
      </trkpt>
      <trkpt lat="46.295921" lon="13.829489">
        <ele>1424.4026790528</ele>
        <time>2016-05-29T07:10:18Z</time>
      </trkpt>
      <trkpt lat="46.295907" lon="13.829504">
        <ele>1424.4226788096</ele>
        <time>2016-05-29T07:10:22Z</time>
      </trkpt>
      <trkpt lat="46.295902" lon="13.829524">
        <ele>1424.4526784448</ele>
        <time>2016-05-29T07:10:28Z</time>
      </trkpt>
      <trkpt lat="46.295990" lon="13.829583">
        <ele>1424.6226763776</ele>
        <time>2016-05-29T07:10:45Z</time>
      </trkpt>
      <trkpt lat="46.296013" lon="13.829532">
        <ele>1426.2626564352</ele>
        <time>2016-05-29T07:10:57Z</time>
      </trkpt>
      <trkpt lat="46.296055" lon="13.829486">
        <ele>1429.3226192256</ele>
        <time>2016-05-29T07:11:11Z</time>
      </trkpt>
      <trkpt lat="46.296069" lon="13.829446">
        <ele>1432.3925818944</ele>
        <time>2016-05-29T07:11:23Z</time>
      </trkpt>
      <trkpt lat="46.296072" lon="13.829406">
        <ele>1434.5725553856</ele>
        <time>2016-05-29T07:11:37Z</time>
      </trkpt>
      <trkpt lat="46.296084" lon="13.829414">
        <ele>1434.9525507648</ele>
        <time>2016-05-29T07:11:54Z</time>
      </trkpt>
      <trkpt lat="46.296094" lon="13.829341">
        <ele>1436.4125330112</ele>
        <time>2016-05-29T07:12:08Z</time>
      </trkpt>
      <trkpt lat="46.296093" lon="13.829332">
        <ele>1436.6425302144</ele>
        <time>2016-05-29T07:12:09Z</time>
      </trkpt>
      <trkpt lat="46.296087" lon="13.829244">
        <ele>1439.1025003008</ele>
        <time>2016-05-29T07:12:21Z</time>
      </trkpt>
      <trkpt lat="46.296103" lon="13.829149">
        <ele>1441.0124770752</ele>
        <time>2016-05-29T07:12:31Z</time>
      </trkpt>
      <trkpt lat="46.296092" lon="13.829036">
        <ele>1443.582445824</ele>
        <time>2016-05-29T07:12:45Z</time>
      </trkpt>
      <trkpt lat="46.296113" lon="13.828959">
        <ele>1445.8724179776</ele>
        <time>2016-05-29T07:12:56Z</time>
      </trkpt>
      <trkpt lat="46.296133" lon="13.828920">
        <ele>1447.6523963328</ele>
        <time>2016-05-29T07:13:10Z</time>
      </trkpt>
      <trkpt lat="46.296106" lon="13.828976">
        <ele>1447.9923921984</ele>
        <time>2016-05-29T07:13:27Z</time>
      </trkpt>
      <trkpt lat="46.296026" lon="13.828975">
        <ele>1448.0523914688</ele>
        <time>2016-05-29T07:13:45Z</time>
      </trkpt>
      <trkpt lat="46.296029" lon="13.828941">
        <ele>1449.4723742016</ele>
        <time>2016-05-29T07:13:57Z</time>
      </trkpt>
      <trkpt lat="46.296043" lon="13.828896">
        <ele>1451.1023543808</ele>
        <time>2016-05-29T07:14:04Z</time>
      </trkpt>
      <trkpt lat="46.296050" lon="13.828807">
        <ele>1454.4923131584</ele>
        <time>2016-05-29T07:14:17Z</time>
      </trkpt>
      <trkpt lat="46.296033" lon="13.828763">
        <ele>1457.382278016</ele>
        <time>2016-05-29T07:14:29Z</time>
      </trkpt>
      <trkpt lat="46.296048" lon="13.828688">
        <ele>1459.4722526016</ele>
        <time>2016-05-29T07:14:40Z</time>
      </trkpt>
      <trkpt lat="46.296082" lon="13.828680">
        <ele>1460.48224032</ele>
        <time>2016-05-29T07:14:52Z</time>
      </trkpt>
      <trkpt lat="46.296091" lon="13.828671">
        <ele>1460.632238496</ele>
        <time>2016-05-29T07:15:09Z</time>
      </trkpt>
      <trkpt lat="46.296082" lon="13.828677">
        <ele>1460.682237888</ele>
        <time>2016-05-29T07:15:26Z</time>
      </trkpt>
      <trkpt lat="46.296075" lon="13.828662">
        <ele>1460.5522394688</ele>
        <time>2016-05-29T07:15:42Z</time>
      </trkpt>
      <trkpt lat="46.296163" lon="13.828657">
        <ele>1460.5222398336</ele>
        <time>2016-05-29T07:16:00Z</time>
      </trkpt>
      <trkpt lat="46.296151" lon="13.828651">
        <ele>1460.4122411712</ele>
        <time>2016-05-29T07:16:16Z</time>
      </trkpt>
      <trkpt lat="46.296162" lon="13.828614">
        <ele>1461.0022339968</ele>
        <time>2016-05-29T07:16:26Z</time>
      </trkpt>
      <trkpt lat="46.296153" lon="13.828531">
        <ele>1462.9922097984</ele>
        <time>2016-05-29T07:16:38Z</time>
      </trkpt>
      <trkpt lat="46.296168" lon="13.828435">
        <ele>1464.8921866944</ele>
        <time>2016-05-29T07:16:51Z</time>
      </trkpt>
      <trkpt lat="46.296175" lon="13.828384">
        <ele>1466.7621639552</ele>
        <time>2016-05-29T07:17:02Z</time>
      </trkpt>
      <trkpt lat="46.296165" lon="13.828323">
        <ele>1469.2521336768</ele>
        <time>2016-05-29T07:17:13Z</time>
      </trkpt>
      <trkpt lat="46.296171" lon="13.828230">
        <ele>1471.832102304</ele>
        <time>2016-05-29T07:17:25Z</time>
      </trkpt>
      <trkpt lat="46.296213" lon="13.828180">
        <ele>1474.0120757952</ele>
        <time>2016-05-29T07:17:37Z</time>
      </trkpt>
      <trkpt lat="46.296251" lon="13.828162">
        <ele>1475.9920517184</ele>
        <time>2016-05-29T07:17:47Z</time>
      </trkpt>
      <trkpt lat="46.296251" lon="13.828169">
        <ele>1477.1420377344</ele>
        <time>2016-05-29T07:18:03Z</time>
      </trkpt>
      <trkpt lat="46.296263" lon="13.828182">
        <ele>1477.2020370048</ele>
        <time>2016-05-29T07:18:19Z</time>
      </trkpt>
      <trkpt lat="46.296259" lon="13.828210">
        <ele>1477.4420340864</ele>
        <time>2016-05-29T07:18:35Z</time>
      </trkpt>
      <trkpt lat="46.296282" lon="13.828218">
        <ele>1477.932028128</ele>
        <time>2016-05-29T07:18:50Z</time>
      </trkpt>
      <trkpt lat="46.296314" lon="13.828205">
        <ele>1480.3619985792</ele>
        <time>2016-05-29T07:18:59Z</time>
      </trkpt>
      <trkpt lat="46.296325" lon="13.828169">
        <ele>1482.3719741376</ele>
        <time>2016-05-29T07:19:10Z</time>
      </trkpt>
      <trkpt lat="46.296344" lon="13.828106">
        <ele>1483.8019567488</ele>
        <time>2016-05-29T07:19:20Z</time>
      </trkpt>
      <trkpt lat="46.296381" lon="13.828061">
        <ele>1485.3119383872</ele>
        <time>2016-05-29T07:19:32Z</time>
      </trkpt>
      <trkpt lat="46.296411" lon="13.828035">
        <ele>1486.6419222144</ele>
        <time>2016-05-29T07:19:39Z</time>
      </trkpt>
      <trkpt lat="46.296445" lon="13.827957">
        <ele>1488.9518941248</ele>
        <time>2016-05-29T07:19:51Z</time>
      </trkpt>
      <trkpt lat="46.296405" lon="13.827866">
        <ele>1490.2518783168</ele>
        <time>2016-05-29T07:20:00Z</time>
      </trkpt>
      <trkpt lat="46.296401" lon="13.827805">
        <ele>1490.7618721152</ele>
        <time>2016-05-29T07:20:11Z</time>
      </trkpt>
      <trkpt lat="46.296401" lon="13.827777">
        <ele>1491.6418614144</ele>
        <time>2016-05-29T07:20:27Z</time>
      </trkpt>
      <trkpt lat="46.296391" lon="13.827755">
        <ele>1491.8418589824</ele>
        <time>2016-05-29T07:20:42Z</time>
      </trkpt>
      <trkpt lat="46.296386" lon="13.827739">
        <ele>1491.6118617792</ele>
        <time>2016-05-29T07:20:58Z</time>
      </trkpt>
      <trkpt lat="46.296358" lon="13.827739">
        <ele>1491.5418626304</ele>
        <time>2016-05-29T07:21:06Z</time>
      </trkpt>
      <trkpt lat="46.296389" lon="13.827739">
        <ele>1491.6918608064</ele>
        <time>2016-05-29T07:21:21Z</time>
      </trkpt>
      <trkpt lat="46.296426" lon="13.827749">
        <ele>1491.73186032</ele>
        <time>2016-05-29T07:21:40Z</time>
      </trkpt>
      <trkpt lat="46.296434" lon="13.827734">
        <ele>1491.681860928</ele>
        <time>2016-05-29T07:21:55Z</time>
      </trkpt>
      <trkpt lat="46.296425" lon="13.827715">
        <ele>1491.8018594688</ele>
        <time>2016-05-29T07:22:10Z</time>
      </trkpt>
      <trkpt lat="46.296398" lon="13.827760">
        <ele>1492.131855456</ele>
        <time>2016-05-29T07:22:33Z</time>
      </trkpt>
      <trkpt lat="46.296429" lon="13.827726">
        <ele>1492.3618526592</ele>
        <time>2016-05-29T07:22:42Z</time>
      </trkpt>
      <trkpt lat="46.296443" lon="13.827681">
        <ele>1494.1518308928</ele>
        <time>2016-05-29T07:22:53Z</time>
      </trkpt>
      <trkpt lat="46.296457" lon="13.827610">
        <ele>1495.4018156928</ele>
        <time>2016-05-29T07:23:04Z</time>
      </trkpt>
      <trkpt lat="46.296491" lon="13.827532">
        <ele>1498.381779456</ele>
        <time>2016-05-29T07:23:16Z</time>
      </trkpt>
      <trkpt lat="46.296524" lon="13.827506">
        <ele>1500.7917501504</ele>
        <time>2016-05-29T07:23:28Z</time>
      </trkpt>
      <trkpt lat="46.296541" lon="13.827454">
        <ele>1502.7617261952</ele>
        <time>2016-05-29T07:23:39Z</time>
      </trkpt>
      <trkpt lat="46.296544" lon="13.827429">
        <ele>1503.031722912</ele>
        <time>2016-05-29T07:23:43Z</time>
      </trkpt>
      <trkpt lat="46.296608" lon="13.827355">
        <ele>1503.23172048</ele>
        <time>2016-05-29T07:23:59Z</time>
      </trkpt>
      <trkpt lat="46.296616" lon="13.827341">
        <ele>1503.431718048</ele>
        <time>2016-05-29T07:24:22Z</time>
      </trkpt>
      <trkpt lat="46.296583" lon="13.827303">
        <ele>1503.5717163456</ele>
        <time>2016-05-29T07:24:41Z</time>
      </trkpt>
      <trkpt lat="46.296582" lon="13.827217">
        <ele>1504.8917002944</ele>
        <time>2016-05-29T07:24:52Z</time>
      </trkpt>
      <trkpt lat="46.296567" lon="13.827118">
        <ele>1506.3116830272</ele>
        <time>2016-05-29T07:25:03Z</time>
      </trkpt>
      <trkpt lat="46.296564" lon="13.827077">
        <ele>1508.0116623552</ele>
        <time>2016-05-29T07:25:12Z</time>
      </trkpt>
      <trkpt lat="46.296588" lon="13.827002">
        <ele>1510.8616276992</ele>
        <time>2016-05-29T07:25:24Z</time>
      </trkpt>
      <trkpt lat="46.296620" lon="13.826983">
        <ele>1511.3116222272</ele>
        <time>2016-05-29T07:25:35Z</time>
      </trkpt>
      <trkpt lat="46.296619" lon="13.826926">
        <ele>1511.2116234432</ele>
        <time>2016-05-29T07:25:51Z</time>
      </trkpt>
      <trkpt lat="46.296623" lon="13.826911">
        <ele>1511.4016211328</ele>
        <time>2016-05-29T07:26:06Z</time>
      </trkpt>
      <trkpt lat="46.296633" lon="13.826946">
        <ele>1511.431620768</ele>
        <time>2016-05-29T07:26:18Z</time>
      </trkpt>
      <trkpt lat="46.296654" lon="13.826899">
        <ele>1512.3216099456</ele>
        <time>2016-05-29T07:26:30Z</time>
      </trkpt>
      <trkpt lat="46.296673" lon="13.826841">
        <ele>1515.3915726144</ele>
        <time>2016-05-29T07:26:44Z</time>
      </trkpt>
      <trkpt lat="46.296717" lon="13.826778">
        <ele>1518.081539904</ele>
        <time>2016-05-29T07:26:56Z</time>
      </trkpt>
      <trkpt lat="46.296739" lon="13.826715">
        <ele>1519.9915166784</ele>
        <time>2016-05-29T07:27:05Z</time>
      </trkpt>
      <trkpt lat="46.296765" lon="13.826685">
        <ele>1522.5714853056</ele>
        <time>2016-05-29T07:27:18Z</time>
      </trkpt>
      <trkpt lat="46.296823" lon="13.826644">
        <ele>1524.48146208</ele>
        <time>2016-05-29T07:27:27Z</time>
      </trkpt>
      <trkpt lat="46.296860" lon="13.826617">
        <ele>1526.2614404352</ele>
        <time>2016-05-29T07:27:36Z</time>
      </trkpt>
      <trkpt lat="46.296833" lon="13.826579">
        <ele>1526.5914364224</ele>
        <time>2016-05-29T07:27:51Z</time>
      </trkpt>
      <trkpt lat="46.296833" lon="13.826541">
        <ele>1526.6614355712</ele>
        <time>2016-05-29T07:28:06Z</time>
      </trkpt>
      <trkpt lat="46.296882" lon="13.826556">
        <ele>1526.3114398272</ele>
        <time>2016-05-29T07:28:20Z</time>
      </trkpt>
      <trkpt lat="46.296885" lon="13.826513">
        <ele>1526.2314408</ele>
        <time>2016-05-29T07:28:37Z</time>
      </trkpt>
      <trkpt lat="46.296875" lon="13.826434">
        <ele>1525.9414443264</ele>
        <time>2016-05-29T07:28:57Z</time>
      </trkpt>
      <trkpt lat="46.296856" lon="13.826426">
        <ele>1526.3214397056</ele>
        <time>2016-05-29T07:29:06Z</time>
      </trkpt>
      <trkpt lat="46.296799" lon="13.826430">
        <ele>1528.0614185472</ele>
        <time>2016-05-29T07:29:18Z</time>
      </trkpt>
      <trkpt lat="46.296780" lon="13.826422">
        <ele>1529.3014034688</ele>
        <time>2016-05-29T07:29:29Z</time>
      </trkpt>
      <trkpt lat="46.296766" lon="13.826427">
        <ele>1529.3614027392</ele>
        <time>2016-05-29T07:29:50Z</time>
      </trkpt>
      <trkpt lat="46.296759" lon="13.826429">
        <ele>1529.6113996992</ele>
        <time>2016-05-29T07:30:05Z</time>
      </trkpt>
      <trkpt lat="46.296750" lon="13.826455">
        <ele>1529.581400064</ele>
        <time>2016-05-29T07:30:28Z</time>
      </trkpt>
      <trkpt lat="46.296750" lon="13.826408">
        <ele>1530.581387904</ele>
        <time>2016-05-29T07:30:40Z</time>
      </trkpt>
      <trkpt lat="46.296729" lon="13.826372">
        <ele>1533.0413579904</ele>
        <time>2016-05-29T07:30:50Z</time>
      </trkpt>
      <trkpt lat="46.296723" lon="13.826307">
        <ele>1536.1113206592</ele>
        <time>2016-05-29T07:31:03Z</time>
      </trkpt>
      <trkpt lat="46.296772" lon="13.826271">
        <ele>1538.0012976768</ele>
        <time>2016-05-29T07:31:11Z</time>
      </trkpt>
      <trkpt lat="46.296783" lon="13.826241">
        <ele>1540.0612726272</ele>
        <time>2016-05-29T07:31:22Z</time>
      </trkpt>
      <trkpt lat="46.296780" lon="13.826214">
        <ele>1541.931249888</ele>
        <time>2016-05-29T07:31:30Z</time>
      </trkpt>
      <trkpt lat="46.296784" lon="13.826191">
        <ele>1542.7512399168</ele>
        <time>2016-05-29T07:31:44Z</time>
      </trkpt>
      <trkpt lat="46.296791" lon="13.826189">
        <ele>1542.6412412544</ele>
        <time>2016-05-29T07:32:01Z</time>
      </trkpt>
      <trkpt lat="46.296796" lon="13.826173">
        <ele>1542.7512399168</ele>
        <time>2016-05-29T07:32:20Z</time>
      </trkpt>
      <trkpt lat="46.296808" lon="13.826126">
        <ele>1544.9012137728</ele>
        <time>2016-05-29T07:32:32Z</time>
      </trkpt>
      <trkpt lat="46.296838" lon="13.826069">
        <ele>1547.1111868992</ele>
        <time>2016-05-29T07:32:43Z</time>
      </trkpt>
      <trkpt lat="46.296862" lon="13.826029">
        <ele>1549.2411609984</ele>
        <time>2016-05-29T07:32:52Z</time>
      </trkpt>
      <trkpt lat="46.296896" lon="13.825994">
        <ele>1551.8211296256</ele>
        <time>2016-05-29T07:33:03Z</time>
      </trkpt>
      <trkpt lat="46.296924" lon="13.825967">
        <ele>1552.9611157632</ele>
        <time>2016-05-29T07:33:13Z</time>
      </trkpt>
      <trkpt lat="46.296940" lon="13.825922">
        <ele>1555.0910898624</ele>
        <time>2016-05-29T07:33:22Z</time>
      </trkpt>
      <trkpt lat="46.296970" lon="13.825889">
        <ele>1556.081077824</ele>
        <time>2016-05-29T07:33:29Z</time>
      </trkpt>
      <trkpt lat="46.297015" lon="13.825811">
        <ele>1557.0010666368</ele>
        <time>2016-05-29T07:33:37Z</time>
      </trkpt>
      <trkpt lat="46.297043" lon="13.825761">
        <ele>1557.5010605568</ele>
        <time>2016-05-29T07:33:45Z</time>
      </trkpt>
      <trkpt lat="46.297105" lon="13.825688">
        <ele>1558.2710511936</ele>
        <time>2016-05-29T07:33:53Z</time>
      </trkpt>
      <trkpt lat="46.297146" lon="13.825634">
        <ele>1558.631046816</ele>
        <time>2016-05-29T07:34:01Z</time>
      </trkpt>
      <trkpt lat="46.297208" lon="13.825578">
        <ele>1558.8510441408</ele>
        <time>2016-05-29T07:34:13Z</time>
      </trkpt>
      <trkpt lat="46.297240" lon="13.825539">
        <ele>1558.8410442624</ele>
        <time>2016-05-29T07:34:23Z</time>
      </trkpt>
      <trkpt lat="46.297269" lon="13.825481">
        <ele>1559.8110324672</ele>
        <time>2016-05-29T07:34:34Z</time>
      </trkpt>
      <trkpt lat="46.297306" lon="13.825414">
        <ele>1562.031005472</ele>
        <time>2016-05-29T07:34:43Z</time>
      </trkpt>
      <trkpt lat="46.297328" lon="13.825368">
        <ele>1564.1409798144</ele>
        <time>2016-05-29T07:34:55Z</time>
      </trkpt>
      <trkpt lat="46.297360" lon="13.825314">
        <ele>1566.4709514816</ele>
        <time>2016-05-29T07:35:06Z</time>
      </trkpt>
      <trkpt lat="46.297385" lon="13.825286">
        <ele>1568.330928864</ele>
        <time>2016-05-29T07:35:14Z</time>
      </trkpt>
      <trkpt lat="46.297410" lon="13.825273">
        <ele>1569.9909086784</ele>
        <time>2016-05-29T07:35:25Z</time>
      </trkpt>
      <trkpt lat="46.297429" lon="13.825263">
        <ele>1571.580889344</ele>
        <time>2016-05-29T07:35:34Z</time>
      </trkpt>
      <trkpt lat="46.297427" lon="13.825272">
        <ele>1572.580877184</ele>
        <time>2016-05-29T07:35:52Z</time>
      </trkpt>
      <trkpt lat="46.297408" lon="13.825252">
        <ele>1572.8508739008</ele>
        <time>2016-05-29T07:36:07Z</time>
      </trkpt>
      <trkpt lat="46.297422" lon="13.825257">
        <ele>1572.9108731712</ele>
        <time>2016-05-29T07:36:16Z</time>
      </trkpt>
      <trkpt lat="46.297436" lon="13.825235">
        <ele>1572.7908746304</ele>
        <time>2016-05-29T07:36:27Z</time>
      </trkpt>
      <trkpt lat="46.297393" lon="13.825200">
        <ele>1572.630876576</ele>
        <time>2016-05-29T07:36:43Z</time>
      </trkpt>
      <trkpt lat="46.297372" lon="13.825166">
        <ele>1572.6108768192</ele>
        <time>2016-05-29T07:36:58Z</time>
      </trkpt>
      <trkpt lat="46.297354" lon="13.825140">
        <ele>1572.4808784</ele>
        <time>2016-05-29T07:37:12Z</time>
      </trkpt>
      <trkpt lat="46.297343" lon="13.825154">
        <ele>1572.0508836288</ele>
        <time>2016-05-29T07:37:25Z</time>
      </trkpt>
      <trkpt lat="46.297338" lon="13.825133">
        <ele>1572.7608749952</ele>
        <time>2016-05-29T07:37:39Z</time>
      </trkpt>
      <trkpt lat="46.297367" lon="13.825115">
        <ele>1575.030847392</ele>
        <time>2016-05-29T07:37:49Z</time>
      </trkpt>
      <trkpt lat="46.297367" lon="13.825082">
        <ele>1576.8408253824</ele>
        <time>2016-05-29T07:38:02Z</time>
      </trkpt>
      <trkpt lat="46.297410" lon="13.825080">
        <ele>1578.330807264</ele>
        <time>2016-05-29T07:38:11Z</time>
      </trkpt>
      <trkpt lat="46.297393" lon="13.825073">
        <ele>1580.2207842816</ele>
        <time>2016-05-29T07:38:22Z</time>
      </trkpt>
      <trkpt lat="46.297389" lon="13.825053">
        <ele>1582.1607606912</ele>
        <time>2016-05-29T07:38:31Z</time>
      </trkpt>
      <trkpt lat="46.297409" lon="13.825034">
        <ele>1583.2107479232</ele>
        <time>2016-05-29T07:38:42Z</time>
      </trkpt>
      <trkpt lat="46.297401" lon="13.825004">
        <ele>1584.4007334528</ele>
        <time>2016-05-29T07:38:56Z</time>
      </trkpt>
      <trkpt lat="46.297419" lon="13.824977">
        <ele>1584.3907335744</ele>
        <time>2016-05-29T07:39:06Z</time>
      </trkpt>
      <trkpt lat="46.297403" lon="13.824962">
        <ele>1584.0407378304</ele>
        <time>2016-05-29T07:39:21Z</time>
      </trkpt>
      <trkpt lat="46.297406" lon="13.824980">
        <ele>1584.1907360064</ele>
        <time>2016-05-29T07:39:32Z</time>
      </trkpt>
      <trkpt lat="46.297372" lon="13.825002">
        <ele>1585.8007164288</ele>
        <time>2016-05-29T07:39:44Z</time>
      </trkpt>
      <trkpt lat="46.297375" lon="13.825023">
        <ele>1587.5606950272</ele>
        <time>2016-05-29T07:39:55Z</time>
      </trkpt>
      <trkpt lat="46.297323" lon="13.825051">
        <ele>1588.6506817728</ele>
        <time>2016-05-29T07:40:04Z</time>
      </trkpt>
      <trkpt lat="46.297281" lon="13.825065">
        <ele>1590.2606621952</ele>
        <time>2016-05-29T07:40:15Z</time>
      </trkpt>
      <trkpt lat="46.297303" lon="13.825090">
        <ele>1591.4006483328</ele>
        <time>2016-05-29T07:40:30Z</time>
      </trkpt>
      <trkpt lat="46.297309" lon="13.825100">
        <ele>1591.5106469952</ele>
        <time>2016-05-29T07:40:48Z</time>
      </trkpt>
      <trkpt lat="46.297311" lon="13.825114">
        <ele>1591.0106530752</ele>
        <time>2016-05-29T07:41:05Z</time>
      </trkpt>
      <trkpt lat="46.297314" lon="13.825125">
        <ele>1590.8406551424</ele>
        <time>2016-05-29T07:41:21Z</time>
      </trkpt>
      <trkpt lat="46.297321" lon="13.825153">
        <ele>1590.7006568448</ele>
        <time>2016-05-29T07:41:40Z</time>
      </trkpt>
      <trkpt lat="46.297345" lon="13.825136">
        <ele>1591.3406490624</ele>
        <time>2016-05-29T07:41:50Z</time>
      </trkpt>
      <trkpt lat="46.297352" lon="13.825099">
        <ele>1592.1606390912</ele>
        <time>2016-05-29T07:41:59Z</time>
      </trkpt>
      <trkpt lat="46.297310" lon="13.825104">
        <ele>1594.3106129472</ele>
        <time>2016-05-29T07:42:10Z</time>
      </trkpt>
      <trkpt lat="46.297260" lon="13.825098">
        <ele>1596.4105874112</ele>
        <time>2016-05-29T07:42:21Z</time>
      </trkpt>
      <trkpt lat="46.297191" lon="13.825110">
        <ele>1598.5705611456</ele>
        <time>2016-05-29T07:42:30Z</time>
      </trkpt>
      <trkpt lat="46.297159" lon="13.825104">
        <ele>1600.7105351232</ele>
        <time>2016-05-29T07:42:42Z</time>
      </trkpt>
      <trkpt lat="46.297138" lon="13.825144">
        <ele>1601.8105217472</ele>
        <time>2016-05-29T07:42:52Z</time>
      </trkpt>
      <trkpt lat="46.297094" lon="13.825178">
        <ele>1603.0405067904</ele>
        <time>2016-05-29T07:43:01Z</time>
      </trkpt>
      <trkpt lat="46.297083" lon="13.825183">
        <ele>1603.6204997376</ele>
        <time>2016-05-29T07:43:11Z</time>
      </trkpt>
      <trkpt lat="46.297085" lon="13.825174">
        <ele>1603.080506304</ele>
        <time>2016-05-29T07:43:20Z</time>
      </trkpt>
      <trkpt lat="46.297086" lon="13.825175">
        <ele>1603.2705039936</ele>
        <time>2016-05-29T07:43:31Z</time>
      </trkpt>
      <trkpt lat="46.297081" lon="13.825175">
        <ele>1603.4205021696</ele>
        <time>2016-05-29T07:43:39Z</time>
      </trkpt>
      <trkpt lat="46.297073" lon="13.825179">
        <ele>1603.630499616</ele>
        <time>2016-05-29T07:43:51Z</time>
      </trkpt>
      <trkpt lat="46.297069" lon="13.825170">
        <ele>1603.580500224</ele>
        <time>2016-05-29T07:44:01Z</time>
      </trkpt>
      <trkpt lat="46.297068" lon="13.825164">
        <ele>1603.380502656</ele>
        <time>2016-05-29T07:44:11Z</time>
      </trkpt>
      <trkpt lat="46.297071" lon="13.825159">
        <ele>1603.1405055744</ele>
        <time>2016-05-29T07:44:22Z</time>
      </trkpt>
      <trkpt lat="46.297069" lon="13.825162">
        <ele>1603.1905049664</ele>
        <time>2016-05-29T07:44:34Z</time>
      </trkpt>
      <trkpt lat="46.297071" lon="13.825160">
        <ele>1603.3405031424</ele>
        <time>2016-05-29T07:44:48Z</time>
      </trkpt>
      <trkpt lat="46.297074" lon="13.825159">
        <ele>1603.4105022912</ele>
        <time>2016-05-29T07:44:57Z</time>
      </trkpt>
      <trkpt lat="46.297067" lon="13.825154">
        <ele>1603.5505005888</ele>
        <time>2016-05-29T07:45:08Z</time>
      </trkpt>
      <trkpt lat="46.297065" lon="13.825156">
        <ele>1603.7404982784</ele>
        <time>2016-05-29T07:45:19Z</time>
      </trkpt>
      <trkpt lat="46.297063" lon="13.825168">
        <ele>1603.6404994944</ele>
        <time>2016-05-29T07:45:31Z</time>
      </trkpt>
      <trkpt lat="46.297078" lon="13.825168">
        <ele>1603.6004999808</ele>
        <time>2016-05-29T07:45:43Z</time>
      </trkpt>
      <trkpt lat="46.297088" lon="13.825159">
        <ele>1603.5005011968</ele>
        <time>2016-05-29T07:45:54Z</time>
      </trkpt>
      <trkpt lat="46.297085" lon="13.825177">
        <ele>1603.4005024128</ele>
        <time>2016-05-29T07:46:05Z</time>
      </trkpt>
      <trkpt lat="46.297084" lon="13.825175">
        <ele>1603.3405031424</ele>
        <time>2016-05-29T07:46:17Z</time>
      </trkpt>
      <trkpt lat="46.297091" lon="13.825182">
        <ele>1603.3705027776</ele>
        <time>2016-05-29T07:46:37Z</time>
      </trkpt>
      <trkpt lat="46.297095" lon="13.825175">
        <ele>1603.5105010752</ele>
        <time>2016-05-29T07:46:49Z</time>
      </trkpt>
      <trkpt lat="46.297092" lon="13.825160">
        <ele>1603.330503264</ele>
        <time>2016-05-29T07:47:04Z</time>
      </trkpt>
      <trkpt lat="46.297107" lon="13.825091">
        <ele>1604.880484416</ele>
        <time>2016-05-29T07:47:15Z</time>
      </trkpt>
      <trkpt lat="46.297093" lon="13.825048">
        <ele>1606.6504628928</ele>
        <time>2016-05-29T07:47:26Z</time>
      </trkpt>
      <trkpt lat="46.297093" lon="13.825030">
        <ele>1608.030446112</ele>
        <time>2016-05-29T07:47:35Z</time>
      </trkpt>
      <trkpt lat="46.297095" lon="13.825021">
        <ele>1609.380429696</ele>
        <time>2016-05-29T07:47:45Z</time>
      </trkpt>
      <trkpt lat="46.297112" lon="13.825003">
        <ele>1610.8204121856</ele>
        <time>2016-05-29T07:47:54Z</time>
      </trkpt>
      <trkpt lat="46.297118" lon="13.824973">
        <ele>1612.5103916352</ele>
        <time>2016-05-29T07:48:05Z</time>
      </trkpt>
      <trkpt lat="46.297108" lon="13.824943">
        <ele>1614.5603667072</ele>
        <time>2016-05-29T07:48:16Z</time>
      </trkpt>
      <trkpt lat="46.297102" lon="13.824939">
        <ele>1615.1403596544</ele>
        <time>2016-05-29T07:48:28Z</time>
      </trkpt>
      <trkpt lat="46.297100" lon="13.824939">
        <ele>1615.1703592896</ele>
        <time>2016-05-29T07:48:41Z</time>
      </trkpt>
      <trkpt lat="46.297101" lon="13.824934">
        <ele>1615.6203538176</ele>
        <time>2016-05-29T07:48:58Z</time>
      </trkpt>
      <trkpt lat="46.297101" lon="13.824936">
        <ele>1615.5503546688</ele>
        <time>2016-05-29T07:49:15Z</time>
      </trkpt>
      <trkpt lat="46.297100" lon="13.824942">
        <ele>1615.73035248</ele>
        <time>2016-05-29T07:49:30Z</time>
      </trkpt>
      <trkpt lat="46.297119" lon="13.824920">
        <ele>1616.4003443328</ele>
        <time>2016-05-29T07:49:44Z</time>
      </trkpt>
      <trkpt lat="46.297117" lon="13.824906">
        <ele>1617.7603277952</ele>
        <time>2016-05-29T07:49:54Z</time>
      </trkpt>
      <trkpt lat="46.297132" lon="13.824884">
        <ele>1618.6503169728</ele>
        <time>2016-05-29T07:50:05Z</time>
      </trkpt>
      <trkpt lat="46.297156" lon="13.824875">
        <ele>1620.280297152</ele>
        <time>2016-05-29T07:50:16Z</time>
      </trkpt>
      <trkpt lat="46.297163" lon="13.824852">
        <ele>1621.8202784256</ele>
        <time>2016-05-29T07:50:24Z</time>
      </trkpt>
      <trkpt lat="46.297187" lon="13.824847">
        <ele>1623.1902617664</ele>
        <time>2016-05-29T07:50:32Z</time>
      </trkpt>
      <trkpt lat="46.297172" lon="13.824842">
        <ele>1624.330247904</ele>
        <time>2016-05-29T07:50:40Z</time>
      </trkpt>
      <trkpt lat="46.297203" lon="13.824829">
        <ele>1625.0402392704</ele>
        <time>2016-05-29T07:50:47Z</time>
      </trkpt>
      <trkpt lat="46.297198" lon="13.824807">
        <ele>1625.6602317312</ele>
        <time>2016-05-29T07:50:55Z</time>
      </trkpt>
      <trkpt lat="46.297204" lon="13.824754">
        <ele>1626.3002239488</ele>
        <time>2016-05-29T07:51:06Z</time>
      </trkpt>
      <trkpt lat="46.297214" lon="13.824720">
        <ele>1628.0702024256</ele>
        <time>2016-05-29T07:51:14Z</time>
      </trkpt>
      <trkpt lat="46.297216" lon="13.824652">
        <ele>1629.130189536</ele>
        <time>2016-05-29T07:51:26Z</time>
      </trkpt>
      <trkpt lat="46.297232" lon="13.824612">
        <ele>1630.580171904</ele>
        <time>2016-05-29T07:51:34Z</time>
      </trkpt>
      <trkpt lat="46.297273" lon="13.824548">
        <ele>1632.530148192</ele>
        <time>2016-05-29T07:51:44Z</time>
      </trkpt>
      <trkpt lat="46.297308" lon="13.824499">
        <ele>1633.6201349376</ele>
        <time>2016-05-29T07:51:52Z</time>
      </trkpt>
      <trkpt lat="46.297342" lon="13.824449">
        <ele>1634.4501248448</ele>
        <time>2016-05-29T07:52:00Z</time>
      </trkpt>
      <trkpt lat="46.297353" lon="13.824421">
        <ele>1635.380113536</ele>
        <time>2016-05-29T07:52:08Z</time>
      </trkpt>
      <trkpt lat="46.297375" lon="13.824389">
        <ele>1636.3501017408</ele>
        <time>2016-05-29T07:52:16Z</time>
      </trkpt>
      <trkpt lat="46.297379" lon="13.824340">
        <ele>1635.9601064832</ele>
        <time>2016-05-29T07:52:26Z</time>
      </trkpt>
      <trkpt lat="46.297342" lon="13.824294">
        <ele>1636.5200996736</ele>
        <time>2016-05-29T07:52:34Z</time>
      </trkpt>
      <trkpt lat="46.297333" lon="13.824208">
        <ele>1637.780084352</ele>
        <time>2016-05-29T07:52:42Z</time>
      </trkpt>
      <trkpt lat="46.297349" lon="13.824148">
        <ele>1639.2400665984</ele>
        <time>2016-05-29T07:52:48Z</time>
      </trkpt>
      <trkpt lat="46.297383" lon="13.824146">
        <ele>1639.580062464</ele>
        <time>2016-05-29T07:52:57Z</time>
      </trkpt>
      <trkpt lat="46.297400" lon="13.824113">
        <ele>1638.7200729216</ele>
        <time>2016-05-29T07:53:06Z</time>
      </trkpt>
      <trkpt lat="46.297420" lon="13.824091">
        <ele>1638.0100815552</ele>
        <time>2016-05-29T07:53:14Z</time>
      </trkpt>
      <trkpt lat="46.297423" lon="13.824082">
        <ele>1637.9200826496</ele>
        <time>2016-05-29T07:53:14Z</time>
      </trkpt>
      <trkpt lat="46.297433" lon="13.824043">
        <ele>1637.6900854464</ele>
        <time>2016-05-29T07:53:18Z</time>
      </trkpt>
      <trkpt lat="46.297457" lon="13.823935">
        <ele>1637.3000901888</ele>
        <time>2016-05-29T07:53:28Z</time>
      </trkpt>
      <trkpt lat="46.297479" lon="13.823832">
        <ele>1638.7500725568</ele>
        <time>2016-05-29T07:53:38Z</time>
      </trkpt>
      <trkpt lat="46.297477" lon="13.823779">
        <ele>1640.2100548032</ele>
        <time>2016-05-29T07:53:45Z</time>
      </trkpt>
      <trkpt lat="46.297479" lon="13.823714">
        <ele>1640.73004848</ele>
        <time>2016-05-29T07:53:49Z</time>
      </trkpt>
      <trkpt lat="46.297462" lon="13.823586">
        <ele>1640.6600493312</ele>
        <time>2016-05-29T07:53:59Z</time>
      </trkpt>
      <trkpt lat="46.297429" lon="13.823474">
        <ele>1641.180043008</ele>
        <time>2016-05-29T07:54:08Z</time>
      </trkpt>
      <trkpt lat="46.297428" lon="13.823375">
        <ele>1641.4900392384</ele>
        <time>2016-05-29T07:54:16Z</time>
      </trkpt>
      <trkpt lat="46.297446" lon="13.823308">
        <ele>1642.1000318208</ele>
        <time>2016-05-29T07:54:23Z</time>
      </trkpt>
      <trkpt lat="46.297472" lon="13.823277">
        <ele>1643.7100122432</ele>
        <time>2016-05-29T07:54:31Z</time>
      </trkpt>
      <trkpt lat="46.297481" lon="13.823280">
        <ele>1644.72999984</ele>
        <time>2016-05-29T07:54:50Z</time>
      </trkpt>
      <trkpt lat="46.297473" lon="13.823275">
        <ele>1645.129994976</ele>
        <time>2016-05-29T07:55:06Z</time>
      </trkpt>
      <trkpt lat="46.297459" lon="13.823246">
        <ele>1645.3099927872</ele>
        <time>2016-05-29T07:55:22Z</time>
      </trkpt>
      <trkpt lat="46.297505" lon="13.823180">
        <ele>1646.679976128</ele>
        <time>2016-05-29T07:55:33Z</time>
      </trkpt>
      <trkpt lat="46.297535" lon="13.823114">
        <ele>1648.7699507136</ele>
        <time>2016-05-29T07:55:44Z</time>
      </trkpt>
      <trkpt lat="46.297539" lon="13.823030">
        <ele>1650.5899285824</ele>
        <time>2016-05-29T07:55:56Z</time>
      </trkpt>
      <trkpt lat="46.297534" lon="13.823021">
        <ele>1652.5899042624</ele>
        <time>2016-05-29T07:56:07Z</time>
      </trkpt>
      <trkpt lat="46.297539" lon="13.822981">
        <ele>1653.9598876032</ele>
        <time>2016-05-29T07:56:20Z</time>
      </trkpt>
      <trkpt lat="46.297535" lon="13.822940">
        <ele>1655.6598669312</ele>
        <time>2016-05-29T07:56:30Z</time>
      </trkpt>
      <trkpt lat="46.297517" lon="13.822887">
        <ele>1657.5398440704</ele>
        <time>2016-05-29T07:56:39Z</time>
      </trkpt>
      <trkpt lat="46.297505" lon="13.822899">
        <ele>1659.4398209664</ele>
        <time>2016-05-29T07:56:51Z</time>
      </trkpt>
      <trkpt lat="46.297504" lon="13.822894">
        <ele>1660.3398100224</ele>
        <time>2016-05-29T07:57:04Z</time>
      </trkpt>
      <trkpt lat="46.297494" lon="13.822876">
        <ele>1662.4597842432</ele>
        <time>2016-05-29T07:57:21Z</time>
      </trkpt>
      <trkpt lat="46.297481" lon="13.822827">
        <ele>1664.429760288</ele>
        <time>2016-05-29T07:57:33Z</time>
      </trkpt>
      <trkpt lat="46.297487" lon="13.822820">
        <ele>1665.9997411968</ele>
        <time>2016-05-29T07:57:44Z</time>
      </trkpt>
      <trkpt lat="46.297507" lon="13.822794">
        <ele>1666.3697366976</ele>
        <time>2016-05-29T07:57:51Z</time>
      </trkpt>
      <trkpt lat="46.297519" lon="13.822776">
        <ele>1667.2697257536</ele>
        <time>2016-05-29T07:57:59Z</time>
      </trkpt>
      <trkpt lat="46.297520" lon="13.822765">
        <ele>1669.1097033792</ele>
        <time>2016-05-29T07:58:08Z</time>
      </trkpt>
      <trkpt lat="46.297522" lon="13.822749">
        <ele>1670.3596881792</ele>
        <time>2016-05-29T07:58:17Z</time>
      </trkpt>
      <trkpt lat="46.297502" lon="13.822739">
        <ele>1671.5096741952</ele>
        <time>2016-05-29T07:58:25Z</time>
      </trkpt>
      <trkpt lat="46.297531" lon="13.822688">
        <ele>1672.5196619136</ele>
        <time>2016-05-29T07:58:34Z</time>
      </trkpt>
      <trkpt lat="46.297559" lon="13.822626">
        <ele>1673.6496481728</ele>
        <time>2016-05-29T07:58:42Z</time>
      </trkpt>
      <trkpt lat="46.297550" lon="13.822525">
        <ele>1675.1896294464</ele>
        <time>2016-05-29T07:58:52Z</time>
      </trkpt>
      <trkpt lat="46.297549" lon="13.822456">
        <ele>1675.8396215424</ele>
        <time>2016-05-29T07:59:00Z</time>
      </trkpt>
      <trkpt lat="46.297558" lon="13.822413">
        <ele>1676.0996183808</ele>
        <time>2016-05-29T07:59:09Z</time>
      </trkpt>
      <trkpt lat="46.297560" lon="13.822401">
        <ele>1676.0096194752</ele>
        <time>2016-05-29T07:59:09Z</time>
      </trkpt>
      <trkpt lat="46.297564" lon="13.822341">
        <ele>1675.929620448</ele>
        <time>2016-05-29T07:59:19Z</time>
      </trkpt>
      <trkpt lat="46.297565" lon="13.822324">
        <ele>1676.779610112</ele>
        <time>2016-05-29T07:59:35Z</time>
      </trkpt>
      <trkpt lat="46.297570" lon="13.822279">
        <ele>1677.0896063424</ele>
        <time>2016-05-29T07:59:51Z</time>
      </trkpt>
      <trkpt lat="46.297552" lon="13.822226">
        <ele>1679.3595787392</ele>
        <time>2016-05-29T08:00:02Z</time>
      </trkpt>
      <trkpt lat="46.297525" lon="13.822203">
        <ele>1680.2395680384</ele>
        <time>2016-05-29T08:00:10Z</time>
      </trkpt>
      <trkpt lat="46.297510" lon="13.822111">
        <ele>1680.679562688</ele>
        <time>2016-05-29T08:00:19Z</time>
      </trkpt>
      <trkpt lat="46.297531" lon="13.822036">
        <ele>1681.7395497984</ele>
        <time>2016-05-29T08:00:29Z</time>
      </trkpt>
      <trkpt lat="46.297559" lon="13.821970">
        <ele>1681.9995466368</ele>
        <time>2016-05-29T08:00:37Z</time>
      </trkpt>
      <trkpt lat="46.297591" lon="13.821946">
        <ele>1683.1995320448</ele>
        <time>2016-05-29T08:00:49Z</time>
      </trkpt>
      <trkpt lat="46.297636" lon="13.821943">
        <ele>1684.7195135616</ele>
        <time>2016-05-29T08:00:59Z</time>
      </trkpt>
      <trkpt lat="46.297677" lon="13.821915">
        <ele>1686.6694898496</ele>
        <time>2016-05-29T08:01:08Z</time>
      </trkpt>
      <trkpt lat="46.297694" lon="13.821899">
        <ele>1687.879475136</ele>
        <time>2016-05-29T08:01:20Z</time>
      </trkpt>
      <trkpt lat="46.297696" lon="13.821896">
        <ele>1688.1394719744</ele>
        <time>2016-05-29T08:01:28Z</time>
      </trkpt>
      <trkpt lat="46.297699" lon="13.821901">
        <ele>1688.3694691776</ele>
        <time>2016-05-29T08:01:43Z</time>
      </trkpt>
      <trkpt lat="46.297707" lon="13.821900">
        <ele>1688.4094686912</ele>
        <time>2016-05-29T08:02:03Z</time>
      </trkpt>
      <trkpt lat="46.297703" lon="13.821895">
        <ele>1688.7594644352</ele>
        <time>2016-05-29T08:02:18Z</time>
      </trkpt>
      <trkpt lat="46.297695" lon="13.821889">
        <ele>1688.179471488</ele>
        <time>2016-05-29T08:02:33Z</time>
      </trkpt>
      <trkpt lat="46.297696" lon="13.821811">
        <ele>1687.779476352</ele>
        <time>2016-05-29T08:02:42Z</time>
      </trkpt>
      <trkpt lat="46.297715" lon="13.821720">
        <ele>1686.579490944</ele>
        <time>2016-05-29T08:02:53Z</time>
      </trkpt>
      <trkpt lat="46.297708" lon="13.821653">
        <ele>1686.1394962944</ele>
        <time>2016-05-29T08:03:00Z</time>
      </trkpt>
      <trkpt lat="46.297715" lon="13.821582">
        <ele>1685.4995040768</ele>
        <time>2016-05-29T08:03:08Z</time>
      </trkpt>
      <trkpt lat="46.297749" lon="13.821502">
        <ele>1685.0095100352</ele>
        <time>2016-05-29T08:03:16Z</time>
      </trkpt>
      <trkpt lat="46.297750" lon="13.821449">
        <ele>1684.4995162368</ele>
        <time>2016-05-29T08:03:23Z</time>
      </trkpt>
      <trkpt lat="46.297726" lon="13.821433">
        <ele>1683.3695299776</ele>
        <time>2016-05-29T08:03:34Z</time>
      </trkpt>
      <trkpt lat="46.297704" lon="13.821438">
        <ele>1683.179532288</ele>
        <time>2016-05-29T08:03:43Z</time>
      </trkpt>
      <trkpt lat="46.297670" lon="13.821430">
        <ele>1682.6395388544</ele>
        <time>2016-05-29T08:03:50Z</time>
      </trkpt>
      <trkpt lat="46.297696" lon="13.821395">
        <ele>1682.6995381248</ele>
        <time>2016-05-29T08:04:09Z</time>
      </trkpt>
      <trkpt lat="46.297654" lon="13.821402">
        <ele>1682.7395376384</ele>
        <time>2016-05-29T08:04:17Z</time>
      </trkpt>
      <trkpt lat="46.297608" lon="13.821399">
        <ele>1683.8495241408</ele>
        <time>2016-05-29T08:04:25Z</time>
      </trkpt>
      <trkpt lat="46.297577" lon="13.821350">
        <ele>1684.3095185472</ele>
        <time>2016-05-29T08:04:32Z</time>
      </trkpt>
      <trkpt lat="46.297540" lon="13.821323">
        <ele>1684.7895127104</ele>
        <time>2016-05-29T08:04:40Z</time>
      </trkpt>
      <trkpt lat="46.297506" lon="13.821382">
        <ele>1686.2494949568</ele>
        <time>2016-05-29T08:04:49Z</time>
      </trkpt>
      <trkpt lat="46.297462" lon="13.821391">
        <ele>1686.8994870528</ele>
        <time>2016-05-29T08:04:56Z</time>
      </trkpt>
      <trkpt lat="46.297421" lon="13.821427">
        <ele>1686.9494864448</ele>
        <time>2016-05-29T08:05:04Z</time>
      </trkpt>
      <trkpt lat="46.297374" lon="13.821382">
        <ele>1685.7495010368</ele>
        <time>2016-05-29T08:05:16Z</time>
      </trkpt>
      <trkpt lat="46.297387" lon="13.821328">
        <ele>1684.8595118592</ele>
        <time>2016-05-29T08:05:26Z</time>
      </trkpt>
      <trkpt lat="46.297367" lon="13.821289">
        <ele>1684.4395169664</ele>
        <time>2016-05-29T08:05:34Z</time>
      </trkpt>
      <trkpt lat="46.297341" lon="13.821279">
        <ele>1686.1094966592</ele>
        <time>2016-05-29T08:05:46Z</time>
      </trkpt>
      <trkpt lat="46.297302" lon="13.821260">
        <ele>1687.779476352</ele>
        <time>2016-05-29T08:05:54Z</time>
      </trkpt>
      <trkpt lat="46.297312" lon="13.821229">
        <ele>1688.7494645568</ele>
        <time>2016-05-29T08:06:05Z</time>
      </trkpt>
      <trkpt lat="46.297307" lon="13.821224">
        <ele>1688.6394658944</ele>
        <time>2016-05-29T08:06:20Z</time>
      </trkpt>
      <trkpt lat="46.297299" lon="13.821217">
        <ele>1689.47945568</ele>
        <time>2016-05-29T08:06:31Z</time>
      </trkpt>
      <trkpt lat="46.297295" lon="13.821223">
        <ele>1689.2194588416</ele>
        <time>2016-05-29T08:06:43Z</time>
      </trkpt>
      <trkpt lat="46.297298" lon="13.821218">
        <ele>1688.879462976</ele>
        <time>2016-05-29T08:06:50Z</time>
      </trkpt>
      <trkpt lat="46.297295" lon="13.821215">
        <ele>1688.379469056</ele>
        <time>2016-05-29T08:07:03Z</time>
      </trkpt>
      <trkpt lat="46.297296" lon="13.821203">
        <ele>1688.1994712448</ele>
        <time>2016-05-29T08:07:48Z</time>
      </trkpt>
      <trkpt lat="46.297293" lon="13.821208">
        <ele>1688.7894640704</ele>
        <time>2016-05-29T08:08:47Z</time>
      </trkpt>
      <trkpt lat="46.297290" lon="13.821212">
        <ele>1688.8594632192</ele>
        <time>2016-05-29T08:09:14Z</time>
      </trkpt>
      <trkpt lat="46.297290" lon="13.821210">
        <ele>1689.4194564096</ele>
        <time>2016-05-29T08:10:24Z</time>
      </trkpt>
      <trkpt lat="46.297289" lon="13.821207">
        <ele>1689.0594607872</ele>
        <time>2016-05-29T08:11:30Z</time>
      </trkpt>
      <trkpt lat="46.297288" lon="13.821211">
        <ele>1688.6494657728</ele>
        <time>2016-05-29T08:12:50Z</time>
      </trkpt>
      <trkpt lat="46.297287" lon="13.821210">
        <ele>1688.7494645568</ele>
        <time>2016-05-29T08:13:56Z</time>
      </trkpt>
      <trkpt lat="46.297291" lon="13.821209">
        <ele>1688.779464192</ele>
        <time>2016-05-29T08:15:04Z</time>
      </trkpt>
      <trkpt lat="46.297292" lon="13.821214">
        <ele>1688.5994663808</ele>
        <time>2016-05-29T08:15:39Z</time>
      </trkpt>
      <trkpt lat="46.297291" lon="13.821214">
        <ele>1689.029461152</ele>
        <time>2016-05-29T08:16:30Z</time>
      </trkpt>
      <trkpt lat="46.297284" lon="13.821214">
        <ele>1689.2994578688</ele>
        <time>2016-05-29T08:17:16Z</time>
      </trkpt>
      <trkpt lat="46.297287" lon="13.821207">
        <ele>1688.4694679616</ele>
        <time>2016-05-29T08:18:03Z</time>
      </trkpt>
      <trkpt lat="46.297286" lon="13.821208">
        <ele>1688.5694667456</ele>
        <time>2016-05-29T08:18:41Z</time>
      </trkpt>
      <trkpt lat="46.297290" lon="13.821208">
        <ele>1688.6594656512</ele>
        <time>2016-05-29T08:19:43Z</time>
      </trkpt>
      <trkpt lat="46.297290" lon="13.821211">
        <ele>1688.629466016</ele>
        <time>2016-05-29T08:20:32Z</time>
      </trkpt>
      <trkpt lat="46.297291" lon="13.821214">
        <ele>1688.4994675968</ele>
        <time>2016-05-29T08:21:04Z</time>
      </trkpt>
      <trkpt lat="46.297287" lon="13.821208">
        <ele>1688.7894640704</ele>
        <time>2016-05-29T08:22:02Z</time>
      </trkpt>
      <trkpt lat="46.297289" lon="13.821210">
        <ele>1688.9194624896</ele>
        <time>2016-05-29T08:22:48Z</time>
      </trkpt>
      <trkpt lat="46.297296" lon="13.821215">
        <ele>1689.1494596928</ele>
        <time>2016-05-29T08:23:14Z</time>
      </trkpt>
      <trkpt lat="46.297300" lon="13.821213">
        <ele>1689.879450816</ele>
        <time>2016-05-29T08:23:27Z</time>
      </trkpt>
      <trkpt lat="46.297304" lon="13.821207">
        <ele>1689.9694497216</ele>
        <time>2016-05-29T08:23:42Z</time>
      </trkpt>
      <trkpt lat="46.297303" lon="13.821203">
        <ele>1689.9894494784</ele>
        <time>2016-05-29T08:23:56Z</time>
      </trkpt>
      <trkpt lat="46.297296" lon="13.821159">
        <ele>1689.9894494784</ele>
        <time>2016-05-29T08:24:02Z</time>
      </trkpt>
      <trkpt lat="46.297346" lon="13.821113">
        <ele>1690.5094431552</ele>
        <time>2016-05-29T08:24:10Z</time>
      </trkpt>
      <trkpt lat="46.297363" lon="13.821110">
        <ele>1690.5594425472</ele>
        <time>2016-05-29T08:24:13Z</time>
      </trkpt>
      <trkpt lat="46.297396" lon="13.821041">
        <ele>1690.6694412096</ele>
        <time>2016-05-29T08:24:20Z</time>
      </trkpt>
      <trkpt lat="46.297425" lon="13.820980">
        <ele>1690.579442304</ele>
        <time>2016-05-29T08:24:28Z</time>
      </trkpt>
      <trkpt lat="46.297455" lon="13.820941">
        <ele>1689.5994542208</ele>
        <time>2016-05-29T08:24:36Z</time>
      </trkpt>
      <trkpt lat="46.297507" lon="13.820869">
        <ele>1688.3594692992</ele>
        <time>2016-05-29T08:24:43Z</time>
      </trkpt>
      <trkpt lat="46.297561" lon="13.820814">
        <ele>1688.2394707584</ele>
        <time>2016-05-29T08:24:50Z</time>
      </trkpt>
      <trkpt lat="46.297586" lon="13.820761">
        <ele>1688.7094650432</ele>
        <time>2016-05-29T08:24:58Z</time>
      </trkpt>
      <trkpt lat="46.297601" lon="13.820738">
        <ele>1688.6994651648</ele>
        <time>2016-05-29T08:25:06Z</time>
      </trkpt>
      <trkpt lat="46.297629" lon="13.820685">
        <ele>1688.929462368</ele>
        <time>2016-05-29T08:25:12Z</time>
      </trkpt>
      <trkpt lat="46.297679" lon="13.820674">
        <ele>1688.6394658944</ele>
        <time>2016-05-29T08:25:21Z</time>
      </trkpt>
      <trkpt lat="46.297718" lon="13.820673">
        <ele>1687.2694825536</ele>
        <time>2016-05-29T08:25:30Z</time>
      </trkpt>
      <trkpt lat="46.297751" lon="13.820667">
        <ele>1685.9194989696</ele>
        <time>2016-05-29T08:25:38Z</time>
      </trkpt>
      <trkpt lat="46.297775" lon="13.820646">
        <ele>1685.279506752</ele>
        <time>2016-05-29T08:25:48Z</time>
      </trkpt>
      <trkpt lat="46.297819" lon="13.820639">
        <ele>1683.4095294912</ele>
        <time>2016-05-29T08:25:57Z</time>
      </trkpt>
      <trkpt lat="46.297853" lon="13.820624">
        <ele>1681.5095525952</ele>
        <time>2016-05-29T08:26:06Z</time>
      </trkpt>
      <trkpt lat="46.297882" lon="13.820599">
        <ele>1679.6595750912</ele>
        <time>2016-05-29T08:26:15Z</time>
      </trkpt>
      <trkpt lat="46.297904" lon="13.820575">
        <ele>1678.3095915072</ele>
        <time>2016-05-29T08:26:24Z</time>
      </trkpt>
      <trkpt lat="46.297929" lon="13.820566">
        <ele>1676.579612544</ele>
        <time>2016-05-29T08:26:33Z</time>
      </trkpt>
      <trkpt lat="46.297964" lon="13.820545">
        <ele>1675.4496262848</ele>
        <time>2016-05-29T08:26:42Z</time>
      </trkpt>
      <trkpt lat="46.297967" lon="13.820524">
        <ele>1674.4196388096</ele>
        <time>2016-05-29T08:26:48Z</time>
      </trkpt>
      <trkpt lat="46.297982" lon="13.820489">
        <ele>1673.8196461056</ele>
        <time>2016-05-29T08:26:58Z</time>
      </trkpt>
      <trkpt lat="46.298003" lon="13.820481">
        <ele>1672.5496615488</ele>
        <time>2016-05-29T08:27:07Z</time>
      </trkpt>
      <trkpt lat="46.298031" lon="13.820454">
        <ele>1670.529686112</ele>
        <time>2016-05-29T08:27:17Z</time>
      </trkpt>
      <trkpt lat="46.298059" lon="13.820377">
        <ele>1669.22970192</ele>
        <time>2016-05-29T08:27:26Z</time>
      </trkpt>
      <trkpt lat="46.298098" lon="13.820374">
        <ele>1668.0197166336</ele>
        <time>2016-05-29T08:27:34Z</time>
      </trkpt>
      <trkpt lat="46.298135" lon="13.820391">
        <ele>1666.929729888</ele>
        <time>2016-05-29T08:27:44Z</time>
      </trkpt>
      <trkpt lat="46.298183" lon="13.820399">
        <ele>1666.3397370624</ele>
        <time>2016-05-29T08:27:53Z</time>
      </trkpt>
      <trkpt lat="46.298189" lon="13.820433">
        <ele>1664.9197543296</ele>
        <time>2016-05-29T08:28:01Z</time>
      </trkpt>
      <trkpt lat="46.298204" lon="13.820470">
        <ele>1663.9097666112</ele>
        <time>2016-05-29T08:28:12Z</time>
      </trkpt>
      <trkpt lat="46.298226" lon="13.820483">
        <ele>1661.5497953088</ele>
        <time>2016-05-29T08:28:24Z</time>
      </trkpt>
      <trkpt lat="46.298258" lon="13.820500">
        <ele>1659.6698181696</ele>
        <time>2016-05-29T08:28:35Z</time>
      </trkpt>
      <trkpt lat="46.298274" lon="13.820501">
        <ele>1658.779828992</ele>
        <time>2016-05-29T08:28:47Z</time>
      </trkpt>
      <trkpt lat="46.298283" lon="13.820484">
        <ele>1658.5398319104</ele>
        <time>2016-05-29T08:29:01Z</time>
      </trkpt>
      <trkpt lat="46.298326" lon="13.820442">
        <ele>1657.8098407872</ele>
        <time>2016-05-29T08:29:09Z</time>
      </trkpt>
      <trkpt lat="46.298367" lon="13.820445">
        <ele>1656.2698595136</ele>
        <time>2016-05-29T08:29:18Z</time>
      </trkpt>
      <trkpt lat="46.298395" lon="13.820490">
        <ele>1655.1598730112</ele>
        <time>2016-05-29T08:29:28Z</time>
      </trkpt>
      <trkpt lat="46.298441" lon="13.820465">
        <ele>1654.2698838336</ele>
        <time>2016-05-29T08:29:37Z</time>
      </trkpt>
      <trkpt lat="46.298465" lon="13.820438">
        <ele>1653.0698984256</ele>
        <time>2016-05-29T08:29:47Z</time>
      </trkpt>
      <trkpt lat="46.298491" lon="13.820445">
        <ele>1651.9199124096</ele>
        <time>2016-05-29T08:29:56Z</time>
      </trkpt>
      <trkpt lat="46.298532" lon="13.820461">
        <ele>1650.4899297984</ele>
        <time>2016-05-29T08:30:04Z</time>
      </trkpt>
      <trkpt lat="46.298536" lon="13.820517">
        <ele>1648.5199537536</ele>
        <time>2016-05-29T08:30:16Z</time>
      </trkpt>
      <trkpt lat="46.298557" lon="13.820527">
        <ele>1647.1099708992</ele>
        <time>2016-05-29T08:30:26Z</time>
      </trkpt>
      <trkpt lat="46.298585" lon="13.820509">
        <ele>1645.9899845184</ele>
        <time>2016-05-29T08:30:35Z</time>
      </trkpt>
      <trkpt lat="46.298618" lon="13.820450">
        <ele>1644.5200023936</ele>
        <time>2016-05-29T08:30:46Z</time>
      </trkpt>
      <trkpt lat="46.298639" lon="13.820416">
        <ele>1643.4500154048</ele>
        <time>2016-05-29T08:30:53Z</time>
      </trkpt>
      <trkpt lat="46.298679" lon="13.820377">
        <ele>1641.6500372928</ele>
        <time>2016-05-29T08:31:02Z</time>
      </trkpt>
      <trkpt lat="46.298725" lon="13.820337">
        <ele>1639.7100608832</ele>
        <time>2016-05-29T08:31:13Z</time>
      </trkpt>
      <trkpt lat="46.298729" lon="13.820278">
        <ele>1638.3100779072</ele>
        <time>2016-05-29T08:31:21Z</time>
      </trkpt>
      <trkpt lat="46.298773" lon="13.820211">
        <ele>1636.8100961472</ele>
        <time>2016-05-29T08:31:28Z</time>
      </trkpt>
      <trkpt lat="46.298786" lon="13.820125">
        <ele>1635.0501175488</ele>
        <time>2016-05-29T08:31:36Z</time>
      </trkpt>
      <trkpt lat="46.298789" lon="13.820095">
        <ele>1634.6101228992</ele>
        <time>2016-05-29T08:31:39Z</time>
      </trkpt>
      <trkpt lat="46.298796" lon="13.820071">
        <ele>1634.4001254528</ele>
        <time>2016-05-29T08:31:40Z</time>
      </trkpt>
      <trkpt lat="46.298800" lon="13.820043">
        <ele>1634.2701270336</ele>
        <time>2016-05-29T08:31:43Z</time>
      </trkpt>
      <trkpt lat="46.298768" lon="13.819913">
        <ele>1633.7201337216</ele>
        <time>2016-05-29T08:31:52Z</time>
      </trkpt>
      <trkpt lat="46.298761" lon="13.819799">
        <ele>1632.080153664</ele>
        <time>2016-05-29T08:32:04Z</time>
      </trkpt>
      <trkpt lat="46.298752" lon="13.819711">
        <ele>1630.9901669184</ele>
        <time>2016-05-29T08:32:12Z</time>
      </trkpt>
      <trkpt lat="46.298719" lon="13.819614">
        <ele>1630.0401784704</ele>
        <time>2016-05-29T08:32:22Z</time>
      </trkpt>
      <trkpt lat="46.298745" lon="13.819541">
        <ele>1630.680170688</ele>
        <time>2016-05-29T08:32:30Z</time>
      </trkpt>
      <trkpt lat="46.298748" lon="13.819476">
        <ele>1630.8601684992</ele>
        <time>2016-05-29T08:32:37Z</time>
      </trkpt>
      <trkpt lat="46.298768" lon="13.819425">
        <ele>1630.3901742144</ele>
        <time>2016-05-29T08:32:43Z</time>
      </trkpt>
      <trkpt lat="46.298816" lon="13.819383">
        <ele>1629.380186496</ele>
        <time>2016-05-29T08:32:51Z</time>
      </trkpt>
      <trkpt lat="46.298814" lon="13.819316">
        <ele>1628.0602025472</ele>
        <time>2016-05-29T08:32:58Z</time>
      </trkpt>
      <trkpt lat="46.298798" lon="13.819246">
        <ele>1627.2202127616</ele>
        <time>2016-05-29T08:33:05Z</time>
      </trkpt>
      <trkpt lat="46.298800" lon="13.819197">
        <ele>1626.48022176</ele>
        <time>2016-05-29T08:33:09Z</time>
      </trkpt>
      <trkpt lat="46.298802" lon="13.819120">
        <ele>1625.530233312</ele>
        <time>2016-05-29T08:33:14Z</time>
      </trkpt>
      <trkpt lat="46.298801" lon="13.819043">
        <ele>1624.9202407296</ele>
        <time>2016-05-29T08:33:20Z</time>
      </trkpt>
      <trkpt lat="46.298793" lon="13.818953">
        <ele>1624.4602463232</ele>
        <time>2016-05-29T08:33:25Z</time>
      </trkpt>
      <trkpt lat="46.298838" lon="13.818925">
        <ele>1624.1602499712</ele>
        <time>2016-05-29T08:33:29Z</time>
      </trkpt>
      <trkpt lat="46.298906" lon="13.818905">
        <ele>1623.830253984</ele>
        <time>2016-05-29T08:33:39Z</time>
      </trkpt>
      <trkpt lat="46.298926" lon="13.818889">
        <ele>1623.9102530112</ele>
        <time>2016-05-29T08:33:41Z</time>
      </trkpt>
      <trkpt lat="46.299047" lon="13.818841">
        <ele>1624.3902471744</ele>
        <time>2016-05-29T08:33:52Z</time>
      </trkpt>
      <trkpt lat="46.299116" lon="13.818821">
        <ele>1624.4002470528</ele>
        <time>2016-05-29T08:33:58Z</time>
      </trkpt>
      <trkpt lat="46.299158" lon="13.818708">
        <ele>1624.9202407296</ele>
        <time>2016-05-29T08:34:07Z</time>
      </trkpt>
      <trkpt lat="46.299190" lon="13.818663">
        <ele>1625.7902301504</ele>
        <time>2016-05-29T08:34:17Z</time>
      </trkpt>
      <trkpt lat="46.299224" lon="13.818588">
        <ele>1626.4702218816</ele>
        <time>2016-05-29T08:34:26Z</time>
      </trkpt>
      <trkpt lat="46.299255" lon="13.818572">
        <ele>1628.3601988992</ele>
        <time>2016-05-29T08:34:35Z</time>
      </trkpt>
      <trkpt lat="46.299290" lon="13.818499">
        <ele>1630.030178592</ele>
        <time>2016-05-29T08:34:46Z</time>
      </trkpt>
      <trkpt lat="46.299344" lon="13.818428">
        <ele>1631.630159136</ele>
        <time>2016-05-29T08:34:57Z</time>
      </trkpt>
      <trkpt lat="46.299369" lon="13.818431">
        <ele>1632.6201470976</ele>
        <time>2016-05-29T08:35:06Z</time>
      </trkpt>
      <trkpt lat="46.299375" lon="13.818436">
        <ele>1633.4901365184</ele>
        <time>2016-05-29T08:35:24Z</time>
      </trkpt>
      <trkpt lat="46.299403" lon="13.818366">
        <ele>1633.5601356672</ele>
        <time>2016-05-29T08:35:39Z</time>
      </trkpt>
      <trkpt lat="46.299431" lon="13.818300">
        <ele>1635.9001072128</ele>
        <time>2016-05-29T08:35:50Z</time>
      </trkpt>
      <trkpt lat="46.299475" lon="13.818197">
        <ele>1637.180091648</ele>
        <time>2016-05-29T08:35:59Z</time>
      </trkpt>
      <trkpt lat="46.299496" lon="13.818153">
        <ele>1638.4400763264</ele>
        <time>2016-05-29T08:36:10Z</time>
      </trkpt>
      <trkpt lat="46.299479" lon="13.818129">
        <ele>1638.7700723136</ele>
        <time>2016-05-29T08:36:29Z</time>
      </trkpt>
      <trkpt lat="46.299438" lon="13.818153">
        <ele>1638.8600712192</ele>
        <time>2016-05-29T08:36:49Z</time>
      </trkpt>
      <trkpt lat="46.299486" lon="13.818074">
        <ele>1638.6700735296</ele>
        <time>2016-05-29T08:37:01Z</time>
      </trkpt>
      <trkpt lat="46.299550" lon="13.817958">
        <ele>1640.5100511552</ele>
        <time>2016-05-29T08:37:13Z</time>
      </trkpt>
      <trkpt lat="46.299600" lon="13.817871">
        <ele>1642.7700236736</ele>
        <time>2016-05-29T08:37:24Z</time>
      </trkpt>
      <trkpt lat="46.299617" lon="13.817866">
        <ele>1643.1500190528</ele>
        <time>2016-05-29T08:37:27Z</time>
      </trkpt>
      <trkpt lat="46.299647" lon="13.817800">
        <ele>1644.8199987456</ele>
        <time>2016-05-29T08:37:39Z</time>
      </trkpt>
      <trkpt lat="46.299702" lon="13.817724">
        <ele>1646.179982208</ele>
        <time>2016-05-29T08:37:50Z</time>
      </trkpt>
      <trkpt lat="46.299755" lon="13.817696">
        <ele>1647.8899614144</ele>
        <time>2016-05-29T08:37:58Z</time>
      </trkpt>
      <trkpt lat="46.299793" lon="13.817698">
        <ele>1649.8699373376</ele>
        <time>2016-05-29T08:38:09Z</time>
      </trkpt>
      <trkpt lat="46.299814" lon="13.817705">
        <ele>1649.9499363648</ele>
        <time>2016-05-29T08:38:18Z</time>
      </trkpt>
      <trkpt lat="46.299857" lon="13.817663">
        <ele>1649.72993904</ele>
        <time>2016-05-29T08:38:25Z</time>
      </trkpt>
      <trkpt lat="46.299865" lon="13.817622">
        <ele>1649.6199403776</ele>
        <time>2016-05-29T08:38:33Z</time>
      </trkpt>
      <trkpt lat="46.299848" lon="13.817606">
        <ele>1649.2599447552</ele>
        <time>2016-05-29T08:38:45Z</time>
      </trkpt>
      <trkpt lat="46.299843" lon="13.817638">
        <ele>1649.4499424448</ele>
        <time>2016-05-29T08:39:01Z</time>
      </trkpt>
      <trkpt lat="46.299832" lon="13.817691">
        <ele>1649.279944512</ele>
        <time>2016-05-29T08:39:31Z</time>
      </trkpt>
      <trkpt lat="46.299833" lon="13.817695">
        <ele>1649.2499448768</ele>
        <time>2016-05-29T08:39:59Z</time>
      </trkpt>
      <trkpt lat="46.299827" lon="13.817689">
        <ele>1649.129946336</ele>
        <time>2016-05-29T08:40:21Z</time>
      </trkpt>
      <trkpt lat="46.299839" lon="13.817680">
        <ele>1649.2899443904</ele>
        <time>2016-05-29T08:40:49Z</time>
      </trkpt>
      <trkpt lat="46.299844" lon="13.817697">
        <ele>1649.4199428096</ele>
        <time>2016-05-29T08:41:06Z</time>
      </trkpt>
      <trkpt lat="46.299857" lon="13.817683">
        <ele>1649.7099392832</ele>
        <time>2016-05-29T08:41:33Z</time>
      </trkpt>
      <trkpt lat="46.299864" lon="13.817643">
        <ele>1649.7099392832</ele>
        <time>2016-05-29T08:41:49Z</time>
      </trkpt>
      <trkpt lat="46.299900" lon="13.817539">
        <ele>1649.0499473088</ele>
        <time>2016-05-29T08:41:56Z</time>
      </trkpt>
      <trkpt lat="46.299933" lon="13.817460">
        <ele>1648.179957888</ele>
        <time>2016-05-29T08:42:02Z</time>
      </trkpt>
      <trkpt lat="46.299996" lon="13.817410">
        <ele>1646.1999819648</ele>
        <time>2016-05-29T08:42:12Z</time>
      </trkpt>
      <trkpt lat="46.300072" lon="13.817387">
        <ele>1644.030008352</ele>
        <time>2016-05-29T08:42:21Z</time>
      </trkpt>
      <trkpt lat="46.300099" lon="13.817378">
        <ele>1643.380016256</ele>
        <time>2016-05-29T08:42:24Z</time>
      </trkpt>
      <trkpt lat="46.300207" lon="13.817389">
        <ele>1641.6400374144</ele>
        <time>2016-05-29T08:42:35Z</time>
      </trkpt>
      <trkpt lat="46.300260" lon="13.817328">
        <ele>1639.880058816</ele>
        <time>2016-05-29T08:42:44Z</time>
      </trkpt>
      <trkpt lat="46.300320" lon="13.817266">
        <ele>1638.1400799744</ele>
        <time>2016-05-29T08:42:55Z</time>
      </trkpt>
      <trkpt lat="46.300362" lon="13.817218">
        <ele>1636.8700954176</ele>
        <time>2016-05-29T08:43:03Z</time>
      </trkpt>
      <trkpt lat="46.300401" lon="13.817171">
        <ele>1635.5201118336</ele>
        <time>2016-05-29T08:43:12Z</time>
      </trkpt>
      <trkpt lat="46.300445" lon="13.817119">
        <ele>1633.5101362752</ele>
        <time>2016-05-29T08:43:22Z</time>
      </trkpt>
      <trkpt lat="46.300490" lon="13.817090">
        <ele>1631.2601636352</ele>
        <time>2016-05-29T08:43:37Z</time>
      </trkpt>
      <trkpt lat="46.300525" lon="13.817038">
        <ele>1630.5201726336</ele>
        <time>2016-05-29T08:43:46Z</time>
      </trkpt>
      <trkpt lat="46.300539" lon="13.816977">
        <ele>1629.1501892928</ele>
        <time>2016-05-29T08:43:57Z</time>
      </trkpt>
      <trkpt lat="46.300603" lon="13.816903">
        <ele>1627.8402052224</ele>
        <time>2016-05-29T08:44:05Z</time>
      </trkpt>
      <trkpt lat="46.300659" lon="13.816858">
        <ele>1625.5902325824</ele>
        <time>2016-05-29T08:44:13Z</time>
      </trkpt>
      <trkpt lat="46.300728" lon="13.816777">
        <ele>1622.3402721024</ele>
        <time>2016-05-29T08:44:21Z</time>
      </trkpt>
      <trkpt lat="46.300745" lon="13.816775">
        <ele>1620.4502950848</ele>
        <time>2016-05-29T08:44:32Z</time>
      </trkpt>
      <trkpt lat="46.300766" lon="13.816750">
        <ele>1620.1102992192</ele>
        <time>2016-05-29T08:44:43Z</time>
      </trkpt>
      <trkpt lat="46.300843" lon="13.816667">
        <ele>1619.1403110144</ele>
        <time>2016-05-29T08:44:51Z</time>
      </trkpt>
      <trkpt lat="46.300915" lon="13.816593">
        <ele>1616.48034336</ele>
        <time>2016-05-29T08:44:59Z</time>
      </trkpt>
      <trkpt lat="46.300999" lon="13.816564">
        <ele>1614.3003698688</ele>
        <time>2016-05-29T08:45:07Z</time>
      </trkpt>
      <trkpt lat="46.301066" lon="13.816537">
        <ele>1612.0703969856</ele>
        <time>2016-05-29T08:45:15Z</time>
      </trkpt>
      <trkpt lat="46.301127" lon="13.816437">
        <ele>1609.6404265344</ele>
        <time>2016-05-29T08:45:25Z</time>
      </trkpt>
      <trkpt lat="46.301195" lon="13.816381">
        <ele>1607.6504507328</ele>
        <time>2016-05-29T08:45:33Z</time>
      </trkpt>
      <trkpt lat="46.301276" lon="13.816317">
        <ele>1604.9504835648</ele>
        <time>2016-05-29T08:45:44Z</time>
      </trkpt>
      <trkpt lat="46.301355" lon="13.816298">
        <ele>1604.1604931712</ele>
        <time>2016-05-29T08:45:53Z</time>
      </trkpt>
      <trkpt lat="46.301446" lon="13.816242">
        <ele>1603.0905061824</ele>
        <time>2016-05-29T08:46:04Z</time>
      </trkpt>
      <trkpt lat="46.301530" lon="13.816160">
        <ele>1601.5005255168</ele>
        <time>2016-05-29T08:46:12Z</time>
      </trkpt>
      <trkpt lat="46.301618" lon="13.816153">
        <ele>1600.5505370688</ele>
        <time>2016-05-29T08:46:21Z</time>
      </trkpt>
      <trkpt lat="46.301700" lon="13.816147">
        <ele>1599.0905548224</ele>
        <time>2016-05-29T08:46:31Z</time>
      </trkpt>
      <trkpt lat="46.301715" lon="13.816134">
        <ele>1598.8505577408</ele>
        <time>2016-05-29T08:46:35Z</time>
      </trkpt>
      <trkpt lat="46.301801" lon="13.816151">
        <ele>1597.8905694144</ele>
        <time>2016-05-29T08:46:44Z</time>
      </trkpt>
      <trkpt lat="46.301885" lon="13.816226">
        <ele>1596.8005826688</ele>
        <time>2016-05-29T08:46:55Z</time>
      </trkpt>
      <trkpt lat="46.301964" lon="13.816203">
        <ele>1595.930593248</ele>
        <time>2016-05-29T08:47:03Z</time>
      </trkpt>
      <trkpt lat="46.302030" lon="13.816247">
        <ele>1594.1106153792</ele>
        <time>2016-05-29T08:47:15Z</time>
      </trkpt>
      <trkpt lat="46.302106" lon="13.816195">
        <ele>1591.9906411584</ele>
        <time>2016-05-29T08:47:25Z</time>
      </trkpt>
      <trkpt lat="46.302158" lon="13.816183">
        <ele>1589.6506696128</ele>
        <time>2016-05-29T08:47:36Z</time>
      </trkpt>
      <trkpt lat="46.302218" lon="13.816156">
        <ele>1587.3006981888</ele>
        <time>2016-05-29T08:47:45Z</time>
      </trkpt>
      <trkpt lat="46.302294" lon="13.816151">
        <ele>1585.5507194688</ele>
        <time>2016-05-29T08:47:56Z</time>
      </trkpt>
      <trkpt lat="46.302365" lon="13.816171">
        <ele>1584.630730656</ele>
        <time>2016-05-29T08:48:04Z</time>
      </trkpt>
      <trkpt lat="46.302426" lon="13.816145">
        <ele>1583.4707447616</ele>
        <time>2016-05-29T08:48:11Z</time>
      </trkpt>
      <trkpt lat="46.302494" lon="13.816094">
        <ele>1581.9607631232</ele>
        <time>2016-05-29T08:48:19Z</time>
      </trkpt>
      <trkpt lat="46.302522" lon="13.816048">
        <ele>1579.930787808</ele>
        <time>2016-05-29T08:48:30Z</time>
      </trkpt>
      <trkpt lat="46.302594" lon="13.816083">
        <ele>1577.4008185728</ele>
        <time>2016-05-29T08:48:43Z</time>
      </trkpt>
      <trkpt lat="46.302640" lon="13.816125">
        <ele>1575.2908442304</ele>
        <time>2016-05-29T08:48:54Z</time>
      </trkpt>
      <trkpt lat="46.302716" lon="13.816116">
        <ele>1572.830874144</ele>
        <time>2016-05-29T08:49:06Z</time>
      </trkpt>
      <trkpt lat="46.302793" lon="13.816086">
        <ele>1571.8508860608</ele>
        <time>2016-05-29T08:49:17Z</time>
      </trkpt>
      <trkpt lat="46.302865" lon="13.816132">
        <ele>1570.380903936</ele>
        <time>2016-05-29T08:49:29Z</time>
      </trkpt>
      <trkpt lat="46.302921" lon="13.816143">
        <ele>1569.130919136</ele>
        <time>2016-05-29T08:49:40Z</time>
      </trkpt>
      <trkpt lat="46.302968" lon="13.816117">
        <ele>1566.7909475904</ele>
        <time>2016-05-29T08:49:52Z</time>
      </trkpt>
      <trkpt lat="46.303015" lon="13.816106">
        <ele>1565.0609686272</ele>
        <time>2016-05-29T08:50:03Z</time>
      </trkpt>
      <trkpt lat="46.303067" lon="13.816048">
        <ele>1563.0209934336</ele>
        <time>2016-05-29T08:50:12Z</time>
      </trkpt>
      <trkpt lat="46.303145" lon="13.816006">
        <ele>1561.0110178752</ele>
        <time>2016-05-29T08:50:24Z</time>
      </trkpt>
      <trkpt lat="46.303201" lon="13.816003">
        <ele>1559.531035872</ele>
        <time>2016-05-29T08:50:34Z</time>
      </trkpt>
      <trkpt lat="46.303273" lon="13.816025">
        <ele>1558.3510502208</ele>
        <time>2016-05-29T08:50:45Z</time>
      </trkpt>
      <trkpt lat="46.303351" lon="13.816008">
        <ele>1557.1110652992</ele>
        <time>2016-05-29T08:50:54Z</time>
      </trkpt>
      <trkpt lat="46.303433" lon="13.816036">
        <ele>1555.5410843904</ele>
        <time>2016-05-29T08:51:05Z</time>
      </trkpt>
      <trkpt lat="46.303484" lon="13.816034">
        <ele>1555.3410868224</ele>
        <time>2016-05-29T08:51:14Z</time>
      </trkpt>
      <trkpt lat="46.303574" lon="13.815989">
        <ele>1554.5510964288</ele>
        <time>2016-05-29T08:51:25Z</time>
      </trkpt>
      <trkpt lat="46.303669" lon="13.815955">
        <ele>1553.931103968</ele>
        <time>2016-05-29T08:51:36Z</time>
      </trkpt>
      <trkpt lat="46.303718" lon="13.815915">
        <ele>1554.2411001984</ele>
        <time>2016-05-29T08:51:41Z</time>
      </trkpt>
      <trkpt lat="46.303820" lon="13.815890">
        <ele>1555.5110847552</ele>
        <time>2016-05-29T08:51:54Z</time>
      </trkpt>
      <trkpt lat="46.303895" lon="13.815890">
        <ele>1556.4910728384</ele>
        <time>2016-05-29T08:52:03Z</time>
      </trkpt>
      <trkpt lat="46.303960" lon="13.815891">
        <ele>1558.1910521664</ele>
        <time>2016-05-29T08:52:12Z</time>
      </trkpt>
      <trkpt lat="46.304062" lon="13.815821">
        <ele>1560.3710256576</ele>
        <time>2016-05-29T08:52:23Z</time>
      </trkpt>
      <trkpt lat="46.304107" lon="13.815834">
        <ele>1560.8010204288</ele>
        <time>2016-05-29T08:52:26Z</time>
      </trkpt>
      <trkpt lat="46.304190" lon="13.815898">
        <ele>1562.0910047424</ele>
        <time>2016-05-29T08:52:37Z</time>
      </trkpt>
      <trkpt lat="46.304210" lon="13.815901">
        <ele>1562.680997568</ele>
        <time>2016-05-29T08:52:49Z</time>
      </trkpt>
      <trkpt lat="46.304214" lon="13.815907">
        <ele>1562.7109972032</ele>
        <time>2016-05-29T08:53:06Z</time>
      </trkpt>
      <trkpt lat="46.304228" lon="13.815895">
        <ele>1563.2109911232</ele>
        <time>2016-05-29T08:53:20Z</time>
      </trkpt>
      <trkpt lat="46.304250" lon="13.815874">
        <ele>1562.880995136</ele>
        <time>2016-05-29T08:53:40Z</time>
      </trkpt>
      <trkpt lat="46.304277" lon="13.815867">
        <ele>1562.7209970816</ele>
        <time>2016-05-29T08:53:54Z</time>
      </trkpt>
      <trkpt lat="46.304282" lon="13.815886">
        <ele>1562.481</ele>
        <time>2016-05-29T08:54:07Z</time>
      </trkpt>
      <trkpt lat="46.304298" lon="13.815873">
        <ele>1562.8709952576</ele>
        <time>2016-05-29T08:54:18Z</time>
      </trkpt>
      <trkpt lat="46.304311" lon="13.815860">
        <ele>1562.8409956224</ele>
        <time>2016-05-29T08:54:34Z</time>
      </trkpt>
      <trkpt lat="46.304341" lon="13.815890">
        <ele>1562.6509979328</ele>
        <time>2016-05-29T08:54:44Z</time>
      </trkpt>
      <trkpt lat="46.304392" lon="13.815932">
        <ele>1562.530999392</ele>
        <time>2016-05-29T08:54:49Z</time>
      </trkpt>
      <trkpt lat="46.304458" lon="13.815908">
        <ele>1561.4610124032</ele>
        <time>2016-05-29T08:54:57Z</time>
      </trkpt>
      <trkpt lat="46.304519" lon="13.815896">
        <ele>1560.7610209152</ele>
        <time>2016-05-29T08:55:03Z</time>
      </trkpt>
      <trkpt lat="46.304566" lon="13.815903">
        <ele>1560.4510246848</ele>
        <time>2016-05-29T08:55:07Z</time>
      </trkpt>
      <trkpt lat="46.304662" lon="13.815930">
        <ele>1561.4210128896</ele>
        <time>2016-05-29T08:55:16Z</time>
      </trkpt>
      <trkpt lat="46.304749" lon="13.815999">
        <ele>1562.2210031616</ele>
        <time>2016-05-29T08:55:27Z</time>
      </trkpt>
      <trkpt lat="46.304872" lon="13.816001">
        <ele>1560.181027968</ele>
        <time>2016-05-29T08:55:39Z</time>
      </trkpt>
      <trkpt lat="46.304924" lon="13.816040">
        <ele>1559.1510404928</ele>
        <time>2016-05-29T08:55:44Z</time>
      </trkpt>
      <trkpt lat="46.304981" lon="13.816139">
        <ele>1557.8710560576</ele>
        <time>2016-05-29T08:55:55Z</time>
      </trkpt>
      <trkpt lat="46.305044" lon="13.816175">
        <ele>1557.581059584</ele>
        <time>2016-05-29T08:56:05Z</time>
      </trkpt>
      <trkpt lat="46.305062" lon="13.816171">
        <ele>1556.5210724736</ele>
        <time>2016-05-29T08:56:14Z</time>
      </trkpt>
      <trkpt lat="46.305072" lon="13.816176">
        <ele>1557.2910631104</ele>
        <time>2016-05-29T08:56:36Z</time>
      </trkpt>
      <trkpt lat="46.305086" lon="13.816196">
        <ele>1557.2110640832</ele>
        <time>2016-05-29T08:56:56Z</time>
      </trkpt>
      <trkpt lat="46.305095" lon="13.816205">
        <ele>1557.181064448</ele>
        <time>2016-05-29T08:56:57Z</time>
      </trkpt>
      <trkpt lat="46.305130" lon="13.816303">
        <ele>1556.6610707712</ele>
        <time>2016-05-29T08:57:07Z</time>
      </trkpt>
      <trkpt lat="46.305136" lon="13.816310">
        <ele>1556.6110713792</ele>
        <time>2016-05-29T08:57:08Z</time>
      </trkpt>
      <trkpt lat="46.305182" lon="13.816335">
        <ele>1556.48107296</ele>
        <time>2016-05-29T08:57:12Z</time>
      </trkpt>
      <trkpt lat="46.305248" lon="13.816364">
        <ele>1555.631083296</ele>
        <time>2016-05-29T08:57:19Z</time>
      </trkpt>
      <trkpt lat="46.305294" lon="13.816412">
        <ele>1554.931091808</ele>
        <time>2016-05-29T08:57:24Z</time>
      </trkpt>
      <trkpt lat="46.305364" lon="13.816516">
        <ele>1553.6211077376</ele>
        <time>2016-05-29T08:57:34Z</time>
      </trkpt>
      <trkpt lat="46.305384" lon="13.816619">
        <ele>1553.4911093184</ele>
        <time>2016-05-29T08:57:42Z</time>
      </trkpt>
      <trkpt lat="46.305418" lon="13.816696">
        <ele>1553.6011079808</ele>
        <time>2016-05-29T08:57:49Z</time>
      </trkpt>
      <trkpt lat="46.305510" lon="13.816805">
        <ele>1552.9511158848</ele>
        <time>2016-05-29T08:57:58Z</time>
      </trkpt>
      <trkpt lat="46.305535" lon="13.816822">
        <ele>1552.781117952</ele>
        <time>2016-05-29T08:58:02Z</time>
      </trkpt>
      <trkpt lat="46.305642" lon="13.816965">
        <ele>1552.1711253696</ele>
        <time>2016-05-29T08:58:13Z</time>
      </trkpt>
      <trkpt lat="46.305710" lon="13.817073">
        <ele>1551.8511292608</ele>
        <time>2016-05-29T08:58:21Z</time>
      </trkpt>
      <trkpt lat="46.305771" lon="13.817175">
        <ele>1551.4911336384</ele>
        <time>2016-05-29T08:58:29Z</time>
      </trkpt>
      <trkpt lat="46.305785" lon="13.817185">
        <ele>1551.0711387456</ele>
        <time>2016-05-29T08:58:36Z</time>
      </trkpt>
      <trkpt lat="46.305806" lon="13.817179">
        <ele>1550.8511414208</ele>
        <time>2016-05-29T08:58:41Z</time>
      </trkpt>
      <trkpt lat="46.305844" lon="13.817187">
        <ele>1550.8211417856</ele>
        <time>2016-05-29T08:58:44Z</time>
      </trkpt>
      <trkpt lat="46.305866" lon="13.817194">
        <ele>1550.7711423936</ele>
        <time>2016-05-29T08:58:47Z</time>
      </trkpt>
      <trkpt lat="46.305899" lon="13.817256">
        <ele>1551.1111382592</ele>
        <time>2016-05-29T08:58:56Z</time>
      </trkpt>
      <trkpt lat="46.305907" lon="13.817255">
        <ele>1551.531133152</ele>
        <time>2016-05-29T08:59:04Z</time>
      </trkpt>
      <trkpt lat="46.305906" lon="13.817247">
        <ele>1551.7511304768</ele>
        <time>2016-05-29T08:59:15Z</time>
      </trkpt>
      <trkpt lat="46.305906" lon="13.817244">
        <ele>1551.5911324224</ele>
        <time>2016-05-29T08:59:30Z</time>
      </trkpt>
      <trkpt lat="46.305915" lon="13.817263">
        <ele>1551.331135584</ele>
        <time>2016-05-29T08:59:35Z</time>
      </trkpt>
      <trkpt lat="46.305976" lon="13.817304">
        <ele>1551.1911372864</ele>
        <time>2016-05-29T08:59:43Z</time>
      </trkpt>
      <trkpt lat="46.305996" lon="13.817245">
        <ele>1551.4511341248</ele>
        <time>2016-05-29T08:59:47Z</time>
      </trkpt>
      <trkpt lat="46.306024" lon="13.817101">
        <ele>1551.4611340032</ele>
        <time>2016-05-29T08:59:58Z</time>
      </trkpt>
      <trkpt lat="46.306042" lon="13.817029">
        <ele>1550.8211417856</ele>
        <time>2016-05-29T09:00:06Z</time>
      </trkpt>
      <trkpt lat="46.306043" lon="13.817016">
        <ele>1550.7511426368</ele>
        <time>2016-05-29T09:00:08Z</time>
      </trkpt>
      <trkpt lat="46.306061" lon="13.816964">
        <ele>1550.7011432448</ele>
        <time>2016-05-29T09:00:16Z</time>
      </trkpt>
      <trkpt lat="46.306057" lon="13.816871">
        <ele>1551.3611352192</ele>
        <time>2016-05-29T09:00:23Z</time>
      </trkpt>
      <trkpt lat="46.306069" lon="13.816813">
        <ele>1551.5911324224</ele>
        <time>2016-05-29T09:00:28Z</time>
      </trkpt>
      <trkpt lat="46.306066" lon="13.816710">
        <ele>1552.381122816</ele>
        <time>2016-05-29T09:00:36Z</time>
      </trkpt>
      <trkpt lat="46.306102" lon="13.816646">
        <ele>1552.931116128</ele>
        <time>2016-05-29T09:00:43Z</time>
      </trkpt>
      <trkpt lat="46.306108" lon="13.816541">
        <ele>1554.1211016576</ele>
        <time>2016-05-29T09:00:52Z</time>
      </trkpt>
      <trkpt lat="46.306085" lon="13.816514">
        <ele>1553.7111066432</ele>
        <time>2016-05-29T09:00:59Z</time>
      </trkpt>
      <trkpt lat="46.306102" lon="13.816454">
        <ele>1553.2911117504</ele>
        <time>2016-05-29T09:01:10Z</time>
      </trkpt>
      <trkpt lat="46.306125" lon="13.816406">
        <ele>1552.7711180736</ele>
        <time>2016-05-29T09:01:19Z</time>
      </trkpt>
      <trkpt lat="46.306114" lon="13.816400">
        <ele>1552.4111224512</ele>
        <time>2016-05-29T09:01:29Z</time>
      </trkpt>
      <trkpt lat="46.306089" lon="13.816384">
        <ele>1551.131138016</ele>
        <time>2016-05-29T09:01:41Z</time>
      </trkpt>
      <trkpt lat="46.306067" lon="13.816368">
        <ele>1550.6411439744</ele>
        <time>2016-05-29T09:01:53Z</time>
      </trkpt>
      <trkpt lat="46.306066" lon="13.816352">
        <ele>1550.1911494464</ele>
        <time>2016-05-29T09:02:09Z</time>
      </trkpt>
      <trkpt lat="46.306065" lon="13.816296">
        <ele>1550.131150176</ele>
        <time>2016-05-29T09:02:20Z</time>
      </trkpt>
      <trkpt lat="46.306079" lon="13.816234">
        <ele>1548.48117024</ele>
        <time>2016-05-29T09:02:32Z</time>
      </trkpt>
      <trkpt lat="46.306126" lon="13.816176">
        <ele>1546.6611923712</ele>
        <time>2016-05-29T09:02:43Z</time>
      </trkpt>
      <trkpt lat="46.306188" lon="13.816064">
        <ele>1546.9911883584</ele>
        <time>2016-05-29T09:02:51Z</time>
      </trkpt>
      <trkpt lat="46.306223" lon="13.815905">
        <ele>1547.3111844672</ele>
        <time>2016-05-29T09:03:00Z</time>
      </trkpt>
      <trkpt lat="46.306238" lon="13.815821">
        <ele>1548.381171456</ele>
        <time>2016-05-29T09:03:07Z</time>
      </trkpt>
      <trkpt lat="46.306256" lon="13.815713">
        <ele>1549.431158688</ele>
        <time>2016-05-29T09:03:14Z</time>
      </trkpt>
      <trkpt lat="46.306257" lon="13.815572">
        <ele>1550.3211478656</ele>
        <time>2016-05-29T09:03:22Z</time>
      </trkpt>
      <trkpt lat="46.306266" lon="13.815444">
        <ele>1551.48113376</ele>
        <time>2016-05-29T09:03:30Z</time>
      </trkpt>
      <trkpt lat="46.306265" lon="13.815339">
        <ele>1552.931116128</ele>
        <time>2016-05-29T09:03:38Z</time>
      </trkpt>
      <trkpt lat="46.306230" lon="13.815218">
        <ele>1554.5110969152</ele>
        <time>2016-05-29T09:03:49Z</time>
      </trkpt>
      <trkpt lat="46.306221" lon="13.815128">
        <ele>1554.9510915648</ele>
        <time>2016-05-29T09:04:00Z</time>
      </trkpt>
      <trkpt lat="46.306201" lon="13.815057">
        <ele>1556.6910704064</ele>
        <time>2016-05-29T09:04:12Z</time>
      </trkpt>
      <trkpt lat="46.306188" lon="13.815054">
        <ele>1557.7210578816</ele>
        <time>2016-05-29T09:04:24Z</time>
      </trkpt>
      <trkpt lat="46.306190" lon="13.815052">
        <ele>1558.2610513152</ele>
        <time>2016-05-29T09:04:43Z</time>
      </trkpt>
      <trkpt lat="46.306204" lon="13.815036">
        <ele>1558.4210493696</ele>
        <time>2016-05-29T09:05:03Z</time>
      </trkpt>
      <trkpt lat="46.306197" lon="13.815039">
        <ele>1558.5610476672</ele>
        <time>2016-05-29T09:05:22Z</time>
      </trkpt>
      <trkpt lat="46.306176" lon="13.814982">
        <ele>1559.4510368448</ele>
        <time>2016-05-29T09:05:33Z</time>
      </trkpt>
      <trkpt lat="46.306169" lon="13.814970">
        <ele>1561.1610160512</ele>
        <time>2016-05-29T09:05:45Z</time>
      </trkpt>
      <trkpt lat="46.306179" lon="13.814880">
        <ele>1561.6510100928</ele>
        <time>2016-05-29T09:05:56Z</time>
      </trkpt>
      <trkpt lat="46.306205" lon="13.814832">
        <ele>1562.9509942848</ele>
        <time>2016-05-29T09:06:04Z</time>
      </trkpt>
      <trkpt lat="46.306219" lon="13.814805">
        <ele>1564.7709721536</ele>
        <time>2016-05-29T09:06:12Z</time>
      </trkpt>
      <trkpt lat="46.306237" lon="13.814753">
        <ele>1566.8209472256</ele>
        <time>2016-05-29T09:06:23Z</time>
      </trkpt>
      <trkpt lat="46.306269" lon="13.814744">
        <ele>1568.380928256</ele>
        <time>2016-05-29T09:06:32Z</time>
      </trkpt>
      <trkpt lat="46.306296" lon="13.814724">
        <ele>1570.3909038144</ele>
        <time>2016-05-29T09:06:43Z</time>
      </trkpt>
      <trkpt lat="46.306317" lon="13.814655">
        <ele>1571.73088752</ele>
        <time>2016-05-29T09:06:55Z</time>
      </trkpt>
      <trkpt lat="46.306341" lon="13.814580">
        <ele>1572.4408788864</ele>
        <time>2016-05-29T09:07:06Z</time>
      </trkpt>
      <trkpt lat="46.306362" lon="13.814557">
        <ele>1574.1908576064</ele>
        <time>2016-05-29T09:07:14Z</time>
      </trkpt>
      <trkpt lat="46.306393" lon="13.814513">
        <ele>1574.6208523776</ele>
        <time>2016-05-29T09:07:36Z</time>
      </trkpt>
      <trkpt lat="46.306410" lon="13.814516">
        <ele>1574.4208548096</ele>
        <time>2016-05-29T09:07:52Z</time>
      </trkpt>
      <trkpt lat="46.306416" lon="13.814473">
        <ele>1574.0608591872</ele>
        <time>2016-05-29T09:08:07Z</time>
      </trkpt>
      <trkpt lat="46.306432" lon="13.814369">
        <ele>1574.180857728</ele>
        <time>2016-05-29T09:08:16Z</time>
      </trkpt>
      <trkpt lat="46.306437" lon="13.814299">
        <ele>1574.3108561472</ele>
        <time>2016-05-29T09:08:24Z</time>
      </trkpt>
      <trkpt lat="46.306444" lon="13.814197">
        <ele>1575.6008404608</ele>
        <time>2016-05-29T09:08:34Z</time>
      </trkpt>
      <trkpt lat="46.306445" lon="13.814144">
        <ele>1575.5908405824</ele>
        <time>2016-05-29T09:08:41Z</time>
      </trkpt>
      <trkpt lat="46.306446" lon="13.814005">
        <ele>1575.3108439872</ele>
        <time>2016-05-29T09:08:50Z</time>
      </trkpt>
      <trkpt lat="46.306475" lon="13.813915">
        <ele>1575.8708371776</ele>
        <time>2016-05-29T09:08:57Z</time>
      </trkpt>
      <trkpt lat="46.306528" lon="13.813851">
        <ele>1577.2608202752</ele>
        <time>2016-05-29T09:09:05Z</time>
      </trkpt>
      <trkpt lat="46.306562" lon="13.813775">
        <ele>1578.7108026432</ele>
        <time>2016-05-29T09:09:14Z</time>
      </trkpt>
      <trkpt lat="46.306611" lon="13.813658">
        <ele>1577.9908113984</ele>
        <time>2016-05-29T09:09:24Z</time>
      </trkpt>
      <trkpt lat="46.306640" lon="13.813591">
        <ele>1578.280807872</ele>
        <time>2016-05-29T09:09:28Z</time>
      </trkpt>
      <trkpt lat="46.306669" lon="13.813496">
        <ele>1578.8008015488</ele>
        <time>2016-05-29T09:09:36Z</time>
      </trkpt>
      <trkpt lat="46.306687" lon="13.813385">
        <ele>1579.73079024</ele>
        <time>2016-05-29T09:09:44Z</time>
      </trkpt>
      <trkpt lat="46.306701" lon="13.813239">
        <ele>1581.2407718784</ele>
        <time>2016-05-29T09:09:55Z</time>
      </trkpt>
      <trkpt lat="46.306730" lon="13.813264">
        <ele>1582.5407560704</ele>
        <time>2016-05-29T09:10:03Z</time>
      </trkpt>
      <trkpt lat="46.306768" lon="13.813343">
        <ele>1584.73072944</ele>
        <time>2016-05-29T09:10:15Z</time>
      </trkpt>
      <trkpt lat="46.306801" lon="13.813413">
        <ele>1586.9707022016</ele>
        <time>2016-05-29T09:10:25Z</time>
      </trkpt>
      <trkpt lat="46.306794" lon="13.813441">
        <ele>1587.930690528</ele>
        <time>2016-05-29T09:10:41Z</time>
      </trkpt>
      <trkpt lat="46.306778" lon="13.813409">
        <ele>1587.98068992</ele>
        <time>2016-05-29T09:10:57Z</time>
      </trkpt>
      <trkpt lat="46.306769" lon="13.813367">
        <ele>1588.0906885824</ele>
        <time>2016-05-29T09:11:13Z</time>
      </trkpt>
      <trkpt lat="46.306761" lon="13.813302">
        <ele>1588.5906825024</ele>
        <time>2016-05-29T09:11:27Z</time>
      </trkpt>
      <trkpt lat="46.306776" lon="13.813233">
        <ele>1589.280674112</ele>
        <time>2016-05-29T09:11:36Z</time>
      </trkpt>
      <trkpt lat="46.306816" lon="13.813169">
        <ele>1591.2206505216</ele>
        <time>2016-05-29T09:11:48Z</time>
      </trkpt>
      <trkpt lat="46.306852" lon="13.813090">
        <ele>1593.3906241344</ele>
        <time>2016-05-29T09:11:58Z</time>
      </trkpt>
      <trkpt lat="46.306925" lon="13.813090">
        <ele>1595.1706024896</ele>
        <time>2016-05-29T09:12:07Z</time>
      </trkpt>
      <trkpt lat="46.306990" lon="13.813155">
        <ele>1597.180578048</ele>
        <time>2016-05-29T09:12:17Z</time>
      </trkpt>
      <trkpt lat="46.307038" lon="13.813122">
        <ele>1597.7905706304</ele>
        <time>2016-05-29T09:12:25Z</time>
      </trkpt>
      <trkpt lat="46.307084" lon="13.813059">
        <ele>1597.8705696576</ele>
        <time>2016-05-29T09:12:33Z</time>
      </trkpt>
      <trkpt lat="46.307117" lon="13.812959">
        <ele>1597.930568928</ele>
        <time>2016-05-29T09:12:42Z</time>
      </trkpt>
      <trkpt lat="46.307175" lon="13.812939">
        <ele>1597.8105703872</ele>
        <time>2016-05-29T09:12:49Z</time>
      </trkpt>
      <trkpt lat="46.307240" lon="13.812833">
        <ele>1597.3605758592</ele>
        <time>2016-05-29T09:12:59Z</time>
      </trkpt>
      <trkpt lat="46.307241" lon="13.812727">
        <ele>1597.8605697792</ele>
        <time>2016-05-29T09:13:05Z</time>
      </trkpt>
      <trkpt lat="46.307259" lon="13.812617">
        <ele>1598.9605564032</ele>
        <time>2016-05-29T09:13:16Z</time>
      </trkpt>
      <trkpt lat="46.307310" lon="13.812545">
        <ele>1600.4705380416</ele>
        <time>2016-05-29T09:13:26Z</time>
      </trkpt>
      <trkpt lat="46.307365" lon="13.812584">
        <ele>1601.830521504</ele>
        <time>2016-05-29T09:13:35Z</time>
      </trkpt>
      <trkpt lat="46.307351" lon="13.812528">
        <ele>1603.330503264</ele>
        <time>2016-05-29T09:13:46Z</time>
      </trkpt>
      <trkpt lat="46.307363" lon="13.812452">
        <ele>1604.780485632</ele>
        <time>2016-05-29T09:13:55Z</time>
      </trkpt>
      <trkpt lat="46.307371" lon="13.812383">
        <ele>1606.030470432</ele>
        <time>2016-05-29T09:14:03Z</time>
      </trkpt>
      <trkpt lat="46.307420" lon="13.812306">
        <ele>1607.4604530432</ele>
        <time>2016-05-29T09:14:13Z</time>
      </trkpt>
      <trkpt lat="46.307473" lon="13.812155">
        <ele>1609.4604287232</ele>
        <time>2016-05-29T09:14:25Z</time>
      </trkpt>
      <trkpt lat="46.307542" lon="13.812090">
        <ele>1610.23041936</ele>
        <time>2016-05-29T09:14:32Z</time>
      </trkpt>
      <trkpt lat="46.307552" lon="13.812090">
        <ele>1610.3504179008</ele>
        <time>2016-05-29T09:14:33Z</time>
      </trkpt>
      <trkpt lat="46.307572" lon="13.812070">
        <ele>1610.4604165632</ele>
        <time>2016-05-29T09:14:37Z</time>
      </trkpt>
      <trkpt lat="46.307625" lon="13.811970">
        <ele>1610.0604214272</ele>
        <time>2016-05-29T09:14:45Z</time>
      </trkpt>
      <trkpt lat="46.307666" lon="13.811961">
        <ele>1609.5404277504</ele>
        <time>2016-05-29T09:14:52Z</time>
      </trkpt>
      <trkpt lat="46.307675" lon="13.811956">
        <ele>1609.4704286016</ele>
        <time>2016-05-29T09:14:53Z</time>
      </trkpt>
      <trkpt lat="46.307752" lon="13.811897">
        <ele>1609.2504312768</ele>
        <time>2016-05-29T09:15:04Z</time>
      </trkpt>
      <trkpt lat="46.307770" lon="13.811888">
        <ele>1609.3104305472</ele>
        <time>2016-05-29T09:15:05Z</time>
      </trkpt>
      <trkpt lat="46.307844" lon="13.811792">
        <ele>1608.630438816</ele>
        <time>2016-05-29T09:15:16Z</time>
      </trkpt>
      <trkpt lat="46.307891" lon="13.811721">
        <ele>1608.1404447744</ele>
        <time>2016-05-29T09:15:23Z</time>
      </trkpt>
      <trkpt lat="46.307938" lon="13.811635">
        <ele>1607.9904465984</ele>
        <time>2016-05-29T09:15:32Z</time>
      </trkpt>
      <trkpt lat="46.308012" lon="13.811548">
        <ele>1608.4704407616</ele>
        <time>2016-05-29T09:15:42Z</time>
      </trkpt>
      <trkpt lat="46.308078" lon="13.811477">
        <ele>1609.3204304256</ele>
        <time>2016-05-29T09:15:49Z</time>
      </trkpt>
      <trkpt lat="46.308096" lon="13.811375">
        <ele>1610.6504142528</ele>
        <time>2016-05-29T09:15:58Z</time>
      </trkpt>
      <trkpt lat="46.308124" lon="13.811308">
        <ele>1611.3604056192</ele>
        <time>2016-05-29T09:16:03Z</time>
      </trkpt>
      <trkpt lat="46.308148" lon="13.811218">
        <ele>1612.6503899328</ele>
        <time>2016-05-29T09:16:12Z</time>
      </trkpt>
      <trkpt lat="46.308209" lon="13.811142">
        <ele>1613.8003759488</ele>
        <time>2016-05-29T09:16:21Z</time>
      </trkpt>
      <trkpt lat="46.308245" lon="13.811080">
        <ele>1613.6203781376</ele>
        <time>2016-05-29T09:16:26Z</time>
      </trkpt>
      <trkpt lat="46.308292" lon="13.810956">
        <ele>1612.4503923648</ele>
        <time>2016-05-29T09:16:37Z</time>
      </trkpt>
      <trkpt lat="46.308369" lon="13.810873">
        <ele>1611.8903991744</ele>
        <time>2016-05-29T09:16:48Z</time>
      </trkpt>
      <trkpt lat="46.308410" lon="13.810776">
        <ele>1611.9603983232</ele>
        <time>2016-05-29T09:16:57Z</time>
      </trkpt>
      <trkpt lat="46.308416" lon="13.810769">
        <ele>1612.330393824</ele>
        <time>2016-05-29T09:17:14Z</time>
      </trkpt>
      <trkpt lat="46.308437" lon="13.810764">
        <ele>1612.380393216</ele>
        <time>2016-05-29T09:17:38Z</time>
      </trkpt>
      <trkpt lat="46.308445" lon="13.810741">
        <ele>1612.4003929728</ele>
        <time>2016-05-29T09:17:39Z</time>
      </trkpt>
      <trkpt lat="46.308489" lon="13.810620">
        <ele>1611.6004027008</ele>
        <time>2016-05-29T09:17:49Z</time>
      </trkpt>
      <trkpt lat="46.308539" lon="13.810527">
        <ele>1609.7204255616</ele>
        <time>2016-05-29T09:17:57Z</time>
      </trkpt>
      <trkpt lat="46.308578" lon="13.810433">
        <ele>1608.6904380864</ele>
        <time>2016-05-29T09:18:05Z</time>
      </trkpt>
      <trkpt lat="46.308646" lon="13.810362">
        <ele>1608.7304376</ele>
        <time>2016-05-29T09:18:13Z</time>
      </trkpt>
      <trkpt lat="46.308734" lon="13.810343">
        <ele>1608.930435168</ele>
        <time>2016-05-29T09:18:21Z</time>
      </trkpt>
      <trkpt lat="46.308799" lon="13.810353">
        <ele>1608.4604408832</ele>
        <time>2016-05-29T09:18:29Z</time>
      </trkpt>
      <trkpt lat="46.308882" lon="13.810333">
        <ele>1608.2004440448</ele>
        <time>2016-05-29T09:18:39Z</time>
      </trkpt>
      <trkpt lat="46.308920" lon="13.810307">
        <ele>1608.4604408832</ele>
        <time>2016-05-29T09:18:43Z</time>
      </trkpt>
      <trkpt lat="46.308994" lon="13.810221">
        <ele>1610.030421792</ele>
        <time>2016-05-29T09:18:54Z</time>
      </trkpt>
      <trkpt lat="46.309056" lon="13.810176">
        <ele>1610.6504142528</ele>
        <time>2016-05-29T09:19:00Z</time>
      </trkpt>
      <trkpt lat="46.309099" lon="13.810147">
        <ele>1610.2704188736</ele>
        <time>2016-05-29T09:19:04Z</time>
      </trkpt>
      <trkpt lat="46.309177" lon="13.810035">
        <ele>1609.3604299392</ele>
        <time>2016-05-29T09:19:14Z</time>
      </trkpt>
      <trkpt lat="46.309216" lon="13.810003">
        <ele>1608.8604360192</ele>
        <time>2016-05-29T09:19:18Z</time>
      </trkpt>
      <trkpt lat="46.309272" lon="13.809939">
        <ele>1607.9704468416</ele>
        <time>2016-05-29T09:19:25Z</time>
      </trkpt>
      <trkpt lat="46.309273" lon="13.809920">
        <ele>1607.9004476928</ele>
        <time>2016-05-29T09:19:26Z</time>
      </trkpt>
      <trkpt lat="46.309278" lon="13.809867">
        <ele>1607.680450368</ele>
        <time>2016-05-29T09:19:29Z</time>
      </trkpt>
      <trkpt lat="46.309308" lon="13.809755">
        <ele>1607.1904563264</ele>
        <time>2016-05-29T09:19:34Z</time>
      </trkpt>
      <trkpt lat="46.309319" lon="13.809687">
        <ele>1606.9704590016</ele>
        <time>2016-05-29T09:19:39Z</time>
      </trkpt>
      <trkpt lat="46.309358" lon="13.809597">
        <ele>1607.0604579072</ele>
        <time>2016-05-29T09:19:46Z</time>
      </trkpt>
      <trkpt lat="46.309429" lon="13.809513">
        <ele>1607.0504580288</ele>
        <time>2016-05-29T09:19:56Z</time>
      </trkpt>
      <trkpt lat="46.309483" lon="13.809462">
        <ele>1606.5104645952</ele>
        <time>2016-05-29T09:20:05Z</time>
      </trkpt>
      <trkpt lat="46.309546" lon="13.809444">
        <ele>1605.5204766336</ele>
        <time>2016-05-29T09:20:13Z</time>
      </trkpt>
      <trkpt lat="46.309608" lon="13.809369">
        <ele>1604.1704930496</ele>
        <time>2016-05-29T09:20:23Z</time>
      </trkpt>
      <trkpt lat="46.309701" lon="13.809314">
        <ele>1601.8905207744</ele>
        <time>2016-05-29T09:20:33Z</time>
      </trkpt>
      <trkpt lat="46.309751" lon="13.809252">
        <ele>1600.2505407168</ele>
        <time>2016-05-29T09:20:42Z</time>
      </trkpt>
      <trkpt lat="46.309806" lon="13.809156">
        <ele>1599.930544608</ele>
        <time>2016-05-29T09:20:50Z</time>
      </trkpt>
      <trkpt lat="46.309834" lon="13.809103">
        <ele>1599.8705453376</ele>
        <time>2016-05-29T09:20:55Z</time>
      </trkpt>
      <trkpt lat="46.309895" lon="13.809029">
        <ele>1598.780558592</ele>
        <time>2016-05-29T09:21:03Z</time>
      </trkpt>
      <trkpt lat="46.309930" lon="13.808979">
        <ele>1597.8005705088</ele>
        <time>2016-05-29T09:21:10Z</time>
      </trkpt>
      <trkpt lat="46.309981" lon="13.808922">
        <ele>1596.5505857088</ele>
        <time>2016-05-29T09:21:18Z</time>
      </trkpt>
      <trkpt lat="46.310049" lon="13.808864">
        <ele>1595.580597504</ele>
        <time>2016-05-29T09:21:26Z</time>
      </trkpt>
      <trkpt lat="46.310076" lon="13.808789">
        <ele>1595.280601152</ele>
        <time>2016-05-29T09:21:34Z</time>
      </trkpt>
      <trkpt lat="46.310146" lon="13.808758">
        <ele>1594.8506063808</ele>
        <time>2016-05-29T09:21:42Z</time>
      </trkpt>
      <trkpt lat="46.310205" lon="13.808711">
        <ele>1593.7606196352</ele>
        <time>2016-05-29T09:21:53Z</time>
      </trkpt>
      <trkpt lat="46.310283" lon="13.808652">
        <ele>1592.6006337408</ele>
        <time>2016-05-29T09:22:03Z</time>
      </trkpt>
      <trkpt lat="46.310316" lon="13.808626">
        <ele>1592.1606390912</ele>
        <time>2016-05-29T09:22:05Z</time>
      </trkpt>
      <trkpt lat="46.310385" lon="13.808572">
        <ele>1591.2206505216</ele>
        <time>2016-05-29T09:22:13Z</time>
      </trkpt>
      <trkpt lat="46.310400" lon="13.808556">
        <ele>1590.9906533184</ele>
        <time>2016-05-29T09:22:16Z</time>
      </trkpt>
      <trkpt lat="46.310419" lon="13.808534">
        <ele>1590.7906557504</ele>
        <time>2016-05-29T09:22:17Z</time>
      </trkpt>
      <trkpt lat="46.310462" lon="13.808448">
        <ele>1590.0106652352</ele>
        <time>2016-05-29T09:22:26Z</time>
      </trkpt>
      <trkpt lat="46.310500" lon="13.808402">
        <ele>1590.3406612224</ele>
        <time>2016-05-29T09:22:31Z</time>
      </trkpt>
      <trkpt lat="46.310544" lon="13.808306">
        <ele>1591.330649184</ele>
        <time>2016-05-29T09:22:39Z</time>
      </trkpt>
      <trkpt lat="46.310554" lon="13.808286">
        <ele>1591.4206480896</ele>
        <time>2016-05-29T09:22:42Z</time>
      </trkpt>
      <trkpt lat="46.310570" lon="13.808246">
        <ele>1591.2706499136</ele>
        <time>2016-05-29T09:22:44Z</time>
      </trkpt>
      <trkpt lat="46.310606" lon="13.808165">
        <ele>1591.4706474816</ele>
        <time>2016-05-29T09:22:53Z</time>
      </trkpt>
      <trkpt lat="46.310612" lon="13.808140">
        <ele>1591.8106433472</ele>
        <time>2016-05-29T09:23:03Z</time>
      </trkpt>
      <trkpt lat="46.310610" lon="13.808086">
        <ele>1590.9006544128</ele>
        <time>2016-05-29T09:23:13Z</time>
      </trkpt>
      <trkpt lat="46.310615" lon="13.808104">
        <ele>1590.330661344</ele>
        <time>2016-05-29T09:23:25Z</time>
      </trkpt>
      <trkpt lat="46.310621" lon="13.808124">
        <ele>1590.5006592768</ele>
        <time>2016-05-29T09:23:38Z</time>
      </trkpt>
      <trkpt lat="46.310586" lon="13.808145">
        <ele>1589.930666208</ele>
        <time>2016-05-29T09:23:48Z</time>
      </trkpt>
      <trkpt lat="46.310521" lon="13.808135">
        <ele>1587.9406904064</ele>
        <time>2016-05-29T09:23:56Z</time>
      </trkpt>
      <trkpt lat="46.310482" lon="13.808118">
        <ele>1587.0907007424</ele>
        <time>2016-05-29T09:24:04Z</time>
      </trkpt>
      <trkpt lat="46.310458" lon="13.808039">
        <ele>1586.6507060928</ele>
        <time>2016-05-29T09:24:11Z</time>
      </trkpt>
      <trkpt lat="46.310397" lon="13.807947">
        <ele>1584.780728832</ele>
        <time>2016-05-29T09:24:22Z</time>
      </trkpt>
      <trkpt lat="46.310387" lon="13.807919">
        <ele>1583.9607388032</ele>
        <time>2016-05-29T09:24:27Z</time>
      </trkpt>
      <trkpt lat="46.310367" lon="13.807897">
        <ele>1583.580743424</ele>
        <time>2016-05-29T09:24:31Z</time>
      </trkpt>
      <trkpt lat="46.310330" lon="13.807848">
        <ele>1582.7907530304</ele>
        <time>2016-05-29T09:24:39Z</time>
      </trkpt>
      <trkpt lat="46.310311" lon="13.807773">
        <ele>1581.930763488</ele>
        <time>2016-05-29T09:24:49Z</time>
      </trkpt>
      <trkpt lat="46.310320" lon="13.807688">
        <ele>1580.880776256</ele>
        <time>2016-05-29T09:24:57Z</time>
      </trkpt>
      <trkpt lat="46.310323" lon="13.807635">
        <ele>1580.5107807552</ele>
        <time>2016-05-29T09:25:01Z</time>
      </trkpt>
      <trkpt lat="46.310311" lon="13.807603">
        <ele>1580.080785984</ele>
        <time>2016-05-29T09:25:03Z</time>
      </trkpt>
      <trkpt lat="46.310280" lon="13.807534">
        <ele>1579.5607923072</ele>
        <time>2016-05-29T09:25:10Z</time>
      </trkpt>
      <trkpt lat="46.310265" lon="13.807474">
        <ele>1579.5207927936</ele>
        <time>2016-05-29T09:25:13Z</time>
      </trkpt>
      <trkpt lat="46.310236" lon="13.807330">
        <ele>1578.6008039808</ele>
        <time>2016-05-29T09:25:24Z</time>
      </trkpt>
      <trkpt lat="46.310211" lon="13.807197">
        <ele>1577.9208122496</ele>
        <time>2016-05-29T09:25:32Z</time>
      </trkpt>
      <trkpt lat="46.310200" lon="13.807070">
        <ele>1577.930812128</ele>
        <time>2016-05-29T09:25:40Z</time>
      </trkpt>
      <trkpt lat="46.310202" lon="13.806951">
        <ele>1578.2408083584</ele>
        <time>2016-05-29T09:25:48Z</time>
      </trkpt>
      <trkpt lat="46.310168" lon="13.806858">
        <ele>1578.530804832</ele>
        <time>2016-05-29T09:25:56Z</time>
      </trkpt>
      <trkpt lat="46.310163" lon="13.806767">
        <ele>1578.2708079936</ele>
        <time>2016-05-29T09:26:04Z</time>
      </trkpt>
      <trkpt lat="46.310169" lon="13.806679">
        <ele>1578.7108026432</ele>
        <time>2016-05-29T09:26:11Z</time>
      </trkpt>
      <trkpt lat="46.310201" lon="13.806663">
        <ele>1578.48080544</ele>
        <time>2016-05-29T09:26:15Z</time>
      </trkpt>
      <trkpt lat="46.310245" lon="13.806599">
        <ele>1577.4408180864</ele>
        <time>2016-05-29T09:26:20Z</time>
      </trkpt>
      <trkpt lat="46.310251" lon="13.806515">
        <ele>1577.080822464</ele>
        <time>2016-05-29T09:26:27Z</time>
      </trkpt>
      <trkpt lat="46.310225" lon="13.806421">
        <ele>1578.0508106688</ele>
        <time>2016-05-29T09:26:35Z</time>
      </trkpt>
      <trkpt lat="46.310205" lon="13.806337">
        <ele>1579.130797536</ele>
        <time>2016-05-29T09:26:45Z</time>
      </trkpt>
      <trkpt lat="46.310157" lon="13.806300">
        <ele>1580.1207854976</ele>
        <time>2016-05-29T09:26:53Z</time>
      </trkpt>
      <trkpt lat="46.310109" lon="13.806295">
        <ele>1580.4507814848</ele>
        <time>2016-05-29T09:26:58Z</time>
      </trkpt>
      <trkpt lat="46.310105" lon="13.806286">
        <ele>1580.4707812416</ele>
        <time>2016-05-29T09:26:58Z</time>
      </trkpt>
      <trkpt lat="46.310093" lon="13.806239">
        <ele>1580.5407803904</ele>
        <time>2016-05-29T09:27:01Z</time>
      </trkpt>
      <trkpt lat="46.310079" lon="13.806172">
        <ele>1580.280783552</ele>
        <time>2016-05-29T09:27:06Z</time>
      </trkpt>
      <trkpt lat="46.310036" lon="13.806079">
        <ele>1579.4707934016</ele>
        <time>2016-05-29T09:27:16Z</time>
      </trkpt>
      <trkpt lat="46.310000" lon="13.806003">
        <ele>1579.1607971712</ele>
        <time>2016-05-29T09:27:25Z</time>
      </trkpt>
      <trkpt lat="46.310005" lon="13.805952">
        <ele>1579.430793888</ele>
        <time>2016-05-29T09:27:36Z</time>
      </trkpt>
      <trkpt lat="46.310001" lon="13.805905">
        <ele>1579.9107880512</ele>
        <time>2016-05-29T09:27:48Z</time>
      </trkpt>
      <trkpt lat="46.310007" lon="13.805899">
        <ele>1580.1507851328</ele>
        <time>2016-05-29T09:28:03Z</time>
      </trkpt>
      <trkpt lat="46.309989" lon="13.805872">
        <ele>1580.3107831872</ele>
        <time>2016-05-29T09:28:14Z</time>
      </trkpt>
      <trkpt lat="46.309985" lon="13.805835">
        <ele>1580.380782336</ele>
        <time>2016-05-29T09:28:18Z</time>
      </trkpt>
      <trkpt lat="46.309958" lon="13.805770">
        <ele>1581.030774432</ele>
        <time>2016-05-29T09:28:25Z</time>
      </trkpt>
      <trkpt lat="46.309937" lon="13.805696">
        <ele>1582.2707593536</ele>
        <time>2016-05-29T09:28:34Z</time>
      </trkpt>
      <trkpt lat="46.309884" lon="13.805660">
        <ele>1583.3507462208</ele>
        <time>2016-05-29T09:28:42Z</time>
      </trkpt>
      <trkpt lat="46.309827" lon="13.805646">
        <ele>1583.3707459776</ele>
        <time>2016-05-29T09:28:50Z</time>
      </trkpt>
      <trkpt lat="46.309767" lon="13.805633">
        <ele>1582.5407560704</ele>
        <time>2016-05-29T09:29:00Z</time>
      </trkpt>
      <trkpt lat="46.309700" lon="13.805598">
        <ele>1582.98075072</ele>
        <time>2016-05-29T09:29:09Z</time>
      </trkpt>
      <trkpt lat="46.309623" lon="13.805617">
        <ele>1583.7007419648</ele>
        <time>2016-05-29T09:29:20Z</time>
      </trkpt>
      <trkpt lat="46.309585" lon="13.805595">
        <ele>1584.2507352768</ele>
        <time>2016-05-29T09:29:28Z</time>
      </trkpt>
      <trkpt lat="46.309579" lon="13.805585">
        <ele>1584.6507304128</ele>
        <time>2016-05-29T09:29:43Z</time>
      </trkpt>
      <trkpt lat="46.309530" lon="13.805585">
        <ele>1584.630730656</ele>
        <time>2016-05-29T09:29:51Z</time>
      </trkpt>
      <trkpt lat="46.309470" lon="13.805554">
        <ele>1584.8007285888</ele>
        <time>2016-05-29T09:29:59Z</time>
      </trkpt>
      <trkpt lat="46.309425" lon="13.805548">
        <ele>1584.680730048</ele>
        <time>2016-05-29T09:30:07Z</time>
      </trkpt>
      <trkpt lat="46.309380" lon="13.805532">
        <ele>1584.9907262784</ele>
        <time>2016-05-29T09:30:17Z</time>
      </trkpt>
      <trkpt lat="46.309343" lon="13.805541">
        <ele>1585.6707180096</ele>
        <time>2016-05-29T09:30:26Z</time>
      </trkpt>
      <trkpt lat="46.309326" lon="13.805552">
        <ele>1585.930714848</ele>
        <time>2016-05-29T09:30:40Z</time>
      </trkpt>
      <trkpt lat="46.309298" lon="13.805515">
        <ele>1586.4407086464</ele>
        <time>2016-05-29T09:30:52Z</time>
      </trkpt>
      <trkpt lat="46.309255" lon="13.805510">
        <ele>1586.8907031744</ele>
        <time>2016-05-29T09:31:01Z</time>
      </trkpt>
      <trkpt lat="46.309219" lon="13.805522">
        <ele>1587.3606974592</ele>
        <time>2016-05-29T09:31:08Z</time>
      </trkpt>
      <trkpt lat="46.309167" lon="13.805531">
        <ele>1587.630694176</ele>
        <time>2016-05-29T09:31:17Z</time>
      </trkpt>
      <trkpt lat="46.309118" lon="13.805576">
        <ele>1587.8406916224</ele>
        <time>2016-05-29T09:31:26Z</time>
      </trkpt>
      <trkpt lat="46.309061" lon="13.805638">
        <ele>1587.8706912576</ele>
        <time>2016-05-29T09:31:38Z</time>
      </trkpt>
      <trkpt lat="46.309022" lon="13.805662">
        <ele>1589.0906764224</ele>
        <time>2016-05-29T09:31:48Z</time>
      </trkpt>
      <trkpt lat="46.309026" lon="13.805648">
        <ele>1590.330661344</ele>
        <time>2016-05-29T09:32:05Z</time>
      </trkpt>
      <trkpt lat="46.308993" lon="13.805650">
        <ele>1590.6206578176</ele>
        <time>2016-05-29T09:32:15Z</time>
      </trkpt>
      <trkpt lat="46.308956" lon="13.805620">
        <ele>1592.180638848</ele>
        <time>2016-05-29T09:32:25Z</time>
      </trkpt>
      <trkpt lat="46.308906" lon="13.805606">
        <ele>1594.3606123392</ele>
        <time>2016-05-29T09:32:37Z</time>
      </trkpt>
      <trkpt lat="46.308900" lon="13.805601">
        <ele>1595.2206018816</ele>
        <time>2016-05-29T09:32:48Z</time>
      </trkpt>
      <trkpt lat="46.308909" lon="13.805619">
        <ele>1595.2006021248</ele>
        <time>2016-05-29T09:33:04Z</time>
      </trkpt>
      <trkpt lat="46.308869" lon="13.805621">
        <ele>1595.6905961664</ele>
        <time>2016-05-29T09:33:15Z</time>
      </trkpt>
      <trkpt lat="46.308846" lon="13.805577">
        <ele>1597.0405797504</ele>
        <time>2016-05-29T09:33:24Z</time>
      </trkpt>
      <trkpt lat="46.308847" lon="13.805496">
        <ele>1598.9505565248</ele>
        <time>2016-05-29T09:33:35Z</time>
      </trkpt>
      <trkpt lat="46.308876" lon="13.805464">
        <ele>1599.7605466752</ele>
        <time>2016-05-29T09:33:43Z</time>
      </trkpt>
      <trkpt lat="46.308890" lon="13.805469">
        <ele>1600.1405420544</ele>
        <time>2016-05-29T09:33:57Z</time>
      </trkpt>
      <trkpt lat="46.308900" lon="13.805483">
        <ele>1600.0405432704</ele>
        <time>2016-05-29T09:34:13Z</time>
      </trkpt>
      <trkpt lat="46.308894" lon="13.805506">
        <ele>1599.8905450944</ele>
        <time>2016-05-29T09:34:32Z</time>
      </trkpt>
      <trkpt lat="46.308886" lon="13.805503">
        <ele>1600.0005437568</ele>
        <time>2016-05-29T09:34:51Z</time>
      </trkpt>
      <trkpt lat="46.308880" lon="13.805487">
        <ele>1600.1405420544</ele>
        <time>2016-05-29T09:35:12Z</time>
      </trkpt>
      <trkpt lat="46.308875" lon="13.805476">
        <ele>1600.0105436352</ele>
        <time>2016-05-29T09:35:31Z</time>
      </trkpt>
      <trkpt lat="46.308875" lon="13.805471">
        <ele>1600.0905426624</ele>
        <time>2016-05-29T09:35:58Z</time>
      </trkpt>
      <trkpt lat="46.308886" lon="13.805420">
        <ele>1599.9505443648</ele>
        <time>2016-05-29T09:36:13Z</time>
      </trkpt>
      <trkpt lat="46.308915" lon="13.805354">
        <ele>1600.9405323264</ele>
        <time>2016-05-29T09:36:21Z</time>
      </trkpt>
      <trkpt lat="46.308935" lon="13.805294">
        <ele>1602.1705173696</ele>
        <time>2016-05-29T09:36:32Z</time>
      </trkpt>
      <trkpt lat="46.308948" lon="13.805210">
        <ele>1603.9004963328</ele>
        <time>2016-05-29T09:36:41Z</time>
      </trkpt>
      <trkpt lat="46.308965" lon="13.805115">
        <ele>1605.7704735936</ele>
        <time>2016-05-29T09:36:52Z</time>
      </trkpt>
      <trkpt lat="46.308972" lon="13.805029">
        <ele>1607.73044976</ele>
        <time>2016-05-29T09:37:02Z</time>
      </trkpt>
      <trkpt lat="46.308980" lon="13.804951">
        <ele>1609.2104317632</ele>
        <time>2016-05-29T09:37:11Z</time>
      </trkpt>
      <trkpt lat="46.308984" lon="13.804850">
        <ele>1610.280418752</ele>
        <time>2016-05-29T09:37:22Z</time>
      </trkpt>
      <trkpt lat="46.308980" lon="13.804769">
        <ele>1610.23041936</ele>
        <time>2016-05-29T09:37:29Z</time>
      </trkpt>
      <trkpt lat="46.308982" lon="13.804753">
        <ele>1610.1904198464</ele>
        <time>2016-05-29T09:37:30Z</time>
      </trkpt>
      <trkpt lat="46.308969" lon="13.804639">
        <ele>1610.0404216704</ele>
        <time>2016-05-29T09:37:38Z</time>
      </trkpt>
      <trkpt lat="46.309018" lon="13.804540">
        <ele>1610.23041936</ele>
        <time>2016-05-29T09:37:46Z</time>
      </trkpt>
      <trkpt lat="46.309024" lon="13.804491">
        <ele>1610.4204170496</ele>
        <time>2016-05-29T09:37:49Z</time>
      </trkpt>
      <trkpt lat="46.309028" lon="13.804394">
        <ele>1610.1704200896</ele>
        <time>2016-05-29T09:37:57Z</time>
      </trkpt>
      <trkpt lat="46.309050" lon="13.804313">
        <ele>1610.7604129152</ele>
        <time>2016-05-29T09:38:05Z</time>
      </trkpt>
      <trkpt lat="46.309049" lon="13.804254">
        <ele>1611.6904016064</ele>
        <time>2016-05-29T09:38:09Z</time>
      </trkpt>
      <trkpt lat="46.309045" lon="13.804224">
        <ele>1611.930398688</ele>
        <time>2016-05-29T09:38:12Z</time>
      </trkpt>
      <trkpt lat="46.309038" lon="13.804127">
        <ele>1612.6503899328</ele>
        <time>2016-05-29T09:38:20Z</time>
      </trkpt>
      <trkpt lat="46.309016" lon="13.804024">
        <ele>1613.280382272</ele>
        <time>2016-05-29T09:38:28Z</time>
      </trkpt>
      <trkpt lat="46.309012" lon="13.804009">
        <ele>1613.330381664</ele>
        <time>2016-05-29T09:38:29Z</time>
      </trkpt>
      <trkpt lat="46.309009" lon="13.803979">
        <ele>1613.3703811776</ele>
        <time>2016-05-29T09:38:32Z</time>
      </trkpt>
      <trkpt lat="46.308999" lon="13.803926">
        <ele>1613.9003747328</ele>
        <time>2016-05-29T09:38:36Z</time>
      </trkpt>
      <trkpt lat="46.308987" lon="13.803880">
        <ele>1614.330369504</ele>
        <time>2016-05-29T09:38:40Z</time>
      </trkpt>
      <trkpt lat="46.309011" lon="13.803775">
        <ele>1614.6703653696</ele>
        <time>2016-05-29T09:38:47Z</time>
      </trkpt>
      <trkpt lat="46.309010" lon="13.803699">
        <ele>1615.8103515072</ele>
        <time>2016-05-29T09:38:56Z</time>
      </trkpt>
      <trkpt lat="46.309018" lon="13.803630">
        <ele>1617.0603363072</ele>
        <time>2016-05-29T09:39:03Z</time>
      </trkpt>
      <trkpt lat="46.309018" lon="13.803542">
        <ele>1617.030336672</ele>
        <time>2016-05-29T09:39:13Z</time>
      </trkpt>
      <trkpt lat="46.309027" lon="13.803431">
        <ele>1616.5503425088</ele>
        <time>2016-05-29T09:39:22Z</time>
      </trkpt>
      <trkpt lat="46.309043" lon="13.803328">
        <ele>1617.630329376</ele>
        <time>2016-05-29T09:39:30Z</time>
      </trkpt>
      <trkpt lat="46.309035" lon="13.803245">
        <ele>1618.3703203776</ele>
        <time>2016-05-29T09:39:37Z</time>
      </trkpt>
      <trkpt lat="46.309031" lon="13.803127">
        <ele>1619.3203088256</ele>
        <time>2016-05-29T09:39:45Z</time>
      </trkpt>
      <trkpt lat="46.309026" lon="13.803027">
        <ele>1619.7003042048</ele>
        <time>2016-05-29T09:39:54Z</time>
      </trkpt>
      <trkpt lat="46.308984" lon="13.802932">
        <ele>1620.23029776</ele>
        <time>2016-05-29T09:40:04Z</time>
      </trkpt>
      <trkpt lat="46.308943" lon="13.802827">
        <ele>1620.4402952064</ele>
        <time>2016-05-29T09:40:12Z</time>
      </trkpt>
      <trkpt lat="46.308961" lon="13.802734">
        <ele>1622.0502756288</ele>
        <time>2016-05-29T09:40:23Z</time>
      </trkpt>
      <trkpt lat="46.308970" lon="13.802691">
        <ele>1623.6902556864</ele>
        <time>2016-05-29T09:40:31Z</time>
      </trkpt>
      <trkpt lat="46.308976" lon="13.802705">
        <ele>1624.48024608</ele>
        <time>2016-05-29T09:40:47Z</time>
      </trkpt>
      <trkpt lat="46.308982" lon="13.802718">
        <ele>1624.5002458368</ele>
        <time>2016-05-29T09:41:09Z</time>
      </trkpt>
      <trkpt lat="46.308980" lon="13.802685">
        <ele>1624.4102469312</ele>
        <time>2016-05-29T09:41:25Z</time>
      </trkpt>
      <trkpt lat="46.308953" lon="13.802621">
        <ele>1625.080238784</ele>
        <time>2016-05-29T09:41:33Z</time>
      </trkpt>
      <trkpt lat="46.308908" lon="13.802567">
        <ele>1626.6002203008</ele>
        <time>2016-05-29T09:41:44Z</time>
      </trkpt>
      <trkpt lat="46.308893" lon="13.802543">
        <ele>1628.7101946432</ele>
        <time>2016-05-29T09:41:53Z</time>
      </trkpt>
      <trkpt lat="46.308903" lon="13.802511">
        <ele>1629.1701890496</ele>
        <time>2016-05-29T09:42:07Z</time>
      </trkpt>
      <trkpt lat="46.308890" lon="13.802419">
        <ele>1629.8401809024</ele>
        <time>2016-05-29T09:42:14Z</time>
      </trkpt>
      <trkpt lat="46.308915" lon="13.802347">
        <ele>1630.9401675264</ele>
        <time>2016-05-29T09:42:20Z</time>
      </trkpt>
      <trkpt lat="46.308945" lon="13.802251">
        <ele>1632.2501515968</ele>
        <time>2016-05-29T09:42:31Z</time>
      </trkpt>
      <trkpt lat="46.308959" lon="13.802170">
        <ele>1632.8001449088</ele>
        <time>2016-05-29T09:42:38Z</time>
      </trkpt>
      <trkpt lat="46.308948" lon="13.802135">
        <ele>1633.8401322624</ele>
        <time>2016-05-29T09:42:46Z</time>
      </trkpt>
      <trkpt lat="46.308902" lon="13.802125">
        <ele>1635.0701173056</ele>
        <time>2016-05-29T09:42:55Z</time>
      </trkpt>
      <trkpt lat="46.308876" lon="13.802081">
        <ele>1637.3100900672</ele>
        <time>2016-05-29T09:43:06Z</time>
      </trkpt>
      <trkpt lat="46.308862" lon="13.802016">
        <ele>1639.0400690304</ele>
        <time>2016-05-29T09:43:17Z</time>
      </trkpt>
      <trkpt lat="46.308841" lon="13.801949">
        <ele>1639.9600578432</ele>
        <time>2016-05-29T09:43:24Z</time>
      </trkpt>
      <trkpt lat="46.308826" lon="13.801920">
        <ele>1640.830047264</ele>
        <time>2016-05-29T09:43:32Z</time>
      </trkpt>
      <trkpt lat="46.308821" lon="13.801906">
        <ele>1641.0600444672</ele>
        <time>2016-05-29T09:43:48Z</time>
      </trkpt>
      <trkpt lat="46.308837" lon="13.801902">
        <ele>1641.1500433728</ele>
        <time>2016-05-29T09:44:06Z</time>
      </trkpt>
      <trkpt lat="46.308848" lon="13.801926">
        <ele>1640.880046656</ele>
        <time>2016-05-29T09:44:23Z</time>
      </trkpt>
      <trkpt lat="46.308841" lon="13.801915">
        <ele>1640.9200461696</ele>
        <time>2016-05-29T09:44:42Z</time>
      </trkpt>
      <trkpt lat="46.308809" lon="13.801846">
        <ele>1642.0000330368</ele>
        <time>2016-05-29T09:44:50Z</time>
      </trkpt>
      <trkpt lat="46.308779" lon="13.801777">
        <ele>1643.2900173504</ele>
        <time>2016-05-29T09:45:00Z</time>
      </trkpt>
      <trkpt lat="46.308745" lon="13.801712">
        <ele>1644.430003488</ele>
        <time>2016-05-29T09:45:05Z</time>
      </trkpt>
      <trkpt lat="46.308689" lon="13.801601">
        <ele>1645.5099903552</ele>
        <time>2016-05-29T09:45:16Z</time>
      </trkpt>
      <trkpt lat="46.308658" lon="13.801561">
        <ele>1646.2399814784</ele>
        <time>2016-05-29T09:45:21Z</time>
      </trkpt>
      <trkpt lat="46.308616" lon="13.801531">
        <ele>1647.029971872</ele>
        <time>2016-05-29T09:45:25Z</time>
      </trkpt>
      <trkpt lat="46.308581" lon="13.801448">
        <ele>1647.4599666432</ele>
        <time>2016-05-29T09:45:32Z</time>
      </trkpt>
      <trkpt lat="46.308595" lon="13.801396">
        <ele>1647.4999661568</ele>
        <time>2016-05-29T09:45:36Z</time>
      </trkpt>
      <trkpt lat="46.308609" lon="13.801368">
        <ele>1647.4999661568</ele>
        <time>2016-05-29T09:45:44Z</time>
      </trkpt>
      <trkpt lat="46.308613" lon="13.801341">
        <ele>1647.4499667648</ele>
        <time>2016-05-29T09:45:48Z</time>
      </trkpt>
      <trkpt lat="46.308597" lon="13.801236">
        <ele>1647.1599702912</ele>
        <time>2016-05-29T09:45:55Z</time>
      </trkpt>
      <trkpt lat="46.308588" lon="13.801193">
        <ele>1646.7699750336</ele>
        <time>2016-05-29T09:45:59Z</time>
      </trkpt>
      <trkpt lat="46.308589" lon="13.801125">
        <ele>1646.4499789248</ele>
        <time>2016-05-29T09:46:03Z</time>
      </trkpt>
      <trkpt lat="46.308611" lon="13.801014">
        <ele>1645.9699847616</ele>
        <time>2016-05-29T09:46:11Z</time>
      </trkpt>
      <trkpt lat="46.308616" lon="13.800965">
        <ele>1645.6699884096</ele>
        <time>2016-05-29T09:46:22Z</time>
      </trkpt>
      <trkpt lat="46.308623" lon="13.800891">
        <ele>1645.5599897472</ele>
        <time>2016-05-29T09:46:30Z</time>
      </trkpt>
      <trkpt lat="46.308638" lon="13.800870">
        <ele>1645.6699884096</ele>
        <time>2016-05-29T09:46:35Z</time>
      </trkpt>
      <trkpt lat="46.308665" lon="13.800808">
        <ele>1645.679988288</ele>
        <time>2016-05-29T09:46:42Z</time>
      </trkpt>
      <trkpt lat="46.308701" lon="13.800746">
        <ele>1645.2699932736</ele>
        <time>2016-05-29T09:46:50Z</time>
      </trkpt>
      <trkpt lat="46.308713" lon="13.800716">
        <ele>1644.8099988672</ele>
        <time>2016-05-29T09:46:53Z</time>
      </trkpt>
      <trkpt lat="46.308729" lon="13.800658">
        <ele>1644.3000050688</ele>
        <time>2016-05-29T09:46:57Z</time>
      </trkpt>
      <trkpt lat="46.308756" lon="13.800591">
        <ele>1643.48001504</ele>
        <time>2016-05-29T09:47:02Z</time>
      </trkpt>
      <trkpt lat="46.308782" lon="13.800551">
        <ele>1643.6600128512</ele>
        <time>2016-05-29T09:47:11Z</time>
      </trkpt>
      <trkpt lat="46.308806" lon="13.800549">
        <ele>1643.6000135808</ele>
        <time>2016-05-29T09:47:20Z</time>
      </trkpt>
      <trkpt lat="46.308810" lon="13.800559">
        <ele>1643.1100195392</ele>
        <time>2016-05-29T09:47:36Z</time>
      </trkpt>
      <trkpt lat="46.308825" lon="13.800532">
        <ele>1643.180018688</ele>
        <time>2016-05-29T09:47:46Z</time>
      </trkpt>
      <trkpt lat="46.308800" lon="13.800493">
        <ele>1642.4800272</ele>
        <time>2016-05-29T09:47:51Z</time>
      </trkpt>
      <trkpt lat="46.308799" lon="13.800481">
        <ele>1642.280029632</ele>
        <time>2016-05-29T09:47:52Z</time>
      </trkpt>
      <trkpt lat="46.308787" lon="13.800422">
        <ele>1641.3100414272</ele>
        <time>2016-05-29T09:47:56Z</time>
      </trkpt>
      <trkpt lat="46.308827" lon="13.800291">
        <ele>1639.5500628288</ele>
        <time>2016-05-29T09:48:07Z</time>
      </trkpt>
      <trkpt lat="46.308859" lon="13.800249">
        <ele>1638.7600724352</ele>
        <time>2016-05-29T09:48:14Z</time>
      </trkpt>
      <trkpt lat="46.308885" lon="13.800158">
        <ele>1637.280090432</ele>
        <time>2016-05-29T09:48:22Z</time>
      </trkpt>
      <trkpt lat="46.308891" lon="13.800132">
        <ele>1636.8400957824</ele>
        <time>2016-05-29T09:48:25Z</time>
      </trkpt>
      <trkpt lat="46.308883" lon="13.800035">
        <ele>1635.930106848</ele>
        <time>2016-05-29T09:48:34Z</time>
      </trkpt>
      <trkpt lat="46.308905" lon="13.799947">
        <ele>1634.4001254528</ele>
        <time>2016-05-29T09:48:42Z</time>
      </trkpt>
      <trkpt lat="46.308919" lon="13.799879">
        <ele>1632.8501443008</ele>
        <time>2016-05-29T09:48:49Z</time>
      </trkpt>
      <trkpt lat="46.308922" lon="13.799759">
        <ele>1631.0201665536</ele>
        <time>2016-05-29T09:49:00Z</time>
      </trkpt>
      <trkpt lat="46.308897" lon="13.799709">
        <ele>1629.3901863744</ele>
        <time>2016-05-29T09:49:08Z</time>
      </trkpt>
      <trkpt lat="46.308849" lon="13.799661">
        <ele>1627.530208992</ele>
        <time>2016-05-29T09:49:19Z</time>
      </trkpt>
      <trkpt lat="46.308892" lon="13.799616">
        <ele>1626.3502233408</ele>
        <time>2016-05-29T09:49:26Z</time>
      </trkpt>
      <trkpt lat="46.308952" lon="13.799587">
        <ele>1624.5002458368</ele>
        <time>2016-05-29T09:49:35Z</time>
      </trkpt>
      <trkpt lat="46.308974" lon="13.799574">
        <ele>1623.9402526464</ele>
        <time>2016-05-29T09:49:38Z</time>
      </trkpt>
      <trkpt lat="46.309030" lon="13.799500">
        <ele>1621.830278304</ele>
        <time>2016-05-29T09:49:47Z</time>
      </trkpt>
      <trkpt lat="46.309051" lon="13.799390">
        <ele>1619.6903043264</ele>
        <time>2016-05-29T09:49:58Z</time>
      </trkpt>
      <trkpt lat="46.309010" lon="13.799358">
        <ele>1618.8703142976</ele>
        <time>2016-05-29T09:50:02Z</time>
      </trkpt>
      <trkpt lat="46.308983" lon="13.799333">
        <ele>1618.0403243904</ele>
        <time>2016-05-29T09:50:05Z</time>
      </trkpt>
      <trkpt lat="46.308948" lon="13.799227">
        <ele>1616.8003394688</ele>
        <time>2016-05-29T09:50:14Z</time>
      </trkpt>
      <trkpt lat="46.308942" lon="13.799197">
        <ele>1615.9403499264</ele>
        <time>2016-05-29T09:50:29Z</time>
      </trkpt>
      <trkpt lat="46.308912" lon="13.799135">
        <ele>1615.6003540608</ele>
        <time>2016-05-29T09:50:37Z</time>
      </trkpt>
      <trkpt lat="46.308924" lon="13.799053">
        <ele>1615.23035856</ele>
        <time>2016-05-29T09:50:44Z</time>
      </trkpt>
      <trkpt lat="46.308879" lon="13.798979">
        <ele>1614.780364032</ele>
        <time>2016-05-29T09:50:52Z</time>
      </trkpt>
      <trkpt lat="46.308890" lon="13.798985">
        <ele>1617.1603350912</ele>
        <time>2016-05-29T10:18:46Z</time>
      </trkpt>
      <trkpt lat="46.308884" lon="13.799024">
        <ele>1617.2103344832</ele>
        <time>2016-05-29T10:21:52Z</time>
      </trkpt>
      <trkpt lat="46.308916" lon="13.799043">
        <ele>1617.0503364288</ele>
        <time>2016-05-29T10:22:00Z</time>
      </trkpt>
      <trkpt lat="46.308947" lon="13.799066">
        <ele>1616.48034336</ele>
        <time>2016-05-29T10:22:07Z</time>
      </trkpt>
      <trkpt lat="46.309001" lon="13.799113">
        <ele>1616.2903456704</ele>
        <time>2016-05-29T10:22:14Z</time>
      </trkpt>
      <trkpt lat="46.309064" lon="13.799173">
        <ele>1616.8703386176</ele>
        <time>2016-05-29T10:22:22Z</time>
      </trkpt>
      <trkpt lat="46.309085" lon="13.799217">
        <ele>1617.4203319296</ele>
        <time>2016-05-29T10:22:29Z</time>
      </trkpt>
      <trkpt lat="46.309110" lon="13.799255">
        <ele>1617.9603253632</ele>
        <time>2016-05-29T10:22:35Z</time>
      </trkpt>
      <trkpt lat="46.309099" lon="13.799210">
        <ele>1618.1903225664</ele>
        <time>2016-05-29T10:22:38Z</time>
      </trkpt>
      <trkpt lat="46.309098" lon="13.799177">
        <ele>1618.23032208</ele>
        <time>2016-05-29T10:22:41Z</time>
      </trkpt>
      <trkpt lat="46.309112" lon="13.799062">
        <ele>1618.5003187968</ele>
        <time>2016-05-29T10:22:50Z</time>
      </trkpt>
      <trkpt lat="46.309112" lon="13.799041">
        <ele>1618.3203209856</ele>
        <time>2016-05-29T10:22:53Z</time>
      </trkpt>
      <trkpt lat="46.309110" lon="13.798944">
        <ele>1617.3203331456</ele>
        <time>2016-05-29T10:23:01Z</time>
      </trkpt>
      <trkpt lat="46.309092" lon="13.798869">
        <ele>1616.5603423872</ele>
        <time>2016-05-29T10:23:06Z</time>
      </trkpt>
      <trkpt lat="46.309064" lon="13.798755">
        <ele>1616.0203489536</ele>
        <time>2016-05-29T10:23:16Z</time>
      </trkpt>
      <trkpt lat="46.309061" lon="13.798709">
        <ele>1615.8903505344</ele>
        <time>2016-05-29T10:23:20Z</time>
      </trkpt>
      <trkpt lat="46.309096" lon="13.798638">
        <ele>1615.530354912</ele>
        <time>2016-05-29T10:23:27Z</time>
      </trkpt>
      <trkpt lat="46.309134" lon="13.798586">
        <ele>1615.2503583168</ele>
        <time>2016-05-29T10:23:33Z</time>
      </trkpt>
      <trkpt lat="46.309175" lon="13.798526">
        <ele>1614.2403705984</ele>
        <time>2016-05-29T10:23:42Z</time>
      </trkpt>
      <trkpt lat="46.309183" lon="13.798516">
        <ele>1614.1103721792</ele>
        <time>2016-05-29T10:23:43Z</time>
      </trkpt>
      <trkpt lat="46.309199" lon="13.798499">
        <ele>1613.8603752192</ele>
        <time>2016-05-29T10:23:44Z</time>
      </trkpt>
      <trkpt lat="46.309240" lon="13.798456">
        <ele>1613.1903833664</ele>
        <time>2016-05-29T10:23:50Z</time>
      </trkpt>
      <trkpt lat="46.309260" lon="13.798401">
        <ele>1612.6203902976</ele>
        <time>2016-05-29T10:23:54Z</time>
      </trkpt>
      <trkpt lat="46.309280" lon="13.798324">
        <ele>1611.98039808</ele>
        <time>2016-05-29T10:23:59Z</time>
      </trkpt>
      <trkpt lat="46.309278" lon="13.798241">
        <ele>1612.23039504</ele>
        <time>2016-05-29T10:24:07Z</time>
      </trkpt>
      <trkpt lat="46.309280" lon="13.798148">
        <ele>1612.2003954048</ele>
        <time>2016-05-29T10:24:15Z</time>
      </trkpt>
      <trkpt lat="46.309286" lon="13.798122">
        <ele>1611.9003990528</ele>
        <time>2016-05-29T10:24:18Z</time>
      </trkpt>
      <trkpt lat="46.309301" lon="13.798076">
        <ele>1611.280406592</ele>
        <time>2016-05-29T10:24:22Z</time>
      </trkpt>
      <trkpt lat="46.309341" lon="13.797980">
        <ele>1610.630414496</ele>
        <time>2016-05-29T10:24:32Z</time>
      </trkpt>
      <trkpt lat="46.309379" lon="13.797913">
        <ele>1610.8904113344</ele>
        <time>2016-05-29T10:24:38Z</time>
      </trkpt>
      <trkpt lat="46.309401" lon="13.797873">
        <ele>1610.9204109696</ele>
        <time>2016-05-29T10:24:41Z</time>
      </trkpt>
      <trkpt lat="46.309422" lon="13.797829">
        <ele>1610.9204109696</ele>
        <time>2016-05-29T10:24:45Z</time>
      </trkpt>
      <trkpt lat="46.309467" lon="13.797739">
        <ele>1611.2304072</ele>
        <time>2016-05-29T10:24:53Z</time>
      </trkpt>
      <trkpt lat="46.309517" lon="13.797673">
        <ele>1611.430404768</ele>
        <time>2016-05-29T10:25:01Z</time>
      </trkpt>
      <trkpt lat="46.309551" lon="13.797660">
        <ele>1611.530403552</ele>
        <time>2016-05-29T10:25:07Z</time>
      </trkpt>
      <trkpt lat="46.309566" lon="13.797637">
        <ele>1611.4704042816</ele>
        <time>2016-05-29T10:25:08Z</time>
      </trkpt>
      <trkpt lat="46.309629" lon="13.797606">
        <ele>1610.6004148608</ele>
        <time>2016-05-29T10:25:16Z</time>
      </trkpt>
      <trkpt lat="46.309655" lon="13.797544">
        <ele>1609.2204316416</ele>
        <time>2016-05-29T10:25:26Z</time>
      </trkpt>
      <trkpt lat="46.309691" lon="13.797500">
        <ele>1607.8004489088</ele>
        <time>2016-05-29T10:25:34Z</time>
      </trkpt>
      <trkpt lat="46.309715" lon="13.797416">
        <ele>1605.9704711616</ele>
        <time>2016-05-29T10:25:43Z</time>
      </trkpt>
      <trkpt lat="46.309751" lon="13.797362">
        <ele>1604.5604883072</ele>
        <time>2016-05-29T10:25:51Z</time>
      </trkpt>
      <trkpt lat="46.309788" lon="13.797311">
        <ele>1603.4905013184</ele>
        <time>2016-05-29T10:25:58Z</time>
      </trkpt>
      <trkpt lat="46.309836" lon="13.797247">
        <ele>1602.4605138432</ele>
        <time>2016-05-29T10:26:05Z</time>
      </trkpt>
      <trkpt lat="46.309851" lon="13.797177">
        <ele>1601.8505212608</ele>
        <time>2016-05-29T10:26:11Z</time>
      </trkpt>
      <trkpt lat="46.309858" lon="13.797149">
        <ele>1601.7005230848</ele>
        <time>2016-05-29T10:26:14Z</time>
      </trkpt>
      <trkpt lat="46.309883" lon="13.797068">
        <ele>1600.930532448</ele>
        <time>2016-05-29T10:26:20Z</time>
      </trkpt>
      <trkpt lat="46.309902" lon="13.797026">
        <ele>1600.9005328128</ele>
        <time>2016-05-29T10:26:24Z</time>
      </trkpt>
      <trkpt lat="46.309907" lon="13.796951">
        <ele>1600.780534272</ele>
        <time>2016-05-29T10:26:29Z</time>
      </trkpt>
      <trkpt lat="46.309896" lon="13.796872">
        <ele>1600.3005401088</ele>
        <time>2016-05-29T10:26:37Z</time>
      </trkpt>
      <trkpt lat="46.309910" lon="13.796854">
        <ele>1600.130542176</ele>
        <time>2016-05-29T10:26:38Z</time>
      </trkpt>
      <trkpt lat="46.309924" lon="13.796812">
        <ele>1599.8205459456</ele>
        <time>2016-05-29T10:26:41Z</time>
      </trkpt>
      <trkpt lat="46.309949" lon="13.796695">
        <ele>1599.030555552</ele>
        <time>2016-05-29T10:26:51Z</time>
      </trkpt>
      <trkpt lat="46.309966" lon="13.796676">
        <ele>1598.9905560384</ele>
        <time>2016-05-29T10:26:53Z</time>
      </trkpt>
      <trkpt lat="46.309993" lon="13.796674">
        <ele>1598.8905572544</ele>
        <time>2016-05-29T10:27:05Z</time>
      </trkpt>
      <trkpt lat="46.309980" lon="13.796689">
        <ele>1599.1705538496</ele>
        <time>2016-05-29T10:27:22Z</time>
      </trkpt>
      <trkpt lat="46.309981" lon="13.796684">
        <ele>1599.2605527552</ele>
        <time>2016-05-29T10:27:31Z</time>
      </trkpt>
      <trkpt lat="46.309968" lon="13.796617">
        <ele>1599.2505528768</ele>
        <time>2016-05-29T10:27:36Z</time>
      </trkpt>
      <trkpt lat="46.309933" lon="13.796531">
        <ele>1598.9605564032</ele>
        <time>2016-05-29T10:27:45Z</time>
      </trkpt>
      <trkpt lat="46.309911" lon="13.796489">
        <ele>1599.0105557952</ele>
        <time>2016-05-29T10:27:50Z</time>
      </trkpt>
      <trkpt lat="46.309890" lon="13.796451">
        <ele>1598.7105594432</ele>
        <time>2016-05-29T10:27:53Z</time>
      </trkpt>
      <trkpt lat="46.309868" lon="13.796432">
        <ele>1598.4005632128</ele>
        <time>2016-05-29T10:27:54Z</time>
      </trkpt>
      <trkpt lat="46.309833" lon="13.796338">
        <ele>1597.830570144</ele>
        <time>2016-05-29T10:28:02Z</time>
      </trkpt>
      <trkpt lat="46.309758" lon="13.796243">
        <ele>1598.3705635776</ele>
        <time>2016-05-29T10:28:12Z</time>
      </trkpt>
      <trkpt lat="46.309723" lon="13.796200">
        <ele>1598.380563456</ele>
        <time>2016-05-29T10:28:17Z</time>
      </trkpt>
      <trkpt lat="46.309723" lon="13.796112">
        <ele>1598.4905621184</ele>
        <time>2016-05-29T10:28:25Z</time>
      </trkpt>
      <trkpt lat="46.309725" lon="13.796094">
        <ele>1598.5705611456</ele>
        <time>2016-05-29T10:28:36Z</time>
      </trkpt>
      <trkpt lat="46.309732" lon="13.796079">
        <ele>1598.5505613888</ele>
        <time>2016-05-29T10:28:48Z</time>
      </trkpt>
      <trkpt lat="46.309733" lon="13.796078">
        <ele>1598.5005619968</ele>
        <time>2016-05-29T10:29:00Z</time>
      </trkpt>
      <trkpt lat="46.309732" lon="13.796085">
        <ele>1598.5705611456</ele>
        <time>2016-05-29T10:29:11Z</time>
      </trkpt>
      <trkpt lat="46.309720" lon="13.796094">
        <ele>1598.780558592</ele>
        <time>2016-05-29T10:29:30Z</time>
      </trkpt>
      <trkpt lat="46.309716" lon="13.796089">
        <ele>1598.8605576192</ele>
        <time>2016-05-29T10:29:42Z</time>
      </trkpt>
      <trkpt lat="46.309709" lon="13.796090">
        <ele>1598.7905584704</ele>
        <time>2016-05-29T10:29:54Z</time>
      </trkpt>
      <trkpt lat="46.309718" lon="13.796098">
        <ele>1598.930556768</ele>
        <time>2016-05-29T10:30:09Z</time>
      </trkpt>
      <trkpt lat="46.309723" lon="13.796082">
        <ele>1598.8105582272</ele>
        <time>2016-05-29T10:30:27Z</time>
      </trkpt>
      <trkpt lat="46.309726" lon="13.796071">
        <ele>1598.7905584704</ele>
        <time>2016-05-29T10:30:28Z</time>
      </trkpt>
      <trkpt lat="46.309726" lon="13.796026">
        <ele>1598.7505589568</ele>
        <time>2016-05-29T10:30:31Z</time>
      </trkpt>
      <trkpt lat="46.309667" lon="13.795897">
        <ele>1598.5505613888</ele>
        <time>2016-05-29T10:30:41Z</time>
      </trkpt>
      <trkpt lat="46.309636" lon="13.795806">
        <ele>1599.0005559168</ele>
        <time>2016-05-29T10:30:50Z</time>
      </trkpt>
      <trkpt lat="46.309635" lon="13.795739">
        <ele>1598.98055616</ele>
        <time>2016-05-29T10:30:58Z</time>
      </trkpt>
      <trkpt lat="46.309633" lon="13.795699">
        <ele>1599.2005534848</ele>
        <time>2016-05-29T10:31:00Z</time>
      </trkpt>
      <trkpt lat="46.309645" lon="13.795609">
        <ele>1599.930544608</ele>
        <time>2016-05-29T10:31:08Z</time>
      </trkpt>
      <trkpt lat="46.309657" lon="13.795597">
        <ele>1600.330539744</ele>
        <time>2016-05-29T10:31:11Z</time>
      </trkpt>
      <trkpt lat="46.309676" lon="13.795552">
        <ele>1600.8905329344</ele>
        <time>2016-05-29T10:31:15Z</time>
      </trkpt>
      <trkpt lat="46.309699" lon="13.795513">
        <ele>1601.130530016</ele>
        <time>2016-05-29T10:31:19Z</time>
      </trkpt>
      <trkpt lat="46.309749" lon="13.795411">
        <ele>1601.3905268544</ele>
        <time>2016-05-29T10:31:29Z</time>
      </trkpt>
      <trkpt lat="46.309770" lon="13.795372">
        <ele>1601.48052576</ele>
        <time>2016-05-29T10:31:33Z</time>
      </trkpt>
      <trkpt lat="46.309787" lon="13.795324">
        <ele>1601.5705246656</ele>
        <time>2016-05-29T10:31:37Z</time>
      </trkpt>
      <trkpt lat="46.309818" lon="13.795261">
        <ele>1602.080518464</ele>
        <time>2016-05-29T10:31:42Z</time>
      </trkpt>
      <trkpt lat="46.309823" lon="13.795243">
        <ele>1602.5005133568</ele>
        <time>2016-05-29T10:31:50Z</time>
      </trkpt>
      <trkpt lat="46.309815" lon="13.795269">
        <ele>1602.5405128704</ele>
        <time>2016-05-29T10:32:12Z</time>
      </trkpt>
      <trkpt lat="46.309834" lon="13.795225">
        <ele>1602.4905134784</ele>
        <time>2016-05-29T10:32:20Z</time>
      </trkpt>
      <trkpt lat="46.309865" lon="13.795142">
        <ele>1601.8405213824</ele>
        <time>2016-05-29T10:32:28Z</time>
      </trkpt>
      <trkpt lat="46.309868" lon="13.795114">
        <ele>1600.8505334208</ele>
        <time>2016-05-29T10:32:38Z</time>
      </trkpt>
      <trkpt lat="46.309880" lon="13.795072">
        <ele>1600.8405335424</ele>
        <time>2016-05-29T10:32:48Z</time>
      </trkpt>
      <trkpt lat="46.309886" lon="13.795052">
        <ele>1600.6905353664</ele>
        <time>2016-05-29T10:32:51Z</time>
      </trkpt>
      <trkpt lat="46.309940" lon="13.794949">
        <ele>1599.7905463104</ele>
        <time>2016-05-29T10:32:59Z</time>
      </trkpt>
      <trkpt lat="46.309949" lon="13.794936">
        <ele>1599.7605466752</ele>
        <time>2016-05-29T10:33:00Z</time>
      </trkpt>
      <trkpt lat="46.310019" lon="13.794853">
        <ele>1599.6605478912</ele>
        <time>2016-05-29T10:33:07Z</time>
      </trkpt>
      <trkpt lat="46.310054" lon="13.794780">
        <ele>1599.6105484992</ele>
        <time>2016-05-29T10:33:14Z</time>
      </trkpt>
      <trkpt lat="46.310059" lon="13.794772">
        <ele>1599.7405469184</ele>
        <time>2016-05-29T10:33:17Z</time>
      </trkpt>
      <trkpt lat="46.310060" lon="13.794724">
        <ele>1600.0205435136</ele>
        <time>2016-05-29T10:33:21Z</time>
      </trkpt>
      <trkpt lat="46.310042" lon="13.794683">
        <ele>1600.280540352</ele>
        <time>2016-05-29T10:33:23Z</time>
      </trkpt>
      <trkpt lat="46.310020" lon="13.794579">
        <ele>1601.2305288</ele>
        <time>2016-05-29T10:33:32Z</time>
      </trkpt>
      <trkpt lat="46.309991" lon="13.794486">
        <ele>1601.8905207744</ele>
        <time>2016-05-29T10:33:40Z</time>
      </trkpt>
      <trkpt lat="46.309953" lon="13.794415">
        <ele>1602.7105108032</ele>
        <time>2016-05-29T10:33:48Z</time>
      </trkpt>
      <trkpt lat="46.309928" lon="13.794304">
        <ele>1603.6704991296</ele>
        <time>2016-05-29T10:33:57Z</time>
      </trkpt>
      <trkpt lat="46.309898" lon="13.794241">
        <ele>1604.530488672</ele>
        <time>2016-05-29T10:34:04Z</time>
      </trkpt>
      <trkpt lat="46.309877" lon="13.794168">
        <ele>1605.4404776064</ele>
        <time>2016-05-29T10:34:12Z</time>
      </trkpt>
      <trkpt lat="46.309853" lon="13.794084">
        <ele>1606.3504665408</ele>
        <time>2016-05-29T10:34:20Z</time>
      </trkpt>
      <trkpt lat="46.309830" lon="13.794020">
        <ele>1607.2004562048</ele>
        <time>2016-05-29T10:34:28Z</time>
      </trkpt>
      <trkpt lat="46.309816" lon="13.793948">
        <ele>1608.3904417344</ele>
        <time>2016-05-29T10:34:35Z</time>
      </trkpt>
      <trkpt lat="46.309797" lon="13.793870">
        <ele>1609.4904283584</ele>
        <time>2016-05-29T10:34:44Z</time>
      </trkpt>
      <trkpt lat="46.309777" lon="13.793786">
        <ele>1610.5604153472</ele>
        <time>2016-05-29T10:34:53Z</time>
      </trkpt>
      <trkpt lat="46.309775" lon="13.793781">
        <ele>1611.8104001472</ele>
        <time>2016-05-29T10:35:05Z</time>
      </trkpt>
      <trkpt lat="46.309769" lon="13.793754">
        <ele>1611.930398688</ele>
        <time>2016-05-29T10:35:18Z</time>
      </trkpt>
      <trkpt lat="46.309784" lon="13.793698">
        <ele>1612.1903955264</ele>
        <time>2016-05-29T10:35:25Z</time>
      </trkpt>
      <trkpt lat="46.309825" lon="13.793642">
        <ele>1613.430380448</ele>
        <time>2016-05-29T10:35:34Z</time>
      </trkpt>
      <trkpt lat="46.309840" lon="13.793604">
        <ele>1614.1603715712</ele>
        <time>2016-05-29T10:35:38Z</time>
      </trkpt>
      <trkpt lat="46.309858" lon="13.793554">
        <ele>1614.4603679232</ele>
        <time>2016-05-29T10:35:42Z</time>
      </trkpt>
      <trkpt lat="46.309867" lon="13.793448">
        <ele>1614.6103660992</ele>
        <time>2016-05-29T10:35:51Z</time>
      </trkpt>
      <trkpt lat="46.309879" lon="13.793346">
        <ele>1614.880362816</ele>
        <time>2016-05-29T10:36:00Z</time>
      </trkpt>
      <trkpt lat="46.309919" lon="13.793289">
        <ele>1615.8003516288</ele>
        <time>2016-05-29T10:36:08Z</time>
      </trkpt>
      <trkpt lat="46.309950" lon="13.793233">
        <ele>1615.6603533312</ele>
        <time>2016-05-29T10:36:15Z</time>
      </trkpt>
      <trkpt lat="46.309975" lon="13.793182">
        <ele>1615.780351872</ele>
        <time>2016-05-29T10:36:20Z</time>
      </trkpt>
      <trkpt lat="46.310037" lon="13.793124">
        <ele>1616.3903444544</ele>
        <time>2016-05-29T10:36:28Z</time>
      </trkpt>
      <trkpt lat="46.310104" lon="13.793044">
        <ele>1617.1103356992</ele>
        <time>2016-05-29T10:36:38Z</time>
      </trkpt>
      <trkpt lat="46.310108" lon="13.792982">
        <ele>1617.9203258496</ele>
        <time>2016-05-29T10:36:45Z</time>
      </trkpt>
      <trkpt lat="46.310142" lon="13.792901">
        <ele>1619.1203112576</ele>
        <time>2016-05-29T10:36:54Z</time>
      </trkpt>
      <trkpt lat="46.310166" lon="13.792805">
        <ele>1620.2602973952</ele>
        <time>2016-05-29T10:37:02Z</time>
      </trkpt>
      <trkpt lat="46.310190" lon="13.792763">
        <ele>1621.4702826816</ele>
        <time>2016-05-29T10:37:10Z</time>
      </trkpt>
      <trkpt lat="46.310222" lon="13.792711">
        <ele>1623.2502610368</ele>
        <time>2016-05-29T10:37:20Z</time>
      </trkpt>
      <trkpt lat="46.310240" lon="13.792662">
        <ele>1624.5002458368</ele>
        <time>2016-05-29T10:37:26Z</time>
      </trkpt>
      <trkpt lat="46.310256" lon="13.792611">
        <ele>1625.1902374464</ele>
        <time>2016-05-29T10:37:33Z</time>
      </trkpt>
      <trkpt lat="46.310285" lon="13.792515">
        <ele>1626.5402210304</ele>
        <time>2016-05-29T10:37:43Z</time>
      </trkpt>
      <trkpt lat="46.310304" lon="13.792489">
        <ele>1627.2202127616</ele>
        <time>2016-05-29T10:37:47Z</time>
      </trkpt>
      <trkpt lat="46.310361" lon="13.792492">
        <ele>1628.180201088</ele>
        <time>2016-05-29T10:38:02Z</time>
      </trkpt>
      <trkpt lat="46.310376" lon="13.792495">
        <ele>1628.0702024256</ele>
        <time>2016-05-29T10:38:16Z</time>
      </trkpt>
      <trkpt lat="46.310400" lon="13.792464">
        <ele>1628.1402015744</ele>
        <time>2016-05-29T10:38:26Z</time>
      </trkpt>
      <trkpt lat="46.310439" lon="13.792423">
        <ele>1628.6501953728</ele>
        <time>2016-05-29T10:38:34Z</time>
      </trkpt>
      <trkpt lat="46.310506" lon="13.792428">
        <ele>1629.7601818752</ele>
        <time>2016-05-29T10:38:41Z</time>
      </trkpt>
      <trkpt lat="46.310548" lon="13.792504">
        <ele>1631.430161568</ele>
        <time>2016-05-29T10:38:51Z</time>
      </trkpt>
      <trkpt lat="46.310561" lon="13.792565">
        <ele>1632.5601478272</ele>
        <time>2016-05-29T10:39:00Z</time>
      </trkpt>
      <trkpt lat="46.310604" lon="13.792578">
        <ele>1634.6201227776</ele>
        <time>2016-05-29T10:39:10Z</time>
      </trkpt>
      <trkpt lat="46.310650" lon="13.792548">
        <ele>1635.7001096448</ele>
        <time>2016-05-29T10:39:18Z</time>
      </trkpt>
      <trkpt lat="46.310682" lon="13.792490">
        <ele>1636.930094688</ele>
        <time>2016-05-29T10:39:27Z</time>
      </trkpt>
      <trkpt lat="46.310757" lon="13.792472">
        <ele>1638.7600724352</ele>
        <time>2016-05-29T10:39:39Z</time>
      </trkpt>
      <trkpt lat="46.310798" lon="13.792461">
        <ele>1640.4000524928</ele>
        <time>2016-05-29T10:39:48Z</time>
      </trkpt>
      <trkpt lat="46.310830" lon="13.792449">
        <ele>1641.6900368064</ele>
        <time>2016-05-29T10:40:03Z</time>
      </trkpt>
      <trkpt lat="46.310855" lon="13.792359">
        <ele>1643.2200182016</ele>
        <time>2016-05-29T10:40:14Z</time>
      </trkpt>
      <trkpt lat="46.310892" lon="13.792285">
        <ele>1644.8199987456</ele>
        <time>2016-05-29T10:40:22Z</time>
      </trkpt>
      <trkpt lat="46.310940" lon="13.792226">
        <ele>1645.5999892608</ele>
        <time>2016-05-29T10:40:30Z</time>
      </trkpt>
      <trkpt lat="46.310987" lon="13.792156">
        <ele>1647.4999661568</ele>
        <time>2016-05-29T10:40:42Z</time>
      </trkpt>
      <trkpt lat="46.311032" lon="13.792101">
        <ele>1649.0599471872</ele>
        <time>2016-05-29T10:40:50Z</time>
      </trkpt>
      <trkpt lat="46.311094" lon="13.792056">
        <ele>1650.2599325952</ele>
        <time>2016-05-29T10:41:01Z</time>
      </trkpt>
      <trkpt lat="46.311173" lon="13.792031">
        <ele>1651.379918976</ele>
        <time>2016-05-29T10:41:12Z</time>
      </trkpt>
      <trkpt lat="46.311233" lon="13.792024">
        <ele>1652.829901344</ele>
        <time>2016-05-29T10:41:21Z</time>
      </trkpt>
      <trkpt lat="46.311258" lon="13.792015">
        <ele>1653.7198905216</ele>
        <time>2016-05-29T10:41:43Z</time>
      </trkpt>
      <trkpt lat="46.311260" lon="13.792000">
        <ele>1653.3598948992</ele>
        <time>2016-05-29T10:41:58Z</time>
      </trkpt>
      <trkpt lat="46.311267" lon="13.791942">
        <ele>1654.3098833472</ele>
        <time>2016-05-29T10:42:07Z</time>
      </trkpt>
      <trkpt lat="46.311305" lon="13.791935">
        <ele>1655.9498634048</ele>
        <time>2016-05-29T10:42:15Z</time>
      </trkpt>
      <trkpt lat="46.311366" lon="13.791972">
        <ele>1657.7098420032</ele>
        <time>2016-05-29T10:42:26Z</time>
      </trkpt>
      <trkpt lat="46.311373" lon="13.792016">
        <ele>1659.079825344</ele>
        <time>2016-05-29T10:42:33Z</time>
      </trkpt>
      <trkpt lat="46.311405" lon="13.791978">
        <ele>1660.97980224</ele>
        <time>2016-05-29T10:42:42Z</time>
      </trkpt>
      <trkpt lat="46.311418" lon="13.791970">
        <ele>1662.1497880128</ele>
        <time>2016-05-29T10:42:54Z</time>
      </trkpt>
      <trkpt lat="46.311418" lon="13.791972">
        <ele>1662.2997861888</ele>
        <time>2016-05-29T10:43:04Z</time>
      </trkpt>
      <trkpt lat="46.311417" lon="13.791977">
        <ele>1662.0397893504</ele>
        <time>2016-05-29T10:43:20Z</time>
      </trkpt>
      <trkpt lat="46.311434" lon="13.791995">
        <ele>1662.3597854592</ele>
        <time>2016-05-29T10:43:39Z</time>
      </trkpt>
      <trkpt lat="46.311471" lon="13.791973">
        <ele>1663.2397747584</ele>
        <time>2016-05-29T10:43:47Z</time>
      </trkpt>
      <trkpt lat="46.311517" lon="13.791965">
        <ele>1664.7497563968</ele>
        <time>2016-05-29T10:43:57Z</time>
      </trkpt>
      <trkpt lat="46.311563" lon="13.791922">
        <ele>1666.3997363328</ele>
        <time>2016-05-29T10:44:07Z</time>
      </trkpt>
      <trkpt lat="46.311578" lon="13.791875">
        <ele>1668.1897145664</ele>
        <time>2016-05-29T10:44:18Z</time>
      </trkpt>
      <trkpt lat="46.311634" lon="13.791831">
        <ele>1669.9196935296</ele>
        <time>2016-05-29T10:44:28Z</time>
      </trkpt>
      <trkpt lat="46.311684" lon="13.791769">
        <ele>1671.129678816</ele>
        <time>2016-05-29T10:44:36Z</time>
      </trkpt>
      <trkpt lat="46.311708" lon="13.791718">
        <ele>1672.6696600896</ele>
        <time>2016-05-29T10:44:44Z</time>
      </trkpt>
      <trkpt lat="46.311733" lon="13.791703">
        <ele>1674.4396385664</ele>
        <time>2016-05-29T10:44:53Z</time>
      </trkpt>
      <trkpt lat="46.311714" lon="13.791647">
        <ele>1675.3696272576</ele>
        <time>2016-05-29T10:45:01Z</time>
      </trkpt>
      <trkpt lat="46.311722" lon="13.791638">
        <ele>1676.2096170432</ele>
        <time>2016-05-29T10:45:16Z</time>
      </trkpt>
      <trkpt lat="46.311726" lon="13.791636">
        <ele>1676.2396166784</ele>
        <time>2016-05-29T10:45:31Z</time>
      </trkpt>
      <trkpt lat="46.311730" lon="13.791641">
        <ele>1675.4996256768</ele>
        <time>2016-05-29T10:45:55Z</time>
      </trkpt>
      <trkpt lat="46.311741" lon="13.791604">
        <ele>1675.9196205696</ele>
        <time>2016-05-29T10:46:13Z</time>
      </trkpt>
      <trkpt lat="46.311741" lon="13.791559">
        <ele>1676.4696138816</ele>
        <time>2016-05-29T10:46:21Z</time>
      </trkpt>
      <trkpt lat="46.311770" lon="13.791582">
        <ele>1678.4495898048</ele>
        <time>2016-05-29T10:46:29Z</time>
      </trkpt>
      <trkpt lat="46.311796" lon="13.791546">
        <ele>1679.9895710784</ele>
        <time>2016-05-29T10:46:37Z</time>
      </trkpt>
      <trkpt lat="46.311809" lon="13.791479">
        <ele>1681.5395522304</ele>
        <time>2016-05-29T10:46:44Z</time>
      </trkpt>
      <trkpt lat="46.311846" lon="13.791401">
        <ele>1682.779537152</ele>
        <time>2016-05-29T10:46:53Z</time>
      </trkpt>
      <trkpt lat="46.311852" lon="13.791382">
        <ele>1682.9095355712</ele>
        <time>2016-05-29T10:46:56Z</time>
      </trkpt>
      <trkpt lat="46.311899" lon="13.791290">
        <ele>1683.629526816</ele>
        <time>2016-05-29T10:47:07Z</time>
      </trkpt>
      <trkpt lat="46.311957" lon="13.791232">
        <ele>1684.7595130752</ele>
        <time>2016-05-29T10:47:15Z</time>
      </trkpt>
      <trkpt lat="46.312015" lon="13.791164">
        <ele>1684.029521952</ele>
        <time>2016-05-29T10:47:24Z</time>
      </trkpt>
      <trkpt lat="46.312080" lon="13.791087">
        <ele>1683.5595276672</ele>
        <time>2016-05-29T10:47:34Z</time>
      </trkpt>
      <trkpt lat="46.312130" lon="13.791000">
        <ele>1684.1695202496</ele>
        <time>2016-05-29T10:47:42Z</time>
      </trkpt>
      <trkpt lat="46.312157" lon="13.790968">
        <ele>1684.429517088</ele>
        <time>2016-05-29T10:47:47Z</time>
      </trkpt>
      <trkpt lat="46.312180" lon="13.790846">
        <ele>1685.3195062656</ele>
        <time>2016-05-29T10:47:57Z</time>
      </trkpt>
      <trkpt lat="46.312188" lon="13.790773">
        <ele>1686.5394914304</ele>
        <time>2016-05-29T10:48:05Z</time>
      </trkpt>
      <trkpt lat="46.312234" lon="13.790719">
        <ele>1686.3194941056</ele>
        <time>2016-05-29T10:48:12Z</time>
      </trkpt>
      <trkpt lat="46.312246" lon="13.790703">
        <ele>1686.0994967808</ele>
        <time>2016-05-29T10:48:13Z</time>
      </trkpt>
      <trkpt lat="46.312287" lon="13.790649">
        <ele>1685.4195050496</ele>
        <time>2016-05-29T10:48:21Z</time>
      </trkpt>
      <trkpt lat="46.312341" lon="13.790595">
        <ele>1685.7495010368</ele>
        <time>2016-05-29T10:48:29Z</time>
      </trkpt>
      <trkpt lat="46.312409" lon="13.790528">
        <ele>1687.4594802432</ele>
        <time>2016-05-29T10:48:39Z</time>
      </trkpt>
      <trkpt lat="46.312451" lon="13.790506">
        <ele>1687.9894737984</ele>
        <time>2016-05-29T10:48:47Z</time>
      </trkpt>
      <trkpt lat="46.312521" lon="13.790544">
        <ele>1688.629466016</ele>
        <time>2016-05-29T10:48:59Z</time>
      </trkpt>
      <trkpt lat="46.312537" lon="13.790543">
        <ele>1688.5994663808</ele>
        <time>2016-05-29T10:49:15Z</time>
      </trkpt>
      <trkpt lat="46.312510" lon="13.790588">
        <ele>1688.5594668672</ele>
        <time>2016-05-29T10:49:35Z</time>
      </trkpt>
      <trkpt lat="46.312500" lon="13.790614">
        <ele>1688.4194685696</ele>
        <time>2016-05-29T10:49:49Z</time>
      </trkpt>
      <trkpt lat="46.312497" lon="13.790630">
        <ele>1688.3094699072</ele>
        <time>2016-05-29T10:50:05Z</time>
      </trkpt>
      <trkpt lat="46.312490" lon="13.790624">
        <ele>1688.4994675968</ele>
        <time>2016-05-29T10:50:24Z</time>
      </trkpt>
      <trkpt lat="46.312491" lon="13.790631">
        <ele>1688.7294648</ele>
        <time>2016-05-29T10:50:40Z</time>
      </trkpt>
      <trkpt lat="46.312525" lon="13.790609">
        <ele>1688.829463584</ele>
        <time>2016-05-29T10:50:56Z</time>
      </trkpt>
      <trkpt lat="46.312573" lon="13.790515">
        <ele>1689.0594607872</ele>
        <time>2016-05-29T10:51:06Z</time>
      </trkpt>
      <trkpt lat="46.312619" lon="13.790447">
        <ele>1689.3194576256</ele>
        <time>2016-05-29T10:51:15Z</time>
      </trkpt>
      <trkpt lat="46.312667" lon="13.790349">
        <ele>1690.329445344</ele>
        <time>2016-05-29T10:51:26Z</time>
      </trkpt>
      <trkpt lat="46.312710" lon="13.790296">
        <ele>1691.7894275904</ele>
        <time>2016-05-29T10:51:34Z</time>
      </trkpt>
      <trkpt lat="46.312747" lon="13.790253">
        <ele>1693.0394123904</ele>
        <time>2016-05-29T10:51:41Z</time>
      </trkpt>
      <trkpt lat="46.312753" lon="13.790200">
        <ele>1694.3393965824</ele>
        <time>2016-05-29T10:51:49Z</time>
      </trkpt>
      <trkpt lat="46.312773" lon="13.790179">
        <ele>1695.2093860032</ele>
        <time>2016-05-29T10:51:57Z</time>
      </trkpt>
      <trkpt lat="46.312813" lon="13.790164">
        <ele>1696.429371168</ele>
        <time>2016-05-29T10:52:04Z</time>
      </trkpt>
      <trkpt lat="46.312828" lon="13.790130">
        <ele>1697.9193530496</ele>
        <time>2016-05-29T10:52:12Z</time>
      </trkpt>
      <trkpt lat="46.312854" lon="13.790082">
        <ele>1698.9593404032</ele>
        <time>2016-05-29T10:52:17Z</time>
      </trkpt>
      <trkpt lat="46.312889" lon="13.789994">
        <ele>1699.4393345664</ele>
        <time>2016-05-29T10:52:28Z</time>
      </trkpt>
      <trkpt lat="46.312934" lon="13.789919">
        <ele>1700.529321312</ele>
        <time>2016-05-29T10:52:39Z</time>
      </trkpt>
      <trkpt lat="46.312992" lon="13.789886">
        <ele>1701.079314624</ele>
        <time>2016-05-29T10:52:47Z</time>
      </trkpt>
      <trkpt lat="46.313072" lon="13.789870">
        <ele>1701.0593148672</ele>
        <time>2016-05-29T10:52:55Z</time>
      </trkpt>
      <trkpt lat="46.313154" lon="13.789896">
        <ele>1700.1093264192</ele>
        <time>2016-05-29T10:53:05Z</time>
      </trkpt>
      <trkpt lat="46.313223" lon="13.789945">
        <ele>1698.6493441728</ele>
        <time>2016-05-29T10:53:14Z</time>
      </trkpt>
      <trkpt lat="46.313277" lon="13.789893">
        <ele>1697.3193603456</ele>
        <time>2016-05-29T10:53:24Z</time>
      </trkpt>
      <trkpt lat="46.313311" lon="13.789832">
        <ele>1696.2893728704</ele>
        <time>2016-05-29T10:53:32Z</time>
      </trkpt>
      <trkpt lat="46.313352" lon="13.789730">
        <ele>1694.9193895296</ele>
        <time>2016-05-29T10:53:42Z</time>
      </trkpt>
      <trkpt lat="46.313406" lon="13.789684">
        <ele>1694.1993982848</ele>
        <time>2016-05-29T10:53:52Z</time>
      </trkpt>
      <trkpt lat="46.313436" lon="13.789661">
        <ele>1693.9394014464</ele>
        <time>2016-05-29T10:53:55Z</time>
      </trkpt>
      <trkpt lat="46.313524" lon="13.789569">
        <ele>1692.6394172544</ele>
        <time>2016-05-29T10:54:07Z</time>
      </trkpt>
      <trkpt lat="46.313548" lon="13.789531">
        <ele>1692.4094200512</ele>
        <time>2016-05-29T10:54:11Z</time>
      </trkpt>
      <trkpt lat="46.313607" lon="13.789500">
        <ele>1692.1194235776</ele>
        <time>2016-05-29T10:54:19Z</time>
      </trkpt>
      <trkpt lat="46.313672" lon="13.789455">
        <ele>1692.0594243072</ele>
        <time>2016-05-29T10:54:28Z</time>
      </trkpt>
      <trkpt lat="46.313713" lon="13.789449">
        <ele>1692.22942224</ele>
        <time>2016-05-29T10:54:32Z</time>
      </trkpt>
      <trkpt lat="46.313780" lon="13.789419">
        <ele>1692.4394196864</ele>
        <time>2016-05-29T10:54:42Z</time>
      </trkpt>
      <trkpt lat="46.313791" lon="13.789362">
        <ele>1692.7094164032</ele>
        <time>2016-05-29T10:54:49Z</time>
      </trkpt>
      <trkpt lat="46.313797" lon="13.789261">
        <ele>1692.6194174976</ele>
        <time>2016-05-29T10:54:58Z</time>
      </trkpt>
      <trkpt lat="46.313810" lon="13.789200">
        <ele>1692.5394184704</ele>
        <time>2016-05-29T10:55:02Z</time>
      </trkpt>
      <trkpt lat="46.313817" lon="13.789111">
        <ele>1692.5394184704</ele>
        <time>2016-05-29T10:55:10Z</time>
      </trkpt>
      <trkpt lat="46.313828" lon="13.789033">
        <ele>1693.6694047296</ele>
        <time>2016-05-29T10:55:20Z</time>
      </trkpt>
      <trkpt lat="46.313868" lon="13.788978">
        <ele>1694.3993958528</ele>
        <time>2016-05-29T10:55:29Z</time>
      </trkpt>
      <trkpt lat="46.313890" lon="13.788895">
        <ele>1694.8993897728</ele>
        <time>2016-05-29T10:55:40Z</time>
      </trkpt>
      <trkpt lat="46.313950" lon="13.788855">
        <ele>1695.1893862464</ele>
        <time>2016-05-29T10:55:48Z</time>
      </trkpt>
      <trkpt lat="46.313997" lon="13.788797">
        <ele>1695.4693828416</ele>
        <time>2016-05-29T10:55:56Z</time>
      </trkpt>
      <trkpt lat="46.314012" lon="13.788722">
        <ele>1695.7993788288</ele>
        <time>2016-05-29T10:56:04Z</time>
      </trkpt>
      <trkpt lat="46.314026" lon="13.788635">
        <ele>1695.8993776128</ele>
        <time>2016-05-29T10:56:11Z</time>
      </trkpt>
      <trkpt lat="46.314051" lon="13.788575">
        <ele>1696.1093750592</ele>
        <time>2016-05-29T10:56:19Z</time>
      </trkpt>
      <trkpt lat="46.314058" lon="13.788487">
        <ele>1696.829366304</ele>
        <time>2016-05-29T10:56:27Z</time>
      </trkpt>
      <trkpt lat="46.314107" lon="13.788422">
        <ele>1697.6893558464</ele>
        <time>2016-05-29T10:56:38Z</time>
      </trkpt>
      <trkpt lat="46.314172" lon="13.788410">
        <ele>1698.6493441728</ele>
        <time>2016-05-29T10:56:47Z</time>
      </trkpt>
      <trkpt lat="46.314166" lon="13.788330">
        <ele>1699.6693317696</ele>
        <time>2016-05-29T10:56:58Z</time>
      </trkpt>
      <trkpt lat="46.314153" lon="13.788244">
        <ele>1700.9093166912</ele>
        <time>2016-05-29T10:57:08Z</time>
      </trkpt>
      <trkpt lat="46.314157" lon="13.788208">
        <ele>1702.0993022208</ele>
        <time>2016-05-29T10:57:16Z</time>
      </trkpt>
      <trkpt lat="46.314176" lon="13.788201">
        <ele>1702.9692916416</ele>
        <time>2016-05-29T10:57:29Z</time>
      </trkpt>
      <trkpt lat="46.314173" lon="13.788200">
        <ele>1702.6992949248</ele>
        <time>2016-05-29T10:57:52Z</time>
      </trkpt>
      <trkpt lat="46.314169" lon="13.788197">
        <ele>1702.8692928576</ele>
        <time>2016-05-29T10:58:10Z</time>
      </trkpt>
      <trkpt lat="46.314160" lon="13.788142">
        <ele>1703.529284832</ele>
        <time>2016-05-29T10:58:19Z</time>
      </trkpt>
      <trkpt lat="46.314160" lon="13.788078">
        <ele>1705.0492663488</ele>
        <time>2016-05-29T10:58:30Z</time>
      </trkpt>
      <trkpt lat="46.314147" lon="13.788007">
        <ele>1706.3692502976</ele>
        <time>2016-05-29T10:58:38Z</time>
      </trkpt>
      <trkpt lat="46.314124" lon="13.787931">
        <ele>1707.7492335168</ele>
        <time>2016-05-29T10:58:49Z</time>
      </trkpt>
      <trkpt lat="46.314128" lon="13.787872">
        <ele>1709.1392166144</ele>
        <time>2016-05-29T10:59:00Z</time>
      </trkpt>
      <trkpt lat="46.314129" lon="13.787824">
        <ele>1710.3692016576</ele>
        <time>2016-05-29T10:59:08Z</time>
      </trkpt>
      <trkpt lat="46.314120" lon="13.787760">
        <ele>1712.1091804992</ele>
        <time>2016-05-29T10:59:21Z</time>
      </trkpt>
      <trkpt lat="46.314138" lon="13.787691">
        <ele>1713.47916384</ele>
        <time>2016-05-29T10:59:35Z</time>
      </trkpt>
      <trkpt lat="46.314164" lon="13.787632">
        <ele>1714.9591458432</ele>
        <time>2016-05-29T10:59:44Z</time>
      </trkpt>
      <trkpt lat="46.314192" lon="13.787596">
        <ele>1716.2191305216</ele>
        <time>2016-05-29T10:59:54Z</time>
      </trkpt>
      <trkpt lat="46.314214" lon="13.787528">
        <ele>1717.3491167808</ele>
        <time>2016-05-29T11:00:05Z</time>
      </trkpt>
      <trkpt lat="46.314250" lon="13.787485">
        <ele>1718.579101824</ele>
        <time>2016-05-29T11:00:14Z</time>
      </trkpt>
      <trkpt lat="46.314262" lon="13.787435">
        <ele>1719.2690934336</ele>
        <time>2016-05-29T11:00:22Z</time>
      </trkpt>
      <trkpt lat="46.314278" lon="13.787404">
        <ele>1720.1890822464</ele>
        <time>2016-05-29T11:00:30Z</time>
      </trkpt>
      <trkpt lat="46.314311" lon="13.787384">
        <ele>1721.47906656</ele>
        <time>2016-05-29T11:00:38Z</time>
      </trkpt>
      <trkpt lat="46.314326" lon="13.787346">
        <ele>1722.4790544</ele>
        <time>2016-05-29T11:00:49Z</time>
      </trkpt>
      <trkpt lat="46.314328" lon="13.787291">
        <ele>1724.1190344576</ele>
        <time>2016-05-29T11:00:57Z</time>
      </trkpt>
      <trkpt lat="46.314340" lon="13.787220">
        <ele>1725.6190162176</ele>
        <time>2016-05-29T11:01:08Z</time>
      </trkpt>
      <trkpt lat="46.314339" lon="13.787160">
        <ele>1726.8690010176</ele>
        <time>2016-05-29T11:01:19Z</time>
      </trkpt>
      <trkpt lat="46.314364" lon="13.787108">
        <ele>1728.328983264</ele>
        <time>2016-05-29T11:01:28Z</time>
      </trkpt>
      <trkpt lat="46.314353" lon="13.787106">
        <ele>1728.4889813184</ele>
        <time>2016-05-29T11:01:43Z</time>
      </trkpt>
      <trkpt lat="46.314371" lon="13.787084">
        <ele>1728.6589792512</ele>
        <time>2016-05-29T11:01:58Z</time>
      </trkpt>
      <trkpt lat="46.314365" lon="13.787109">
        <ele>1728.7889776704</ele>
        <time>2016-05-29T11:02:11Z</time>
      </trkpt>
      <trkpt lat="46.314344" lon="13.787114">
        <ele>1728.9189760896</ele>
        <time>2016-05-29T11:02:24Z</time>
      </trkpt>
      <trkpt lat="46.314353" lon="13.787107">
        <ele>1728.6589792512</ele>
        <time>2016-05-29T11:02:37Z</time>
      </trkpt>
      <trkpt lat="46.314358" lon="13.787105">
        <ele>1728.5489805888</ele>
        <time>2016-05-29T11:02:57Z</time>
      </trkpt>
      <trkpt lat="46.314359" lon="13.787122">
        <ele>1728.5489805888</ele>
        <time>2016-05-29T11:03:11Z</time>
      </trkpt>
      <trkpt lat="46.314374" lon="13.787118">
        <ele>1728.778977792</ele>
        <time>2016-05-29T11:03:27Z</time>
      </trkpt>
      <trkpt lat="46.314388" lon="13.787070">
        <ele>1729.1889728064</ele>
        <time>2016-05-29T11:03:38Z</time>
      </trkpt>
      <trkpt lat="46.314339" lon="13.787025">
        <ele>1730.4589573632</ele>
        <time>2016-05-29T11:03:50Z</time>
      </trkpt>
      <trkpt lat="46.314297" lon="13.786955">
        <ele>1731.528944352</ele>
        <time>2016-05-29T11:04:02Z</time>
      </trkpt>
      <trkpt lat="46.314280" lon="13.786902">
        <ele>1732.6989301248</ele>
        <time>2016-05-29T11:04:14Z</time>
      </trkpt>
      <trkpt lat="46.314264" lon="13.786850">
        <ele>1734.3989094528</ele>
        <time>2016-05-29T11:04:26Z</time>
      </trkpt>
      <trkpt lat="46.314288" lon="13.786788">
        <ele>1736.078889024</ele>
        <time>2016-05-29T11:04:37Z</time>
      </trkpt>
      <trkpt lat="46.314277" lon="13.786748">
        <ele>1737.6888694464</ele>
        <time>2016-05-29T11:04:48Z</time>
      </trkpt>
      <trkpt lat="46.314221" lon="13.786719">
        <ele>1739.428848288</ele>
        <time>2016-05-29T11:05:00Z</time>
      </trkpt>
      <trkpt lat="46.314185" lon="13.786676">
        <ele>1740.7088327232</ele>
        <time>2016-05-29T11:05:11Z</time>
      </trkpt>
      <trkpt lat="46.314190" lon="13.786642">
        <ele>1741.928817888</ele>
        <time>2016-05-29T11:05:19Z</time>
      </trkpt>
      <trkpt lat="46.314216" lon="13.786601">
        <ele>1743.4587992832</ele>
        <time>2016-05-29T11:05:31Z</time>
      </trkpt>
      <trkpt lat="46.314237" lon="13.786554">
        <ele>1745.3487763008</ele>
        <time>2016-05-29T11:05:43Z</time>
      </trkpt>
      <trkpt lat="46.314272" lon="13.786513">
        <ele>1746.5387618304</ele>
        <time>2016-05-29T11:05:54Z</time>
      </trkpt>
      <trkpt lat="46.314293" lon="13.786466">
        <ele>1747.7487471168</ele>
        <time>2016-05-29T11:06:02Z</time>
      </trkpt>
      <trkpt lat="46.314311" lon="13.786421">
        <ele>1748.7287352</ele>
        <time>2016-05-29T11:06:12Z</time>
      </trkpt>
      <trkpt lat="46.314338" lon="13.786370">
        <ele>1750.1987173248</ele>
        <time>2016-05-29T11:06:21Z</time>
      </trkpt>
      <trkpt lat="46.314354" lon="13.786365">
        <ele>1751.1987051648</ele>
        <time>2016-05-29T11:06:32Z</time>
      </trkpt>
      <trkpt lat="46.314362" lon="13.786368">
        <ele>1751.4687018816</ele>
        <time>2016-05-29T11:06:47Z</time>
      </trkpt>
      <trkpt lat="46.314359" lon="13.786377">
        <ele>1751.3487033408</ele>
        <time>2016-05-29T11:06:59Z</time>
      </trkpt>
      <trkpt lat="46.314359" lon="13.786391">
        <ele>1750.9887077184</ele>
        <time>2016-05-29T11:07:12Z</time>
      </trkpt>
      <trkpt lat="46.314347" lon="13.786376">
        <ele>1750.9987075968</ele>
        <time>2016-05-29T11:07:26Z</time>
      </trkpt>
      <trkpt lat="46.314383" lon="13.786328">
        <ele>1752.0386949504</ele>
        <time>2016-05-29T11:07:34Z</time>
      </trkpt>
      <trkpt lat="46.314406" lon="13.786243">
        <ele>1753.628675616</ele>
        <time>2016-05-29T11:07:46Z</time>
      </trkpt>
      <trkpt lat="46.314416" lon="13.786207">
        <ele>1755.5186526336</ele>
        <time>2016-05-29T11:07:56Z</time>
      </trkpt>
      <trkpt lat="46.314438" lon="13.786166">
        <ele>1756.5986395008</ele>
        <time>2016-05-29T11:08:05Z</time>
      </trkpt>
      <trkpt lat="46.314480" lon="13.786124">
        <ele>1757.3986297728</ele>
        <time>2016-05-29T11:08:16Z</time>
      </trkpt>
      <trkpt lat="46.314501" lon="13.786059">
        <ele>1758.1386207744</ele>
        <time>2016-05-29T11:08:27Z</time>
      </trkpt>
      <trkpt lat="46.314524" lon="13.786001">
        <ele>1759.1586083712</ele>
        <time>2016-05-29T11:08:36Z</time>
      </trkpt>
      <trkpt lat="46.314548" lon="13.785951">
        <ele>1760.5985908608</ele>
        <time>2016-05-29T11:08:46Z</time>
      </trkpt>
      <trkpt lat="46.314577" lon="13.785917">
        <ele>1761.9085749312</ele>
        <time>2016-05-29T11:08:55Z</time>
      </trkpt>
      <trkpt lat="46.314607" lon="13.785892">
        <ele>1763.4485562048</ele>
        <time>2016-05-29T11:09:03Z</time>
      </trkpt>
      <trkpt lat="46.314664" lon="13.785893">
        <ele>1764.8885386944</ele>
        <time>2016-05-29T11:09:13Z</time>
      </trkpt>
      <trkpt lat="46.314712" lon="13.785859">
        <ele>1765.9085262912</ele>
        <time>2016-05-29T11:09:21Z</time>
      </trkpt>
      <trkpt lat="46.314724" lon="13.785824">
        <ele>1767.378508416</ele>
        <time>2016-05-29T11:09:30Z</time>
      </trkpt>
      <trkpt lat="46.314748" lon="13.785842">
        <ele>1768.7184921216</ele>
        <time>2016-05-29T11:09:37Z</time>
      </trkpt>
      <trkpt lat="46.314769" lon="13.785820">
        <ele>1769.6584806912</ele>
        <time>2016-05-29T11:09:45Z</time>
      </trkpt>
      <trkpt lat="46.314799" lon="13.785802">
        <ele>1771.328460384</ele>
        <time>2016-05-29T11:09:53Z</time>
      </trkpt>
      <trkpt lat="46.314818" lon="13.785767">
        <ele>1772.328448224</ele>
        <time>2016-05-29T11:10:03Z</time>
      </trkpt>
      <trkpt lat="46.314817" lon="13.785759">
        <ele>1773.4584344832</ele>
        <time>2016-05-29T11:10:16Z</time>
      </trkpt>
      <trkpt lat="46.314804" lon="13.785753">
        <ele>1773.3084363072</ele>
        <time>2016-05-29T11:10:24Z</time>
      </trkpt>
      <trkpt lat="46.314798" lon="13.785758">
        <ele>1773.2184374016</ele>
        <time>2016-05-29T11:10:31Z</time>
      </trkpt>
      <trkpt lat="46.314791" lon="13.785772">
        <ele>1773.128438496</ele>
        <time>2016-05-29T11:10:39Z</time>
      </trkpt>
      <trkpt lat="46.314785" lon="13.785781">
        <ele>1773.128438496</ele>
        <time>2016-05-29T11:10:50Z</time>
      </trkpt>
      <trkpt lat="46.314787" lon="13.785779">
        <ele>1773.1584381312</ele>
        <time>2016-05-29T11:10:57Z</time>
      </trkpt>
      <trkpt lat="46.314779" lon="13.785790">
        <ele>1772.9484406848</ele>
        <time>2016-05-29T11:11:06Z</time>
      </trkpt>
      <trkpt lat="46.314781" lon="13.785791">
        <ele>1772.5584454272</ele>
        <time>2016-05-29T11:11:15Z</time>
      </trkpt>
      <trkpt lat="46.314804" lon="13.785760">
        <ele>1773.128438496</ele>
        <time>2016-05-29T11:11:25Z</time>
      </trkpt>
      <trkpt lat="46.314836" lon="13.785721">
        <ele>1774.9484163648</ele>
        <time>2016-05-29T11:11:36Z</time>
      </trkpt>
      <trkpt lat="46.314877" lon="13.785713">
        <ele>1776.578396544</ele>
        <time>2016-05-29T11:11:45Z</time>
      </trkpt>
      <trkpt lat="46.314905" lon="13.785687">
        <ele>1777.6883830464</ele>
        <time>2016-05-29T11:11:53Z</time>
      </trkpt>
      <trkpt lat="46.314941" lon="13.785664">
        <ele>1778.6483713728</ele>
        <time>2016-05-29T11:12:00Z</time>
      </trkpt>
      <trkpt lat="46.314981" lon="13.785614">
        <ele>1780.078353984</ele>
        <time>2016-05-29T11:12:09Z</time>
      </trkpt>
      <trkpt lat="46.315039" lon="13.785563">
        <ele>1781.5983355008</ele>
        <time>2016-05-29T11:12:22Z</time>
      </trkpt>
      <trkpt lat="46.315076" lon="13.785522">
        <ele>1782.9883185984</ele>
        <time>2016-05-29T11:12:31Z</time>
      </trkpt>
      <trkpt lat="46.315107" lon="13.785486">
        <ele>1783.4083134912</ele>
        <time>2016-05-29T11:12:39Z</time>
      </trkpt>
      <trkpt lat="46.315161" lon="13.785458">
        <ele>1783.8883076544</ele>
        <time>2016-05-29T11:12:46Z</time>
      </trkpt>
      <trkpt lat="46.315188" lon="13.785407">
        <ele>1784.2583031552</ele>
        <time>2016-05-29T11:12:54Z</time>
      </trkpt>
      <trkpt lat="46.315246" lon="13.785364">
        <ele>1783.3183145856</ele>
        <time>2016-05-29T11:13:05Z</time>
      </trkpt>
      <trkpt lat="46.315253" lon="13.785357">
        <ele>1783.1183170176</ele>
        <time>2016-05-29T11:13:06Z</time>
      </trkpt>
      <trkpt lat="46.315323" lon="13.785324">
        <ele>1781.6683346496</ele>
        <time>2016-05-29T11:13:13Z</time>
      </trkpt>
      <trkpt lat="46.315374" lon="13.785307">
        <ele>1781.1383410944</ele>
        <time>2016-05-29T11:13:21Z</time>
      </trkpt>
      <trkpt lat="46.315405" lon="13.785283">
        <ele>1781.6183352576</ele>
        <time>2016-05-29T11:13:29Z</time>
      </trkpt>
      <trkpt lat="46.315449" lon="13.785219">
        <ele>1783.1683164096</ele>
        <time>2016-05-29T11:13:37Z</time>
      </trkpt>
      <trkpt lat="46.315514" lon="13.785231">
        <ele>1783.528312032</ele>
        <time>2016-05-29T11:13:47Z</time>
      </trkpt>
      <trkpt lat="46.315583" lon="13.785214">
        <ele>1783.6183109376</ele>
        <time>2016-05-29T11:13:56Z</time>
      </trkpt>
      <trkpt lat="46.315655" lon="13.785204">
        <ele>1782.5883234624</ele>
        <time>2016-05-29T11:14:06Z</time>
      </trkpt>
      <trkpt lat="46.315721" lon="13.785179">
        <ele>1781.628335136</ele>
        <time>2016-05-29T11:14:14Z</time>
      </trkpt>
      <trkpt lat="46.315789" lon="13.785202">
        <ele>1780.7883453504</ele>
        <time>2016-05-29T11:14:23Z</time>
      </trkpt>
      <trkpt lat="46.315797" lon="13.785206">
        <ele>1780.678346688</ele>
        <time>2016-05-29T11:14:23Z</time>
      </trkpt>
      <trkpt lat="46.315833" lon="13.785208">
        <ele>1780.3583505792</ele>
        <time>2016-05-29T11:14:27Z</time>
      </trkpt>
      <trkpt lat="46.315914" lon="13.785204">
        <ele>1780.0883538624</ele>
        <time>2016-05-29T11:14:38Z</time>
      </trkpt>
      <trkpt lat="46.315983" lon="13.785146">
        <ele>1778.97836736</ele>
        <time>2016-05-29T11:14:47Z</time>
      </trkpt>
      <trkpt lat="46.316044" lon="13.785116">
        <ele>1778.2983756288</ele>
        <time>2016-05-29T11:14:56Z</time>
      </trkpt>
      <trkpt lat="46.316086" lon="13.785049">
        <ele>1777.7483823168</ele>
        <time>2016-05-29T11:15:05Z</time>
      </trkpt>
      <trkpt lat="46.316142" lon="13.784971">
        <ele>1777.0083913152</ele>
        <time>2016-05-29T11:15:13Z</time>
      </trkpt>
      <trkpt lat="46.316173" lon="13.784870">
        <ele>1777.3083876672</ele>
        <time>2016-05-29T11:15:21Z</time>
      </trkpt>
      <trkpt lat="46.316223" lon="13.784801">
        <ele>1777.9883793984</ele>
        <time>2016-05-29T11:15:29Z</time>
      </trkpt>
      <trkpt lat="46.316270" lon="13.784748">
        <ele>1778.6183717376</ele>
        <time>2016-05-29T11:15:40Z</time>
      </trkpt>
      <trkpt lat="46.316298" lon="13.784699">
        <ele>1778.9083682112</ele>
        <time>2016-05-29T11:15:47Z</time>
      </trkpt>
      <trkpt lat="46.316307" lon="13.784675">
        <ele>1779.5483604288</ele>
        <time>2016-05-29T11:15:55Z</time>
      </trkpt>
      <trkpt lat="46.316347" lon="13.784655">
        <ele>1780.1383532544</ele>
        <time>2016-05-29T11:16:03Z</time>
      </trkpt>
      <trkpt lat="46.316340" lon="13.784633">
        <ele>1780.2183522816</ele>
        <time>2016-05-29T11:16:19Z</time>
      </trkpt>
      <trkpt lat="46.316331" lon="13.784627">
        <ele>1780.1583530112</ele>
        <time>2016-05-29T11:16:29Z</time>
      </trkpt>
      <trkpt lat="46.316322" lon="13.784633">
        <ele>1780.1683528896</ele>
        <time>2016-05-29T11:16:44Z</time>
      </trkpt>
      <trkpt lat="46.316316" lon="13.784632">
        <ele>1780.22835216</ele>
        <time>2016-05-29T11:17:00Z</time>
      </trkpt>
      <trkpt lat="46.316314" lon="13.784636">
        <ele>1780.328350944</ele>
        <time>2016-05-29T11:17:20Z</time>
      </trkpt>
      <trkpt lat="46.316315" lon="13.784638">
        <ele>1780.5383483904</ele>
        <time>2016-05-29T11:17:35Z</time>
      </trkpt>
      <trkpt lat="46.316324" lon="13.784641">
        <ele>1780.828344864</ele>
        <time>2016-05-29T11:17:48Z</time>
      </trkpt>
      <trkpt lat="46.316329" lon="13.784641">
        <ele>1780.628347296</ele>
        <time>2016-05-29T11:18:27Z</time>
      </trkpt>
      <trkpt lat="46.316334" lon="13.784636">
        <ele>1781.0983415808</ele>
        <time>2016-05-29T11:18:49Z</time>
      </trkpt>
      <trkpt lat="46.316333" lon="13.784651">
        <ele>1781.8683322176</ele>
        <time>2016-05-29T11:19:04Z</time>
      </trkpt>
      <trkpt lat="46.316342" lon="13.784669">
        <ele>1781.1083414592</ele>
        <time>2016-05-29T11:19:23Z</time>
      </trkpt>
      <trkpt lat="46.316403" lon="13.784677">
        <ele>1781.1583408512</ele>
        <time>2016-05-29T11:19:35Z</time>
      </trkpt>
      <trkpt lat="46.316444" lon="13.784621">
        <ele>1782.4183255296</ele>
        <time>2016-05-29T11:19:47Z</time>
      </trkpt>
      <trkpt lat="46.316500" lon="13.784557">
        <ele>1784.3983014528</ele>
        <time>2016-05-29T11:20:02Z</time>
      </trkpt>
      <trkpt lat="46.316538" lon="13.784528">
        <ele>1785.878283456</ele>
        <time>2016-05-29T11:20:13Z</time>
      </trkpt>
      <trkpt lat="46.316579" lon="13.784540">
        <ele>1787.5882626624</ele>
        <time>2016-05-29T11:20:22Z</time>
      </trkpt>
      <trkpt lat="46.316614" lon="13.784512">
        <ele>1788.928246368</ele>
        <time>2016-05-29T11:20:33Z</time>
      </trkpt>
      <trkpt lat="46.316635" lon="13.784494">
        <ele>1790.3082295872</ele>
        <time>2016-05-29T11:20:44Z</time>
      </trkpt>
      <trkpt lat="46.316692" lon="13.784471">
        <ele>1792.1682069696</ele>
        <time>2016-05-29T11:20:56Z</time>
      </trkpt>
      <trkpt lat="46.316740" lon="13.784468">
        <ele>1793.9981847168</ele>
        <time>2016-05-29T11:21:07Z</time>
      </trkpt>
      <trkpt lat="46.316784" lon="13.784467">
        <ele>1795.428167328</ele>
        <time>2016-05-29T11:21:19Z</time>
      </trkpt>
      <trkpt lat="46.316799" lon="13.784478">
        <ele>1796.9481488448</ele>
        <time>2016-05-29T11:21:30Z</time>
      </trkpt>
      <trkpt lat="46.316799" lon="13.784465">
        <ele>1796.97814848</ele>
        <time>2016-05-29T11:21:46Z</time>
      </trkpt>
      <trkpt lat="46.316803" lon="13.784476">
        <ele>1796.9081493312</ele>
        <time>2016-05-29T11:22:01Z</time>
      </trkpt>
      <trkpt lat="46.316799" lon="13.784481">
        <ele>1797.2181455616</ele>
        <time>2016-05-29T11:22:25Z</time>
      </trkpt>
      <trkpt lat="46.316801" lon="13.784465">
        <ele>1797.1681461696</ele>
        <time>2016-05-29T11:22:39Z</time>
      </trkpt>
      <trkpt lat="46.316803" lon="13.784466">
        <ele>1797.2381453184</ele>
        <time>2016-05-29T11:22:52Z</time>
      </trkpt>
      <trkpt lat="46.316804" lon="13.784467">
        <ele>1797.378143616</ele>
        <time>2016-05-29T11:23:08Z</time>
      </trkpt>
      <trkpt lat="46.316807" lon="13.784484">
        <ele>1797.4981421568</ele>
        <time>2016-05-29T11:23:23Z</time>
      </trkpt>
      <trkpt lat="46.316846" lon="13.784490">
        <ele>1797.8881374144</ele>
        <time>2016-05-29T11:23:34Z</time>
      </trkpt>
      <trkpt lat="46.316897" lon="13.784530">
        <ele>1799.828113824</ele>
        <time>2016-05-29T11:23:46Z</time>
      </trkpt>
      <trkpt lat="46.316957" lon="13.784534">
        <ele>1801.9580879232</ele>
        <time>2016-05-29T11:23:58Z</time>
      </trkpt>
      <trkpt lat="46.316986" lon="13.784522">
        <ele>1803.4080702912</ele>
        <time>2016-05-29T11:24:09Z</time>
      </trkpt>
      <trkpt lat="46.316973" lon="13.784529">
        <ele>1804.1980606848</ele>
        <time>2016-05-29T11:24:28Z</time>
      </trkpt>
      <trkpt lat="46.317001" lon="13.784536">
        <ele>1804.1880608064</ele>
        <time>2016-05-29T11:24:41Z</time>
      </trkpt>
      <trkpt lat="46.317022" lon="13.784505">
        <ele>1805.4480454848</ele>
        <time>2016-05-29T11:24:52Z</time>
      </trkpt>
      <trkpt lat="46.317012" lon="13.784517">
        <ele>1806.0080386752</ele>
        <time>2016-05-29T11:25:07Z</time>
      </trkpt>
      <trkpt lat="46.317007" lon="13.784512">
        <ele>1805.9980387968</ele>
        <time>2016-05-29T11:25:17Z</time>
      </trkpt>
      <trkpt lat="46.317012" lon="13.784516">
        <ele>1806.0080386752</ele>
        <time>2016-05-29T11:25:27Z</time>
      </trkpt>
      <trkpt lat="46.317047" lon="13.784531">
        <ele>1806.7680294336</ele>
        <time>2016-05-29T11:25:41Z</time>
      </trkpt>
      <trkpt lat="46.317087" lon="13.784555">
        <ele>1808.378009856</ele>
        <time>2016-05-29T11:25:53Z</time>
      </trkpt>
      <trkpt lat="46.317107" lon="13.784581">
        <ele>1809.627994656</ele>
        <time>2016-05-29T11:26:04Z</time>
      </trkpt>
      <trkpt lat="46.317116" lon="13.784574">
        <ele>1810.3979852928</ele>
        <time>2016-05-29T11:26:12Z</time>
      </trkpt>
      <trkpt lat="46.317136" lon="13.784591">
        <ele>1811.3679734976</ele>
        <time>2016-05-29T11:26:21Z</time>
      </trkpt>
      <trkpt lat="46.317149" lon="13.784622">
        <ele>1812.427960608</ele>
        <time>2016-05-29T11:26:32Z</time>
      </trkpt>
      <trkpt lat="46.317163" lon="13.784627">
        <ele>1813.2979500288</ele>
        <time>2016-05-29T11:26:40Z</time>
      </trkpt>
      <trkpt lat="46.317180" lon="13.784649">
        <ele>1814.4979354368</ele>
        <time>2016-05-29T11:26:51Z</time>
      </trkpt>
      <trkpt lat="46.317190" lon="13.784694">
        <ele>1815.8979184128</ele>
        <time>2016-05-29T11:26:59Z</time>
      </trkpt>
      <trkpt lat="46.317189" lon="13.784697">
        <ele>1817.2379021184</ele>
        <time>2016-05-29T11:27:13Z</time>
      </trkpt>
      <trkpt lat="46.317196" lon="13.784690">
        <ele>1817.4178999296</ele>
        <time>2016-05-29T11:27:34Z</time>
      </trkpt>
      <trkpt lat="46.317197" lon="13.784691">
        <ele>1817.7578957952</ele>
        <time>2016-05-29T11:27:45Z</time>
      </trkpt>
      <trkpt lat="46.317200" lon="13.784689">
        <ele>1818.0378923904</ele>
        <time>2016-05-29T11:28:01Z</time>
      </trkpt>
      <trkpt lat="46.317207" lon="13.784691">
        <ele>1818.0578921472</ele>
        <time>2016-05-29T11:28:20Z</time>
      </trkpt>
      <trkpt lat="46.317210" lon="13.784698">
        <ele>1817.6478971328</ele>
        <time>2016-05-29T11:28:40Z</time>
      </trkpt>
      <trkpt lat="46.317233" lon="13.784714">
        <ele>1818.0978916608</ele>
        <time>2016-05-29T11:28:51Z</time>
      </trkpt>
      <trkpt lat="46.317243" lon="13.784764">
        <ele>1820.2078660032</ele>
        <time>2016-05-29T11:28:59Z</time>
      </trkpt>
      <trkpt lat="46.317257" lon="13.784819">
        <ele>1821.8378461824</ele>
        <time>2016-05-29T11:29:09Z</time>
      </trkpt>
      <trkpt lat="46.317278" lon="13.784837">
        <ele>1822.5878370624</ele>
        <time>2016-05-29T11:29:15Z</time>
      </trkpt>
      <trkpt lat="46.317294" lon="13.784765">
        <ele>1824.9378084864</ele>
        <time>2016-05-29T11:29:26Z</time>
      </trkpt>
      <trkpt lat="46.317305" lon="13.784777">
        <ele>1826.3577912192</ele>
        <time>2016-05-29T11:29:36Z</time>
      </trkpt>
      <trkpt lat="46.317318" lon="13.784803">
        <ele>1827.8677728576</ele>
        <time>2016-05-29T11:29:48Z</time>
      </trkpt>
      <trkpt lat="46.317322" lon="13.784819">
        <ele>1829.3377549824</ele>
        <time>2016-05-29T11:29:56Z</time>
      </trkpt>
      <trkpt lat="46.317340" lon="13.784814">
        <ele>1830.4877409984</ele>
        <time>2016-05-29T11:30:04Z</time>
      </trkpt>
      <trkpt lat="46.317347" lon="13.784803">
        <ele>1831.6877264064</ele>
        <time>2016-05-29T11:30:15Z</time>
      </trkpt>
      <trkpt lat="46.317339" lon="13.784796">
        <ele>1831.9677230016</ele>
        <time>2016-05-29T11:30:31Z</time>
      </trkpt>
      <trkpt lat="46.317338" lon="13.784794">
        <ele>1831.8677242176</ele>
        <time>2016-05-29T11:30:50Z</time>
      </trkpt>
      <trkpt lat="46.317335" lon="13.784793">
        <ele>1831.5677278656</ele>
        <time>2016-05-29T11:31:06Z</time>
      </trkpt>
      <trkpt lat="46.317334" lon="13.784785">
        <ele>1831.72772592</ele>
        <time>2016-05-29T11:31:25Z</time>
      </trkpt>
      <trkpt lat="46.317327" lon="13.784782">
        <ele>1831.7977250688</ele>
        <time>2016-05-29T11:31:41Z</time>
      </trkpt>
      <trkpt lat="46.317329" lon="13.784818">
        <ele>1832.4877166784</ele>
        <time>2016-05-29T11:31:53Z</time>
      </trkpt>
      <trkpt lat="46.317346" lon="13.784863">
        <ele>1833.4677047616</ele>
        <time>2016-05-29T11:32:04Z</time>
      </trkpt>
      <trkpt lat="46.317364" lon="13.784912">
        <ele>1834.3676938176</ele>
        <time>2016-05-29T11:32:14Z</time>
      </trkpt>
      <trkpt lat="46.317373" lon="13.784940">
        <ele>1835.4876801984</ele>
        <time>2016-05-29T11:32:20Z</time>
      </trkpt>
      <trkpt lat="46.317391" lon="13.784946">
        <ele>1837.377657216</ele>
        <time>2016-05-29T11:32:31Z</time>
      </trkpt>
      <trkpt lat="46.317412" lon="13.784896">
        <ele>1839.677629248</ele>
        <time>2016-05-29T11:32:42Z</time>
      </trkpt>
      <trkpt lat="46.317432" lon="13.784859">
        <ele>1841.4576076032</ele>
        <time>2016-05-29T11:32:51Z</time>
      </trkpt>
      <trkpt lat="46.317452" lon="13.784804">
        <ele>1842.8075911872</ele>
        <time>2016-05-29T11:33:01Z</time>
      </trkpt>
      <trkpt lat="46.317468" lon="13.784781">
        <ele>1843.7075802432</ele>
        <time>2016-05-29T11:33:09Z</time>
      </trkpt>
      <trkpt lat="46.317473" lon="13.784741">
        <ele>1845.177562368</ele>
        <time>2016-05-29T11:33:20Z</time>
      </trkpt>
      <trkpt lat="46.317483" lon="13.784747">
        <ele>1845.6875561664</ele>
        <time>2016-05-29T11:33:32Z</time>
      </trkpt>
      <trkpt lat="46.317477" lon="13.784765">
        <ele>1845.7375555584</ele>
        <time>2016-05-29T11:33:50Z</time>
      </trkpt>
      <trkpt lat="46.317529" lon="13.784770">
        <ele>1845.7875549504</ele>
        <time>2016-05-29T11:34:08Z</time>
      </trkpt>
      <trkpt lat="46.317541" lon="13.784735">
        <ele>1846.5075461952</ele>
        <time>2016-05-29T11:34:17Z</time>
      </trkpt>
      <trkpt lat="46.317537" lon="13.784747">
        <ele>1847.077539264</ele>
        <time>2016-05-29T11:34:33Z</time>
      </trkpt>
      <trkpt lat="46.317534" lon="13.784734">
        <ele>1847.127538656</ele>
        <time>2016-05-29T11:34:46Z</time>
      </trkpt>
      <trkpt lat="46.317545" lon="13.784705">
        <ele>1847.3575358592</ele>
        <time>2016-05-29T11:34:53Z</time>
      </trkpt>
      <trkpt lat="46.317574" lon="13.784688">
        <ele>1849.2175132416</ele>
        <time>2016-05-29T11:35:04Z</time>
      </trkpt>
      <trkpt lat="46.317616" lon="13.784691">
        <ele>1852.3974745728</ele>
        <time>2016-05-29T11:35:15Z</time>
      </trkpt>
      <trkpt lat="46.317645" lon="13.784675">
        <ele>1854.5174487936</ele>
        <time>2016-05-29T11:35:24Z</time>
      </trkpt>
      <trkpt lat="46.317657" lon="13.784681">
        <ele>1856.2474277568</ele>
        <time>2016-05-29T11:35:35Z</time>
      </trkpt>
      <trkpt lat="46.317660" lon="13.784694">
        <ele>1856.8374205824</ele>
        <time>2016-05-29T11:35:43Z</time>
      </trkpt>
      <trkpt lat="46.317674" lon="13.784739">
        <ele>1857.2174159616</ele>
        <time>2016-05-29T11:35:54Z</time>
      </trkpt>
      <trkpt lat="46.317693" lon="13.784787">
        <ele>1858.7873968704</ele>
        <time>2016-05-29T11:36:02Z</time>
      </trkpt>
      <trkpt lat="46.317733" lon="13.784807">
        <ele>1860.677373888</ele>
        <time>2016-05-29T11:36:11Z</time>
      </trkpt>
      <trkpt lat="46.317762" lon="13.784816">
        <ele>1861.5473633088</ele>
        <time>2016-05-29T11:36:18Z</time>
      </trkpt>
      <trkpt lat="46.317796" lon="13.784810">
        <ele>1862.5673509056</ele>
        <time>2016-05-29T11:36:27Z</time>
      </trkpt>
      <trkpt lat="46.317833" lon="13.784773">
        <ele>1863.7873360704</ele>
        <time>2016-05-29T11:36:38Z</time>
      </trkpt>
      <trkpt lat="46.317871" lon="13.784719">
        <ele>1865.1873190464</ele>
        <time>2016-05-29T11:36:49Z</time>
      </trkpt>
      <trkpt lat="46.317886" lon="13.784683">
        <ele>1867.22729424</ele>
        <time>2016-05-29T11:37:00Z</time>
      </trkpt>
      <trkpt lat="46.317890" lon="13.784691">
        <ele>1867.7972873088</ele>
        <time>2016-05-29T11:37:13Z</time>
      </trkpt>
      <trkpt lat="46.317892" lon="13.784659">
        <ele>1868.0472842688</ele>
        <time>2016-05-29T11:37:39Z</time>
      </trkpt>
      <trkpt lat="46.317905" lon="13.784548">
        <ele>1869.2672694336</ele>
        <time>2016-05-29T11:37:51Z</time>
      </trkpt>
      <trkpt lat="46.317945" lon="13.784546">
        <ele>1870.677252288</ele>
        <time>2016-05-29T11:38:01Z</time>
      </trkpt>
      <trkpt lat="46.317959" lon="13.784490">
        <ele>1872.9672244416</ele>
        <time>2016-05-29T11:38:07Z</time>
      </trkpt>
      <trkpt lat="46.317979" lon="13.784399">
        <ele>1875.7571905152</ele>
        <time>2016-05-29T11:38:22Z</time>
      </trkpt>
      <trkpt lat="46.318021" lon="13.784377">
        <ele>1877.2371725184</ele>
        <time>2016-05-29T11:38:30Z</time>
      </trkpt>
      <trkpt lat="46.318018" lon="13.784381">
        <ele>1878.5171569536</ele>
        <time>2016-05-29T11:38:44Z</time>
      </trkpt>
      <trkpt lat="46.318014" lon="13.784385">
        <ele>1878.6371554944</ele>
        <time>2016-05-29T11:38:59Z</time>
      </trkpt>
      <trkpt lat="46.318012" lon="13.784366">
        <ele>1879.1471492928</ele>
        <time>2016-05-29T11:39:12Z</time>
      </trkpt>
      <trkpt lat="46.318013" lon="13.784364">
        <ele>1879.2571479552</ele>
        <time>2016-05-29T11:39:27Z</time>
      </trkpt>
      <trkpt lat="46.318011" lon="13.784357">
        <ele>1879.027150752</ele>
        <time>2016-05-29T11:39:39Z</time>
      </trkpt>
      <trkpt lat="46.318010" lon="13.784387">
        <ele>1878.5671563456</ele>
        <time>2016-05-29T11:39:53Z</time>
      </trkpt>
      <trkpt lat="46.318013" lon="13.784381">
        <ele>1878.8471529408</ele>
        <time>2016-05-29T11:40:03Z</time>
      </trkpt>
      <trkpt lat="46.318043" lon="13.784420">
        <ele>1878.6571552512</ele>
        <time>2016-05-29T11:40:14Z</time>
      </trkpt>
      <trkpt lat="46.318082" lon="13.784434">
        <ele>1880.1371372544</ele>
        <time>2016-05-29T11:40:24Z</time>
      </trkpt>
      <trkpt lat="46.318132" lon="13.784456">
        <ele>1882.2371117184</ele>
        <time>2016-05-29T11:40:33Z</time>
      </trkpt>
      <trkpt lat="46.318161" lon="13.784509">
        <ele>1883.4670967616</ele>
        <time>2016-05-29T11:40:41Z</time>
      </trkpt>
      <trkpt lat="46.318195" lon="13.784571">
        <ele>1884.7370813184</ele>
        <time>2016-05-29T11:40:52Z</time>
      </trkpt>
      <trkpt lat="46.318221" lon="13.784629">
        <ele>1886.0470653888</ele>
        <time>2016-05-29T11:41:00Z</time>
      </trkpt>
      <trkpt lat="46.318246" lon="13.784700">
        <ele>1888.1470398528</ele>
        <time>2016-05-29T11:41:10Z</time>
      </trkpt>
      <trkpt lat="46.318291" lon="13.784740">
        <ele>1889.927018208</ele>
        <time>2016-05-29T11:41:19Z</time>
      </trkpt>
      <trkpt lat="46.318301" lon="13.784762">
        <ele>1891.2870016704</ele>
        <time>2016-05-29T11:41:29Z</time>
      </trkpt>
      <trkpt lat="46.318293" lon="13.784762">
        <ele>1891.926993888</ele>
        <time>2016-05-29T11:41:41Z</time>
      </trkpt>
      <trkpt lat="46.318305" lon="13.784794">
        <ele>1891.8669946176</ele>
        <time>2016-05-29T11:41:50Z</time>
      </trkpt>
      <trkpt lat="46.318314" lon="13.784873">
        <ele>1892.9969808768</ele>
        <time>2016-05-29T11:42:00Z</time>
      </trkpt>
      <trkpt lat="46.318323" lon="13.784937">
        <ele>1894.0969675008</ele>
        <time>2016-05-29T11:42:08Z</time>
      </trkpt>
      <trkpt lat="46.318330" lon="13.784980">
        <ele>1895.0969553408</ele>
        <time>2016-05-29T11:42:14Z</time>
      </trkpt>
      <trkpt lat="46.318351" lon="13.785046">
        <ele>1897.276928832</ele>
        <time>2016-05-29T11:42:24Z</time>
      </trkpt>
      <trkpt lat="46.318375" lon="13.785113">
        <ele>1898.5069138752</ele>
        <time>2016-05-29T11:42:32Z</time>
      </trkpt>
      <trkpt lat="46.318382" lon="13.785181">
        <ele>1899.7568986752</ele>
        <time>2016-05-29T11:42:40Z</time>
      </trkpt>
      <trkpt lat="46.318399" lon="13.785210">
        <ele>1901.2568804352</ele>
        <time>2016-05-29T11:42:48Z</time>
      </trkpt>
      <trkpt lat="46.318398" lon="13.785216">
        <ele>1902.1068700992</ele>
        <time>2016-05-29T11:43:03Z</time>
      </trkpt>
      <trkpt lat="46.318407" lon="13.785222">
        <ele>1902.3968665728</ele>
        <time>2016-05-29T11:43:15Z</time>
      </trkpt>
      <trkpt lat="46.318419" lon="13.785230">
        <ele>1902.776861952</ele>
        <time>2016-05-29T11:43:34Z</time>
      </trkpt>
      <trkpt lat="46.318442" lon="13.785219">
        <ele>1903.0368587904</ele>
        <time>2016-05-29T11:43:48Z</time>
      </trkpt>
      <trkpt lat="46.318457" lon="13.785249">
        <ele>1903.8168493056</ele>
        <time>2016-05-29T11:43:54Z</time>
      </trkpt>
      <trkpt lat="46.318486" lon="13.785224">
        <ele>1904.8468367808</ele>
        <time>2016-05-29T11:44:04Z</time>
      </trkpt>
      <trkpt lat="46.318526" lon="13.785197">
        <ele>1906.5168164736</ele>
        <time>2016-05-29T11:44:13Z</time>
      </trkpt>
      <trkpt lat="46.318533" lon="13.785189">
        <ele>1908.4467930048</ele>
        <time>2016-05-29T11:44:24Z</time>
      </trkpt>
      <trkpt lat="46.318568" lon="13.785201">
        <ele>1909.026785952</ele>
        <time>2016-05-29T11:44:32Z</time>
      </trkpt>
      <trkpt lat="46.318599" lon="13.785208">
        <ele>1910.8367639424</ele>
        <time>2016-05-29T11:44:43Z</time>
      </trkpt>
      <trkpt lat="46.318585" lon="13.785214">
        <ele>1912.1167483776</ele>
        <time>2016-05-29T11:44:55Z</time>
      </trkpt>
      <trkpt lat="46.318599" lon="13.785225">
        <ele>1911.3967571328</ele>
        <time>2016-05-29T11:45:11Z</time>
      </trkpt>
      <trkpt lat="46.318598" lon="13.785221">
        <ele>1911.4467565248</ele>
        <time>2016-05-29T11:45:32Z</time>
      </trkpt>
      <trkpt lat="46.318588" lon="13.785240">
        <ele>1911.576754944</ele>
        <time>2016-05-29T11:45:49Z</time>
      </trkpt>
      <trkpt lat="46.318614" lon="13.785290">
        <ele>1912.5667429056</ele>
        <time>2016-05-29T11:45:57Z</time>
      </trkpt>
      <trkpt lat="46.318651" lon="13.785342">
        <ele>1914.4867195584</ele>
        <time>2016-05-29T11:46:05Z</time>
      </trkpt>
      <trkpt lat="46.318697" lon="13.785368">
        <ele>1915.6967048448</ele>
        <time>2016-05-29T11:46:12Z</time>
      </trkpt>
      <trkpt lat="46.318743" lon="13.785389">
        <ele>1917.1666869696</ele>
        <time>2016-05-29T11:46:20Z</time>
      </trkpt>
      <trkpt lat="46.318796" lon="13.785422">
        <ele>1919.0966635008</ele>
        <time>2016-05-29T11:46:30Z</time>
      </trkpt>
      <trkpt lat="46.318822" lon="13.785431">
        <ele>1920.3466483008</ele>
        <time>2016-05-29T11:46:38Z</time>
      </trkpt>
      <trkpt lat="46.318826" lon="13.785441">
        <ele>1921.3166365056</ele>
        <time>2016-05-29T11:46:50Z</time>
      </trkpt>
      <trkpt lat="46.318826" lon="13.785459">
        <ele>1921.9166292096</ele>
        <time>2016-05-29T11:47:10Z</time>
      </trkpt>
      <trkpt lat="46.318880" lon="13.785454">
        <ele>1922.3666237376</ele>
        <time>2016-05-29T11:47:18Z</time>
      </trkpt>
      <trkpt lat="46.318932" lon="13.785416">
        <ele>1923.276612672</ele>
        <time>2016-05-29T11:47:25Z</time>
      </trkpt>
      <trkpt lat="46.318987" lon="13.785352">
        <ele>1925.3165878656</ele>
        <time>2016-05-29T11:47:36Z</time>
      </trkpt>
      <trkpt lat="46.319006" lon="13.785357">
        <ele>1926.4565740032</ele>
        <time>2016-05-29T11:47:48Z</time>
      </trkpt>
      <trkpt lat="46.319044" lon="13.785383">
        <ele>1927.3365633024</ele>
        <time>2016-05-29T11:47:56Z</time>
      </trkpt>
      <trkpt lat="46.319101" lon="13.785371">
        <ele>1929.7865335104</ele>
        <time>2016-05-29T11:48:04Z</time>
      </trkpt>
      <trkpt lat="46.319146" lon="13.785378">
        <ele>1931.7465096768</ele>
        <time>2016-05-29T11:48:14Z</time>
      </trkpt>
      <trkpt lat="46.319173" lon="13.785372">
        <ele>1932.8964956928</ele>
        <time>2016-05-29T11:48:22Z</time>
      </trkpt>
      <trkpt lat="46.319162" lon="13.785345">
        <ele>1934.8664717376</ele>
        <time>2016-05-29T11:48:28Z</time>
      </trkpt>
      <trkpt lat="46.319176" lon="13.785340">
        <ele>1935.3964652928</ele>
        <time>2016-05-29T11:48:39Z</time>
      </trkpt>
      <trkpt lat="46.319177" lon="13.785344">
        <ele>1934.9964701568</ele>
        <time>2016-05-29T11:48:53Z</time>
      </trkpt>
      <trkpt lat="46.319175" lon="13.785346">
        <ele>1935.7664607936</ele>
        <time>2016-05-29T11:49:08Z</time>
      </trkpt>
      <trkpt lat="46.319166" lon="13.785332">
        <ele>1936.276454592</ele>
        <time>2016-05-29T11:49:17Z</time>
      </trkpt>
      <trkpt lat="46.319189" lon="13.785301">
        <ele>1936.626450336</ele>
        <time>2016-05-29T11:49:26Z</time>
      </trkpt>
      <trkpt lat="46.319247" lon="13.785210">
        <ele>1938.3664291776</ele>
        <time>2016-05-29T11:49:37Z</time>
      </trkpt>
      <trkpt lat="46.319298" lon="13.785179">
        <ele>1940.4864033984</ele>
        <time>2016-05-29T11:49:47Z</time>
      </trkpt>
      <trkpt lat="46.319311" lon="13.785163">
        <ele>1941.3163933056</ele>
        <time>2016-05-29T11:49:57Z</time>
      </trkpt>
      <trkpt lat="46.319336" lon="13.785150">
        <ele>1942.0963838208</ele>
        <time>2016-05-29T11:50:07Z</time>
      </trkpt>
      <trkpt lat="46.319336" lon="13.785138">
        <ele>1943.4363675264</ele>
        <time>2016-05-29T11:50:22Z</time>
      </trkpt>
      <trkpt lat="46.319340" lon="13.785145">
        <ele>1943.5863657024</ele>
        <time>2016-05-29T11:50:38Z</time>
      </trkpt>
      <trkpt lat="46.319333" lon="13.785145">
        <ele>1942.97637312</ele>
        <time>2016-05-29T11:50:46Z</time>
      </trkpt>
      <trkpt lat="46.319325" lon="13.785147">
        <ele>1942.0063849152</ele>
        <time>2016-05-29T11:51:01Z</time>
      </trkpt>
      <trkpt lat="46.319320" lon="13.785154">
        <ele>1941.6063897792</ele>
        <time>2016-05-29T11:51:27Z</time>
      </trkpt>
      <trkpt lat="46.319311" lon="13.785149">
        <ele>1941.7363881984</ele>
        <time>2016-05-29T11:51:44Z</time>
      </trkpt>
      <trkpt lat="46.319308" lon="13.785142">
        <ele>1941.026396832</ele>
        <time>2016-05-29T11:51:59Z</time>
      </trkpt>
      <trkpt lat="46.319316" lon="13.785141">
        <ele>1941.1563952512</ele>
        <time>2016-05-29T11:52:17Z</time>
      </trkpt>
      <trkpt lat="46.319320" lon="13.785135">
        <ele>1941.2863936704</ele>
        <time>2016-05-29T11:52:29Z</time>
      </trkpt>
      <trkpt lat="46.319322" lon="13.785140">
        <ele>1941.7563879552</ele>
        <time>2016-05-29T11:52:38Z</time>
      </trkpt>
      <trkpt lat="46.319325" lon="13.785134">
        <ele>1941.6463892928</ele>
        <time>2016-05-29T11:52:48Z</time>
      </trkpt>
      <trkpt lat="46.319333" lon="13.785131">
        <ele>1941.9563855232</ele>
        <time>2016-05-29T11:53:00Z</time>
      </trkpt>
      <trkpt lat="46.319346" lon="13.785119">
        <ele>1941.5963899008</ele>
        <time>2016-05-29T11:53:13Z</time>
      </trkpt>
      <trkpt lat="46.319353" lon="13.785122">
        <ele>1941.4363918464</ele>
        <time>2016-05-29T11:53:25Z</time>
      </trkpt>
      <trkpt lat="46.319354" lon="13.785132">
        <ele>1941.3063934272</ele>
        <time>2016-05-29T11:53:40Z</time>
      </trkpt>
      <trkpt lat="46.319358" lon="13.785133">
        <ele>1941.3063934272</ele>
        <time>2016-05-29T11:53:55Z</time>
      </trkpt>
      <trkpt lat="46.319364" lon="13.785131">
        <ele>1941.47639136</ele>
        <time>2016-05-29T11:54:09Z</time>
      </trkpt>
      <trkpt lat="46.319364" lon="13.785134">
        <ele>1941.576390144</ele>
        <time>2016-05-29T11:54:19Z</time>
      </trkpt>
      <trkpt lat="46.319356" lon="13.785136">
        <ele>1941.6463892928</ele>
        <time>2016-05-29T11:54:37Z</time>
      </trkpt>
      <trkpt lat="46.319349" lon="13.785140">
        <ele>1941.376392576</ele>
        <time>2016-05-29T11:54:50Z</time>
      </trkpt>
      <trkpt lat="46.319355" lon="13.785138">
        <ele>1941.626389536</ele>
        <time>2016-05-29T11:55:07Z</time>
      </trkpt>
      <trkpt lat="46.319356" lon="13.785135">
        <ele>1941.5963899008</ele>
        <time>2016-05-29T11:55:20Z</time>
      </trkpt>
      <trkpt lat="46.319360" lon="13.785128">
        <ele>1941.926385888</ele>
        <time>2016-05-29T11:55:34Z</time>
      </trkpt>
      <trkpt lat="46.319400" lon="13.785136">
        <ele>1941.97638528</ele>
        <time>2016-05-29T11:55:43Z</time>
      </trkpt>
      <trkpt lat="46.319434" lon="13.785112">
        <ele>1943.0163726336</ele>
        <time>2016-05-29T11:55:53Z</time>
      </trkpt>
      <trkpt lat="46.319432" lon="13.785048">
        <ele>1945.0063484352</ele>
        <time>2016-05-29T11:56:02Z</time>
      </trkpt>
      <trkpt lat="46.319437" lon="13.784973">
        <ele>1947.2363213184</ele>
        <time>2016-05-29T11:56:11Z</time>
      </trkpt>
      <trkpt lat="46.319440" lon="13.784905">
        <ele>1948.9962999168</ele>
        <time>2016-05-29T11:56:21Z</time>
      </trkpt>
      <trkpt lat="46.319429" lon="13.784833">
        <ele>1951.3562712192</ele>
        <time>2016-05-29T11:56:30Z</time>
      </trkpt>
      <trkpt lat="46.319450" lon="13.784793">
        <ele>1952.3862586944</ele>
        <time>2016-05-29T11:56:37Z</time>
      </trkpt>
      <trkpt lat="46.319457" lon="13.784772">
        <ele>1953.9062402112</ele>
        <time>2016-05-29T11:56:48Z</time>
      </trkpt>
      <trkpt lat="46.319458" lon="13.784768">
        <ele>1954.126237536</ele>
        <time>2016-05-29T11:56:57Z</time>
      </trkpt>
      <trkpt lat="46.319499" lon="13.784758">
        <ele>1954.6062316992</ele>
        <time>2016-05-29T11:57:07Z</time>
      </trkpt>
      <trkpt lat="46.319549" lon="13.784785">
        <ele>1956.5462081088</ele>
        <time>2016-05-29T11:57:16Z</time>
      </trkpt>
      <trkpt lat="46.319598" lon="13.784777">
        <ele>1958.7961807488</ele>
        <time>2016-05-29T11:57:26Z</time>
      </trkpt>
      <trkpt lat="46.319621" lon="13.784766">
        <ele>1961.1461521728</ele>
        <time>2016-05-29T11:57:35Z</time>
      </trkpt>
      <trkpt lat="46.319617" lon="13.784766">
        <ele>1961.72614512</ele>
        <time>2016-05-29T11:57:47Z</time>
      </trkpt>
      <trkpt lat="46.319621" lon="13.784765">
        <ele>1961.5361474304</ele>
        <time>2016-05-29T11:58:02Z</time>
      </trkpt>
      <trkpt lat="46.319684" lon="13.784778">
        <ele>1962.3961369728</ele>
        <time>2016-05-29T11:58:10Z</time>
      </trkpt>
      <trkpt lat="46.319749" lon="13.784812">
        <ele>1964.1361158144</ele>
        <time>2016-05-29T11:58:20Z</time>
      </trkpt>
      <trkpt lat="46.319796" lon="13.784838">
        <ele>1965.626097696</ele>
        <time>2016-05-29T11:58:28Z</time>
      </trkpt>
      <trkpt lat="46.319858" lon="13.784876">
        <ele>1967.1660789696</ele>
        <time>2016-05-29T11:58:37Z</time>
      </trkpt>
      <trkpt lat="46.319919" lon="13.784899">
        <ele>1968.7060602432</ele>
        <time>2016-05-29T11:58:47Z</time>
      </trkpt>
      <trkpt lat="46.319964" lon="13.784872">
        <ele>1970.9960323968</ele>
        <time>2016-05-29T11:58:57Z</time>
      </trkpt>
      <trkpt lat="46.319968" lon="13.784835">
        <ele>1972.876009536</ele>
        <time>2016-05-29T11:59:07Z</time>
      </trkpt>
      <trkpt lat="46.319966" lon="13.784811">
        <ele>1974.1959934848</ele>
        <time>2016-05-29T11:59:19Z</time>
      </trkpt>
      <trkpt lat="46.319979" lon="13.784790">
        <ele>1974.5659889856</ele>
        <time>2016-05-29T11:59:33Z</time>
      </trkpt>
      <trkpt lat="46.320002" lon="13.784784">
        <ele>1976.3059678272</ele>
        <time>2016-05-29T11:59:43Z</time>
      </trkpt>
      <trkpt lat="46.320019" lon="13.784801">
        <ele>1977.3659549376</ele>
        <time>2016-05-29T11:59:53Z</time>
      </trkpt>
      <trkpt lat="46.320050" lon="13.784818">
        <ele>1977.7359504384</ele>
        <time>2016-05-29T12:00:05Z</time>
      </trkpt>
      <trkpt lat="46.320062" lon="13.784830">
        <ele>1977.8959484928</ele>
        <time>2016-05-29T12:00:24Z</time>
      </trkpt>
      <trkpt lat="46.320060" lon="13.784831">
        <ele>1977.7659500736</ele>
        <time>2016-05-29T12:00:43Z</time>
      </trkpt>
      <trkpt lat="46.320063" lon="13.784814">
        <ele>1977.9059483712</ele>
        <time>2016-05-29T12:00:55Z</time>
      </trkpt>
      <trkpt lat="46.320075" lon="13.784834">
        <ele>1978.3359431424</ele>
        <time>2016-05-29T12:01:04Z</time>
      </trkpt>
      <trkpt lat="46.320077" lon="13.784815">
        <ele>1978.7959375488</ele>
        <time>2016-05-29T12:01:07Z</time>
      </trkpt>
      <trkpt lat="46.320084" lon="13.784779">
        <ele>1980.325918944</ele>
        <time>2016-05-29T12:01:19Z</time>
      </trkpt>
      <trkpt lat="46.320069" lon="13.784768">
        <ele>1979.3059313472</ele>
        <time>2016-05-29T12:01:29Z</time>
      </trkpt>
      <trkpt lat="46.320041" lon="13.784764">
        <ele>1977.825949344</ele>
        <time>2016-05-29T12:01:38Z</time>
      </trkpt>
      <trkpt lat="46.320006" lon="13.784754">
        <ele>1976.4959655168</ele>
        <time>2016-05-29T12:01:48Z</time>
      </trkpt>
      <trkpt lat="46.320033" lon="13.784787">
        <ele>1975.5459770688</ele>
        <time>2016-05-29T12:01:57Z</time>
      </trkpt>
      <trkpt lat="46.320085" lon="13.784834">
        <ele>1976.4859656384</ele>
        <time>2016-05-29T12:02:08Z</time>
      </trkpt>
      <trkpt lat="46.320139" lon="13.784873">
        <ele>1978.2359443584</ele>
        <time>2016-05-29T12:02:19Z</time>
      </trkpt>
      <trkpt lat="46.320185" lon="13.784875">
        <ele>1980.9559112832</ele>
        <time>2016-05-29T12:02:31Z</time>
      </trkpt>
      <trkpt lat="46.320226" lon="13.784889">
        <ele>1983.8658758976</ele>
        <time>2016-05-29T12:02:43Z</time>
      </trkpt>
      <trkpt lat="46.320247" lon="13.784906">
        <ele>1985.0458615488</ele>
        <time>2016-05-29T12:02:52Z</time>
      </trkpt>
      <trkpt lat="46.320281" lon="13.784910">
        <ele>1984.9458627648</ele>
        <time>2016-05-29T12:03:09Z</time>
      </trkpt>
      <trkpt lat="46.320322" lon="13.784948">
        <ele>1985.6858537664</ele>
        <time>2016-05-29T12:03:19Z</time>
      </trkpt>
      <trkpt lat="46.320342" lon="13.784958">
        <ele>1985.97585024</ele>
        <time>2016-05-29T12:03:37Z</time>
      </trkpt>
      <trkpt lat="46.320375" lon="13.784989">
        <ele>1988.0658248256</ele>
        <time>2016-05-29T12:03:45Z</time>
      </trkpt>
      <trkpt lat="46.320393" lon="13.785029">
        <ele>1988.6158181376</ele>
        <time>2016-05-29T12:03:53Z</time>
      </trkpt>
      <trkpt lat="46.320426" lon="13.785076">
        <ele>1989.7058048832</ele>
        <time>2016-05-29T12:04:01Z</time>
      </trkpt>
      <trkpt lat="46.320473" lon="13.785072">
        <ele>1991.0857881024</ele>
        <time>2016-05-29T12:04:09Z</time>
      </trkpt>
      <trkpt lat="46.320522" lon="13.785065">
        <ele>1993.075763904</ele>
        <time>2016-05-29T12:04:19Z</time>
      </trkpt>
      <trkpt lat="46.320542" lon="13.785067">
        <ele>1994.1657506496</ele>
        <time>2016-05-29T12:04:30Z</time>
      </trkpt>
      <trkpt lat="46.320529" lon="13.785040">
        <ele>1994.6157451776</ele>
        <time>2016-05-29T12:04:38Z</time>
      </trkpt>
      <trkpt lat="46.320521" lon="13.785028">
        <ele>1994.7057440832</ele>
        <time>2016-05-29T12:04:46Z</time>
      </trkpt>
      <trkpt lat="46.320524" lon="13.785036">
        <ele>1995.425735328</ele>
        <time>2016-05-29T12:04:58Z</time>
      </trkpt>
      <trkpt lat="46.320486" lon="13.785008">
        <ele>1995.97572864</ele>
        <time>2016-05-29T12:08:00Z</time>
      </trkpt>
      <trkpt lat="46.320471" lon="13.785004">
        <ele>1996.1557264512</ele>
        <time>2016-05-29T12:08:11Z</time>
      </trkpt>
      <trkpt lat="46.320496" lon="13.785016">
        <ele>1996.1657263296</ele>
        <time>2016-05-29T12:08:27Z</time>
      </trkpt>
      <trkpt lat="46.320513" lon="13.785066">
        <ele>1995.5057343552</ele>
        <time>2016-05-29T12:10:56Z</time>
      </trkpt>
      <trkpt lat="46.320489" lon="13.785088">
        <ele>1994.1557507712</ele>
        <time>2016-05-29T12:11:04Z</time>
      </trkpt>
      <trkpt lat="46.320439" lon="13.785105">
        <ele>1992.0657761856</ele>
        <time>2016-05-29T12:11:13Z</time>
      </trkpt>
      <trkpt lat="46.320394" lon="13.785085">
        <ele>1990.0358008704</ele>
        <time>2016-05-29T12:11:23Z</time>
      </trkpt>
      <trkpt lat="46.320363" lon="13.785028">
        <ele>1988.425820448</ele>
        <time>2016-05-29T12:11:31Z</time>
      </trkpt>
      <trkpt lat="46.320340" lon="13.785000">
        <ele>1987.3558334592</ele>
        <time>2016-05-29T12:11:40Z</time>
      </trkpt>
      <trkpt lat="46.320318" lon="13.784981">
        <ele>1986.3558456192</ele>
        <time>2016-05-29T12:11:51Z</time>
      </trkpt>
      <trkpt lat="46.320277" lon="13.784944">
        <ele>1985.1458603328</ele>
        <time>2016-05-29T12:11:59Z</time>
      </trkpt>
      <trkpt lat="46.320245" lon="13.784928">
        <ele>1983.6058790592</ele>
        <time>2016-05-29T12:12:09Z</time>
      </trkpt>
      <trkpt lat="46.320199" lon="13.784928">
        <ele>1980.5459162688</ele>
        <time>2016-05-29T12:12:19Z</time>
      </trkpt>
      <trkpt lat="46.320166" lon="13.784935">
        <ele>1979.1059337792</ele>
        <time>2016-05-29T12:12:27Z</time>
      </trkpt>
      <trkpt lat="46.320098" lon="13.784923">
        <ele>1977.4359540864</ele>
        <time>2016-05-29T12:12:38Z</time>
      </trkpt>
      <trkpt lat="46.320063" lon="13.784876">
        <ele>1976.6659634496</ele>
        <time>2016-05-29T12:12:48Z</time>
      </trkpt>
      <trkpt lat="46.320029" lon="13.784860">
        <ele>1975.5459770688</ele>
        <time>2016-05-29T12:12:59Z</time>
      </trkpt>
      <trkpt lat="46.319997" lon="13.784839">
        <ele>1974.4059909312</ele>
        <time>2016-05-29T12:13:07Z</time>
      </trkpt>
      <trkpt lat="46.319986" lon="13.784863">
        <ele>1972.876009536</ele>
        <time>2016-05-29T12:13:16Z</time>
      </trkpt>
      <trkpt lat="46.319980" lon="13.784896">
        <ele>1971.1360306944</ele>
        <time>2016-05-29T12:13:26Z</time>
      </trkpt>
      <trkpt lat="46.319963" lon="13.784899">
        <ele>1969.6860483264</ele>
        <time>2016-05-29T12:13:35Z</time>
      </trkpt>
      <trkpt lat="46.319932" lon="13.784906">
        <ele>1969.2460536768</ele>
        <time>2016-05-29T12:13:39Z</time>
      </trkpt>
      <trkpt lat="46.319886" lon="13.784877">
        <ele>1968.1160674176</ele>
        <time>2016-05-29T12:13:47Z</time>
      </trkpt>
      <trkpt lat="46.319855" lon="13.784851">
        <ele>1967.6160734976</ele>
        <time>2016-05-29T12:13:58Z</time>
      </trkpt>
      <trkpt lat="46.319829" lon="13.784848">
        <ele>1966.4060882112</ele>
        <time>2016-05-29T12:14:06Z</time>
      </trkpt>
      <trkpt lat="46.319768" lon="13.784825">
        <ele>1965.5360987904</ele>
        <time>2016-05-29T12:14:14Z</time>
      </trkpt>
      <trkpt lat="46.319670" lon="13.784783">
        <ele>1964.5061113152</ele>
        <time>2016-05-29T12:14:24Z</time>
      </trkpt>
      <trkpt lat="46.319619" lon="13.784768">
        <ele>1962.97612992</ele>
        <time>2016-05-29T12:14:30Z</time>
      </trkpt>
      <trkpt lat="46.319575" lon="13.784791">
        <ele>1960.4461606848</ele>
        <time>2016-05-29T12:14:40Z</time>
      </trkpt>
      <trkpt lat="46.319491" lon="13.784766">
        <ele>1957.1862003264</ele>
        <time>2016-05-29T12:14:52Z</time>
      </trkpt>
      <trkpt lat="46.319445" lon="13.784771">
        <ele>1954.1462372928</ele>
        <time>2016-05-29T12:15:01Z</time>
      </trkpt>
      <trkpt lat="46.319438" lon="13.784818">
        <ele>1952.72625456</ele>
        <time>2016-05-29T12:15:09Z</time>
      </trkpt>
      <trkpt lat="46.319423" lon="13.784887">
        <ele>1950.9862757184</ele>
        <time>2016-05-29T12:15:19Z</time>
      </trkpt>
      <trkpt lat="46.319415" lon="13.784974">
        <ele>1948.7363030784</ele>
        <time>2016-05-29T12:15:28Z</time>
      </trkpt>
      <trkpt lat="46.319408" lon="13.785042">
        <ele>1946.72632752</ele>
        <time>2016-05-29T12:15:38Z</time>
      </trkpt>
      <trkpt lat="46.319412" lon="13.785110">
        <ele>1945.6463406528</ele>
        <time>2016-05-29T12:15:47Z</time>
      </trkpt>
      <trkpt lat="46.319357" lon="13.785133">
        <ele>1943.5563660672</ele>
        <time>2016-05-29T12:15:54Z</time>
      </trkpt>
      <trkpt lat="46.319327" lon="13.785146">
        <ele>1942.4363796864</ele>
        <time>2016-05-29T12:16:01Z</time>
      </trkpt>
      <trkpt lat="46.319325" lon="13.785148">
        <ele>1941.376392576</ele>
        <time>2016-05-29T12:16:17Z</time>
      </trkpt>
      <trkpt lat="46.319325" lon="13.785150">
        <ele>1941.776387712</ele>
        <time>2016-05-29T12:16:32Z</time>
      </trkpt>
      <trkpt lat="46.319320" lon="13.785140">
        <ele>1941.7863875904</ele>
        <time>2016-05-29T12:16:52Z</time>
      </trkpt>
      <trkpt lat="46.319324" lon="13.785137">
        <ele>1941.776387712</ele>
        <time>2016-05-29T12:17:04Z</time>
      </trkpt>
      <trkpt lat="46.319327" lon="13.785138">
        <ele>1941.97638528</ele>
        <time>2016-05-29T12:17:16Z</time>
      </trkpt>
      <trkpt lat="46.319327" lon="13.785144">
        <ele>1942.6563770112</ele>
        <time>2016-05-29T12:17:27Z</time>
      </trkpt>
      <trkpt lat="46.319335" lon="13.785156">
        <ele>1942.626377376</ele>
        <time>2016-05-29T12:17:39Z</time>
      </trkpt>
      <trkpt lat="46.319369" lon="13.785202">
        <ele>1942.3463807808</ele>
        <time>2016-05-29T12:17:45Z</time>
      </trkpt>
      <trkpt lat="46.319379" lon="13.785226">
        <ele>1942.1963826048</ele>
        <time>2016-05-29T12:17:46Z</time>
      </trkpt>
      <trkpt lat="46.319390" lon="13.785282">
        <ele>1941.7663878336</ele>
        <time>2016-05-29T12:17:50Z</time>
      </trkpt>
      <trkpt lat="46.319393" lon="13.785341">
        <ele>1941.1063958592</ele>
        <time>2016-05-29T12:17:54Z</time>
      </trkpt>
      <trkpt lat="46.319423" lon="13.785447">
        <ele>1939.8164115456</ele>
        <time>2016-05-29T12:18:04Z</time>
      </trkpt>
      <trkpt lat="46.319472" lon="13.785473">
        <ele>1938.4864277184</ele>
        <time>2016-05-29T12:18:12Z</time>
      </trkpt>
      <trkpt lat="46.319547" lon="13.785486">
        <ele>1937.0464452288</ele>
        <time>2016-05-29T12:18:23Z</time>
      </trkpt>
      <trkpt lat="46.319603" lon="13.785497">
        <ele>1936.0564572672</ele>
        <time>2016-05-29T12:18:32Z</time>
      </trkpt>
      <trkpt lat="46.319612" lon="13.785499">
        <ele>1935.8064603072</ele>
        <time>2016-05-29T12:18:39Z</time>
      </trkpt>
      <trkpt lat="46.319662" lon="13.785526">
        <ele>1935.4864641984</ele>
        <time>2016-05-29T12:18:47Z</time>
      </trkpt>
      <trkpt lat="46.319706" lon="13.785550">
        <ele>1935.3064663872</ele>
        <time>2016-05-29T12:18:52Z</time>
      </trkpt>
      <trkpt lat="46.319795" lon="13.785627">
        <ele>1934.6664741696</ele>
        <time>2016-05-29T12:19:02Z</time>
      </trkpt>
      <trkpt lat="46.319859" lon="13.785671">
        <ele>1934.076481344</ele>
        <time>2016-05-29T12:19:11Z</time>
      </trkpt>
      <trkpt lat="46.319903" lon="13.785699">
        <ele>1932.9364952064</ele>
        <time>2016-05-29T12:19:19Z</time>
      </trkpt>
      <trkpt lat="46.319931" lon="13.785740">
        <ele>1932.3665021376</ele>
        <time>2016-05-29T12:19:27Z</time>
      </trkpt>
      <trkpt lat="46.319946" lon="13.785776">
        <ele>1931.6065113792</ele>
        <time>2016-05-29T12:19:38Z</time>
      </trkpt>
      <trkpt lat="46.319949" lon="13.785800">
        <ele>1931.1365170944</ele>
        <time>2016-05-29T12:19:46Z</time>
      </trkpt>
      <trkpt lat="46.319988" lon="13.785849">
        <ele>1930.7465218368</ele>
        <time>2016-05-29T12:19:54Z</time>
      </trkpt>
      <trkpt lat="46.320021" lon="13.785881">
        <ele>1930.4865249984</ele>
        <time>2016-05-29T12:20:02Z</time>
      </trkpt>
      <trkpt lat="46.320037" lon="13.785887">
        <ele>1930.5465242688</ele>
        <time>2016-05-29T12:20:05Z</time>
      </trkpt>
      <trkpt lat="46.320102" lon="13.785937">
        <ele>1931.0865177024</ele>
        <time>2016-05-29T12:20:13Z</time>
      </trkpt>
      <trkpt lat="46.320157" lon="13.785979">
        <ele>1931.8865079744</ele>
        <time>2016-05-29T12:20:20Z</time>
      </trkpt>
      <trkpt lat="46.320231" lon="13.786024">
        <ele>1932.6664984896</ele>
        <time>2016-05-29T12:20:28Z</time>
      </trkpt>
      <trkpt lat="46.320299" lon="13.786073">
        <ele>1933.5164881536</ele>
        <time>2016-05-29T12:20:39Z</time>
      </trkpt>
      <trkpt lat="46.320356" lon="13.786126">
        <ele>1934.176480128</ele>
        <time>2016-05-29T12:20:50Z</time>
      </trkpt>
      <trkpt lat="46.320390" lon="13.786123">
        <ele>1935.426464928</ele>
        <time>2016-05-29T12:20:58Z</time>
      </trkpt>
      <trkpt lat="46.320459" lon="13.786134">
        <ele>1936.9664462016</ele>
        <time>2016-05-29T12:21:07Z</time>
      </trkpt>
      <trkpt lat="46.320473" lon="13.786143">
        <ele>1938.7164249216</ele>
        <time>2016-05-29T12:21:18Z</time>
      </trkpt>
      <trkpt lat="46.320509" lon="13.786147">
        <ele>1939.22641872</ele>
        <time>2016-05-29T12:21:26Z</time>
      </trkpt>
      <trkpt lat="46.320538" lon="13.786123">
        <ele>1940.3664048576</ele>
        <time>2016-05-29T12:21:34Z</time>
      </trkpt>
      <trkpt lat="46.320592" lon="13.786139">
        <ele>1941.6463892928</ele>
        <time>2016-05-29T12:21:41Z</time>
      </trkpt>
      <trkpt lat="46.320607" lon="13.786137">
        <ele>1941.826387104</ele>
        <time>2016-05-29T12:21:52Z</time>
      </trkpt>
      <trkpt lat="46.320645" lon="13.786127">
        <ele>1941.426391968</ele>
        <time>2016-05-29T12:22:01Z</time>
      </trkpt>
      <trkpt lat="46.320679" lon="13.786154">
        <ele>1940.6364015744</ele>
        <time>2016-05-29T12:22:12Z</time>
      </trkpt>
      <trkpt lat="46.320717" lon="13.786160">
        <ele>1940.2064068032</ele>
        <time>2016-05-29T12:22:24Z</time>
      </trkpt>
      <trkpt lat="46.320748" lon="13.786178">
        <ele>1940.0864082624</ele>
        <time>2016-05-29T12:22:36Z</time>
      </trkpt>
      <trkpt lat="46.320784" lon="13.786199">
        <ele>1939.6064140992</ele>
        <time>2016-05-29T12:22:50Z</time>
      </trkpt>
      <trkpt lat="46.320813" lon="13.786211">
        <ele>1939.276418112</ele>
        <time>2016-05-29T12:22:55Z</time>
      </trkpt>
      <trkpt lat="46.320853" lon="13.786224">
        <ele>1939.4164164096</ele>
        <time>2016-05-29T12:22:59Z</time>
      </trkpt>
      <trkpt lat="46.320929" lon="13.786257">
        <ele>1938.9064226112</ele>
        <time>2016-05-29T12:23:09Z</time>
      </trkpt>
      <trkpt lat="46.320998" lon="13.786289">
        <ele>1937.5364392704</ele>
        <time>2016-05-29T12:23:18Z</time>
      </trkpt>
      <trkpt lat="46.321025" lon="13.786291">
        <ele>1936.3464537408</ele>
        <time>2016-05-29T12:23:28Z</time>
      </trkpt>
      <trkpt lat="46.321050" lon="13.786310">
        <ele>1936.3664534976</ele>
        <time>2016-05-29T12:23:44Z</time>
      </trkpt>
      <trkpt lat="46.321062" lon="13.786317">
        <ele>1935.7864605504</ele>
        <time>2016-05-29T12:23:57Z</time>
      </trkpt>
      <trkpt lat="46.321085" lon="13.786342">
        <ele>1935.276466752</ele>
        <time>2016-05-29T12:24:11Z</time>
      </trkpt>
      <trkpt lat="46.321101" lon="13.786390">
        <ele>1934.4464768448</ele>
        <time>2016-05-29T12:24:19Z</time>
      </trkpt>
      <trkpt lat="46.321152" lon="13.786407">
        <ele>1932.9664948416</ele>
        <time>2016-05-29T12:24:27Z</time>
      </trkpt>
      <trkpt lat="46.321195" lon="13.786417">
        <ele>1932.5564998272</ele>
        <time>2016-05-29T12:24:38Z</time>
      </trkpt>
      <trkpt lat="46.321221" lon="13.786442">
        <ele>1931.6365110144</ele>
        <time>2016-05-29T12:24:46Z</time>
      </trkpt>
      <trkpt lat="46.321240" lon="13.786450">
        <ele>1930.7665215936</ele>
        <time>2016-05-29T12:24:55Z</time>
      </trkpt>
      <trkpt lat="46.321269" lon="13.786449">
        <ele>1930.6065235392</ele>
        <time>2016-05-29T12:25:02Z</time>
      </trkpt>
      <trkpt lat="46.321288" lon="13.786459">
        <ele>1930.376526336</ele>
        <time>2016-05-29T12:25:13Z</time>
      </trkpt>
      <trkpt lat="46.321312" lon="13.786443">
        <ele>1930.0865298624</ele>
        <time>2016-05-29T12:25:24Z</time>
      </trkpt>
      <trkpt lat="46.321334" lon="13.786462">
        <ele>1930.1665288896</ele>
        <time>2016-05-29T12:25:33Z</time>
      </trkpt>
      <trkpt lat="46.321363" lon="13.786486">
        <ele>1929.7865335104</ele>
        <time>2016-05-29T12:25:43Z</time>
      </trkpt>
      <trkpt lat="46.321377" lon="13.786508">
        <ele>1929.22654032</ele>
        <time>2016-05-29T12:25:51Z</time>
      </trkpt>
      <trkpt lat="46.321399" lon="13.786505">
        <ele>1927.6565594112</ele>
        <time>2016-05-29T12:26:00Z</time>
      </trkpt>
      <trkpt lat="46.321428" lon="13.786523">
        <ele>1927.8565569792</ele>
        <time>2016-05-29T12:26:10Z</time>
      </trkpt>
      <trkpt lat="46.321461" lon="13.786530">
        <ele>1928.1465534528</ele>
        <time>2016-05-29T12:26:19Z</time>
      </trkpt>
      <trkpt lat="46.321490" lon="13.786536">
        <ele>1928.2465522368</ele>
        <time>2016-05-29T12:26:31Z</time>
      </trkpt>
      <trkpt lat="46.321494" lon="13.786551">
        <ele>1927.776557952</ele>
        <time>2016-05-29T12:26:34Z</time>
      </trkpt>
      <trkpt lat="46.321537" lon="13.786555">
        <ele>1926.9365681664</ele>
        <time>2016-05-29T12:26:42Z</time>
      </trkpt>
      <trkpt lat="46.321543" lon="13.786568">
        <ele>1926.47657376</ele>
        <time>2016-05-29T12:26:53Z</time>
      </trkpt>
      <trkpt lat="46.321575" lon="13.786573">
        <ele>1926.1065782592</ele>
        <time>2016-05-29T12:27:04Z</time>
      </trkpt>
      <trkpt lat="46.321607" lon="13.786580">
        <ele>1925.5065855552</ele>
        <time>2016-05-29T12:27:12Z</time>
      </trkpt>
      <trkpt lat="46.321631" lon="13.786600">
        <ele>1925.1365900544</ele>
        <time>2016-05-29T12:27:21Z</time>
      </trkpt>
      <trkpt lat="46.321665" lon="13.786602">
        <ele>1924.9465923648</ele>
        <time>2016-05-29T12:27:33Z</time>
      </trkpt>
      <trkpt lat="46.321694" lon="13.786618">
        <ele>1924.6665957696</ele>
        <time>2016-05-29T12:27:43Z</time>
      </trkpt>
      <trkpt lat="46.321725" lon="13.786622">
        <ele>1923.8466057408</ele>
        <time>2016-05-29T12:27:50Z</time>
      </trkpt>
      <trkpt lat="46.321733" lon="13.786624">
        <ele>1923.1066147392</ele>
        <time>2016-05-29T12:27:59Z</time>
      </trkpt>
      <trkpt lat="46.321754" lon="13.786622">
        <ele>1923.3366119424</ele>
        <time>2016-05-29T12:28:10Z</time>
      </trkpt>
      <trkpt lat="46.321774" lon="13.786620">
        <ele>1923.4966099968</ele>
        <time>2016-05-29T12:28:18Z</time>
      </trkpt>
      <trkpt lat="46.321792" lon="13.786619">
        <ele>1923.4966099968</ele>
        <time>2016-05-29T12:28:27Z</time>
      </trkpt>
      <trkpt lat="46.321815" lon="13.786623">
        <ele>1923.7866064704</ele>
        <time>2016-05-29T12:28:37Z</time>
      </trkpt>
      <trkpt lat="46.321829" lon="13.786624">
        <ele>1923.7366070784</ele>
        <time>2016-05-29T12:28:46Z</time>
      </trkpt>
      <trkpt lat="46.321853" lon="13.786625">
        <ele>1923.9466045248</ele>
        <time>2016-05-29T12:28:54Z</time>
      </trkpt>
      <trkpt lat="46.321879" lon="13.786636">
        <ele>1923.9966039168</ele>
        <time>2016-05-29T12:29:04Z</time>
      </trkpt>
      <trkpt lat="46.321924" lon="13.786648">
        <ele>1923.426610848</ele>
        <time>2016-05-29T12:29:13Z</time>
      </trkpt>
      <trkpt lat="46.321979" lon="13.786661">
        <ele>1923.4866101184</ele>
        <time>2016-05-29T12:29:24Z</time>
      </trkpt>
      <trkpt lat="46.322009" lon="13.786667">
        <ele>1923.2066135232</ele>
        <time>2016-05-29T12:29:32Z</time>
      </trkpt>
      <trkpt lat="46.322050" lon="13.786713">
        <ele>1922.4466227648</ele>
        <time>2016-05-29T12:29:42Z</time>
      </trkpt>
      <trkpt lat="46.322150" lon="13.786744">
        <ele>1921.1066390592</ele>
        <time>2016-05-29T12:29:52Z</time>
      </trkpt>
      <trkpt lat="46.322188" lon="13.786742">
        <ele>1920.826642464</ele>
        <time>2016-05-29T12:30:00Z</time>
      </trkpt>
      <trkpt lat="46.322197" lon="13.786743">
        <ele>1920.7666431936</ele>
        <time>2016-05-29T12:30:09Z</time>
      </trkpt>
      <trkpt lat="46.322212" lon="13.786737">
        <ele>1920.5066463552</ele>
        <time>2016-05-29T12:30:18Z</time>
      </trkpt>
      <trkpt lat="46.322246" lon="13.786753">
        <ele>1920.876641856</ele>
        <time>2016-05-29T12:30:29Z</time>
      </trkpt>
      <trkpt lat="46.322268" lon="13.786750">
        <ele>1920.526646112</ele>
        <time>2016-05-29T12:30:41Z</time>
      </trkpt>
      <trkpt lat="46.322297" lon="13.786740">
        <ele>1920.5866453824</ele>
        <time>2016-05-29T12:30:53Z</time>
      </trkpt>
      <trkpt lat="46.322340" lon="13.786756">
        <ele>1919.8466543808</ele>
        <time>2016-05-29T12:31:04Z</time>
      </trkpt>
      <trkpt lat="46.322363" lon="13.786771">
        <ele>1918.7366678784</ele>
        <time>2016-05-29T12:31:13Z</time>
      </trkpt>
      <trkpt lat="46.322385" lon="13.786764">
        <ele>1918.2166742016</ele>
        <time>2016-05-29T12:31:21Z</time>
      </trkpt>
      <trkpt lat="46.322407" lon="13.786763">
        <ele>1918.0866757824</ele>
        <time>2016-05-29T12:31:30Z</time>
      </trkpt>
      <trkpt lat="46.322425" lon="13.786767">
        <ele>1917.676680768</ele>
        <time>2016-05-29T12:31:38Z</time>
      </trkpt>
      <trkpt lat="46.322445" lon="13.786775">
        <ele>1917.1666869696</ele>
        <time>2016-05-29T12:31:48Z</time>
      </trkpt>
      <trkpt lat="46.322456" lon="13.786788">
        <ele>1916.576694144</ele>
        <time>2016-05-29T12:31:59Z</time>
      </trkpt>
      <trkpt lat="46.322474" lon="13.786812">
        <ele>1915.5067071552</ele>
        <time>2016-05-29T12:32:07Z</time>
      </trkpt>
      <trkpt lat="46.322521" lon="13.786814">
        <ele>1914.0867244224</ele>
        <time>2016-05-29T12:32:21Z</time>
      </trkpt>
      <trkpt lat="46.322542" lon="13.786812">
        <ele>1913.6667295296</ele>
        <time>2016-05-29T12:32:24Z</time>
      </trkpt>
      <trkpt lat="46.322563" lon="13.786806">
        <ele>1913.076736704</ele>
        <time>2016-05-29T12:32:30Z</time>
      </trkpt>
      <trkpt lat="46.322567" lon="13.786748">
        <ele>1913.4567320832</ele>
        <time>2016-05-29T12:32:41Z</time>
      </trkpt>
      <trkpt lat="46.322596" lon="13.786713">
        <ele>1915.7667039936</ele>
        <time>2016-05-29T12:32:51Z</time>
      </trkpt>
      <trkpt lat="46.322634" lon="13.786694">
        <ele>1916.97668928</ele>
        <time>2016-05-29T12:32:59Z</time>
      </trkpt>
      <trkpt lat="46.322651" lon="13.786693">
        <ele>1917.7466799168</ele>
        <time>2016-05-29T12:33:08Z</time>
      </trkpt>
      <trkpt lat="46.322684" lon="13.786676">
        <ele>1917.8166790656</ele>
        <time>2016-05-29T12:33:18Z</time>
      </trkpt>
      <trkpt lat="46.322701" lon="13.786670">
        <ele>1917.2966853888</ele>
        <time>2016-05-29T12:33:27Z</time>
      </trkpt>
      <trkpt lat="46.322719" lon="13.786673">
        <ele>1917.6966805248</ele>
        <time>2016-05-29T12:33:35Z</time>
      </trkpt>
      <trkpt lat="46.322741" lon="13.786670">
        <ele>1917.7666796736</ele>
        <time>2016-05-29T12:33:45Z</time>
      </trkpt>
      <trkpt lat="46.322763" lon="13.786660">
        <ele>1917.7066804032</ele>
        <time>2016-05-29T12:33:55Z</time>
      </trkpt>
      <trkpt lat="46.322784" lon="13.786653">
        <ele>1917.876678336</ele>
        <time>2016-05-29T12:34:08Z</time>
      </trkpt>
      <trkpt lat="46.322810" lon="13.786657">
        <ele>1917.9566773632</ele>
        <time>2016-05-29T12:34:17Z</time>
      </trkpt>
      <trkpt lat="46.322833" lon="13.786657">
        <ele>1917.7666796736</ele>
        <time>2016-05-29T12:34:25Z</time>
      </trkpt>
      <trkpt lat="46.322850" lon="13.786650">
        <ele>1917.8966780928</ele>
        <time>2016-05-29T12:34:36Z</time>
      </trkpt>
      <trkpt lat="46.322872" lon="13.786642">
        <ele>1917.826678944</ele>
        <time>2016-05-29T12:34:47Z</time>
      </trkpt>
      <trkpt lat="46.322885" lon="13.786651">
        <ele>1917.2466859968</ele>
        <time>2016-05-29T12:34:57Z</time>
      </trkpt>
      <trkpt lat="46.322904" lon="13.786659">
        <ele>1917.0066889152</ele>
        <time>2016-05-29T12:35:08Z</time>
      </trkpt>
      <trkpt lat="46.322927" lon="13.786672">
        <ele>1916.4966951168</ele>
        <time>2016-05-29T12:35:22Z</time>
      </trkpt>
      <trkpt lat="46.322951" lon="13.786686">
        <ele>1916.376696576</ele>
        <time>2016-05-29T12:35:34Z</time>
      </trkpt>
      <trkpt lat="46.322975" lon="13.786695">
        <ele>1915.9567016832</ele>
        <time>2016-05-29T12:35:43Z</time>
      </trkpt>
      <trkpt lat="46.323002" lon="13.786716">
        <ele>1915.72670448</ele>
        <time>2016-05-29T12:35:54Z</time>
      </trkpt>
      <trkpt lat="46.323017" lon="13.786692">
        <ele>1916.2166985216</ele>
        <time>2016-05-29T12:36:09Z</time>
      </trkpt>
      <trkpt lat="46.323027" lon="13.786675">
        <ele>1916.0367007104</ele>
        <time>2016-05-29T12:36:23Z</time>
      </trkpt>
      <trkpt lat="46.323039" lon="13.786667">
        <ele>1916.5366946304</ele>
        <time>2016-05-29T12:36:32Z</time>
      </trkpt>
      <trkpt lat="46.323044" lon="13.786658">
        <ele>1917.9066779712</ele>
        <time>2016-05-29T12:36:41Z</time>
      </trkpt>
      <trkpt lat="46.323057" lon="13.786620">
        <ele>1919.4566591232</ele>
        <time>2016-05-29T12:36:51Z</time>
      </trkpt>
      <trkpt lat="46.323060" lon="13.786618">
        <ele>1920.9466410048</ele>
        <time>2016-05-29T12:37:03Z</time>
      </trkpt>
      <trkpt lat="46.323062" lon="13.786618">
        <ele>1920.7866429504</ele>
        <time>2016-05-29T12:37:22Z</time>
      </trkpt>
      <trkpt lat="46.323088" lon="13.786601">
        <ele>1921.2466373568</ele>
        <time>2016-05-29T12:37:34Z</time>
      </trkpt>
      <trkpt lat="46.323087" lon="13.786585">
        <ele>1922.72661936</ele>
        <time>2016-05-29T12:37:49Z</time>
      </trkpt>
      <trkpt lat="46.323074" lon="13.786581">
        <ele>1922.6866198464</ele>
        <time>2016-05-29T12:38:09Z</time>
      </trkpt>
      <trkpt lat="46.323082" lon="13.786595">
        <ele>1922.7466191168</ele>
        <time>2016-05-29T12:38:28Z</time>
      </trkpt>
      <trkpt lat="46.323102" lon="13.786574">
        <ele>1923.0066159552</ele>
        <time>2016-05-29T12:38:44Z</time>
      </trkpt>
      <trkpt lat="46.323135" lon="13.786539">
        <ele>1924.5665969856</ele>
        <time>2016-05-29T12:38:52Z</time>
      </trkpt>
      <trkpt lat="46.323165" lon="13.786513">
        <ele>1926.0565788672</ele>
        <time>2016-05-29T12:38:59Z</time>
      </trkpt>
      <trkpt lat="46.323221" lon="13.786471">
        <ele>1927.7165586816</ele>
        <time>2016-05-29T12:39:07Z</time>
      </trkpt>
      <trkpt lat="46.323256" lon="13.786443">
        <ele>1929.3565387392</ele>
        <time>2016-05-29T12:39:18Z</time>
      </trkpt>
      <trkpt lat="46.323255" lon="13.786434">
        <ele>1929.0465425088</ele>
        <time>2016-05-29T12:39:33Z</time>
      </trkpt>
      <trkpt lat="46.323255" lon="13.786429">
        <ele>1928.7565460352</ele>
        <time>2016-05-29T12:39:49Z</time>
      </trkpt>
      <trkpt lat="46.323251" lon="13.786377">
        <ele>1929.3465388608</ele>
        <time>2016-05-29T12:39:59Z</time>
      </trkpt>
      <trkpt lat="46.323226" lon="13.786307">
        <ele>1931.676510528</ele>
        <time>2016-05-29T12:40:08Z</time>
      </trkpt>
      <trkpt lat="46.323219" lon="13.786282">
        <ele>1934.2164796416</ele>
        <time>2016-05-29T12:40:20Z</time>
      </trkpt>
      <trkpt lat="46.323220" lon="13.786245">
        <ele>1935.2064676032</ele>
        <time>2016-05-29T12:40:31Z</time>
      </trkpt>
      <trkpt lat="46.323218" lon="13.786233">
        <ele>1936.9064469312</ele>
        <time>2016-05-29T12:40:39Z</time>
      </trkpt>
      <trkpt lat="46.323200" lon="13.786209">
        <ele>1937.72643696</ele>
        <time>2016-05-29T12:41:02Z</time>
      </trkpt>
      <trkpt lat="46.323230" lon="13.786160">
        <ele>1938.3864289344</ele>
        <time>2016-05-29T12:41:11Z</time>
      </trkpt>
      <trkpt lat="46.323257" lon="13.786151">
        <ele>1939.1364198144</ele>
        <time>2016-05-29T12:41:21Z</time>
      </trkpt>
      <trkpt lat="46.323279" lon="13.786111">
        <ele>1940.3564049792</ele>
        <time>2016-05-29T12:41:32Z</time>
      </trkpt>
      <trkpt lat="46.323297" lon="13.786095">
        <ele>1941.876386496</ele>
        <time>2016-05-29T12:41:44Z</time>
      </trkpt>
      <trkpt lat="46.323328" lon="13.786066">
        <ele>1942.2463819968</ele>
        <time>2016-05-29T12:41:53Z</time>
      </trkpt>
      <trkpt lat="46.323339" lon="13.786051">
        <ele>1943.3163689856</ele>
        <time>2016-05-29T12:42:07Z</time>
      </trkpt>
      <trkpt lat="46.323372" lon="13.785990">
        <ele>1943.8663622976</ele>
        <time>2016-05-29T12:42:16Z</time>
      </trkpt>
      <trkpt lat="46.323411" lon="13.785955">
        <ele>1945.5363419904</ele>
        <time>2016-05-29T12:42:24Z</time>
      </trkpt>
      <trkpt lat="46.323452" lon="13.785904">
        <ele>1946.4963303168</ele>
        <time>2016-05-29T12:42:32Z</time>
      </trkpt>
      <trkpt lat="46.323487" lon="13.785869">
        <ele>1948.126310496</ele>
        <time>2016-05-29T12:42:43Z</time>
      </trkpt>
      <trkpt lat="46.323488" lon="13.785856">
        <ele>1948.8363018624</ele>
        <time>2016-05-29T12:42:58Z</time>
      </trkpt>
      <trkpt lat="46.323483" lon="13.785829">
        <ele>1949.47629408</ele>
        <time>2016-05-29T12:43:06Z</time>
      </trkpt>
      <trkpt lat="46.323495" lon="13.785778">
        <ele>1950.4562821632</ele>
        <time>2016-05-29T12:43:17Z</time>
      </trkpt>
      <trkpt lat="46.323505" lon="13.785750">
        <ele>1952.2662601536</ele>
        <time>2016-05-29T12:43:29Z</time>
      </trkpt>
      <trkpt lat="46.323508" lon="13.785737">
        <ele>1953.9862392384</ele>
        <time>2016-05-29T12:43:44Z</time>
      </trkpt>
      <trkpt lat="46.323527" lon="13.785712">
        <ele>1955.6962184448</ele>
        <time>2016-05-29T12:43:56Z</time>
      </trkpt>
      <trkpt lat="46.323532" lon="13.785706">
        <ele>1956.026214432</ele>
        <time>2016-05-29T12:44:11Z</time>
      </trkpt>
      <trkpt lat="46.323532" lon="13.785709">
        <ele>1956.1562128512</ele>
        <time>2016-05-29T12:44:26Z</time>
      </trkpt>
      <trkpt lat="46.323542" lon="13.785722">
        <ele>1956.3662102976</ele>
        <time>2016-05-29T12:44:42Z</time>
      </trkpt>
      <trkpt lat="46.323538" lon="13.785722">
        <ele>1956.4162096896</ele>
        <time>2016-05-29T12:44:57Z</time>
      </trkpt>
      <trkpt lat="46.323529" lon="13.785712">
        <ele>1956.7062061632</ele>
        <time>2016-05-29T12:45:09Z</time>
      </trkpt>
      <trkpt lat="46.323566" lon="13.785738">
        <ele>1956.126213216</ele>
        <time>2016-05-29T12:45:17Z</time>
      </trkpt>
      <trkpt lat="46.323636" lon="13.785764">
        <ele>1953.526244832</ele>
        <time>2016-05-29T12:45:28Z</time>
      </trkpt>
      <trkpt lat="46.323687" lon="13.785747">
        <ele>1952.1662613696</ele>
        <time>2016-05-29T12:45:37Z</time>
      </trkpt>
      <trkpt lat="46.323713" lon="13.785729">
        <ele>1951.5962683008</ele>
        <time>2016-05-29T12:45:51Z</time>
      </trkpt>
      <trkpt lat="46.323759" lon="13.785733">
        <ele>1951.6862672064</ele>
        <time>2016-05-29T12:46:03Z</time>
      </trkpt>
      <trkpt lat="46.323783" lon="13.785725">
        <ele>1951.8462652608</ele>
        <time>2016-05-29T12:46:06Z</time>
      </trkpt>
      <trkpt lat="46.323829" lon="13.785679">
        <ele>1952.1862611264</ele>
        <time>2016-05-29T12:46:12Z</time>
      </trkpt>
      <trkpt lat="46.323858" lon="13.785658">
        <ele>1953.2362483584</ele>
        <time>2016-05-29T12:46:19Z</time>
      </trkpt>
      <trkpt lat="46.323873" lon="13.785645">
        <ele>1954.526232672</ele>
        <time>2016-05-29T12:46:30Z</time>
      </trkpt>
      <trkpt lat="46.323888" lon="13.785625">
        <ele>1954.3162352256</ele>
        <time>2016-05-29T12:46:48Z</time>
      </trkpt>
      <trkpt lat="46.323936" lon="13.785631">
        <ele>1954.9062280512</ele>
        <time>2016-05-29T12:46:57Z</time>
      </trkpt>
      <trkpt lat="46.323970" lon="13.785664">
        <ele>1955.8062171072</ele>
        <time>2016-05-29T12:47:05Z</time>
      </trkpt>
      <trkpt lat="46.324027" lon="13.785667">
        <ele>1956.0662139456</ele>
        <time>2016-05-29T12:47:13Z</time>
      </trkpt>
      <trkpt lat="46.324103" lon="13.785646">
        <ele>1957.0362021504</ele>
        <time>2016-05-29T12:47:25Z</time>
      </trkpt>
      <trkpt lat="46.324112" lon="13.785647">
        <ele>1957.2161999616</ele>
        <time>2016-05-29T12:47:32Z</time>
      </trkpt>
      <trkpt lat="46.324115" lon="13.785655">
        <ele>1957.3661981376</ele>
        <time>2016-05-29T12:47:50Z</time>
      </trkpt>
      <trkpt lat="46.324118" lon="13.785655">
        <ele>1957.4061976512</ele>
        <time>2016-05-29T12:48:07Z</time>
      </trkpt>
      <trkpt lat="46.324188" lon="13.785639">
        <ele>1956.9862027584</ele>
        <time>2016-05-29T12:48:17Z</time>
      </trkpt>
      <trkpt lat="46.324197" lon="13.785641">
        <ele>1956.9162036096</ele>
        <time>2016-05-29T12:48:18Z</time>
      </trkpt>
      <trkpt lat="46.324260" lon="13.785671">
        <ele>1956.4062098112</ele>
        <time>2016-05-29T12:48:26Z</time>
      </trkpt>
      <trkpt lat="46.324321" lon="13.785663">
        <ele>1956.5062085952</ele>
        <time>2016-05-29T12:48:37Z</time>
      </trkpt>
      <trkpt lat="46.324343" lon="13.785654">
        <ele>1956.4062098112</ele>
        <time>2016-05-29T12:48:45Z</time>
      </trkpt>
      <trkpt lat="46.324374" lon="13.785610">
        <ele>1956.2162121216</ele>
        <time>2016-05-29T12:49:00Z</time>
      </trkpt>
      <trkpt lat="46.324429" lon="13.785618">
        <ele>1954.5462324288</ele>
        <time>2016-05-29T12:49:09Z</time>
      </trkpt>
      <trkpt lat="46.324483" lon="13.785683">
        <ele>1951.8162656256</ele>
        <time>2016-05-29T12:49:20Z</time>
      </trkpt>
      <trkpt lat="46.324514" lon="13.785719">
        <ele>1951.5862684224</ele>
        <time>2016-05-29T12:49:30Z</time>
      </trkpt>
      <trkpt lat="46.324565" lon="13.785725">
        <ele>1950.426282528</ele>
        <time>2016-05-29T12:49:40Z</time>
      </trkpt>
      <trkpt lat="46.324591" lon="13.785683">
        <ele>1948.7663027136</ele>
        <time>2016-05-29T12:49:51Z</time>
      </trkpt>
      <trkpt lat="46.324637" lon="13.785683">
        <ele>1947.526317792</ele>
        <time>2016-05-29T12:50:01Z</time>
      </trkpt>
      <trkpt lat="46.324642" lon="13.785698">
        <ele>1947.0063241152</ele>
        <time>2016-05-29T12:50:13Z</time>
      </trkpt>
      <trkpt lat="46.324700" lon="13.785743">
        <ele>1946.4663306816</ele>
        <time>2016-05-29T12:50:22Z</time>
      </trkpt>
      <trkpt lat="46.324792" lon="13.785792">
        <ele>1943.97636096</ele>
        <time>2016-05-29T12:50:32Z</time>
      </trkpt>
      <trkpt lat="46.324879" lon="13.785817">
        <ele>1941.126395616</ele>
        <time>2016-05-29T12:50:41Z</time>
      </trkpt>
      <trkpt lat="46.324962" lon="13.785843">
        <ele>1937.8864350144</ele>
        <time>2016-05-29T12:50:49Z</time>
      </trkpt>
      <trkpt lat="46.325040" lon="13.785887">
        <ele>1934.6864739264</ele>
        <time>2016-05-29T12:50:59Z</time>
      </trkpt>
      <trkpt lat="46.325096" lon="13.785952">
        <ele>1931.4165136896</ele>
        <time>2016-05-29T12:51:08Z</time>
      </trkpt>
      <trkpt lat="46.325097" lon="13.786010">
        <ele>1929.9765312</ele>
        <time>2016-05-29T12:51:12Z</time>
      </trkpt>
      <trkpt lat="46.325110" lon="13.786104">
        <ele>1927.626559776</ele>
        <time>2016-05-29T12:51:19Z</time>
      </trkpt>
      <trkpt lat="46.325159" lon="13.786140">
        <ele>1925.7565825152</ele>
        <time>2016-05-29T12:51:27Z</time>
      </trkpt>
      <trkpt lat="46.325208" lon="13.786205">
        <ele>1923.5166097536</ele>
        <time>2016-05-29T12:51:36Z</time>
      </trkpt>
      <trkpt lat="46.325273" lon="13.786202">
        <ele>1922.2666249536</ele>
        <time>2016-05-29T12:51:45Z</time>
      </trkpt>
      <trkpt lat="46.325352" lon="13.786224">
        <ele>1921.1366386944</ele>
        <time>2016-05-29T12:51:54Z</time>
      </trkpt>
      <trkpt lat="46.325428" lon="13.786240">
        <ele>1919.7166559616</ele>
        <time>2016-05-29T12:52:03Z</time>
      </trkpt>
      <trkpt lat="46.325471" lon="13.786259">
        <ele>1919.2566615552</ele>
        <time>2016-05-29T12:52:09Z</time>
      </trkpt>
      <trkpt lat="46.325514" lon="13.786339">
        <ele>1918.4066718912</ele>
        <time>2016-05-29T12:52:17Z</time>
      </trkpt>
      <trkpt lat="46.325536" lon="13.786370">
        <ele>1918.5166705536</ele>
        <time>2016-05-29T12:52:24Z</time>
      </trkpt>
      <trkpt lat="46.325585" lon="13.786344">
        <ele>1918.7966671488</ele>
        <time>2016-05-29T12:52:30Z</time>
      </trkpt>
      <trkpt lat="46.325600" lon="13.786337">
        <ele>1919.5166583936</ele>
        <time>2016-05-29T12:52:39Z</time>
      </trkpt>
      <trkpt lat="46.325619" lon="13.786334">
        <ele>1920.0366520704</ele>
        <time>2016-05-29T12:52:52Z</time>
      </trkpt>
      <trkpt lat="46.325670" lon="13.786362">
        <ele>1919.7866551104</ele>
        <time>2016-05-29T12:53:00Z</time>
      </trkpt>
      <trkpt lat="46.325718" lon="13.786453">
        <ele>1918.9866648384</ele>
        <time>2016-05-29T12:53:10Z</time>
      </trkpt>
      <trkpt lat="46.325733" lon="13.786487">
        <ele>1918.926665568</ele>
        <time>2016-05-29T12:53:19Z</time>
      </trkpt>
      <trkpt lat="46.325764" lon="13.786523">
        <ele>1919.3066609472</ele>
        <time>2016-05-29T12:53:27Z</time>
      </trkpt>
      <trkpt lat="46.325839" lon="13.786608">
        <ele>1919.8566542592</ele>
        <time>2016-05-29T12:53:38Z</time>
      </trkpt>
      <trkpt lat="46.325900" lon="13.786676">
        <ele>1920.2566493952</ele>
        <time>2016-05-29T12:53:46Z</time>
      </trkpt>
      <trkpt lat="46.325956" lon="13.786755">
        <ele>1921.176638208</ele>
        <time>2016-05-29T12:53:57Z</time>
      </trkpt>
      <trkpt lat="46.326001" lon="13.786781">
        <ele>1921.876629696</ele>
        <time>2016-05-29T12:54:04Z</time>
      </trkpt>
      <trkpt lat="46.326008" lon="13.786790">
        <ele>1921.9666286016</ele>
        <time>2016-05-29T12:54:05Z</time>
      </trkpt>
      <trkpt lat="46.326054" lon="13.786849">
        <ele>1922.5666213056</ele>
        <time>2016-05-29T12:54:13Z</time>
      </trkpt>
      <trkpt lat="46.326098" lon="13.786890">
        <ele>1923.3566116992</ele>
        <time>2016-05-29T12:54:23Z</time>
      </trkpt>
      <trkpt lat="46.326131" lon="13.786919">
        <ele>1923.6366082944</ele>
        <time>2016-05-29T12:54:28Z</time>
      </trkpt>
      <trkpt lat="46.326153" lon="13.787018">
        <ele>1923.0866149824</ele>
        <time>2016-05-29T12:54:37Z</time>
      </trkpt>
      <trkpt lat="46.326141" lon="13.787115">
        <ele>1923.776606592</ele>
        <time>2016-05-29T12:54:48Z</time>
      </trkpt>
      <trkpt lat="46.326132" lon="13.787189">
        <ele>1924.22660112</ele>
        <time>2016-05-29T12:54:55Z</time>
      </trkpt>
      <trkpt lat="46.326138" lon="13.787261">
        <ele>1924.7065952832</ele>
        <time>2016-05-29T12:55:03Z</time>
      </trkpt>
      <trkpt lat="46.326140" lon="13.787273">
        <ele>1924.7465947968</ele>
        <time>2016-05-29T12:55:04Z</time>
      </trkpt>
      <trkpt lat="46.326158" lon="13.787307">
        <ele>1924.6065964992</ele>
        <time>2016-05-29T12:55:07Z</time>
      </trkpt>
      <trkpt lat="46.326189" lon="13.787377">
        <ele>1924.026603552</ele>
        <time>2016-05-29T12:55:15Z</time>
      </trkpt>
      <trkpt lat="46.326252" lon="13.787529">
        <ele>1922.2866247104</ele>
        <time>2016-05-29T12:55:29Z</time>
      </trkpt>
      <trkpt lat="46.326286" lon="13.787625">
        <ele>1921.7166316416</ele>
        <time>2016-05-29T12:55:37Z</time>
      </trkpt>
      <trkpt lat="46.326287" lon="13.787706">
        <ele>1921.1866380864</ele>
        <time>2016-05-29T12:55:46Z</time>
      </trkpt>
      <trkpt lat="46.326279" lon="13.787770">
        <ele>1921.0466397888</ele>
        <time>2016-05-29T12:55:50Z</time>
      </trkpt>
      <trkpt lat="46.326282" lon="13.787810">
        <ele>1920.8466422208</ele>
        <time>2016-05-29T12:55:53Z</time>
      </trkpt>
      <trkpt lat="46.326282" lon="13.787835">
        <ele>1920.1466507328</ele>
        <time>2016-05-29T12:56:01Z</time>
      </trkpt>
      <trkpt lat="46.326301" lon="13.787873">
        <ele>1919.7866551104</ele>
        <time>2016-05-29T12:56:09Z</time>
      </trkpt>
      <trkpt lat="46.326324" lon="13.787926">
        <ele>1917.526682592</ele>
        <time>2016-05-29T12:56:19Z</time>
      </trkpt>
      <trkpt lat="46.326306" lon="13.788013">
        <ele>1915.5467066688</ele>
        <time>2016-05-29T12:56:28Z</time>
      </trkpt>
      <trkpt lat="46.326316" lon="13.787999">
        <ele>1913.7967279488</ele>
        <time>2016-05-29T12:56:36Z</time>
      </trkpt>
      <trkpt lat="46.326344" lon="13.788025">
        <ele>1912.8467395008</ele>
        <time>2016-05-29T12:56:43Z</time>
      </trkpt>
      <trkpt lat="46.326395" lon="13.788039">
        <ele>1911.47675616</ele>
        <time>2016-05-29T12:56:51Z</time>
      </trkpt>
      <trkpt lat="46.326441" lon="13.788071">
        <ele>1910.1467723328</ele>
        <time>2016-05-29T12:56:59Z</time>
      </trkpt>
      <trkpt lat="46.326511" lon="13.788122">
        <ele>1907.4468051648</ele>
        <time>2016-05-29T12:57:09Z</time>
      </trkpt>
      <trkpt lat="46.326538" lon="13.788152">
        <ele>1905.376830336</ele>
        <time>2016-05-29T12:57:15Z</time>
      </trkpt>
      <trkpt lat="46.326536" lon="13.788150">
        <ele>1904.3868423744</ele>
        <time>2016-05-29T12:57:29Z</time>
      </trkpt>
      <trkpt lat="46.326561" lon="13.788150">
        <ele>1904.3168432256</ele>
        <time>2016-05-29T12:57:40Z</time>
      </trkpt>
      <trkpt lat="46.326579" lon="13.788176">
        <ele>1903.3568548992</ele>
        <time>2016-05-29T12:57:46Z</time>
      </trkpt>
      <trkpt lat="46.326566" lon="13.788259">
        <ele>1900.5468890688</ele>
        <time>2016-05-29T12:57:57Z</time>
      </trkpt>
      <trkpt lat="46.326597" lon="13.788304">
        <ele>1898.8669094976</ele>
        <time>2016-05-29T12:58:05Z</time>
      </trkpt>
      <trkpt lat="46.326647" lon="13.788392">
        <ele>1897.0069321152</ele>
        <time>2016-05-29T12:58:16Z</time>
      </trkpt>
      <trkpt lat="46.326680" lon="13.788459">
        <ele>1897.5069260352</ele>
        <time>2016-05-29T12:58:24Z</time>
      </trkpt>
      <trkpt lat="46.326689" lon="13.788466">
        <ele>1898.3569156992</ele>
        <time>2016-05-29T12:58:40Z</time>
      </trkpt>
      <trkpt lat="46.326725" lon="13.788528">
        <ele>1899.2069053632</ele>
        <time>2016-05-29T12:58:50Z</time>
      </trkpt>
      <trkpt lat="46.326754" lon="13.788574">
        <ele>1900.6068883392</ele>
        <time>2016-05-29T12:58:58Z</time>
      </trkpt>
      <trkpt lat="46.326765" lon="13.788593">
        <ele>1901.1868812864</ele>
        <time>2016-05-29T12:59:10Z</time>
      </trkpt>
      <trkpt lat="46.326792" lon="13.788647">
        <ele>1902.3968665728</ele>
        <time>2016-05-29T12:59:21Z</time>
      </trkpt>
      <trkpt lat="46.326765" lon="13.788670">
        <ele>1903.3468550208</ele>
        <time>2016-05-29T12:59:29Z</time>
      </trkpt>
      <trkpt lat="46.326789" lon="13.788714">
        <ele>1904.926835808</ele>
        <time>2016-05-29T12:59:38Z</time>
      </trkpt>
      <trkpt lat="46.326800" lon="13.788721">
        <ele>1906.0568220672</ele>
        <time>2016-05-29T12:59:53Z</time>
      </trkpt>
      <trkpt lat="46.326796" lon="13.788716">
        <ele>1906.376818176</ele>
        <time>2016-05-29T13:00:07Z</time>
      </trkpt>
      <trkpt lat="46.326793" lon="13.788720">
        <ele>1906.526816352</ele>
        <time>2016-05-29T13:00:19Z</time>
      </trkpt>
      <trkpt lat="46.326799" lon="13.788701">
        <ele>1906.4468173248</ele>
        <time>2016-05-29T13:00:34Z</time>
      </trkpt>
      <trkpt lat="46.326852" lon="13.788696">
        <ele>1906.6668146496</ele>
        <time>2016-05-29T13:00:42Z</time>
      </trkpt>
      <trkpt lat="46.326867" lon="13.788706">
        <ele>1906.7668134336</ele>
        <time>2016-05-29T13:00:51Z</time>
      </trkpt>
      <trkpt lat="46.326914" lon="13.788709">
        <ele>1906.6568147712</ele>
        <time>2016-05-29T13:01:05Z</time>
      </trkpt>
      <trkpt lat="46.326937" lon="13.788745">
        <ele>1907.0568099072</ele>
        <time>2016-05-29T13:01:13Z</time>
      </trkpt>
      <trkpt lat="46.326965" lon="13.788797">
        <ele>1909.3067825472</ele>
        <time>2016-05-29T13:01:22Z</time>
      </trkpt>
      <trkpt lat="46.326990" lon="13.788822">
        <ele>1911.2067594432</ele>
        <time>2016-05-29T13:01:32Z</time>
      </trkpt>
      <trkpt lat="46.327032" lon="13.788841">
        <ele>1911.826751904</ele>
        <time>2016-05-29T13:01:39Z</time>
      </trkpt>
      <trkpt lat="46.327046" lon="13.788870">
        <ele>1912.3467455808</ele>
        <time>2016-05-29T13:01:48Z</time>
      </trkpt>
      <trkpt lat="46.327048" lon="13.788922">
        <ele>1913.5467309888</ele>
        <time>2016-05-29T13:01:56Z</time>
      </trkpt>
      <trkpt lat="46.327060" lon="13.788933">
        <ele>1915.3967084928</ele>
        <time>2016-05-29T13:02:04Z</time>
      </trkpt>
      <trkpt lat="46.327051" lon="13.788932">
        <ele>1916.1866988864</ele>
        <time>2016-05-29T13:02:23Z</time>
      </trkpt>
      <trkpt lat="46.327048" lon="13.788935">
        <ele>1916.3966963328</ele>
        <time>2016-05-29T13:02:34Z</time>
      </trkpt>
      <trkpt lat="46.327060" lon="13.788973">
        <ele>1916.6666930496</ele>
        <time>2016-05-29T13:02:45Z</time>
      </trkpt>
      <trkpt lat="46.327107" lon="13.789035">
        <ele>1918.4966707968</ele>
        <time>2016-05-29T13:02:54Z</time>
      </trkpt>
      <trkpt lat="46.327155" lon="13.789136">
        <ele>1919.4966586368</ele>
        <time>2016-05-29T13:03:02Z</time>
      </trkpt>
      <trkpt lat="46.327172" lon="13.789171">
        <ele>1919.126663136</ele>
        <time>2016-05-29T13:03:06Z</time>
      </trkpt>
      <trkpt lat="46.327166" lon="13.789294">
        <ele>1919.1966622848</ele>
        <time>2016-05-29T13:03:16Z</time>
      </trkpt>
      <trkpt lat="46.327165" lon="13.789374">
        <ele>1919.2066621632</ele>
        <time>2016-05-29T13:03:21Z</time>
      </trkpt>
      <trkpt lat="46.327162" lon="13.789412">
        <ele>1918.9466653248</ele>
        <time>2016-05-29T13:03:29Z</time>
      </trkpt>
      <trkpt lat="46.327161" lon="13.789416">
        <ele>1919.0666638656</ele>
        <time>2016-05-29T13:03:47Z</time>
      </trkpt>
      <trkpt lat="46.327157" lon="13.789405">
        <ele>1919.1866624064</ele>
        <time>2016-05-29T13:04:03Z</time>
      </trkpt>
      <trkpt lat="46.327146" lon="13.789458">
        <ele>1919.0866636224</ele>
        <time>2016-05-29T13:04:15Z</time>
      </trkpt>
      <trkpt lat="46.327143" lon="13.789466">
        <ele>1919.0566639872</ele>
        <time>2016-05-29T13:04:15Z</time>
      </trkpt>
      <trkpt lat="46.327108" lon="13.789552">
        <ele>1917.676680768</ele>
        <time>2016-05-29T13:04:25Z</time>
      </trkpt>
      <trkpt lat="46.327104" lon="13.789642">
        <ele>1916.0467005888</ele>
        <time>2016-05-29T13:04:30Z</time>
      </trkpt>
      <trkpt lat="46.327085" lon="13.789678">
        <ele>1914.826715424</ele>
        <time>2016-05-29T13:04:34Z</time>
      </trkpt>
      <trkpt lat="46.327100" lon="13.789796">
        <ele>1911.4067570112</ele>
        <time>2016-05-29T13:04:41Z</time>
      </trkpt>
      <trkpt lat="46.327120" lon="13.789843">
        <ele>1908.2867949504</ele>
        <time>2016-05-29T13:04:46Z</time>
      </trkpt>
      <trkpt lat="46.327119" lon="13.789824">
        <ele>1906.426817568</ele>
        <time>2016-05-29T13:04:57Z</time>
      </trkpt>
      <trkpt lat="46.327086" lon="13.789829">
        <ele>1906.2868192704</ele>
        <time>2016-05-29T13:05:12Z</time>
      </trkpt>
      <trkpt lat="46.327084" lon="13.789890">
        <ele>1905.2168322816</ele>
        <time>2016-05-29T13:05:17Z</time>
      </trkpt>
      <trkpt lat="46.327093" lon="13.789956">
        <ele>1904.1568451712</ele>
        <time>2016-05-29T13:05:21Z</time>
      </trkpt>
      <trkpt lat="46.327074" lon="13.790040">
        <ele>1901.2968799488</ele>
        <time>2016-05-29T13:05:31Z</time>
      </trkpt>
      <trkpt lat="46.327072" lon="13.790092">
        <ele>1899.1969054848</ele>
        <time>2016-05-29T13:05:38Z</time>
      </trkpt>
      <trkpt lat="46.327070" lon="13.790102">
        <ele>1898.8369098624</ele>
        <time>2016-05-29T13:05:39Z</time>
      </trkpt>
      <trkpt lat="46.327045" lon="13.790212">
        <ele>1896.3369402624</ele>
        <time>2016-05-29T13:05:47Z</time>
      </trkpt>
      <trkpt lat="46.327028" lon="13.790347">
        <ele>1894.4669630016</ele>
        <time>2016-05-29T13:05:55Z</time>
      </trkpt>
      <trkpt lat="46.327028" lon="13.790369">
        <ele>1893.3069771072</ele>
        <time>2016-05-29T13:06:02Z</time>
      </trkpt>
      <trkpt lat="46.327023" lon="13.790395">
        <ele>1893.0969796608</ele>
        <time>2016-05-29T13:06:05Z</time>
      </trkpt>
      <trkpt lat="46.327038" lon="13.790467">
        <ele>1892.826982944</ele>
        <time>2016-05-29T13:06:10Z</time>
      </trkpt>
      <trkpt lat="46.327055" lon="13.790540">
        <ele>1892.7169842816</ele>
        <time>2016-05-29T13:06:15Z</time>
      </trkpt>
      <trkpt lat="46.327052" lon="13.790594">
        <ele>1892.7669836736</ele>
        <time>2016-05-29T13:06:19Z</time>
      </trkpt>
      <trkpt lat="46.326994" lon="13.790693">
        <ele>1892.4169879296</ele>
        <time>2016-05-29T13:06:29Z</time>
      </trkpt>
      <trkpt lat="46.326986" lon="13.790696">
        <ele>1891.3570008192</ele>
        <time>2016-05-29T13:06:38Z</time>
      </trkpt>
      <trkpt lat="46.326908" lon="13.790742">
        <ele>1891.4869992384</ele>
        <time>2016-05-29T13:06:49Z</time>
      </trkpt>
      <trkpt lat="46.326852" lon="13.790812">
        <ele>1892.8669824576</ele>
        <time>2016-05-29T13:07:01Z</time>
      </trkpt>
      <trkpt lat="46.326856" lon="13.790938">
        <ele>1893.9069698112</ele>
        <time>2016-05-29T13:07:12Z</time>
      </trkpt>
      <trkpt lat="46.326865" lon="13.791005">
        <ele>1894.1869664064</ele>
        <time>2016-05-29T13:07:20Z</time>
      </trkpt>
      <trkpt lat="46.326885" lon="13.791047">
        <ele>1895.3669520576</ele>
        <time>2016-05-29T13:07:28Z</time>
      </trkpt>
      <trkpt lat="46.326891" lon="13.791070">
        <ele>1896.5869372224</ele>
        <time>2016-05-29T13:07:40Z</time>
      </trkpt>
      <trkpt lat="46.326910" lon="13.791117">
        <ele>1897.1069308992</ele>
        <time>2016-05-29T13:07:55Z</time>
      </trkpt>
      <trkpt lat="46.326936" lon="13.791206">
        <ele>1898.4369147264</ele>
        <time>2016-05-29T13:08:03Z</time>
      </trkpt>
      <trkpt lat="46.326967" lon="13.791282">
        <ele>1899.2669046336</ele>
        <time>2016-05-29T13:08:13Z</time>
      </trkpt>
      <trkpt lat="46.326955" lon="13.791316">
        <ele>1900.9668839616</ele>
        <time>2016-05-29T13:08:25Z</time>
      </trkpt>
      <trkpt lat="46.326930" lon="13.791336">
        <ele>1901.2968799488</ele>
        <time>2016-05-29T13:08:28Z</time>
      </trkpt>
      <trkpt lat="46.326908" lon="13.791346">
        <ele>1901.6068761792</ele>
        <time>2016-05-29T13:08:29Z</time>
      </trkpt>
      <trkpt lat="46.326834" lon="13.791401">
        <ele>1902.1068700992</ele>
        <time>2016-05-29T13:08:37Z</time>
      </trkpt>
      <trkpt lat="46.326826" lon="13.791505">
        <ele>1901.1868812864</ele>
        <time>2016-05-29T13:08:45Z</time>
      </trkpt>
      <trkpt lat="46.326832" lon="13.791621">
        <ele>1900.5168894336</ele>
        <time>2016-05-29T13:08:55Z</time>
      </trkpt>
      <trkpt lat="46.326833" lon="13.791709">
        <ele>1899.7168991616</ele>
        <time>2016-05-29T13:09:03Z</time>
      </trkpt>
      <trkpt lat="46.326854" lon="13.791737">
        <ele>1899.1569059712</ele>
        <time>2016-05-29T13:09:08Z</time>
      </trkpt>
      <trkpt lat="46.326853" lon="13.791805">
        <ele>1898.2569169152</ele>
        <time>2016-05-29T13:09:12Z</time>
      </trkpt>
      <trkpt lat="46.326808" lon="13.791857">
        <ele>1897.5669253056</ele>
        <time>2016-05-29T13:09:18Z</time>
      </trkpt>
      <trkpt lat="46.326716" lon="13.791970">
        <ele>1895.1969541248</ele>
        <time>2016-05-29T13:09:30Z</time>
      </trkpt>
      <trkpt lat="46.326680" lon="13.792042">
        <ele>1892.2669897536</ele>
        <time>2016-05-29T13:09:38Z</time>
      </trkpt>
      <trkpt lat="46.326621" lon="13.792149">
        <ele>1889.4670238016</ele>
        <time>2016-05-29T13:09:49Z</time>
      </trkpt>
      <trkpt lat="46.326601" lon="13.792182">
        <ele>1887.9170426496</ele>
        <time>2016-05-29T13:09:57Z</time>
      </trkpt>
      <trkpt lat="46.326582" lon="13.792280">
        <ele>1886.3570616192</ele>
        <time>2016-05-29T13:10:05Z</time>
      </trkpt>
      <trkpt lat="46.326532" lon="13.792386">
        <ele>1883.5170961536</ele>
        <time>2016-05-29T13:10:13Z</time>
      </trkpt>
      <trkpt lat="46.326519" lon="13.792470">
        <ele>1882.1471128128</ele>
        <time>2016-05-29T13:10:20Z</time>
      </trkpt>
      <trkpt lat="46.326517" lon="13.792587">
        <ele>1880.677130688</ele>
        <time>2016-05-29T13:10:29Z</time>
      </trkpt>
      <trkpt lat="46.326516" lon="13.792669">
        <ele>1879.8171411456</ele>
        <time>2016-05-29T13:10:37Z</time>
      </trkpt>
      <trkpt lat="46.326516" lon="13.792741">
        <ele>1879.2171484416</ele>
        <time>2016-05-29T13:10:41Z</time>
      </trkpt>
      <trkpt lat="46.326496" lon="13.792823">
        <ele>1878.3171593856</ele>
        <time>2016-05-29T13:10:48Z</time>
      </trkpt>
      <trkpt lat="46.326494" lon="13.792838">
        <ele>1878.1871609664</ele>
        <time>2016-05-29T13:10:48Z</time>
      </trkpt>
      <trkpt lat="46.326505" lon="13.792899">
        <ele>1876.9671758016</ele>
        <time>2016-05-29T13:10:56Z</time>
      </trkpt>
      <trkpt lat="46.326489" lon="13.792905">
        <ele>1876.627179936</ele>
        <time>2016-05-29T13:11:14Z</time>
      </trkpt>
      <trkpt lat="46.326489" lon="13.792903">
        <ele>1877.0171751936</ele>
        <time>2016-05-29T13:11:31Z</time>
      </trkpt>
      <trkpt lat="46.326482" lon="13.792890">
        <ele>1877.2071728832</ele>
        <time>2016-05-29T13:11:54Z</time>
      </trkpt>
      <trkpt lat="46.326508" lon="13.792956">
        <ele>1877.2071728832</ele>
        <time>2016-05-29T13:12:06Z</time>
      </trkpt>
      <trkpt lat="46.326516" lon="13.793049">
        <ele>1876.8471772608</ele>
        <time>2016-05-29T13:12:16Z</time>
      </trkpt>
      <trkpt lat="46.326499" lon="13.793135">
        <ele>1876.7471784768</ele>
        <time>2016-05-29T13:12:27Z</time>
      </trkpt>
      <trkpt lat="46.326499" lon="13.793238">
        <ele>1876.9471760448</ele>
        <time>2016-05-29T13:12:37Z</time>
      </trkpt>
      <trkpt lat="46.326490" lon="13.793302">
        <ele>1876.9971754368</ele>
        <time>2016-05-29T13:12:47Z</time>
      </trkpt>
      <trkpt lat="46.326483" lon="13.793358">
        <ele>1878.1471614528</ele>
        <time>2016-05-29T13:12:58Z</time>
      </trkpt>
      <trkpt lat="46.326479" lon="13.793442">
        <ele>1878.3571588992</ele>
        <time>2016-05-29T13:13:10Z</time>
      </trkpt>
      <trkpt lat="46.326485" lon="13.793499">
        <ele>1878.677155008</ele>
        <time>2016-05-29T13:13:17Z</time>
      </trkpt>
      <trkpt lat="46.326529" lon="13.793563">
        <ele>1878.3671587776</ele>
        <time>2016-05-29T13:13:26Z</time>
      </trkpt>
      <trkpt lat="46.326555" lon="13.793554">
        <ele>1878.177161088</ele>
        <time>2016-05-29T13:13:42Z</time>
      </trkpt>
      <trkpt lat="46.326538" lon="13.793567">
        <ele>1878.2371603584</ele>
        <time>2016-05-29T13:13:57Z</time>
      </trkpt>
      <trkpt lat="46.326524" lon="13.793602">
        <ele>1878.2571601152</ele>
        <time>2016-05-29T13:14:01Z</time>
      </trkpt>
      <trkpt lat="46.326507" lon="13.793668">
        <ele>1877.6571674112</ele>
        <time>2016-05-29T13:14:09Z</time>
      </trkpt>
      <trkpt lat="46.326503" lon="13.793742">
        <ele>1876.7371785984</ele>
        <time>2016-05-29T13:14:13Z</time>
      </trkpt>
      <trkpt lat="46.326518" lon="13.793831">
        <ele>1875.427194528</ele>
        <time>2016-05-29T13:14:20Z</time>
      </trkpt>
      <trkpt lat="46.326547" lon="13.793928">
        <ele>1875.6471918528</ele>
        <time>2016-05-29T13:14:29Z</time>
      </trkpt>
      <trkpt lat="46.326555" lon="13.793960">
        <ele>1875.327195744</ele>
        <time>2016-05-29T13:14:32Z</time>
      </trkpt>
      <trkpt lat="46.326568" lon="13.794050">
        <ele>1873.6972155648</ele>
        <time>2016-05-29T13:14:42Z</time>
      </trkpt>
      <trkpt lat="46.326567" lon="13.794073">
        <ele>1873.2672207936</ele>
        <time>2016-05-29T13:14:43Z</time>
      </trkpt>
      <trkpt lat="46.326567" lon="13.794155">
        <ele>1872.9972240768</ele>
        <time>2016-05-29T13:14:54Z</time>
      </trkpt>
      <trkpt lat="46.326596" lon="13.794241">
        <ele>1873.6872156864</ele>
        <time>2016-05-29T13:15:03Z</time>
      </trkpt>
      <trkpt lat="46.326626" lon="13.794317">
        <ele>1873.2572209152</ele>
        <time>2016-05-29T13:15:10Z</time>
      </trkpt>
      <trkpt lat="46.326631" lon="13.794385">
        <ele>1871.8072385472</ele>
        <time>2016-05-29T13:15:18Z</time>
      </trkpt>
      <trkpt lat="46.326618" lon="13.794422">
        <ele>1871.277244992</ele>
        <time>2016-05-29T13:15:21Z</time>
      </trkpt>
      <trkpt lat="46.326609" lon="13.794523">
        <ele>1869.927261408</ele>
        <time>2016-05-29T13:15:29Z</time>
      </trkpt>
      <trkpt lat="46.326612" lon="13.794613">
        <ele>1869.4172676096</ele>
        <time>2016-05-29T13:15:36Z</time>
      </trkpt>
      <trkpt lat="46.326644" lon="13.794729">
        <ele>1869.4472672448</ele>
        <time>2016-05-29T13:15:45Z</time>
      </trkpt>
      <trkpt lat="46.326660" lon="13.794789">
        <ele>1869.4172676096</ele>
        <time>2016-05-29T13:15:54Z</time>
      </trkpt>
      <trkpt lat="46.326683" lon="13.794841">
        <ele>1867.4672913216</ele>
        <time>2016-05-29T13:16:03Z</time>
      </trkpt>
      <trkpt lat="46.326684" lon="13.794939">
        <ele>1865.72731248</ele>
        <time>2016-05-29T13:16:11Z</time>
      </trkpt>
      <trkpt lat="46.326678" lon="13.794968">
        <ele>1863.7573364352</ele>
        <time>2016-05-29T13:16:17Z</time>
      </trkpt>
      <trkpt lat="46.326674" lon="13.795003">
        <ele>1862.877347136</ele>
        <time>2016-05-29T13:16:31Z</time>
      </trkpt>
      <trkpt lat="46.326675" lon="13.795033">
        <ele>1862.6573498112</ele>
        <time>2016-05-29T13:16:32Z</time>
      </trkpt>
      <trkpt lat="46.326659" lon="13.795168">
        <ele>1860.4473766848</ele>
        <time>2016-05-29T13:16:42Z</time>
      </trkpt>
      <trkpt lat="46.326670" lon="13.795255">
        <ele>1858.1674044096</ele>
        <time>2016-05-29T13:16:50Z</time>
      </trkpt>
      <trkpt lat="46.326704" lon="13.795328">
        <ele>1857.6374108544</ele>
        <time>2016-05-29T13:16:58Z</time>
      </trkpt>
      <trkpt lat="46.326762" lon="13.795420">
        <ele>1856.4574252032</ele>
        <time>2016-05-29T13:17:09Z</time>
      </trkpt>
      <trkpt lat="46.326810" lon="13.795488">
        <ele>1855.1174414976</ele>
        <time>2016-05-29T13:17:17Z</time>
      </trkpt>
      <trkpt lat="46.326800" lon="13.795567">
        <ele>1854.1674530496</ele>
        <time>2016-05-29T13:17:24Z</time>
      </trkpt>
      <trkpt lat="46.326764" lon="13.795610">
        <ele>1852.7974697088</ele>
        <time>2016-05-29T13:17:32Z</time>
      </trkpt>
      <trkpt lat="46.326728" lon="13.795637">
        <ele>1851.2874880704</ele>
        <time>2016-05-29T13:17:37Z</time>
      </trkpt>
      <trkpt lat="46.326712" lon="13.795644">
        <ele>1850.8374935424</ele>
        <time>2016-05-29T13:17:40Z</time>
      </trkpt>
      <trkpt lat="46.326691" lon="13.795647">
        <ele>1850.0575030272</ele>
        <time>2016-05-29T13:17:41Z</time>
      </trkpt>
      <trkpt lat="46.326645" lon="13.795698">
        <ele>1848.327524064</ele>
        <time>2016-05-29T13:17:49Z</time>
      </trkpt>
      <trkpt lat="46.326601" lon="13.795832">
        <ele>1846.1075510592</ele>
        <time>2016-05-29T13:18:00Z</time>
      </trkpt>
      <trkpt lat="46.326588" lon="13.795845">
        <ele>1845.7075559232</ele>
        <time>2016-05-29T13:18:01Z</time>
      </trkpt>
      <trkpt lat="46.326559" lon="13.795969">
        <ele>1843.4375835264</ele>
        <time>2016-05-29T13:18:11Z</time>
      </trkpt>
      <trkpt lat="46.326547" lon="13.796050">
        <ele>1843.2875853504</ele>
        <time>2016-05-29T13:18:18Z</time>
      </trkpt>
      <trkpt lat="46.326530" lon="13.796112">
        <ele>1843.3175849856</ele>
        <time>2016-05-29T13:18:23Z</time>
      </trkpt>
      <trkpt lat="46.326475" lon="13.796205">
        <ele>1842.3875962944</ele>
        <time>2016-05-29T13:18:31Z</time>
      </trkpt>
      <trkpt lat="46.326431" lon="13.796309">
        <ele>1841.2276104</ele>
        <time>2016-05-29T13:18:39Z</time>
      </trkpt>
      <trkpt lat="46.326404" lon="13.796386">
        <ele>1841.1976107648</ele>
        <time>2016-05-29T13:18:49Z</time>
      </trkpt>
      <trkpt lat="46.326392" lon="13.796404">
        <ele>1841.2376102784</ele>
        <time>2016-05-29T13:18:50Z</time>
      </trkpt>
      <trkpt lat="46.326345" lon="13.796474">
        <ele>1841.2076106432</ele>
        <time>2016-05-29T13:18:59Z</time>
      </trkpt>
      <trkpt lat="46.326334" lon="13.796477">
        <ele>1841.2176105216</ele>
        <time>2016-05-29T13:19:01Z</time>
      </trkpt>
      <trkpt lat="46.326228" lon="13.796520">
        <ele>1841.177611008</ele>
        <time>2016-05-29T13:19:10Z</time>
      </trkpt>
      <trkpt lat="46.326196" lon="13.796540">
        <ele>1840.9676135616</ele>
        <time>2016-05-29T13:19:16Z</time>
      </trkpt>
      <trkpt lat="46.326125" lon="13.796594">
        <ele>1840.9176141696</ele>
        <time>2016-05-29T13:19:25Z</time>
      </trkpt>
      <trkpt lat="46.326116" lon="13.796600">
        <ele>1840.9676135616</ele>
        <time>2016-05-29T13:19:25Z</time>
      </trkpt>
      <trkpt lat="46.326039" lon="13.796689">
        <ele>1840.0976241408</ele>
        <time>2016-05-29T13:19:35Z</time>
      </trkpt>
      <trkpt lat="46.326006" lon="13.796725">
        <ele>1839.4476320448</ele>
        <time>2016-05-29T13:19:39Z</time>
      </trkpt>
      <trkpt lat="46.325983" lon="13.796788">
        <ele>1839.127635936</ele>
        <time>2016-05-29T13:19:44Z</time>
      </trkpt>
      <trkpt lat="46.325969" lon="13.796810">
        <ele>1839.077636544</ele>
        <time>2016-05-29T13:19:45Z</time>
      </trkpt>
      <trkpt lat="46.325928" lon="13.796920">
        <ele>1838.4876437184</ele>
        <time>2016-05-29T13:19:55Z</time>
      </trkpt>
      <trkpt lat="46.325885" lon="13.797017">
        <ele>1838.2976460288</ele>
        <time>2016-05-29T13:20:04Z</time>
      </trkpt>
      <trkpt lat="46.325860" lon="13.797043">
        <ele>1838.3476454208</ele>
        <time>2016-05-29T13:20:08Z</time>
      </trkpt>
      <trkpt lat="46.325802" lon="13.797047">
        <ele>1838.3876449344</ele>
        <time>2016-05-29T13:20:15Z</time>
      </trkpt>
      <trkpt lat="46.325740" lon="13.797059">
        <ele>1838.8676390976</ele>
        <time>2016-05-29T13:20:23Z</time>
      </trkpt>
      <trkpt lat="46.325718" lon="13.797094">
        <ele>1839.7676281536</ele>
        <time>2016-05-29T13:20:29Z</time>
      </trkpt>
      <trkpt lat="46.325704" lon="13.797161">
        <ele>1841.0376127104</ele>
        <time>2016-05-29T13:20:35Z</time>
      </trkpt>
      <trkpt lat="46.325662" lon="13.797289">
        <ele>1840.9876133184</ele>
        <time>2016-05-29T13:20:45Z</time>
      </trkpt>
      <trkpt lat="46.325652" lon="13.797351">
        <ele>1840.4976192768</ele>
        <time>2016-05-29T13:20:50Z</time>
      </trkpt>
      <trkpt lat="46.325585" lon="13.797406">
        <ele>1839.7876279104</ele>
        <time>2016-05-29T13:20:57Z</time>
      </trkpt>
      <trkpt lat="46.325506" lon="13.797436">
        <ele>1838.8376394624</ele>
        <time>2016-05-29T13:21:05Z</time>
      </trkpt>
      <trkpt lat="46.325447" lon="13.797456">
        <ele>1838.2876461504</ele>
        <time>2016-05-29T13:21:13Z</time>
      </trkpt>
      <trkpt lat="46.325371" lon="13.797491">
        <ele>1836.377669376</ele>
        <time>2016-05-29T13:21:21Z</time>
      </trkpt>
      <trkpt lat="46.325339" lon="13.797542">
        <ele>1834.2976946688</ele>
        <time>2016-05-29T13:21:29Z</time>
      </trkpt>
      <trkpt lat="46.325305" lon="13.797602">
        <ele>1832.0077225152</ele>
        <time>2016-05-29T13:21:37Z</time>
      </trkpt>
      <trkpt lat="46.325280" lon="13.797684">
        <ele>1830.1877446464</ele>
        <time>2016-05-29T13:21:45Z</time>
      </trkpt>
      <trkpt lat="46.325249" lon="13.797742">
        <ele>1828.6677631296</ele>
        <time>2016-05-29T13:21:52Z</time>
      </trkpt>
      <trkpt lat="46.325239" lon="13.797770">
        <ele>1828.0077711552</ele>
        <time>2016-05-29T13:21:55Z</time>
      </trkpt>
      <trkpt lat="46.325208" lon="13.797877">
        <ele>1826.3477913408</ele>
        <time>2016-05-29T13:22:03Z</time>
      </trkpt>
      <trkpt lat="46.325226" lon="13.798073">
        <ele>1823.6378242944</ele>
        <time>2016-05-29T13:22:15Z</time>
      </trkpt>
      <trkpt lat="46.325261" lon="13.798176">
        <ele>1823.6178245376</ele>
        <time>2016-05-29T13:22:22Z</time>
      </trkpt>
      <trkpt lat="46.325277" lon="13.798175">
        <ele>1824.027819552</ele>
        <time>2016-05-29T13:22:33Z</time>
      </trkpt>
      <trkpt lat="46.325277" lon="13.798172">
        <ele>1823.7678227136</ele>
        <time>2016-05-29T13:22:39Z</time>
      </trkpt>
      <trkpt lat="46.325267" lon="13.798172">
        <ele>1823.6178245376</ele>
        <time>2016-05-29T13:22:58Z</time>
      </trkpt>
      <trkpt lat="46.325267" lon="13.798164">
        <ele>1824.277816512</ele>
        <time>2016-05-29T13:23:16Z</time>
      </trkpt>
      <trkpt lat="46.325253" lon="13.798162">
        <ele>1824.127818336</ele>
        <time>2016-05-29T13:23:38Z</time>
      </trkpt>
      <trkpt lat="46.325253" lon="13.798163">
        <ele>1823.8978211328</ele>
        <time>2016-05-29T13:23:55Z</time>
      </trkpt>
      <trkpt lat="46.325258" lon="13.798160">
        <ele>1823.8078222272</ele>
        <time>2016-05-29T13:24:07Z</time>
      </trkpt>
      <trkpt lat="46.325257" lon="13.798158">
        <ele>1823.8178221056</ele>
        <time>2016-05-29T13:24:22Z</time>
      </trkpt>
      <trkpt lat="46.325252" lon="13.798163">
        <ele>1823.927820768</ele>
        <time>2016-05-29T13:24:34Z</time>
      </trkpt>
      <trkpt lat="46.325261" lon="13.798164">
        <ele>1823.9678202816</ele>
        <time>2016-05-29T13:24:45Z</time>
      </trkpt>
      <trkpt lat="46.325251" lon="13.798165">
        <ele>1824.2378169984</ele>
        <time>2016-05-29T13:25:05Z</time>
      </trkpt>
      <trkpt lat="46.325237" lon="13.798171">
        <ele>1824.3878151744</ele>
        <time>2016-05-29T13:25:28Z</time>
      </trkpt>
      <trkpt lat="46.325243" lon="13.798171">
        <ele>1824.72781104</ele>
        <time>2016-05-29T13:25:43Z</time>
      </trkpt>
      <trkpt lat="46.325259" lon="13.798166">
        <ele>1825.0678069056</ele>
        <time>2016-05-29T13:26:02Z</time>
      </trkpt>
      <trkpt lat="46.325263" lon="13.798174">
        <ele>1825.8377975424</ele>
        <time>2016-05-29T13:26:17Z</time>
      </trkpt>
      <trkpt lat="46.325266" lon="13.798231">
        <ele>1825.9177965696</ele>
        <time>2016-05-29T13:26:25Z</time>
      </trkpt>
      <trkpt lat="46.325269" lon="13.798328">
        <ele>1824.5478132288</ele>
        <time>2016-05-29T13:26:34Z</time>
      </trkpt>
      <trkpt lat="46.325250" lon="13.798368">
        <ele>1823.177829888</ele>
        <time>2016-05-29T13:26:41Z</time>
      </trkpt>
      <trkpt lat="46.325238" lon="13.798410">
        <ele>1822.2478411968</ele>
        <time>2016-05-29T13:26:45Z</time>
      </trkpt>
      <trkpt lat="46.325179" lon="13.798430">
        <ele>1820.4378632064</ele>
        <time>2016-05-29T13:26:52Z</time>
      </trkpt>
      <trkpt lat="46.325107" lon="13.798433">
        <ele>1818.827882784</ele>
        <time>2016-05-29T13:27:01Z</time>
      </trkpt>
      <trkpt lat="46.325059" lon="13.798460">
        <ele>1817.4778992</ele>
        <time>2016-05-29T13:27:09Z</time>
      </trkpt>
      <trkpt lat="46.325027" lon="13.798553">
        <ele>1816.0179169536</ele>
        <time>2016-05-29T13:27:16Z</time>
      </trkpt>
      <trkpt lat="46.325004" lon="13.798586">
        <ele>1815.47792352</ele>
        <time>2016-05-29T13:27:19Z</time>
      </trkpt>
      <trkpt lat="46.324992" lon="13.798641">
        <ele>1814.927930208</ele>
        <time>2016-05-29T13:27:23Z</time>
      </trkpt>
      <trkpt lat="46.324953" lon="13.798715">
        <ele>1813.6479457728</ele>
        <time>2016-05-29T13:27:32Z</time>
      </trkpt>
      <trkpt lat="46.324911" lon="13.798745">
        <ele>1811.8979670528</ele>
        <time>2016-05-29T13:27:41Z</time>
      </trkpt>
      <trkpt lat="46.324867" lon="13.798814">
        <ele>1809.7079936832</ele>
        <time>2016-05-29T13:27:49Z</time>
      </trkpt>
      <trkpt lat="46.324835" lon="13.798871">
        <ele>1807.6080192192</ele>
        <time>2016-05-29T13:27:58Z</time>
      </trkpt>
      <trkpt lat="46.324844" lon="13.798993">
        <ele>1805.6380431744</ele>
        <time>2016-05-29T13:28:06Z</time>
      </trkpt>
      <trkpt lat="46.324858" lon="13.799064">
        <ele>1803.7680659136</ele>
        <time>2016-05-29T13:28:16Z</time>
      </trkpt>
      <trkpt lat="46.324844" lon="13.799128">
        <ele>1802.2380845184</ele>
        <time>2016-05-29T13:28:24Z</time>
      </trkpt>
      <trkpt lat="46.324847" lon="13.799159">
        <ele>1801.6480916928</ele>
        <time>2016-05-29T13:28:26Z</time>
      </trkpt>
      <trkpt lat="46.324866" lon="13.799261">
        <ele>1799.5881167424</ele>
        <time>2016-05-29T13:28:35Z</time>
      </trkpt>
      <trkpt lat="46.324861" lon="13.799429">
        <ele>1796.7081517632</ele>
        <time>2016-05-29T13:28:45Z</time>
      </trkpt>
      <trkpt lat="46.324852" lon="13.799472">
        <ele>1796.1981579648</ele>
        <time>2016-05-29T13:28:48Z</time>
      </trkpt>
      <trkpt lat="46.324877" lon="13.799594">
        <ele>1794.6681765696</ele>
        <time>2016-05-29T13:28:56Z</time>
      </trkpt>
      <trkpt lat="46.324924" lon="13.799678">
        <ele>1793.6881884864</ele>
        <time>2016-05-29T13:29:04Z</time>
      </trkpt>
      <trkpt lat="46.324972" lon="13.799802">
        <ele>1792.9081979712</ele>
        <time>2016-05-29T13:29:12Z</time>
      </trkpt>
      <trkpt lat="46.324961" lon="13.799883">
        <ele>1791.9382097664</ele>
        <time>2016-05-29T13:29:19Z</time>
      </trkpt>
      <trkpt lat="46.324951" lon="13.799964">
        <ele>1790.2982297088</ele>
        <time>2016-05-29T13:29:26Z</time>
      </trkpt>
      <trkpt lat="46.324945" lon="13.800036">
        <ele>1788.8482473408</ele>
        <time>2016-05-29T13:29:31Z</time>
      </trkpt>
      <trkpt lat="46.324915" lon="13.800180">
        <ele>1786.4482765248</ele>
        <time>2016-05-29T13:29:42Z</time>
      </trkpt>
      <trkpt lat="46.324895" lon="13.800254">
        <ele>1784.278302912</ele>
        <time>2016-05-29T13:29:50Z</time>
      </trkpt>
      <trkpt lat="46.324884" lon="13.800321">
        <ele>1782.6183230976</ele>
        <time>2016-05-29T13:29:56Z</time>
      </trkpt>
      <trkpt lat="46.324885" lon="13.800441">
        <ele>1780.078353984</ele>
        <time>2016-05-29T13:30:05Z</time>
      </trkpt>
      <trkpt lat="46.324877" lon="13.800448">
        <ele>1779.8583566592</ele>
        <time>2016-05-29T13:30:06Z</time>
      </trkpt>
      <trkpt lat="46.324842" lon="13.800550">
        <ele>1777.1483896128</ele>
        <time>2016-05-29T13:30:16Z</time>
      </trkpt>
      <trkpt lat="46.324815" lon="13.800605">
        <ele>1775.9584040832</ele>
        <time>2016-05-29T13:30:21Z</time>
      </trkpt>
      <trkpt lat="46.324789" lon="13.800682">
        <ele>1774.5184215936</ele>
        <time>2016-05-29T13:30:27Z</time>
      </trkpt>
      <trkpt lat="46.324780" lon="13.800763">
        <ele>1773.2084375232</ele>
        <time>2016-05-29T13:30:32Z</time>
      </trkpt>
      <trkpt lat="46.324740" lon="13.800867">
        <ele>1771.2384614784</ele>
        <time>2016-05-29T13:30:40Z</time>
      </trkpt>
      <trkpt lat="46.324709" lon="13.800886">
        <ele>1770.528470112</ele>
        <time>2016-05-29T13:30:43Z</time>
      </trkpt>
      <trkpt lat="46.324631" lon="13.800917">
        <ele>1768.5984935808</ele>
        <time>2016-05-29T13:30:51Z</time>
      </trkpt>
      <trkpt lat="46.324555" lon="13.800937">
        <ele>1767.4185079296</ele>
        <time>2016-05-29T13:30:59Z</time>
      </trkpt>
      <trkpt lat="46.324519" lon="13.800952">
        <ele>1766.6885168064</ele>
        <time>2016-05-29T13:31:03Z</time>
      </trkpt>
      <trkpt lat="46.324466" lon="13.800999">
        <ele>1765.22853456</ele>
        <time>2016-05-29T13:31:08Z</time>
      </trkpt>
      <trkpt lat="46.324431" lon="13.801031">
        <ele>1764.6085420992</ele>
        <time>2016-05-29T13:31:12Z</time>
      </trkpt>
      <trkpt lat="46.324409" lon="13.801076">
        <ele>1763.6985531648</ele>
        <time>2016-05-29T13:31:17Z</time>
      </trkpt>
      <trkpt lat="46.324418" lon="13.801112">
        <ele>1763.0085615552</ele>
        <time>2016-05-29T13:31:19Z</time>
      </trkpt>
      <trkpt lat="46.324357" lon="13.801212">
        <ele>1761.2685827136</ele>
        <time>2016-05-29T13:31:27Z</time>
      </trkpt>
      <trkpt lat="46.324310" lon="13.801281">
        <ele>1759.8086004672</ele>
        <time>2016-05-29T13:31:35Z</time>
      </trkpt>
      <trkpt lat="46.324262" lon="13.801383">
        <ele>1757.2086320832</ele>
        <time>2016-05-29T13:31:46Z</time>
      </trkpt>
      <trkpt lat="46.324171" lon="13.801449">
        <ele>1754.6186635776</ele>
        <time>2016-05-29T13:31:56Z</time>
      </trkpt>
      <trkpt lat="46.324114" lon="13.801477">
        <ele>1752.6886870464</ele>
        <time>2016-05-29T13:32:05Z</time>
      </trkpt>
      <trkpt lat="46.324079" lon="13.801557">
        <ele>1750.678711488</ele>
        <time>2016-05-29T13:32:15Z</time>
      </trkpt>
      <trkpt lat="46.324071" lon="13.801606">
        <ele>1749.2487288768</ele>
        <time>2016-05-29T13:32:20Z</time>
      </trkpt>
      <trkpt lat="46.324045" lon="13.801667">
        <ele>1747.7587469952</ele>
        <time>2016-05-29T13:32:28Z</time>
      </trkpt>
      <trkpt lat="46.324023" lon="13.801678">
        <ele>1747.3187523456</ele>
        <time>2016-05-29T13:32:29Z</time>
      </trkpt>
      <trkpt lat="46.323967" lon="13.801753">
        <ele>1745.2387776384</ele>
        <time>2016-05-29T13:32:38Z</time>
      </trkpt>
      <trkpt lat="46.323931" lon="13.801828">
        <ele>1743.5487981888</ele>
        <time>2016-05-29T13:32:44Z</time>
      </trkpt>
      <trkpt lat="46.323924" lon="13.801836">
        <ele>1743.4087998912</ele>
        <time>2016-05-29T13:32:46Z</time>
      </trkpt>
      <trkpt lat="46.323830" lon="13.801884">
        <ele>1741.6388214144</ele>
        <time>2016-05-29T13:32:56Z</time>
      </trkpt>
      <trkpt lat="46.323741" lon="13.801922">
        <ele>1739.8388433024</ele>
        <time>2016-05-29T13:33:09Z</time>
      </trkpt>
      <trkpt lat="46.323705" lon="13.801932">
        <ele>1739.22885072</ele>
        <time>2016-05-29T13:33:11Z</time>
      </trkpt>
      <trkpt lat="46.323606" lon="13.801978">
        <ele>1737.6988693248</ele>
        <time>2016-05-29T13:33:21Z</time>
      </trkpt>
      <trkpt lat="46.323596" lon="13.801982">
        <ele>1737.5588710272</ele>
        <time>2016-05-29T13:33:22Z</time>
      </trkpt>
      <trkpt lat="46.323563" lon="13.802015">
        <ele>1736.9988778368</ele>
        <time>2016-05-29T13:33:26Z</time>
      </trkpt>
      <trkpt lat="46.323481" lon="13.802088">
        <ele>1735.6588941312</ele>
        <time>2016-05-29T13:33:34Z</time>
      </trkpt>
      <trkpt lat="46.323364" lon="13.802136">
        <ele>1733.1189250176</ele>
        <time>2016-05-29T13:33:45Z</time>
      </trkpt>
      <trkpt lat="46.323302" lon="13.802181">
        <ele>1731.7189420416</ele>
        <time>2016-05-29T13:33:52Z</time>
      </trkpt>
      <trkpt lat="46.323184" lon="13.802241">
        <ele>1729.4589695232</ele>
        <time>2016-05-29T13:34:03Z</time>
      </trkpt>
      <trkpt lat="46.323106" lon="13.802322">
        <ele>1728.6389794944</ele>
        <time>2016-05-29T13:34:11Z</time>
      </trkpt>
      <trkpt lat="46.323075" lon="13.802373">
        <ele>1728.5689803456</ele>
        <time>2016-05-29T13:34:15Z</time>
      </trkpt>
      <trkpt lat="46.323051" lon="13.802441">
        <ele>1727.9589877632</ele>
        <time>2016-05-29T13:34:23Z</time>
      </trkpt>
      <trkpt lat="46.322998" lon="13.802476">
        <ele>1727.378994816</ele>
        <time>2016-05-29T13:34:31Z</time>
      </trkpt>
      <trkpt lat="46.322981" lon="13.802485">
        <ele>1727.0889983424</ele>
        <time>2016-05-29T13:34:32Z</time>
      </trkpt>
      <trkpt lat="46.322940" lon="13.802570">
        <ele>1725.1890214464</ele>
        <time>2016-05-29T13:34:40Z</time>
      </trkpt>
      <trkpt lat="46.322910" lon="13.802636">
        <ele>1723.4690423616</ele>
        <time>2016-05-29T13:34:47Z</time>
      </trkpt>
      <trkpt lat="46.322877" lon="13.802688">
        <ele>1722.2190575616</ele>
        <time>2016-05-29T13:34:51Z</time>
      </trkpt>
      <trkpt lat="46.322870" lon="13.802748">
        <ele>1721.3890676544</ele>
        <time>2016-05-29T13:34:55Z</time>
      </trkpt>
      <trkpt lat="46.322811" lon="13.802847">
        <ele>1719.8190867456</ele>
        <time>2016-05-29T13:35:05Z</time>
      </trkpt>
      <trkpt lat="46.322774" lon="13.802906">
        <ele>1718.8690982976</ele>
        <time>2016-05-29T13:35:15Z</time>
      </trkpt>
      <trkpt lat="46.322755" lon="13.802994">
        <ele>1716.929121888</ele>
        <time>2016-05-29T13:35:26Z</time>
      </trkpt>
      <trkpt lat="46.322735" lon="13.803097">
        <ele>1714.9791456</ele>
        <time>2016-05-29T13:35:37Z</time>
      </trkpt>
      <trkpt lat="46.322708" lon="13.803155">
        <ele>1713.6391618944</ele>
        <time>2016-05-29T13:35:41Z</time>
      </trkpt>
      <trkpt lat="46.322664" lon="13.803238">
        <ele>1711.2891904704</ele>
        <time>2016-05-29T13:35:49Z</time>
      </trkpt>
      <trkpt lat="46.322637" lon="13.803324">
        <ele>1709.2992146688</ele>
        <time>2016-05-29T13:35:57Z</time>
      </trkpt>
      <trkpt lat="46.322584" lon="13.803455">
        <ele>1706.8892439744</ele>
        <time>2016-05-29T13:36:07Z</time>
      </trkpt>
      <trkpt lat="46.322560" lon="13.803549">
        <ele>1705.1092656192</ele>
        <time>2016-05-29T13:36:15Z</time>
      </trkpt>
      <trkpt lat="46.322540" lon="13.803684">
        <ele>1702.8692928576</ele>
        <time>2016-05-29T13:36:24Z</time>
      </trkpt>
      <trkpt lat="46.322497" lon="13.803732">
        <ele>1701.4093106112</ele>
        <time>2016-05-29T13:36:31Z</time>
      </trkpt>
      <trkpt lat="46.322451" lon="13.803795">
        <ele>1700.2493247168</ele>
        <time>2016-05-29T13:36:39Z</time>
      </trkpt>
      <trkpt lat="46.322429" lon="13.803806">
        <ele>1699.8493295808</ele>
        <time>2016-05-29T13:36:42Z</time>
      </trkpt>
      <trkpt lat="46.322402" lon="13.803838">
        <ele>1698.829341984</ele>
        <time>2016-05-29T13:36:46Z</time>
      </trkpt>
      <trkpt lat="46.322296" lon="13.803915">
        <ele>1697.2393613184</ele>
        <time>2016-05-29T13:36:55Z</time>
      </trkpt>
      <trkpt lat="46.322225" lon="13.804000">
        <ele>1695.7993788288</ele>
        <time>2016-05-29T13:37:06Z</time>
      </trkpt>
      <trkpt lat="46.322197" lon="13.804064">
        <ele>1694.7993909888</ele>
        <time>2016-05-29T13:37:13Z</time>
      </trkpt>
      <trkpt lat="46.322123" lon="13.804127">
        <ele>1692.9694132416</ele>
        <time>2016-05-29T13:37:22Z</time>
      </trkpt>
      <trkpt lat="46.322060" lon="13.804216">
        <ele>1690.8394391424</ele>
        <time>2016-05-29T13:37:33Z</time>
      </trkpt>
      <trkpt lat="46.321996" lon="13.804267">
        <ele>1689.1594595712</ele>
        <time>2016-05-29T13:37:43Z</time>
      </trkpt>
      <trkpt lat="46.321917" lon="13.804294">
        <ele>1687.6094784192</ele>
        <time>2016-05-29T13:37:52Z</time>
      </trkpt>
      <trkpt lat="46.321857" lon="13.804358">
        <ele>1686.2294952</ele>
        <time>2016-05-29T13:38:00Z</time>
      </trkpt>
      <trkpt lat="46.321771" lon="13.804450">
        <ele>1685.1395084544</ele>
        <time>2016-05-29T13:38:10Z</time>
      </trkpt>
      <trkpt lat="46.321726" lon="13.804483">
        <ele>1684.629514656</ele>
        <time>2016-05-29T13:38:15Z</time>
      </trkpt>
      <trkpt lat="46.321692" lon="13.804514">
        <ele>1684.1095209792</ele>
        <time>2016-05-29T13:38:19Z</time>
      </trkpt>
      <trkpt lat="46.321636" lon="13.804532">
        <ele>1683.8195245056</ele>
        <time>2016-05-29T13:38:23Z</time>
      </trkpt>
      <trkpt lat="46.321558" lon="13.804577">
        <ele>1683.9095234112</ele>
        <time>2016-05-29T13:38:33Z</time>
      </trkpt>
      <trkpt lat="46.321482" lon="13.804622">
        <ele>1683.6495265728</ele>
        <time>2016-05-29T13:38:42Z</time>
      </trkpt>
      <trkpt lat="46.321369" lon="13.804637">
        <ele>1683.0495338688</ele>
        <time>2016-05-29T13:38:54Z</time>
      </trkpt>
      <trkpt lat="46.321341" lon="13.804616">
        <ele>1682.829536544</ele>
        <time>2016-05-29T13:38:56Z</time>
      </trkpt>
      <trkpt lat="46.321314" lon="13.804602">
        <ele>1682.5395400704</ele>
        <time>2016-05-29T13:38:58Z</time>
      </trkpt>
      <trkpt lat="46.321178" lon="13.804601">
        <ele>1680.8395607424</ele>
        <time>2016-05-29T13:39:09Z</time>
      </trkpt>
      <trkpt lat="46.321096" lon="13.804646">
        <ele>1680.8195609856</ele>
        <time>2016-05-29T13:39:17Z</time>
      </trkpt>
      <trkpt lat="46.320994" lon="13.804682">
        <ele>1679.6695749696</ele>
        <time>2016-05-29T13:39:28Z</time>
      </trkpt>
      <trkpt lat="46.320941" lon="13.804781">
        <ele>1678.3895905344</ele>
        <time>2016-05-29T13:39:36Z</time>
      </trkpt>
      <trkpt lat="46.320911" lon="13.804827">
        <ele>1677.9395960064</ele>
        <time>2016-05-29T13:39:40Z</time>
      </trkpt>
      <trkpt lat="46.320816" lon="13.804875">
        <ele>1676.9096085312</ele>
        <time>2016-05-29T13:39:48Z</time>
      </trkpt>
      <trkpt lat="46.320796" lon="13.804883">
        <ele>1676.7996098688</ele>
        <time>2016-05-29T13:39:51Z</time>
      </trkpt>
      <trkpt lat="46.320730" lon="13.804940">
        <ele>1676.6496116928</ele>
        <time>2016-05-29T13:39:59Z</time>
      </trkpt>
      <trkpt lat="46.320689" lon="13.804995">
        <ele>1675.5596249472</ele>
        <time>2016-05-29T13:40:07Z</time>
      </trkpt>
      <trkpt lat="46.320623" lon="13.805090">
        <ele>1674.0596431872</ele>
        <time>2016-05-29T13:40:17Z</time>
      </trkpt>
      <trkpt lat="46.320568" lon="13.805157">
        <ele>1672.7896586304</ele>
        <time>2016-05-29T13:40:25Z</time>
      </trkpt>
      <trkpt lat="46.320524" lon="13.805168">
        <ele>1672.0896671424</ele>
        <time>2016-05-29T13:40:29Z</time>
      </trkpt>
      <trkpt lat="46.320462" lon="13.805230">
        <ele>1670.9996803968</ele>
        <time>2016-05-29T13:40:35Z</time>
      </trkpt>
      <trkpt lat="46.320434" lon="13.805260">
        <ele>1670.8496822208</ele>
        <time>2016-05-29T13:40:38Z</time>
      </trkpt>
      <trkpt lat="46.320343" lon="13.805327">
        <ele>1671.1896780864</ele>
        <time>2016-05-29T13:40:49Z</time>
      </trkpt>
      <trkpt lat="46.320267" lon="13.805352">
        <ele>1671.4096754112</ele>
        <time>2016-05-29T13:41:01Z</time>
      </trkpt>
      <trkpt lat="46.320172" lon="13.805349">
        <ele>1673.029655712</ele>
        <time>2016-05-29T13:41:13Z</time>
      </trkpt>
      <trkpt lat="46.320125" lon="13.805311">
        <ele>1674.1996414848</ele>
        <time>2016-05-29T13:41:23Z</time>
      </trkpt>
      <trkpt lat="46.320114" lon="13.805291">
        <ele>1674.2096413632</ele>
        <time>2016-05-29T13:41:38Z</time>
      </trkpt>
      <trkpt lat="46.320109" lon="13.805305">
        <ele>1674.3496396608</ele>
        <time>2016-05-29T13:41:50Z</time>
      </trkpt>
      <trkpt lat="46.320101" lon="13.805337">
        <ele>1674.279640512</ele>
        <time>2016-05-29T13:42:03Z</time>
      </trkpt>
      <trkpt lat="46.320079" lon="13.805337">
        <ele>1674.4396385664</ele>
        <time>2016-05-29T13:42:22Z</time>
      </trkpt>
      <trkpt lat="46.320108" lon="13.805326">
        <ele>1674.5096377152</ele>
        <time>2016-05-29T13:42:36Z</time>
      </trkpt>
      <trkpt lat="46.320099" lon="13.805322">
        <ele>1674.379639296</ele>
        <time>2016-05-29T13:42:46Z</time>
      </trkpt>
      <trkpt lat="46.320047" lon="13.805376">
        <ele>1674.3196400256</ele>
        <time>2016-05-29T13:42:57Z</time>
      </trkpt>
      <trkpt lat="46.320010" lon="13.805392">
        <ele>1674.2596407552</ele>
        <time>2016-05-29T13:43:01Z</time>
      </trkpt>
      <trkpt lat="46.319911" lon="13.805489">
        <ele>1673.4896501184</ele>
        <time>2016-05-29T13:43:12Z</time>
      </trkpt>
      <trkpt lat="46.319836" lon="13.805541">
        <ele>1672.779658752</ele>
        <time>2016-05-29T13:43:19Z</time>
      </trkpt>
      <trkpt lat="46.319771" lon="13.805637">
        <ele>1671.0196801536</ele>
        <time>2016-05-29T13:43:27Z</time>
      </trkpt>
      <trkpt lat="46.319709" lon="13.805769">
        <ele>1668.2897133504</ele>
        <time>2016-05-29T13:43:36Z</time>
      </trkpt>
      <trkpt lat="46.319666" lon="13.805844">
        <ele>1667.1597270912</ele>
        <time>2016-05-29T13:43:43Z</time>
      </trkpt>
      <trkpt lat="46.319650" lon="13.805888">
        <ele>1666.6997326848</ele>
        <time>2016-05-29T13:43:46Z</time>
      </trkpt>
      <trkpt lat="46.319612" lon="13.806058">
        <ele>1666.1097398592</ele>
        <time>2016-05-29T13:43:57Z</time>
      </trkpt>
      <trkpt lat="46.319584" lon="13.806173">
        <ele>1665.7497442368</ele>
        <time>2016-05-29T13:44:05Z</time>
      </trkpt>
      <trkpt lat="46.319577" lon="13.806213">
        <ele>1665.1097520192</ele>
        <time>2016-05-29T13:44:07Z</time>
      </trkpt>
      <trkpt lat="46.319573" lon="13.806262">
        <ele>1664.6397577344</ele>
        <time>2016-05-29T13:44:10Z</time>
      </trkpt>
      <trkpt lat="46.319548" lon="13.806376">
        <ele>1664.6997570048</ele>
        <time>2016-05-29T13:44:20Z</time>
      </trkpt>
      <trkpt lat="46.319485" lon="13.806431">
        <ele>1663.8397674624</ele>
        <time>2016-05-29T13:44:30Z</time>
      </trkpt>
      <trkpt lat="46.319418" lon="13.806479">
        <ele>1661.5497953088</ele>
        <time>2016-05-29T13:44:41Z</time>
      </trkpt>
      <trkpt lat="46.319340" lon="13.806509">
        <ele>1659.6598182912</ele>
        <time>2016-05-29T13:44:49Z</time>
      </trkpt>
      <trkpt lat="46.319327" lon="13.806508">
        <ele>1659.4598207232</ele>
        <time>2016-05-29T13:44:51Z</time>
      </trkpt>
      <trkpt lat="46.319306" lon="13.806510">
        <ele>1658.2898349504</ele>
        <time>2016-05-29T13:44:56Z</time>
      </trkpt>
      <trkpt lat="46.319248" lon="13.806473">
        <ele>1655.8998640128</ele>
        <time>2016-05-29T13:45:05Z</time>
      </trkpt>
      <trkpt lat="46.319190" lon="13.806445">
        <ele>1653.779889792</ele>
        <time>2016-05-29T13:45:15Z</time>
      </trkpt>
      <trkpt lat="46.319138" lon="13.806529">
        <ele>1652.0699105856</ele>
        <time>2016-05-29T13:45:23Z</time>
      </trkpt>
      <trkpt lat="46.319116" lon="13.806564">
        <ele>1651.1599216512</ele>
        <time>2016-05-29T13:45:27Z</time>
      </trkpt>
      <trkpt lat="46.319061" lon="13.806666">
        <ele>1649.2499448768</ele>
        <time>2016-05-29T13:45:38Z</time>
      </trkpt>
      <trkpt lat="46.319002" lon="13.806720">
        <ele>1647.629964576</ele>
        <time>2016-05-29T13:45:46Z</time>
      </trkpt>
      <trkpt lat="46.318955" lon="13.806800">
        <ele>1645.3399924224</ele>
        <time>2016-05-29T13:45:55Z</time>
      </trkpt>
      <trkpt lat="46.318894" lon="13.806872">
        <ele>1643.3500166208</ele>
        <time>2016-05-29T13:46:05Z</time>
      </trkpt>
      <trkpt lat="46.318878" lon="13.806971">
        <ele>1641.8900343744</ele>
        <time>2016-05-29T13:46:13Z</time>
      </trkpt>
      <trkpt lat="46.318808" lon="13.807083">
        <ele>1639.8900586944</ele>
        <time>2016-05-29T13:46:25Z</time>
      </trkpt>
      <trkpt lat="46.318785" lon="13.807148">
        <ele>1637.6600858112</ele>
        <time>2016-05-29T13:46:33Z</time>
      </trkpt>
      <trkpt lat="46.318758" lon="13.807230">
        <ele>1635.8401079424</ele>
        <time>2016-05-29T13:46:43Z</time>
      </trkpt>
      <trkpt lat="46.318729" lon="13.807320">
        <ele>1633.9701306816</ele>
        <time>2016-05-29T13:46:52Z</time>
      </trkpt>
      <trkpt lat="46.318669" lon="13.807434">
        <ele>1631.8101569472</ele>
        <time>2016-05-29T13:47:03Z</time>
      </trkpt>
      <trkpt lat="46.318624" lon="13.807547">
        <ele>1630.0901778624</ele>
        <time>2016-05-29T13:47:11Z</time>
      </trkpt>
      <trkpt lat="46.318576" lon="13.807612">
        <ele>1627.880204736</ele>
        <time>2016-05-29T13:47:22Z</time>
      </trkpt>
      <trkpt lat="46.318544" lon="13.807659">
        <ele>1625.5502330688</ele>
        <time>2016-05-29T13:47:34Z</time>
      </trkpt>
      <trkpt lat="46.318500" lon="13.807660">
        <ele>1625.1602378112</ele>
        <time>2016-05-29T13:47:37Z</time>
      </trkpt>
      <trkpt lat="46.318523" lon="13.807681">
        <ele>1623.6502561728</ele>
        <time>2016-05-29T13:47:47Z</time>
      </trkpt>
      <trkpt lat="46.318532" lon="13.807682">
        <ele>1623.4702583616</ele>
        <time>2016-05-29T13:47:49Z</time>
      </trkpt>
      <trkpt lat="46.318573" lon="13.807701">
        <ele>1621.98027648</ele>
        <time>2016-05-29T13:47:56Z</time>
      </trkpt>
      <trkpt lat="46.318665" lon="13.807740">
        <ele>1620.0403000704</ele>
        <time>2016-05-29T13:48:08Z</time>
      </trkpt>
      <trkpt lat="46.318713" lon="13.807868">
        <ele>1618.23032208</ele>
        <time>2016-05-29T13:48:18Z</time>
      </trkpt>
      <trkpt lat="46.318669" lon="13.807974">
        <ele>1615.830351264</ele>
        <time>2016-05-29T13:48:28Z</time>
      </trkpt>
      <trkpt lat="46.318619" lon="13.808015">
        <ele>1613.2903821504</ele>
        <time>2016-05-29T13:48:39Z</time>
      </trkpt>
      <trkpt lat="46.318591" lon="13.808075">
        <ele>1610.8204121856</ele>
        <time>2016-05-29T13:48:50Z</time>
      </trkpt>
      <trkpt lat="46.318530" lon="13.808120">
        <ele>1608.3204425856</ele>
        <time>2016-05-29T13:49:00Z</time>
      </trkpt>
      <trkpt lat="46.318471" lon="13.808095">
        <ele>1606.0504701888</ele>
        <time>2016-05-29T13:49:10Z</time>
      </trkpt>
      <trkpt lat="46.318474" lon="13.808108">
        <ele>1603.6204997376</ele>
        <time>2016-05-29T13:49:19Z</time>
      </trkpt>
      <trkpt lat="46.318485" lon="13.808198">
        <ele>1600.830533664</ele>
        <time>2016-05-29T13:49:27Z</time>
      </trkpt>
      <trkpt lat="46.318463" lon="13.808326">
        <ele>1597.7605709952</ele>
        <time>2016-05-29T13:49:38Z</time>
      </trkpt>
      <trkpt lat="46.318415" lon="13.808408">
        <ele>1595.030604192</ele>
        <time>2016-05-29T13:49:46Z</time>
      </trkpt>
      <trkpt lat="46.318375" lon="13.808481">
        <ele>1592.1906387264</ele>
        <time>2016-05-29T13:49:57Z</time>
      </trkpt>
      <trkpt lat="46.318333" lon="13.808557">
        <ele>1589.2906739904</ele>
        <time>2016-05-29T13:50:08Z</time>
      </trkpt>
      <trkpt lat="46.318277" lon="13.808608">
        <ele>1586.380709376</ele>
        <time>2016-05-29T13:50:17Z</time>
      </trkpt>
      <trkpt lat="46.318212" lon="13.808674">
        <ele>1584.1607363712</ele>
        <time>2016-05-29T13:50:28Z</time>
      </trkpt>
      <trkpt lat="46.318124" lon="13.808723">
        <ele>1582.1007614208</ele>
        <time>2016-05-29T13:50:40Z</time>
      </trkpt>
      <trkpt lat="46.318091" lon="13.808753">
        <ele>1581.280771392</ele>
        <time>2016-05-29T13:50:43Z</time>
      </trkpt>
      <trkpt lat="46.318027" lon="13.808823">
        <ele>1579.4207940096</ele>
        <time>2016-05-29T13:50:52Z</time>
      </trkpt>
      <trkpt lat="46.317992" lon="13.808930">
        <ele>1577.4808176</ele>
        <time>2016-05-29T13:51:03Z</time>
      </trkpt>
      <trkpt lat="46.317956" lon="13.809071">
        <ele>1575.3708432576</ele>
        <time>2016-05-29T13:51:14Z</time>
      </trkpt>
      <trkpt lat="46.317940" lon="13.809197">
        <ele>1574.1208584576</ele>
        <time>2016-05-29T13:51:21Z</time>
      </trkpt>
      <trkpt lat="46.317875" lon="13.809353">
        <ele>1573.2408691584</ele>
        <time>2016-05-29T13:51:30Z</time>
      </trkpt>
      <trkpt lat="46.317818" lon="13.809434">
        <ele>1571.630888736</ele>
        <time>2016-05-29T13:51:41Z</time>
      </trkpt>
      <trkpt lat="46.317756" lon="13.809471">
        <ele>1570.3609041792</ele>
        <time>2016-05-29T13:51:50Z</time>
      </trkpt>
      <trkpt lat="46.317673" lon="13.809517">
        <ele>1568.1909305664</ele>
        <time>2016-05-29T13:52:01Z</time>
      </trkpt>
      <trkpt lat="46.317604" lon="13.809520">
        <ele>1565.8509590208</ele>
        <time>2016-05-29T13:52:11Z</time>
      </trkpt>
      <trkpt lat="46.317563" lon="13.809540">
        <ele>1563.1509918528</ele>
        <time>2016-05-29T13:52:21Z</time>
      </trkpt>
      <trkpt lat="46.317516" lon="13.809640">
        <ele>1561.73100912</ele>
        <time>2016-05-29T13:52:30Z</time>
      </trkpt>
      <trkpt lat="46.317397" lon="13.809652">
        <ele>1559.5710353856</ele>
        <time>2016-05-29T13:52:42Z</time>
      </trkpt>
      <trkpt lat="46.317323" lon="13.809633">
        <ele>1557.4910606784</ele>
        <time>2016-05-29T13:52:54Z</time>
      </trkpt>
      <trkpt lat="46.317262" lon="13.809713">
        <ele>1556.1610768512</ele>
        <time>2016-05-29T13:53:02Z</time>
      </trkpt>
      <trkpt lat="46.317181" lon="13.809729">
        <ele>1554.8710925376</ele>
        <time>2016-05-29T13:53:11Z</time>
      </trkpt>
      <trkpt lat="46.317120" lon="13.809763">
        <ele>1553.5211089536</ele>
        <time>2016-05-29T13:53:22Z</time>
      </trkpt>
      <trkpt lat="46.317127" lon="13.809818">
        <ele>1552.5911202624</ele>
        <time>2016-05-29T13:53:32Z</time>
      </trkpt>
      <trkpt lat="46.317109" lon="13.809840">
        <ele>1552.2711241536</ele>
        <time>2016-05-29T13:53:33Z</time>
      </trkpt>
      <trkpt lat="46.317063" lon="13.809922">
        <ele>1550.2211490816</ele>
        <time>2016-05-29T13:53:44Z</time>
      </trkpt>
      <trkpt lat="46.316941" lon="13.810011">
        <ele>1547.931176928</ele>
        <time>2016-05-29T13:53:55Z</time>
      </trkpt>
      <trkpt lat="46.316899" lon="13.810011">
        <ele>1547.131186656</ele>
        <time>2016-05-29T13:53:59Z</time>
      </trkpt>
      <trkpt lat="46.316830" lon="13.810044">
        <ele>1545.4512070848</ele>
        <time>2016-05-29T13:54:08Z</time>
      </trkpt>
      <trkpt lat="46.316786" lon="13.810112">
        <ele>1543.48123104</ele>
        <time>2016-05-29T13:54:19Z</time>
      </trkpt>
      <trkpt lat="46.316729" lon="13.810207">
        <ele>1541.1712591296</ele>
        <time>2016-05-29T13:54:30Z</time>
      </trkpt>
      <trkpt lat="46.316686" lon="13.810275">
        <ele>1539.3212816256</ele>
        <time>2016-05-29T13:54:41Z</time>
      </trkpt>
      <trkpt lat="46.316623" lon="13.810355">
        <ele>1537.8712992576</ele>
        <time>2016-05-29T13:54:51Z</time>
      </trkpt>
      <trkpt lat="46.316612" lon="13.810361">
        <ele>1537.5213035136</ele>
        <time>2016-05-29T13:54:54Z</time>
      </trkpt>
      <trkpt lat="46.316518" lon="13.810418">
        <ele>1535.5613273472</ele>
        <time>2016-05-29T13:55:03Z</time>
      </trkpt>
      <trkpt lat="46.316488" lon="13.810462">
        <ele>1535.0113340352</ele>
        <time>2016-05-29T13:55:06Z</time>
      </trkpt>
      <trkpt lat="46.316438" lon="13.810592">
        <ele>1533.5413519104</ele>
        <time>2016-05-29T13:55:14Z</time>
      </trkpt>
      <trkpt lat="46.316394" lon="13.810685">
        <ele>1532.6113632192</ele>
        <time>2016-05-29T13:55:22Z</time>
      </trkpt>
      <trkpt lat="46.316326" lon="13.810782">
        <ele>1531.7913731904</ele>
        <time>2016-05-29T13:55:33Z</time>
      </trkpt>
      <trkpt lat="46.316268" lon="13.810836">
        <ele>1529.23140432</ele>
        <time>2016-05-29T13:55:44Z</time>
      </trkpt>
      <trkpt lat="46.316212" lon="13.810872">
        <ele>1527.5714245056</ele>
        <time>2016-05-29T13:55:51Z</time>
      </trkpt>
      <trkpt lat="46.316126" lon="13.810963">
        <ele>1525.431450528</ele>
        <time>2016-05-29T13:56:00Z</time>
      </trkpt>
      <trkpt lat="46.316012" lon="13.811024">
        <ele>1522.1014910208</ele>
        <time>2016-05-29T13:56:10Z</time>
      </trkpt>
      <trkpt lat="46.315965" lon="13.811054">
        <ele>1520.7415075584</ele>
        <time>2016-05-29T13:56:15Z</time>
      </trkpt>
      <trkpt lat="46.315895" lon="13.811066">
        <ele>1519.6415209344</ele>
        <time>2016-05-29T13:56:19Z</time>
      </trkpt>
      <trkpt lat="46.315786" lon="13.811113">
        <ele>1518.4615352832</ele>
        <time>2016-05-29T13:56:26Z</time>
      </trkpt>
      <trkpt lat="46.315679" lon="13.811151">
        <ele>1517.8515427008</ele>
        <time>2016-05-29T13:56:34Z</time>
      </trkpt>
      <trkpt lat="46.315638" lon="13.811168">
        <ele>1518.0615401472</ele>
        <time>2016-05-29T13:56:38Z</time>
      </trkpt>
      <trkpt lat="46.315623" lon="13.811189">
        <ele>1518.5115346752</ele>
        <time>2016-05-29T13:56:47Z</time>
      </trkpt>
      <trkpt lat="46.315596" lon="13.811266">
        <ele>1519.1215272576</ele>
        <time>2016-05-29T13:57:21Z</time>
      </trkpt>
      <trkpt lat="46.315588" lon="13.811361">
        <ele>1519.8515183808</ele>
        <time>2016-05-29T14:02:06Z</time>
      </trkpt>
      <trkpt lat="46.315521" lon="13.811439">
        <ele>1520.031516192</ele>
        <time>2016-05-29T14:02:14Z</time>
      </trkpt>
      <trkpt lat="46.315499" lon="13.811481">
        <ele>1520.031516192</ele>
        <time>2016-05-29T14:02:18Z</time>
      </trkpt>
      <trkpt lat="46.315464" lon="13.811538">
        <ele>1520.0615158272</ele>
        <time>2016-05-29T14:02:22Z</time>
      </trkpt>
      <trkpt lat="46.315374" lon="13.811655">
        <ele>1520.5915093824</ele>
        <time>2016-05-29T14:02:32Z</time>
      </trkpt>
      <trkpt lat="46.315293" lon="13.811752">
        <ele>1522.3114884672</ele>
        <time>2016-05-29T14:02:41Z</time>
      </trkpt>
      <trkpt lat="46.315223" lon="13.811813">
        <ele>1523.381475456</ele>
        <time>2016-05-29T14:02:48Z</time>
      </trkpt>
      <trkpt lat="46.315172" lon="13.811871">
        <ele>1523.7014715648</ele>
        <time>2016-05-29T14:02:52Z</time>
      </trkpt>
      <trkpt lat="46.315152" lon="13.811894">
        <ele>1523.8114702272</ele>
        <time>2016-05-29T14:02:55Z</time>
      </trkpt>
      <trkpt lat="46.315083" lon="13.811926">
        <ele>1524.1114665792</ele>
        <time>2016-05-29T14:03:01Z</time>
      </trkpt>
      <trkpt lat="46.315069" lon="13.811993">
        <ele>1524.4614623232</ele>
        <time>2016-05-29T14:03:07Z</time>
      </trkpt>
      <trkpt lat="46.315008" lon="13.812066">
        <ele>1525.3714512576</ele>
        <time>2016-05-29T14:03:15Z</time>
      </trkpt>
      <trkpt lat="46.314986" lon="13.812102">
        <ele>1525.6414479744</ele>
        <time>2016-05-29T14:03:18Z</time>
      </trkpt>
      <trkpt lat="46.314946" lon="13.812193">
        <ele>1526.0914425024</ele>
        <time>2016-05-29T14:03:26Z</time>
      </trkpt>
      <trkpt lat="46.314944" lon="13.812206">
        <ele>1526.1614416512</ele>
        <time>2016-05-29T14:03:27Z</time>
      </trkpt>
      <trkpt lat="46.314929" lon="13.812350">
        <ele>1526.2914400704</ele>
        <time>2016-05-29T14:03:36Z</time>
      </trkpt>
      <trkpt lat="46.314916" lon="13.812476">
        <ele>1525.881445056</ele>
        <time>2016-05-29T14:03:46Z</time>
      </trkpt>
      <trkpt lat="46.314928" lon="13.812523">
        <ele>1526.2214409216</ele>
        <time>2016-05-29T14:03:51Z</time>
      </trkpt>
      <trkpt lat="46.314944" lon="13.812532">
        <ele>1526.2014411648</ele>
        <time>2016-05-29T14:04:02Z</time>
      </trkpt>
      <trkpt lat="46.314939" lon="13.812532">
        <ele>1526.6214360576</ele>
        <time>2016-05-29T14:04:13Z</time>
      </trkpt>
      <trkpt lat="46.314913" lon="13.812582">
        <ele>1526.881432896</ele>
        <time>2016-05-29T14:04:20Z</time>
      </trkpt>
      <trkpt lat="46.314897" lon="13.812698">
        <ele>1527.4114264512</ele>
        <time>2016-05-29T14:04:26Z</time>
      </trkpt>
      <trkpt lat="46.314870" lon="13.812834">
        <ele>1526.8214336256</ele>
        <time>2016-05-29T14:04:36Z</time>
      </trkpt>
      <trkpt lat="46.314864" lon="13.812850">
        <ele>1526.6714354496</ele>
        <time>2016-05-29T14:04:37Z</time>
      </trkpt>
      <trkpt lat="46.314863" lon="13.812920">
        <ele>1526.7114349632</ele>
        <time>2016-05-29T14:04:40Z</time>
      </trkpt>
      <trkpt lat="46.314883" lon="13.812981">
        <ele>1527.0114313152</ele>
        <time>2016-05-29T14:04:44Z</time>
      </trkpt>
      <trkpt lat="46.314937" lon="13.813141">
        <ele>1527.6914230464</ele>
        <time>2016-05-29T14:04:53Z</time>
      </trkpt>
      <trkpt lat="46.314971" lon="13.813276">
        <ele>1528.2014168448</ele>
        <time>2016-05-29T14:05:02Z</time>
      </trkpt>
      <trkpt lat="46.315019" lon="13.813380">
        <ele>1528.8414090624</ele>
        <time>2016-05-29T14:05:10Z</time>
      </trkpt>
      <trkpt lat="46.315072" lon="13.813525">
        <ele>1530.0513943488</ele>
        <time>2016-05-29T14:05:22Z</time>
      </trkpt>
      <trkpt lat="46.315058" lon="13.813684">
        <ele>1531.1413810944</ele>
        <time>2016-05-29T14:05:34Z</time>
      </trkpt>
      <trkpt lat="46.315050" lon="13.813707">
        <ele>1531.431377568</ele>
        <time>2016-05-29T14:05:35Z</time>
      </trkpt>
      <trkpt lat="46.315026" lon="13.813803">
        <ele>1531.9113717312</ele>
        <time>2016-05-29T14:05:42Z</time>
      </trkpt>
      <trkpt lat="46.314993" lon="13.813824">
        <ele>1531.9613711232</ele>
        <time>2016-05-29T14:05:45Z</time>
      </trkpt>
      <trkpt lat="46.314951" lon="13.813860">
        <ele>1531.9913707584</ele>
        <time>2016-05-29T14:05:49Z</time>
      </trkpt>
      <trkpt lat="46.314854" lon="13.813919">
        <ele>1532.1113692992</ele>
        <time>2016-05-29T14:05:58Z</time>
      </trkpt>
      <trkpt lat="46.314788" lon="13.813946">
        <ele>1531.9513712448</ele>
        <time>2016-05-29T14:06:04Z</time>
      </trkpt>
      <trkpt lat="46.314709" lon="13.813962">
        <ele>1531.0113826752</ele>
        <time>2016-05-29T14:06:12Z</time>
      </trkpt>
      <trkpt lat="46.314691" lon="13.813977">
        <ele>1530.5913877824</ele>
        <time>2016-05-29T14:06:13Z</time>
      </trkpt>
      <trkpt lat="46.314635" lon="13.814053">
        <ele>1529.8713965376</ele>
        <time>2016-05-29T14:06:20Z</time>
      </trkpt>
      <trkpt lat="46.314586" lon="13.814154">
        <ele>1527.931420128</ele>
        <time>2016-05-29T14:06:28Z</time>
      </trkpt>
      <trkpt lat="46.314564" lon="13.814231">
        <ele>1526.7914339904</ele>
        <time>2016-05-29T14:06:32Z</time>
      </trkpt>
      <trkpt lat="46.314530" lon="13.814327">
        <ele>1525.9014448128</ele>
        <time>2016-05-29T14:06:39Z</time>
      </trkpt>
      <trkpt lat="46.314477" lon="13.814471">
        <ele>1524.531461472</ele>
        <time>2016-05-29T14:06:48Z</time>
      </trkpt>
      <trkpt lat="46.314446" lon="13.814593">
        <ele>1523.5914729024</ele>
        <time>2016-05-29T14:06:56Z</time>
      </trkpt>
      <trkpt lat="46.314441" lon="13.814609">
        <ele>1523.5214737536</ele>
        <time>2016-05-29T14:06:58Z</time>
      </trkpt>
      <trkpt lat="46.314434" lon="13.814769">
        <ele>1523.181477888</ele>
        <time>2016-05-29T14:07:06Z</time>
      </trkpt>
      <trkpt lat="46.314430" lon="13.814786">
        <ele>1523.1014788608</ele>
        <time>2016-05-29T14:07:07Z</time>
      </trkpt>
      <trkpt lat="46.314424" lon="13.814956">
        <ele>1522.1414905344</ele>
        <time>2016-05-29T14:07:15Z</time>
      </trkpt>
      <trkpt lat="46.314414" lon="13.815013">
        <ele>1521.5614975872</ele>
        <time>2016-05-29T14:07:19Z</time>
      </trkpt>
      <trkpt lat="46.314413" lon="13.815111">
        <ele>1520.6515086528</ele>
        <time>2016-05-29T14:07:23Z</time>
      </trkpt>
      <trkpt lat="46.314399" lon="13.815148">
        <ele>1520.3915118144</ele>
        <time>2016-05-29T14:07:26Z</time>
      </trkpt>
      <trkpt lat="46.314368" lon="13.815247">
        <ele>1519.331524704</ele>
        <time>2016-05-29T14:07:31Z</time>
      </trkpt>
      <trkpt lat="46.314354" lon="13.815313">
        <ele>1518.5115346752</ele>
        <time>2016-05-29T14:07:37Z</time>
      </trkpt>
      <trkpt lat="46.314348" lon="13.815378">
        <ele>1517.5915458624</ele>
        <time>2016-05-29T14:07:42Z</time>
      </trkpt>
      <trkpt lat="46.314354" lon="13.815468">
        <ele>1516.6215576576</ele>
        <time>2016-05-29T14:07:49Z</time>
      </trkpt>
      <trkpt lat="46.314334" lon="13.815609">
        <ele>1514.4715838016</ele>
        <time>2016-05-29T14:07:57Z</time>
      </trkpt>
      <trkpt lat="46.314316" lon="13.815725">
        <ele>1512.3516095808</ele>
        <time>2016-05-29T14:08:09Z</time>
      </trkpt>
      <trkpt lat="46.314315" lon="13.815757">
        <ele>1512.0416133504</ele>
        <time>2016-05-29T14:08:11Z</time>
      </trkpt>
      <trkpt lat="46.314303" lon="13.815828">
        <ele>1511.0716251456</ele>
        <time>2016-05-29T14:08:16Z</time>
      </trkpt>
      <trkpt lat="46.314303" lon="13.815911">
        <ele>1510.1716360896</ele>
        <time>2016-05-29T14:08:21Z</time>
      </trkpt>
      <trkpt lat="46.314289" lon="13.816055">
        <ele>1508.7916528704</ele>
        <time>2016-05-29T14:08:31Z</time>
      </trkpt>
      <trkpt lat="46.314290" lon="13.816196">
        <ele>1507.5016685568</ele>
        <time>2016-05-29T14:08:42Z</time>
      </trkpt>
      <trkpt lat="46.314261" lon="13.816315">
        <ele>1505.7716895936</ele>
        <time>2016-05-29T14:08:51Z</time>
      </trkpt>
      <trkpt lat="46.314222" lon="13.816457">
        <ele>1504.281707712</ele>
        <time>2016-05-29T14:09:02Z</time>
      </trkpt>
      <trkpt lat="46.314148" lon="13.816550">
        <ele>1502.9117243712</ele>
        <time>2016-05-29T14:09:10Z</time>
      </trkpt>
      <trkpt lat="46.314092" lon="13.816629">
        <ele>1500.5117535552</ele>
        <time>2016-05-29T14:09:22Z</time>
      </trkpt>
      <trkpt lat="46.314055" lon="13.816722">
        <ele>1497.8517859008</ele>
        <time>2016-05-29T14:09:33Z</time>
      </trkpt>
      <trkpt lat="46.314023" lon="13.816773">
        <ele>1495.9118094912</ele>
        <time>2016-05-29T14:09:40Z</time>
      </trkpt>
      <trkpt lat="46.314012" lon="13.816862">
        <ele>1493.5618380672</ele>
        <time>2016-05-29T14:09:49Z</time>
      </trkpt>
      <trkpt lat="46.313975" lon="13.816987">
        <ele>1490.6718732096</ele>
        <time>2016-05-29T14:10:01Z</time>
      </trkpt>
      <trkpt lat="46.313957" lon="13.817069">
        <ele>1489.031893152</ele>
        <time>2016-05-29T14:10:09Z</time>
      </trkpt>
      <trkpt lat="46.313943" lon="13.817258">
        <ele>1486.431924768</ele>
        <time>2016-05-29T14:10:21Z</time>
      </trkpt>
      <trkpt lat="46.313958" lon="13.817288">
        <ele>1485.781932672</ele>
        <time>2016-05-29T14:10:31Z</time>
      </trkpt>
      <trkpt lat="46.313899" lon="13.817314">
        <ele>1486.2419270784</ele>
        <time>2016-05-29T14:10:43Z</time>
      </trkpt>
      <trkpt lat="46.313890" lon="13.817346">
        <ele>1486.2919264704</ele>
        <time>2016-05-29T14:10:48Z</time>
      </trkpt>
      <trkpt lat="46.313863" lon="13.817415">
        <ele>1485.9719303616</ele>
        <time>2016-05-29T14:11:02Z</time>
      </trkpt>
      <trkpt lat="46.313830" lon="13.817386">
        <ele>1486.2119274432</ele>
        <time>2016-05-29T14:11:10Z</time>
      </trkpt>
      <trkpt lat="46.313758" lon="13.817410">
        <ele>1483.9919544384</ele>
        <time>2016-05-29T14:11:21Z</time>
      </trkpt>
      <trkpt lat="46.313730" lon="13.817427">
        <ele>1483.48196064</ele>
        <time>2016-05-29T14:11:24Z</time>
      </trkpt>
      <trkpt lat="46.313704" lon="13.817450">
        <ele>1483.1419647744</ele>
        <time>2016-05-29T14:11:25Z</time>
      </trkpt>
      <trkpt lat="46.313613" lon="13.817493">
        <ele>1481.081989824</ele>
        <time>2016-05-29T14:11:34Z</time>
      </trkpt>
      <trkpt lat="46.313582" lon="13.817528">
        <ele>1478.2220246016</ele>
        <time>2016-05-29T14:11:45Z</time>
      </trkpt>
      <trkpt lat="46.313570" lon="13.817507">
        <ele>1477.4620338432</ele>
        <time>2016-05-29T14:11:57Z</time>
      </trkpt>
      <trkpt lat="46.313633" lon="13.817475">
        <ele>1478.3520230208</ele>
        <time>2016-05-29T14:12:07Z</time>
      </trkpt>
      <trkpt lat="46.313690" lon="13.817398">
        <ele>1480.032002592</ele>
        <time>2016-05-29T14:12:18Z</time>
      </trkpt>
      <trkpt lat="46.313738" lon="13.817427">
        <ele>1481.331986784</ele>
        <time>2016-05-29T14:12:27Z</time>
      </trkpt>
      <trkpt lat="46.313722" lon="13.817504">
        <ele>1483.081965504</ele>
        <time>2016-05-29T14:12:38Z</time>
      </trkpt>
      <trkpt lat="46.313724" lon="13.817587">
        <ele>1484.4219492096</ele>
        <time>2016-05-29T14:12:47Z</time>
      </trkpt>
      <trkpt lat="46.313736" lon="13.817599">
        <ele>1484.681946048</ele>
        <time>2016-05-29T14:12:49Z</time>
      </trkpt>
      <trkpt lat="46.313748" lon="13.817679">
        <ele>1486.4019251328</ele>
        <time>2016-05-29T14:13:02Z</time>
      </trkpt>
      <trkpt lat="46.313783" lon="13.817786">
        <ele>1486.1619280512</ele>
        <time>2016-05-29T14:13:14Z</time>
      </trkpt>
      <trkpt lat="46.313787" lon="13.817931">
        <ele>1485.2419392384</ele>
        <time>2016-05-29T14:13:25Z</time>
      </trkpt>
      <trkpt lat="46.313773" lon="13.818128">
        <ele>1485.4419368064</ele>
        <time>2016-05-29T14:13:37Z</time>
      </trkpt>
      <trkpt lat="46.313749" lon="13.818278">
        <ele>1486.1919276864</ele>
        <time>2016-05-29T14:13:45Z</time>
      </trkpt>
      <trkpt lat="46.313752" lon="13.818306">
        <ele>1486.2919264704</ele>
        <time>2016-05-29T14:13:48Z</time>
      </trkpt>
      <trkpt lat="46.313775" lon="13.818470">
        <ele>1485.7219334016</ele>
        <time>2016-05-29T14:14:00Z</time>
      </trkpt>
      <trkpt lat="46.313769" lon="13.818544">
        <ele>1483.8519561408</ele>
        <time>2016-05-29T14:14:10Z</time>
      </trkpt>
      <trkpt lat="46.313747" lon="13.818591">
        <ele>1483.1119651392</ele>
        <time>2016-05-29T14:14:14Z</time>
      </trkpt>
      <trkpt lat="46.313679" lon="13.818724">
        <ele>1481.081989824</ele>
        <time>2016-05-29T14:14:23Z</time>
      </trkpt>
      <trkpt lat="46.313630" lon="13.818832">
        <ele>1479.3420109824</ele>
        <time>2016-05-29T14:14:34Z</time>
      </trkpt>
      <trkpt lat="46.313532" lon="13.818945">
        <ele>1478.2920237504</ele>
        <time>2016-05-29T14:14:43Z</time>
      </trkpt>
      <trkpt lat="46.313458" lon="13.819085">
        <ele>1477.1020382208</ele>
        <time>2016-05-29T14:14:54Z</time>
      </trkpt>
      <trkpt lat="46.313389" lon="13.819212">
        <ele>1476.0220513536</ele>
        <time>2016-05-29T14:15:05Z</time>
      </trkpt>
      <trkpt lat="46.313355" lon="13.819328">
        <ele>1474.9720641216</ele>
        <time>2016-05-29T14:15:16Z</time>
      </trkpt>
      <trkpt lat="46.313334" lon="13.819509">
        <ele>1474.2620727552</ele>
        <time>2016-05-29T14:15:28Z</time>
      </trkpt>
      <trkpt lat="46.313339" lon="13.819727">
        <ele>1472.5020941568</ele>
        <time>2016-05-29T14:15:39Z</time>
      </trkpt>
      <trkpt lat="46.313343" lon="13.819831">
        <ele>1471.432107168</ele>
        <time>2016-05-29T14:15:48Z</time>
      </trkpt>
      <trkpt lat="46.313341" lon="13.819943">
        <ele>1471.0221121536</ele>
        <time>2016-05-29T14:15:54Z</time>
      </trkpt>
      <trkpt lat="46.313326" lon="13.820091">
        <ele>1471.1421106944</ele>
        <time>2016-05-29T14:16:00Z</time>
      </trkpt>
      <trkpt lat="46.313311" lon="13.820110">
        <ele>1471.2021099648</ele>
        <time>2016-05-29T14:16:03Z</time>
      </trkpt>
      <trkpt lat="46.313314" lon="13.820154">
        <ele>1471.3421082624</ele>
        <time>2016-05-29T14:16:06Z</time>
      </trkpt>
      <trkpt lat="46.313304" lon="13.820201">
        <ele>1471.3621080192</ele>
        <time>2016-05-29T14:16:08Z</time>
      </trkpt>
      <trkpt lat="46.313302" lon="13.820255">
        <ele>1471.2221097216</ele>
        <time>2016-05-29T14:16:11Z</time>
      </trkpt>
      <trkpt lat="46.313294" lon="13.820339">
        <ele>1470.682116288</ele>
        <time>2016-05-29T14:16:17Z</time>
      </trkpt>
      <trkpt lat="46.313283" lon="13.820376">
        <ele>1470.4521190848</ele>
        <time>2016-05-29T14:16:19Z</time>
      </trkpt>
      <trkpt lat="46.313134" lon="13.820527">
        <ele>1469.5121305152</ele>
        <time>2016-05-29T14:16:29Z</time>
      </trkpt>
      <trkpt lat="46.313045" lon="13.820598">
        <ele>1468.9221376896</ele>
        <time>2016-05-29T14:16:37Z</time>
      </trkpt>
      <trkpt lat="46.312961" lon="13.820716">
        <ele>1469.7521275968</ele>
        <time>2016-05-29T14:16:46Z</time>
      </trkpt>
      <trkpt lat="46.312888" lon="13.820826">
        <ele>1469.9721249216</ele>
        <time>2016-05-29T14:16:56Z</time>
      </trkpt>
      <trkpt lat="46.312817" lon="13.820936">
        <ele>1469.3521324608</ele>
        <time>2016-05-29T14:17:05Z</time>
      </trkpt>
      <trkpt lat="46.312737" lon="13.821063">
        <ele>1469.8921258944</ele>
        <time>2016-05-29T14:17:15Z</time>
      </trkpt>
      <trkpt lat="46.312643" lon="13.821200">
        <ele>1469.132135136</ele>
        <time>2016-05-29T14:17:27Z</time>
      </trkpt>
      <trkpt lat="46.312564" lon="13.821336">
        <ele>1468.0521482688</ele>
        <time>2016-05-29T14:17:36Z</time>
      </trkpt>
      <trkpt lat="46.312483" lon="13.821462">
        <ele>1467.0921599424</ele>
        <time>2016-05-29T14:17:46Z</time>
      </trkpt>
      <trkpt lat="46.312364" lon="13.821556">
        <ele>1465.1521835328</ele>
        <time>2016-05-29T14:17:56Z</time>
      </trkpt>
      <trkpt lat="46.312319" lon="13.821589">
        <ele>1463.432204448</ele>
        <time>2016-05-29T14:18:07Z</time>
      </trkpt>
      <trkpt lat="46.312277" lon="13.821578">
        <ele>1463.1922073664</ele>
        <time>2016-05-29T14:18:10Z</time>
      </trkpt>
      <trkpt lat="46.312235" lon="13.821576">
        <ele>1463.2722063936</ele>
        <time>2016-05-29T14:18:15Z</time>
      </trkpt>
      <trkpt lat="46.312173" lon="13.821602">
        <ele>1462.73221296</ele>
        <time>2016-05-29T14:18:30Z</time>
      </trkpt>
      <trkpt lat="46.312151" lon="13.821722">
        <ele>1462.3722173376</ele>
        <time>2016-05-29T14:18:38Z</time>
      </trkpt>
      <trkpt lat="46.312111" lon="13.821808">
        <ele>1460.8122363072</ele>
        <time>2016-05-29T14:18:48Z</time>
      </trkpt>
      <trkpt lat="46.312104" lon="13.821821">
        <ele>1460.6022388608</ele>
        <time>2016-05-29T14:18:49Z</time>
      </trkpt>
      <trkpt lat="46.312036" lon="13.821950">
        <ele>1458.6522625728</ele>
        <time>2016-05-29T14:18:57Z</time>
      </trkpt>
      <trkpt lat="46.312006" lon="13.822004">
        <ele>1457.782273152</ele>
        <time>2016-05-29T14:19:03Z</time>
      </trkpt>
      <trkpt lat="46.311962" lon="13.822116">
        <ele>1456.5722878656</ele>
        <time>2016-05-29T14:19:11Z</time>
      </trkpt>
      <trkpt lat="46.311938" lon="13.822160">
        <ele>1456.3722902976</ele>
        <time>2016-05-29T14:19:13Z</time>
      </trkpt>
      <trkpt lat="46.311875" lon="13.822277">
        <ele>1455.9522954048</ele>
        <time>2016-05-29T14:19:20Z</time>
      </trkpt>
      <trkpt lat="46.311853" lon="13.822361">
        <ele>1455.5723000256</ele>
        <time>2016-05-29T14:19:27Z</time>
      </trkpt>
      <trkpt lat="46.311847" lon="13.822404">
        <ele>1455.4223018496</ele>
        <time>2016-05-29T14:19:30Z</time>
      </trkpt>
      <trkpt lat="46.311828" lon="13.822447">
        <ele>1455.3023033088</ele>
        <time>2016-05-29T14:19:32Z</time>
      </trkpt>
      <trkpt lat="46.311827" lon="13.822477">
        <ele>1455.1723048896</ele>
        <time>2016-05-29T14:19:35Z</time>
      </trkpt>
      <trkpt lat="46.311831" lon="13.822594">
        <ele>1455.3723024576</ele>
        <time>2016-05-29T14:19:42Z</time>
      </trkpt>
      <trkpt lat="46.311829" lon="13.822721">
        <ele>1455.3723024576</ele>
        <time>2016-05-29T14:19:51Z</time>
      </trkpt>
      <trkpt lat="46.311838" lon="13.822815">
        <ele>1453.6423234944</ele>
        <time>2016-05-29T14:19:59Z</time>
      </trkpt>
      <trkpt lat="46.311792" lon="13.822875">
        <ele>1452.182341248</ele>
        <time>2016-05-29T14:20:09Z</time>
      </trkpt>
      <trkpt lat="46.311745" lon="13.822961">
        <ele>1450.7123591232</ele>
        <time>2016-05-29T14:20:18Z</time>
      </trkpt>
      <trkpt lat="46.311683" lon="13.823054">
        <ele>1448.4623864832</ele>
        <time>2016-05-29T14:20:26Z</time>
      </trkpt>
      <trkpt lat="46.311615" lon="13.823149">
        <ele>1445.6724204096</ele>
        <time>2016-05-29T14:20:37Z</time>
      </trkpt>
      <trkpt lat="46.311604" lon="13.823229">
        <ele>1444.5224343936</ele>
        <time>2016-05-29T14:20:45Z</time>
      </trkpt>
      <trkpt lat="46.311546" lon="13.823350">
        <ele>1443.0624521472</ele>
        <time>2016-05-29T14:20:56Z</time>
      </trkpt>
      <trkpt lat="46.311480" lon="13.823452">
        <ele>1442.432459808</ele>
        <time>2016-05-29T14:21:08Z</time>
      </trkpt>
      <trkpt lat="46.311382" lon="13.823529">
        <ele>1441.2524741568</ele>
        <time>2016-05-29T14:21:19Z</time>
      </trkpt>
      <trkpt lat="46.311305" lon="13.823620">
        <ele>1440.1424876544</ele>
        <time>2016-05-29T14:21:30Z</time>
      </trkpt>
      <trkpt lat="46.311309" lon="13.823702">
        <ele>1439.082500544</ele>
        <time>2016-05-29T14:21:39Z</time>
      </trkpt>
      <trkpt lat="46.311294" lon="13.823806">
        <ele>1436.7725286336</ele>
        <time>2016-05-29T14:21:51Z</time>
      </trkpt>
      <trkpt lat="46.311244" lon="13.823885">
        <ele>1434.8425521024</ele>
        <time>2016-05-29T14:22:02Z</time>
      </trkpt>
      <trkpt lat="46.311247" lon="13.823989">
        <ele>1432.2725833536</ele>
        <time>2016-05-29T14:22:13Z</time>
      </trkpt>
      <trkpt lat="46.311213" lon="13.824100">
        <ele>1429.5226167936</ele>
        <time>2016-05-29T14:22:24Z</time>
      </trkpt>
      <trkpt lat="46.311137" lon="13.824167">
        <ele>1426.4226544896</ele>
        <time>2016-05-29T14:22:35Z</time>
      </trkpt>
      <trkpt lat="46.311039" lon="13.824188">
        <ele>1424.4126789312</ele>
        <time>2016-05-29T14:22:44Z</time>
      </trkpt>
      <trkpt lat="46.310971" lon="13.824241">
        <ele>1421.5227140736</ele>
        <time>2016-05-29T14:22:55Z</time>
      </trkpt>
      <trkpt lat="46.310953" lon="13.824323">
        <ele>1418.98274496</ele>
        <time>2016-05-29T14:23:04Z</time>
      </trkpt>
      <trkpt lat="46.310903" lon="13.824351">
        <ele>1417.0727681856</ele>
        <time>2016-05-29T14:23:14Z</time>
      </trkpt>
      <trkpt lat="46.310880" lon="13.824413">
        <ele>1415.182791168</ele>
        <time>2016-05-29T14:23:20Z</time>
      </trkpt>
      <trkpt lat="46.310781" lon="13.824499">
        <ele>1412.5728229056</ele>
        <time>2016-05-29T14:23:31Z</time>
      </trkpt>
      <trkpt lat="46.310716" lon="13.824566">
        <ele>1410.932842848</ele>
        <time>2016-05-29T14:23:39Z</time>
      </trkpt>
      <trkpt lat="46.310610" lon="13.824615">
        <ele>1408.3528742208</ele>
        <time>2016-05-29T14:23:51Z</time>
      </trkpt>
      <trkpt lat="46.310589" lon="13.824650">
        <ele>1407.632882976</ele>
        <time>2016-05-29T14:23:56Z</time>
      </trkpt>
      <trkpt lat="46.310552" lon="13.824714">
        <ele>1406.2029003648</ele>
        <time>2016-05-29T14:24:02Z</time>
      </trkpt>
      <trkpt lat="46.310542" lon="13.824737">
        <ele>1405.7729055936</ele>
        <time>2016-05-29T14:24:05Z</time>
      </trkpt>
      <trkpt lat="46.310513" lon="13.824794">
        <ele>1404.7729177536</ele>
        <time>2016-05-29T14:24:10Z</time>
      </trkpt>
      <trkpt lat="46.310445" lon="13.824855">
        <ele>1403.632931616</ele>
        <time>2016-05-29T14:24:17Z</time>
      </trkpt>
      <trkpt lat="46.310436" lon="13.824862">
        <ele>1403.5429327104</ele>
        <time>2016-05-29T14:24:18Z</time>
      </trkpt>
      <trkpt lat="46.310398" lon="13.824913">
        <ele>1403.0529386688</ele>
        <time>2016-05-29T14:24:24Z</time>
      </trkpt>
      <trkpt lat="46.310359" lon="13.825024">
        <ele>1402.3129476672</ele>
        <time>2016-05-29T14:24:32Z</time>
      </trkpt>
      <trkpt lat="46.310332" lon="13.825149">
        <ele>1401.73295472</ele>
        <time>2016-05-29T14:24:39Z</time>
      </trkpt>
      <trkpt lat="46.310307" lon="13.825231">
        <ele>1401.2029611648</ele>
        <time>2016-05-29T14:24:44Z</time>
      </trkpt>
      <trkpt lat="46.310253" lon="13.825360">
        <ele>1399.582980864</ele>
        <time>2016-05-29T14:24:55Z</time>
      </trkpt>
      <trkpt lat="46.310167" lon="13.825476">
        <ele>1398.4929941184</ele>
        <time>2016-05-29T14:25:07Z</time>
      </trkpt>
      <trkpt lat="46.310067" lon="13.825556">
        <ele>1397.8630017792</ele>
        <time>2016-05-29T14:25:17Z</time>
      </trkpt>
      <trkpt lat="46.309997" lon="13.825683">
        <ele>1397.4430068864</ele>
        <time>2016-05-29T14:25:26Z</time>
      </trkpt>
      <trkpt lat="46.309953" lon="13.825850">
        <ele>1397.4830064</ele>
        <time>2016-05-29T14:25:35Z</time>
      </trkpt>
      <trkpt lat="46.309859" lon="13.826008">
        <ele>1398.182997888</ele>
        <time>2016-05-29T14:25:48Z</time>
      </trkpt>
      <trkpt lat="46.309854" lon="13.826096">
        <ele>1398.6629920512</ele>
        <time>2016-05-29T14:25:53Z</time>
      </trkpt>
      <trkpt lat="46.309825" lon="13.826160">
        <ele>1399.0429874304</ele>
        <time>2016-05-29T14:25:57Z</time>
      </trkpt>
      <trkpt lat="46.309775" lon="13.826279">
        <ele>1399.5929807424</ele>
        <time>2016-05-29T14:26:04Z</time>
      </trkpt>
      <trkpt lat="46.309743" lon="13.826339">
        <ele>1399.9129768512</ele>
        <time>2016-05-29T14:26:09Z</time>
      </trkpt>
      <trkpt lat="46.309680" lon="13.826397">
        <ele>1400.382971136</ele>
        <time>2016-05-29T14:26:15Z</time>
      </trkpt>
      <trkpt lat="46.309619" lon="13.826458">
        <ele>1400.6729676096</ele>
        <time>2016-05-29T14:26:20Z</time>
      </trkpt>
      <trkpt lat="46.309569" lon="13.826526">
        <ele>1400.7529666368</ele>
        <time>2016-05-29T14:26:27Z</time>
      </trkpt>
      <trkpt lat="46.309555" lon="13.826547">
        <ele>1400.8229657856</ele>
        <time>2016-05-29T14:26:28Z</time>
      </trkpt>
      <trkpt lat="46.309495" lon="13.826640">
        <ele>1401.2329608</ele>
        <time>2016-05-29T14:26:36Z</time>
      </trkpt>
      <trkpt lat="46.309444" lon="13.826784">
        <ele>1401.4729578816</ele>
        <time>2016-05-29T14:26:44Z</time>
      </trkpt>
      <trkpt lat="46.309431" lon="13.826814">
        <ele>1401.5729566656</ele>
        <time>2016-05-29T14:26:47Z</time>
      </trkpt>
      <trkpt lat="46.309436" lon="13.826984">
        <ele>1401.4629580032</ele>
        <time>2016-05-29T14:26:55Z</time>
      </trkpt>
      <trkpt lat="46.309464" lon="13.827094">
        <ele>1401.7229548416</ele>
        <time>2016-05-29T14:27:03Z</time>
      </trkpt>
      <trkpt lat="46.309484" lon="13.827107">
        <ele>1402.3229475456</ele>
        <time>2016-05-29T14:27:11Z</time>
      </trkpt>
      <trkpt lat="46.309506" lon="13.827134">
        <ele>1402.4829456</ele>
        <time>2016-05-29T14:27:14Z</time>
      </trkpt>
      <trkpt lat="46.309546" lon="13.827201">
        <ele>1403.5729323456</ele>
        <time>2016-05-29T14:27:22Z</time>
      </trkpt>
      <trkpt lat="46.309595" lon="13.827296">
        <ele>1404.9629154432</ele>
        <time>2016-05-29T14:27:30Z</time>
      </trkpt>
      <trkpt lat="46.309644" lon="13.827373">
        <ele>1405.8729043776</ele>
        <time>2016-05-29T14:27:37Z</time>
      </trkpt>
      <trkpt lat="46.309654" lon="13.827388">
        <ele>1406.0129026752</ele>
        <time>2016-05-29T14:27:37Z</time>
      </trkpt>
      <trkpt lat="46.309725" lon="13.827513">
        <ele>1407.032890272</ele>
        <time>2016-05-29T14:27:46Z</time>
      </trkpt>
      <trkpt lat="46.309716" lon="13.827588">
        <ele>1407.4228855296</ele>
        <time>2016-05-29T14:27:52Z</time>
      </trkpt>
      <trkpt lat="46.309659" lon="13.827674">
        <ele>1408.1228770176</ele>
        <time>2016-05-29T14:28:00Z</time>
      </trkpt>
      <trkpt lat="46.309719" lon="13.827671">
        <ele>1409.6128588992</ele>
        <time>2016-05-29T14:28:15Z</time>
      </trkpt>
      <trkpt lat="46.309734" lon="13.827705">
        <ele>1409.7528571968</ele>
        <time>2016-05-29T14:28:19Z</time>
      </trkpt>
      <trkpt lat="46.309764" lon="13.827757">
        <ele>1410.0428536704</ele>
        <time>2016-05-29T14:28:27Z</time>
      </trkpt>
      <trkpt lat="46.309740" lon="13.827570">
        <ele>1410.1928518464</ele>
        <time>2016-05-29T14:28:31Z</time>
      </trkpt>
      <trkpt lat="46.309705" lon="13.827491">
        <ele>1410.3128503872</ele>
        <time>2016-05-29T14:28:40Z</time>
      </trkpt>
      <trkpt lat="46.309690" lon="13.827506">
        <ele>1410.3728496576</ele>
        <time>2016-05-29T14:28:43Z</time>
      </trkpt>
      <trkpt lat="46.309688" lon="13.827562">
        <ele>1410.1928518464</ele>
        <time>2016-05-29T14:28:48Z</time>
      </trkpt>
      <trkpt lat="46.309348" lon="13.827928">
        <ele>1404.7629178752</ele>
        <time>2016-05-29T15:09:00Z</time>
      </trkpt>
      <trkpt lat="46.309348" lon="13.827947">
        <ele>1404.8629166592</ele>
        <time>2016-05-29T15:09:01Z</time>
      </trkpt>
      <trkpt lat="46.309310" lon="13.828100">
        <ele>1405.6729068096</ele>
        <time>2016-05-29T15:09:09Z</time>
      </trkpt>
      <trkpt lat="46.309246" lon="13.828241">
        <ele>1406.2229001216</ele>
        <time>2016-05-29T15:09:17Z</time>
      </trkpt>
      <trkpt lat="46.309181" lon="13.828274">
        <ele>1406.6128953792</ele>
        <time>2016-05-29T15:09:23Z</time>
      </trkpt>
      <trkpt lat="46.309106" lon="13.828288">
        <ele>1406.8528924608</ele>
        <time>2016-05-29T15:09:29Z</time>
      </trkpt>
      <trkpt lat="46.309029" lon="13.828316">
        <ele>1406.5128965952</ele>
        <time>2016-05-29T15:09:37Z</time>
      </trkpt>
      <trkpt lat="46.308990" lon="13.828343">
        <ele>1406.1929004864</ele>
        <time>2016-05-29T15:09:43Z</time>
      </trkpt>
      <trkpt lat="46.308948" lon="13.828387">
        <ele>1405.5529082688</ele>
        <time>2016-05-29T15:09:50Z</time>
      </trkpt>
      <trkpt lat="46.308936" lon="13.828390">
        <ele>1405.4129099712</ele>
        <time>2016-05-29T15:09:51Z</time>
      </trkpt>
      <trkpt lat="46.308831" lon="13.828343">
        <ele>1404.8029173888</ele>
        <time>2016-05-29T15:09:55Z</time>
      </trkpt>
      <trkpt lat="46.308762" lon="13.828317">
        <ele>1404.4429217664</ele>
        <time>2016-05-29T15:09:58Z</time>
      </trkpt>
      <trkpt lat="46.308690" lon="13.828430">
        <ele>1403.8729286976</ele>
        <time>2016-05-29T15:10:07Z</time>
      </trkpt>
      <trkpt lat="46.308603" lon="13.828559">
        <ele>1403.0629385472</ele>
        <time>2016-05-29T15:10:19Z</time>
      </trkpt>
      <trkpt lat="46.308597" lon="13.828584">
        <ele>1402.9529398848</ele>
        <time>2016-05-29T15:10:19Z</time>
      </trkpt>
      <trkpt lat="46.308560" lon="13.828661">
        <ele>1402.332947424</ele>
        <time>2016-05-29T15:10:25Z</time>
      </trkpt>
      <trkpt lat="46.308491" lon="13.828838">
        <ele>1400.6929673664</ele>
        <time>2016-05-29T15:10:37Z</time>
      </trkpt>
      <trkpt lat="46.308429" lon="13.828998">
        <ele>1399.6429801344</ele>
        <time>2016-05-29T15:10:46Z</time>
      </trkpt>
      <trkpt lat="46.308359" lon="13.829155">
        <ele>1398.9529885248</ele>
        <time>2016-05-29T15:10:54Z</time>
      </trkpt>
      <trkpt lat="46.308289" lon="13.829243">
        <ele>1399.2929843904</ele>
        <time>2016-05-29T15:11:01Z</time>
      </trkpt>
      <trkpt lat="46.308205" lon="13.829366">
        <ele>1399.5429813504</ele>
        <time>2016-05-29T15:11:09Z</time>
      </trkpt>
      <trkpt lat="46.308161" lon="13.829497">
        <ele>1399.8729773376</ele>
        <time>2016-05-29T15:11:19Z</time>
      </trkpt>
      <trkpt lat="46.308156" lon="13.829566">
        <ele>1400.1729736896</ele>
        <time>2016-05-29T15:11:24Z</time>
      </trkpt>
      <trkpt lat="46.308094" lon="13.829715">
        <ele>1400.2929722304</ele>
        <time>2016-05-29T15:11:35Z</time>
      </trkpt>
      <trkpt lat="46.308049" lon="13.829904">
        <ele>1398.98298816</ele>
        <time>2016-05-29T15:11:47Z</time>
      </trkpt>
      <trkpt lat="46.308021" lon="13.830046">
        <ele>1396.783014912</ele>
        <time>2016-05-29T15:11:58Z</time>
      </trkpt>
      <trkpt lat="46.308045" lon="13.830131">
        <ele>1396.2630212352</ele>
        <time>2016-05-29T15:12:02Z</time>
      </trkpt>
      <trkpt lat="46.308044" lon="13.830170">
        <ele>1395.9130254912</ele>
        <time>2016-05-29T15:12:03Z</time>
      </trkpt>
      <trkpt lat="46.308092" lon="13.830337">
        <ele>1393.9530493248</ele>
        <time>2016-05-29T15:12:15Z</time>
      </trkpt>
      <trkpt lat="46.308104" lon="13.830355">
        <ele>1393.8530505408</ele>
        <time>2016-05-29T15:12:17Z</time>
      </trkpt>
      <trkpt lat="46.308112" lon="13.830431">
        <ele>1393.6430530944</ele>
        <time>2016-05-29T15:12:19Z</time>
      </trkpt>
      <trkpt lat="46.308167" lon="13.830599">
        <ele>1393.9930488384</ele>
        <time>2016-05-29T15:12:32Z</time>
      </trkpt>
      <trkpt lat="46.308177" lon="13.830622">
        <ele>1393.9230496896</ele>
        <time>2016-05-29T15:12:37Z</time>
      </trkpt>
      <trkpt lat="46.308198" lon="13.830633">
        <ele>1393.6930524864</ele>
        <time>2016-05-29T15:12:45Z</time>
      </trkpt>
      <trkpt lat="46.308216" lon="13.830756">
        <ele>1393.283057472</ele>
        <time>2016-05-29T15:12:56Z</time>
      </trkpt>
      <trkpt lat="46.308252" lon="13.830828">
        <ele>1392.9430616064</ele>
        <time>2016-05-29T15:13:04Z</time>
      </trkpt>
      <trkpt lat="46.308282" lon="13.830900">
        <ele>1392.6630650112</ele>
        <time>2016-05-29T15:13:11Z</time>
      </trkpt>
      <trkpt lat="46.308282" lon="13.830934">
        <ele>1392.583065984</ele>
        <time>2016-05-29T15:13:12Z</time>
      </trkpt>
      <trkpt lat="46.308358" lon="13.830964">
        <ele>1392.1730709696</ele>
        <time>2016-05-29T15:13:19Z</time>
      </trkpt>
      <trkpt lat="46.308405" lon="13.831100">
        <ele>1391.0230849536</ele>
        <time>2016-05-29T15:13:27Z</time>
      </trkpt>
      <trkpt lat="46.308459" lon="13.831203">
        <ele>1390.4930913984</ele>
        <time>2016-05-29T15:13:34Z</time>
      </trkpt>
      <trkpt lat="46.308476" lon="13.831223">
        <ele>1390.4730916416</ele>
        <time>2016-05-29T15:13:35Z</time>
      </trkpt>
      <trkpt lat="46.308481" lon="13.831265">
        <ele>1390.4430920064</ele>
        <time>2016-05-29T15:13:38Z</time>
      </trkpt>
      <trkpt lat="46.308563" lon="13.831458">
        <ele>1390.1930950464</ele>
        <time>2016-05-29T15:13:47Z</time>
      </trkpt>
      <trkpt lat="46.308564" lon="13.831615">
        <ele>1389.3231056256</ele>
        <time>2016-05-29T15:13:57Z</time>
      </trkpt>
      <trkpt lat="46.308511" lon="13.831809">
        <ele>1386.9231348096</ele>
        <time>2016-05-29T15:14:10Z</time>
      </trkpt>
      <trkpt lat="46.308516" lon="13.831974">
        <ele>1385.683149888</ele>
        <time>2016-05-29T15:14:20Z</time>
      </trkpt>
      <trkpt lat="46.308509" lon="13.832060">
        <ele>1384.9131592512</ele>
        <time>2016-05-29T15:14:28Z</time>
      </trkpt>
      <trkpt lat="46.308508" lon="13.832105">
        <ele>1384.4031654528</ele>
        <time>2016-05-29T15:14:33Z</time>
      </trkpt>
      <trkpt lat="46.308508" lon="13.832144">
        <ele>1384.3531660608</ele>
        <time>2016-05-29T15:14:34Z</time>
      </trkpt>
      <trkpt lat="46.308511" lon="13.832247">
        <ele>1384.6931619264</ele>
        <time>2016-05-29T15:14:38Z</time>
      </trkpt>
      <trkpt lat="46.308558" lon="13.832471">
        <ele>1384.7231615616</ele>
        <time>2016-05-29T15:14:51Z</time>
      </trkpt>
      <trkpt lat="46.308585" lon="13.832605">
        <ele>1386.0531453888</ele>
        <time>2016-05-29T15:15:01Z</time>
      </trkpt>
      <trkpt lat="46.308646" lon="13.832772">
        <ele>1385.9531466048</ele>
        <time>2016-05-29T15:15:12Z</time>
      </trkpt>
      <trkpt lat="46.308678" lon="13.832831">
        <ele>1385.5931509824</ele>
        <time>2016-05-29T15:15:19Z</time>
      </trkpt>
      <trkpt lat="46.308723" lon="13.832870">
        <ele>1384.9431588864</ele>
        <time>2016-05-29T15:15:24Z</time>
      </trkpt>
      <trkpt lat="46.308757" lon="13.832973">
        <ele>1384.4131653312</ele>
        <time>2016-05-29T15:15:31Z</time>
      </trkpt>
      <trkpt lat="46.308807" lon="13.833058">
        <ele>1384.3731658176</ele>
        <time>2016-05-29T15:15:36Z</time>
      </trkpt>
      <trkpt lat="46.308837" lon="13.833104">
        <ele>1384.533163872</ele>
        <time>2016-05-29T15:15:43Z</time>
      </trkpt>
      <trkpt lat="46.308921" lon="13.833218">
        <ele>1383.8531721408</ele>
        <time>2016-05-29T15:15:50Z</time>
      </trkpt>
      <trkpt lat="46.308956" lon="13.833319">
        <ele>1382.783185152</ele>
        <time>2016-05-29T15:15:57Z</time>
      </trkpt>
      <trkpt lat="46.308981" lon="13.833396">
        <ele>1381.3632024192</ele>
        <time>2016-05-29T15:16:05Z</time>
      </trkpt>
      <trkpt lat="46.309068" lon="13.833437">
        <ele>1380.1232174976</ele>
        <time>2016-05-29T15:16:13Z</time>
      </trkpt>
      <trkpt lat="46.309090" lon="13.833456">
        <ele>1379.4432257664</ele>
        <time>2016-05-29T15:16:16Z</time>
      </trkpt>
      <trkpt lat="46.309160" lon="13.833595">
        <ele>1377.3132516672</ele>
        <time>2016-05-29T15:16:25Z</time>
      </trkpt>
      <trkpt lat="46.309239" lon="13.833708">
        <ele>1374.1732898496</ele>
        <time>2016-05-29T15:16:37Z</time>
      </trkpt>
      <trkpt lat="46.309305" lon="13.833771">
        <ele>1371.7733190336</ele>
        <time>2016-05-29T15:16:45Z</time>
      </trkpt>
      <trkpt lat="46.309346" lon="13.833806">
        <ele>1370.2933370304</ele>
        <time>2016-05-29T15:16:52Z</time>
      </trkpt>
      <trkpt lat="46.309351" lon="13.833816">
        <ele>1369.7633434752</ele>
        <time>2016-05-29T15:16:56Z</time>
      </trkpt>
      <trkpt lat="46.309432" lon="13.834012">
        <ele>1367.4533715648</ele>
        <time>2016-05-29T15:17:07Z</time>
      </trkpt>
      <trkpt lat="46.309467" lon="13.834134">
        <ele>1366.2433862784</ele>
        <time>2016-05-29T15:17:14Z</time>
      </trkpt>
      <trkpt lat="46.309538" lon="13.834272">
        <ele>1362.8534275008</ele>
        <time>2016-05-29T15:17:27Z</time>
      </trkpt>
      <trkpt lat="46.309600" lon="13.834379">
        <ele>1359.783464832</ele>
        <time>2016-05-29T15:17:41Z</time>
      </trkpt>
      <trkpt lat="46.309604" lon="13.834406">
        <ele>1359.0734734656</ele>
        <time>2016-05-29T15:17:43Z</time>
      </trkpt>
      <trkpt lat="46.309608" lon="13.834441">
        <ele>1357.9734868416</ele>
        <time>2016-05-29T15:17:47Z</time>
      </trkpt>
      <trkpt lat="46.309718" lon="13.834435">
        <ele>1354.4935291584</ele>
        <time>2016-05-29T15:18:00Z</time>
      </trkpt>
      <trkpt lat="46.309779" lon="13.834706">
        <ele>1351.1235701376</ele>
        <time>2016-05-29T15:18:16Z</time>
      </trkpt>
      <trkpt lat="46.309889" lon="13.834655">
        <ele>1347.7736108736</ele>
        <time>2016-05-29T15:18:28Z</time>
      </trkpt>
      <trkpt lat="46.309929" lon="13.834736">
        <ele>1346.4136274112</ele>
        <time>2016-05-29T15:18:37Z</time>
      </trkpt>
      <trkpt lat="46.310004" lon="13.834805">
        <ele>1345.2236418816</ele>
        <time>2016-05-29T15:18:45Z</time>
      </trkpt>
      <trkpt lat="46.310036" lon="13.834870">
        <ele>1343.9136578112</ele>
        <time>2016-05-29T15:18:54Z</time>
      </trkpt>
      <trkpt lat="46.310041" lon="13.835000">
        <ele>1342.9436696064</ele>
        <time>2016-05-29T15:19:03Z</time>
      </trkpt>
      <trkpt lat="46.310071" lon="13.835097">
        <ele>1342.2036786048</ele>
        <time>2016-05-29T15:19:08Z</time>
      </trkpt>
      <trkpt lat="46.310175" lon="13.835160">
        <ele>1340.6936969664</ele>
        <time>2016-05-29T15:19:18Z</time>
      </trkpt>
      <trkpt lat="46.310190" lon="13.835187">
        <ele>1340.0637046272</ele>
        <time>2016-05-29T15:19:21Z</time>
      </trkpt>
      <trkpt lat="46.310209" lon="13.835318">
        <ele>1339.3237136256</ele>
        <time>2016-05-29T15:19:27Z</time>
      </trkpt>
      <trkpt lat="46.310225" lon="13.835384">
        <ele>1339.3437133824</ele>
        <time>2016-05-29T15:19:31Z</time>
      </trkpt>
      <trkpt lat="46.310267" lon="13.835429">
        <ele>1339.3037138688</ele>
        <time>2016-05-29T15:19:37Z</time>
      </trkpt>
      <trkpt lat="46.310287" lon="13.835461">
        <ele>1339.2537144768</ele>
        <time>2016-05-29T15:19:39Z</time>
      </trkpt>
      <trkpt lat="46.310369" lon="13.835588">
        <ele>1339.4137125312</ele>
        <time>2016-05-29T15:19:50Z</time>
      </trkpt>
      <trkpt lat="46.310451" lon="13.835591">
        <ele>1339.2137149632</ele>
        <time>2016-05-29T15:19:57Z</time>
      </trkpt>
      <trkpt lat="46.310528" lon="13.835612">
        <ele>1338.6937212864</ele>
        <time>2016-05-29T15:20:04Z</time>
      </trkpt>
      <trkpt lat="46.310590" lon="13.835651">
        <ele>1337.683733568</ele>
        <time>2016-05-29T15:20:12Z</time>
      </trkpt>
      <trkpt lat="46.310650" lon="13.835714">
        <ele>1335.0037661568</ele>
        <time>2016-05-29T15:20:25Z</time>
      </trkpt>
      <trkpt lat="46.310666" lon="13.835904">
        <ele>1332.9037916928</ele>
        <time>2016-05-29T15:20:36Z</time>
      </trkpt>
      <trkpt lat="46.310666" lon="13.835911">
        <ele>1332.7237938816</ele>
        <time>2016-05-29T15:20:36Z</time>
      </trkpt>
      <trkpt lat="46.310612" lon="13.835967">
        <ele>1331.033814432</ele>
        <time>2016-05-29T15:20:43Z</time>
      </trkpt>
      <trkpt lat="46.310576" lon="13.836033">
        <ele>1329.583832064</ele>
        <time>2016-05-29T15:20:50Z</time>
      </trkpt>
      <trkpt lat="46.310496" lon="13.836087">
        <ele>1327.9738516416</ele>
        <time>2016-05-29T15:20:58Z</time>
      </trkpt>
      <trkpt lat="46.310432" lon="13.836139">
        <ele>1326.1138742592</ele>
        <time>2016-05-29T15:21:06Z</time>
      </trkpt>
      <trkpt lat="46.310380" lon="13.836178">
        <ele>1324.9138888512</ele>
        <time>2016-05-29T15:21:11Z</time>
      </trkpt>
      <trkpt lat="46.310321" lon="13.836215">
        <ele>1323.4439067264</ele>
        <time>2016-05-29T15:21:18Z</time>
      </trkpt>
      <trkpt lat="46.310252" lon="13.836295">
        <ele>1322.5439176704</ele>
        <time>2016-05-29T15:21:23Z</time>
      </trkpt>
      <trkpt lat="46.310230" lon="13.836398">
        <ele>1321.533929952</ele>
        <time>2016-05-29T15:21:30Z</time>
      </trkpt>
      <trkpt lat="46.310201" lon="13.836479">
        <ele>1321.1939340864</ele>
        <time>2016-05-29T15:21:37Z</time>
      </trkpt>
      <trkpt lat="46.310174" lon="13.836567">
        <ele>1321.0139362752</ele>
        <time>2016-05-29T15:21:42Z</time>
      </trkpt>
      <trkpt lat="46.310128" lon="13.836694">
        <ele>1319.8939498944</ele>
        <time>2016-05-29T15:21:50Z</time>
      </trkpt>
      <trkpt lat="46.310114" lon="13.836711">
        <ele>1319.6739525696</ele>
        <time>2016-05-29T15:21:52Z</time>
      </trkpt>
      <trkpt lat="46.310081" lon="13.836772">
        <ele>1318.23397008</ele>
        <time>2016-05-29T15:21:57Z</time>
      </trkpt>
      <trkpt lat="46.309966" lon="13.836922">
        <ele>1315.684001088</ele>
        <time>2016-05-29T15:22:12Z</time>
      </trkpt>
      <trkpt lat="46.309950" lon="13.836941">
        <ele>1315.5440027904</ele>
        <time>2016-05-29T15:22:13Z</time>
      </trkpt>
      <trkpt lat="46.309944" lon="13.837052">
        <ele>1315.3040057088</ele>
        <time>2016-05-29T15:22:20Z</time>
      </trkpt>
      <trkpt lat="46.309931" lon="13.837118">
        <ele>1315.084008384</ele>
        <time>2016-05-29T15:22:24Z</time>
      </trkpt>
      <trkpt lat="46.309850" lon="13.837341">
        <ele>1313.684025408</ele>
        <time>2016-05-29T15:22:39Z</time>
      </trkpt>
      <trkpt lat="46.309804" lon="13.837432">
        <ele>1313.2040312448</ele>
        <time>2016-05-29T15:22:44Z</time>
      </trkpt>
      <trkpt lat="46.309758" lon="13.837521">
        <ele>1312.9140347712</ele>
        <time>2016-05-29T15:22:51Z</time>
      </trkpt>
      <trkpt lat="46.309731" lon="13.837544">
        <ele>1312.7940362304</ele>
        <time>2016-05-29T15:22:55Z</time>
      </trkpt>
      <trkpt lat="46.309642" lon="13.837692">
        <ele>1312.5040397568</ele>
        <time>2016-05-29T15:23:05Z</time>
      </trkpt>
      <trkpt lat="46.309608" lon="13.837723">
        <ele>1312.5240395136</ele>
        <time>2016-05-29T15:23:07Z</time>
      </trkpt>
      <trkpt lat="46.309591" lon="13.837769">
        <ele>1312.5640390272</ele>
        <time>2016-05-29T15:23:10Z</time>
      </trkpt>
      <trkpt lat="46.309544" lon="13.837841">
        <ele>1312.8040361088</ele>
        <time>2016-05-29T15:23:15Z</time>
      </trkpt>
      <trkpt lat="46.309507" lon="13.837867">
        <ele>1313.0640329472</ele>
        <time>2016-05-29T15:23:18Z</time>
      </trkpt>
      <trkpt lat="46.309409" lon="13.837923">
        <ele>1312.7140372032</ele>
        <time>2016-05-29T15:23:28Z</time>
      </trkpt>
      <trkpt lat="46.309385" lon="13.837946">
        <ele>1312.4540403648</ele>
        <time>2016-05-29T15:23:29Z</time>
      </trkpt>
      <trkpt lat="46.309273" lon="13.837992">
        <ele>1311.9040470528</ele>
        <time>2016-05-29T15:23:37Z</time>
      </trkpt>
      <trkpt lat="46.309178" lon="13.838098">
        <ele>1310.9240589696</ele>
        <time>2016-05-29T15:23:47Z</time>
      </trkpt>
      <trkpt lat="46.309098" lon="13.838227">
        <ele>1308.884083776</ele>
        <time>2016-05-29T15:23:56Z</time>
      </trkpt>
      <trkpt lat="46.309041" lon="13.838319">
        <ele>1306.1641168512</ele>
        <time>2016-05-29T15:24:04Z</time>
      </trkpt>
      <trkpt lat="46.309070" lon="13.838491">
        <ele>1303.2641521152</ele>
        <time>2016-05-29T15:24:23Z</time>
      </trkpt>
      <trkpt lat="46.309071" lon="13.838696">
        <ele>1301.6141721792</ele>
        <time>2016-05-29T15:24:35Z</time>
      </trkpt>
      <trkpt lat="46.309115" lon="13.838744">
        <ele>1299.934192608</ele>
        <time>2016-05-29T15:24:43Z</time>
      </trkpt>
      <trkpt lat="46.309147" lon="13.838790">
        <ele>1297.384223616</ele>
        <time>2016-05-29T15:24:50Z</time>
      </trkpt>
      <trkpt lat="46.309249" lon="13.838800">
        <ele>1295.4942465984</ele>
        <time>2016-05-29T15:24:58Z</time>
      </trkpt>
      <trkpt lat="46.309298" lon="13.838828">
        <ele>1293.7442678784</ele>
        <time>2016-05-29T15:25:06Z</time>
      </trkpt>
      <trkpt lat="46.309363" lon="13.838866">
        <ele>1292.4842832</ele>
        <time>2016-05-29T15:25:14Z</time>
      </trkpt>
      <trkpt lat="46.309405" lon="13.839020">
        <ele>1290.9243021696</ele>
        <time>2016-05-29T15:25:22Z</time>
      </trkpt>
      <trkpt lat="46.309379" lon="13.839132">
        <ele>1289.7543163968</ele>
        <time>2016-05-29T15:25:29Z</time>
      </trkpt>
      <trkpt lat="46.309349" lon="13.839237">
        <ele>1288.5543309888</ele>
        <time>2016-05-29T15:25:35Z</time>
      </trkpt>
      <trkpt lat="46.309299" lon="13.839450">
        <ele>1286.5443554304</ele>
        <time>2016-05-29T15:25:48Z</time>
      </trkpt>
      <trkpt lat="46.309307" lon="13.839570">
        <ele>1285.98436224</ele>
        <time>2016-05-29T15:25:56Z</time>
      </trkpt>
      <trkpt lat="46.309316" lon="13.839599">
        <ele>1285.9243629696</ele>
        <time>2016-05-29T15:25:59Z</time>
      </trkpt>
      <trkpt lat="46.309336" lon="13.839693">
        <ele>1285.7143655232</ele>
        <time>2016-05-29T15:26:04Z</time>
      </trkpt>
      <trkpt lat="46.309380" lon="13.839824">
        <ele>1285.1543723328</ele>
        <time>2016-05-29T15:26:14Z</time>
      </trkpt>
      <trkpt lat="46.309416" lon="13.839904">
        <ele>1285.3243702656</ele>
        <time>2016-05-29T15:26:19Z</time>
      </trkpt>
      <trkpt lat="46.309433" lon="13.840034">
        <ele>1285.5943669824</ele>
        <time>2016-05-29T15:26:27Z</time>
      </trkpt>
      <trkpt lat="46.309406" lon="13.840157">
        <ele>1285.534367712</ele>
        <time>2016-05-29T15:26:35Z</time>
      </trkpt>
      <trkpt lat="46.309357" lon="13.840274">
        <ele>1285.2143716032</ele>
        <time>2016-05-29T15:26:43Z</time>
      </trkpt>
      <trkpt lat="46.309339" lon="13.840469">
        <ele>1283.7043899648</ele>
        <time>2016-05-29T15:26:56Z</time>
      </trkpt>
      <trkpt lat="46.309409" lon="13.840548">
        <ele>1283.8043887488</ele>
        <time>2016-05-29T15:27:04Z</time>
      </trkpt>
      <trkpt lat="46.309433" lon="13.840709">
        <ele>1284.2043838848</ele>
        <time>2016-05-29T15:27:14Z</time>
      </trkpt>
      <trkpt lat="46.309366" lon="13.840876">
        <ele>1284.1943840064</ele>
        <time>2016-05-29T15:27:27Z</time>
      </trkpt>
      <trkpt lat="46.309365" lon="13.840887">
        <ele>1284.23438352</ele>
        <time>2016-05-29T15:27:28Z</time>
      </trkpt>
      <trkpt lat="46.309300" lon="13.840972">
        <ele>1284.384381696</ele>
        <time>2016-05-29T15:27:36Z</time>
      </trkpt>
      <trkpt lat="46.309207" lon="13.841069">
        <ele>1284.0143861952</ele>
        <time>2016-05-29T15:27:44Z</time>
      </trkpt>
      <trkpt lat="46.309186" lon="13.841187">
        <ele>1283.1743964096</ele>
        <time>2016-05-29T15:27:52Z</time>
      </trkpt>
      <trkpt lat="46.309177" lon="13.841234">
        <ele>1282.6744024896</ele>
        <time>2016-05-29T15:27:55Z</time>
      </trkpt>
      <trkpt lat="46.309220" lon="13.841324">
        <ele>1282.184408448</ele>
        <time>2016-05-29T15:28:04Z</time>
      </trkpt>
      <trkpt lat="46.309241" lon="13.841443">
        <ele>1281.48441696</ele>
        <time>2016-05-29T15:28:11Z</time>
      </trkpt>
      <trkpt lat="46.309204" lon="13.841608">
        <ele>1279.9444356864</ele>
        <time>2016-05-29T15:28:21Z</time>
      </trkpt>
      <trkpt lat="46.309215" lon="13.841654">
        <ele>1279.034446752</ele>
        <time>2016-05-29T15:28:27Z</time>
      </trkpt>
      <trkpt lat="46.309225" lon="13.841746">
        <ele>1277.3644670592</ele>
        <time>2016-05-29T15:28:35Z</time>
      </trkpt>
      <trkpt lat="46.309230" lon="13.841765">
        <ele>1276.6744754496</ele>
        <time>2016-05-29T15:28:38Z</time>
      </trkpt>
      <trkpt lat="46.309298" lon="13.841907">
        <ele>1274.584500864</ele>
        <time>2016-05-29T15:28:49Z</time>
      </trkpt>
      <trkpt lat="46.309333" lon="13.842028">
        <ele>1273.1045188608</ele>
        <time>2016-05-29T15:28:57Z</time>
      </trkpt>
      <trkpt lat="46.309389" lon="13.842084">
        <ele>1271.1245429376</ele>
        <time>2016-05-29T15:29:05Z</time>
      </trkpt>
      <trkpt lat="46.309422" lon="13.842166">
        <ele>1269.434563488</ele>
        <time>2016-05-29T15:29:13Z</time>
      </trkpt>
      <trkpt lat="46.309444" lon="13.842259">
        <ele>1267.5945858624</ele>
        <time>2016-05-29T15:29:21Z</time>
      </trkpt>
      <trkpt lat="46.309436" lon="13.842351">
        <ele>1266.0646044672</ele>
        <time>2016-05-29T15:29:28Z</time>
      </trkpt>
      <trkpt lat="46.309439" lon="13.842412">
        <ele>1264.0146293952</ele>
        <time>2016-05-29T15:29:36Z</time>
      </trkpt>
      <trkpt lat="46.309438" lon="13.842433">
        <ele>1263.284638272</ele>
        <time>2016-05-29T15:29:39Z</time>
      </trkpt>
      <trkpt lat="46.309422" lon="13.842523">
        <ele>1260.7646689152</ele>
        <time>2016-05-29T15:29:50Z</time>
      </trkpt>
      <trkpt lat="46.309413" lon="13.842543">
        <ele>1260.2246754816</ele>
        <time>2016-05-29T15:29:51Z</time>
      </trkpt>
      <trkpt lat="46.309405" lon="13.842561">
        <ele>1258.4046976128</ele>
        <time>2016-05-29T15:30:00Z</time>
      </trkpt>
      <trkpt lat="46.309492" lon="13.842546">
        <ele>1255.7247302016</ele>
        <time>2016-05-29T15:30:13Z</time>
      </trkpt>
      <trkpt lat="46.309567" lon="13.842552">
        <ele>1254.1147497792</ele>
        <time>2016-05-29T15:30:18Z</time>
      </trkpt>
      <trkpt lat="46.309601" lon="13.842616">
        <ele>1252.184773248</ele>
        <time>2016-05-29T15:30:27Z</time>
      </trkpt>
      <trkpt lat="46.309676" lon="13.842745">
        <ele>1248.7948144704</ele>
        <time>2016-05-29T15:30:41Z</time>
      </trkpt>
      <trkpt lat="46.309645" lon="13.842809">
        <ele>1247.2648330752</ele>
        <time>2016-05-29T15:30:49Z</time>
      </trkpt>
      <trkpt lat="46.309615" lon="13.842922">
        <ele>1244.9048617728</ele>
        <time>2016-05-29T15:31:01Z</time>
      </trkpt>
      <trkpt lat="46.309572" lon="13.843072">
        <ele>1242.0548964288</ele>
        <time>2016-05-29T15:31:15Z</time>
      </trkpt>
      <trkpt lat="46.309534" lon="13.843153">
        <ele>1240.5149151552</ele>
        <time>2016-05-29T15:31:23Z</time>
      </trkpt>
      <trkpt lat="46.309459" lon="13.843277">
        <ele>1238.3449415424</ele>
        <time>2016-05-29T15:31:34Z</time>
      </trkpt>
      <trkpt lat="46.309413" lon="13.843446">
        <ele>1236.4949640384</ele>
        <time>2016-05-29T15:31:47Z</time>
      </trkpt>
      <trkpt lat="46.309342" lon="13.843574">
        <ele>1235.0249819136</ele>
        <time>2016-05-29T15:31:58Z</time>
      </trkpt>
      <trkpt lat="46.309313" lon="13.843761">
        <ele>1233.5549997888</ele>
        <time>2016-05-29T15:32:10Z</time>
      </trkpt>
      <trkpt lat="46.309371" lon="13.843853">
        <ele>1233.23500368</ele>
        <time>2016-05-29T15:32:21Z</time>
      </trkpt>
      <trkpt lat="46.309447" lon="13.843956">
        <ele>1231.9050198528</ele>
        <time>2016-05-29T15:32:29Z</time>
      </trkpt>
      <trkpt lat="46.309518" lon="13.844078">
        <ele>1229.9950430784</ele>
        <time>2016-05-29T15:32:41Z</time>
      </trkpt>
      <trkpt lat="46.309511" lon="13.844227">
        <ele>1227.6150720192</ele>
        <time>2016-05-29T15:32:53Z</time>
      </trkpt>
      <trkpt lat="46.309496" lon="13.844387">
        <ele>1224.4551104448</ele>
        <time>2016-05-29T15:33:07Z</time>
      </trkpt>
      <trkpt lat="46.309476" lon="13.844507">
        <ele>1222.335136224</ele>
        <time>2016-05-29T15:33:15Z</time>
      </trkpt>
      <trkpt lat="46.309441" lon="13.844662">
        <ele>1219.1551748928</ele>
        <time>2016-05-29T15:33:26Z</time>
      </trkpt>
      <trkpt lat="46.309404" lon="13.844828">
        <ele>1216.4652076032</ele>
        <time>2016-05-29T15:33:39Z</time>
      </trkpt>
      <trkpt lat="46.309335" lon="13.845032">
        <ele>1213.385245056</ele>
        <time>2016-05-29T15:33:54Z</time>
      </trkpt>
      <trkpt lat="46.309283" lon="13.845212">
        <ele>1211.8052642688</ele>
        <time>2016-05-29T15:34:08Z</time>
      </trkpt>
      <trkpt lat="46.309305" lon="13.845354">
        <ele>1210.1752840896</ele>
        <time>2016-05-29T15:34:20Z</time>
      </trkpt>
      <trkpt lat="46.309327" lon="13.845454">
        <ele>1208.7753011136</ele>
        <time>2016-05-29T15:34:32Z</time>
      </trkpt>
      <trkpt lat="46.309328" lon="13.845465">
        <ele>1208.7753011136</ele>
        <time>2016-05-29T15:34:33Z</time>
      </trkpt>
      <trkpt lat="46.309356" lon="13.845579">
        <ele>1208.7353016</ele>
        <time>2016-05-29T15:34:40Z</time>
      </trkpt>
      <trkpt lat="46.309324" lon="13.845628">
        <ele>1208.7153018432</ele>
        <time>2016-05-29T15:34:53Z</time>
      </trkpt>
      <trkpt lat="46.309275" lon="13.845683">
        <ele>1206.9953227584</ele>
        <time>2016-05-29T15:35:06Z</time>
      </trkpt>
      <trkpt lat="46.309204" lon="13.845726">
        <ele>1205.1453452544</ele>
        <time>2016-05-29T15:35:15Z</time>
      </trkpt>
      <trkpt lat="46.309148" lon="13.845772">
        <ele>1202.8953726144</ele>
        <time>2016-05-29T15:35:27Z</time>
      </trkpt>
      <trkpt lat="46.309142" lon="13.845827">
        <ele>1200.6953993664</ele>
        <time>2016-05-29T15:35:38Z</time>
      </trkpt>
      <trkpt lat="46.309098" lon="13.845907">
        <ele>1198.6454242944</ele>
        <time>2016-05-29T15:35:49Z</time>
      </trkpt>
      <trkpt lat="46.309064" lon="13.845920">
        <ele>1197.335440224</ele>
        <time>2016-05-29T15:35:57Z</time>
      </trkpt>
      <trkpt lat="46.309031" lon="13.845922">
        <ele>1196.3554521408</ele>
        <time>2016-05-29T15:36:02Z</time>
      </trkpt>
      <trkpt lat="46.308959" lon="13.846003">
        <ele>1193.98548096</ele>
        <time>2016-05-29T15:36:14Z</time>
      </trkpt>
      <trkpt lat="46.308925" lon="13.846023">
        <ele>1192.0455045504</ele>
        <time>2016-05-29T15:36:23Z</time>
      </trkpt>
      <trkpt lat="46.308901" lon="13.846015">
        <ele>1191.435511968</ele>
        <time>2016-05-29T15:36:28Z</time>
      </trkpt>
      <trkpt lat="46.308844" lon="13.846002">
        <ele>1191.0455167104</ele>
        <time>2016-05-29T15:36:35Z</time>
      </trkpt>
      <trkpt lat="46.308807" lon="13.846004">
        <ele>1190.835519264</ele>
        <time>2016-05-29T15:36:37Z</time>
      </trkpt>
      <trkpt lat="46.308752" lon="13.846001">
        <ele>1190.1255278976</ele>
        <time>2016-05-29T15:36:44Z</time>
      </trkpt>
      <trkpt lat="46.308657" lon="13.846002">
        <ele>1189.4255364096</ele>
        <time>2016-05-29T15:36:50Z</time>
      </trkpt>
      <trkpt lat="46.308588" lon="13.846018">
        <ele>1188.7755443136</ele>
        <time>2016-05-29T15:36:58Z</time>
      </trkpt>
      <trkpt lat="46.308519" lon="13.846035">
        <ele>1188.0955525824</ele>
        <time>2016-05-29T15:37:06Z</time>
      </trkpt>
      <trkpt lat="46.308485" lon="13.846046">
        <ele>1186.9055670528</ele>
        <time>2016-05-29T15:37:12Z</time>
      </trkpt>
      <trkpt lat="46.308442" lon="13.846054">
        <ele>1186.435572768</ele>
        <time>2016-05-29T15:37:17Z</time>
      </trkpt>
      <trkpt lat="46.308360" lon="13.846060">
        <ele>1185.9255789696</ele>
        <time>2016-05-29T15:37:25Z</time>
      </trkpt>
      <trkpt lat="46.308251" lon="13.846087">
        <ele>1185.635582496</ele>
        <time>2016-05-29T15:37:33Z</time>
      </trkpt>
      <trkpt lat="46.308228" lon="13.846108">
        <ele>1185.335586144</ele>
        <time>2016-05-29T15:37:34Z</time>
      </trkpt>
      <trkpt lat="46.308163" lon="13.846215">
        <ele>1184.2055998848</ele>
        <time>2016-05-29T15:37:42Z</time>
      </trkpt>
      <trkpt lat="46.308113" lon="13.846320">
        <ele>1183.685606208</ele>
        <time>2016-05-29T15:37:50Z</time>
      </trkpt>
      <trkpt lat="46.308080" lon="13.846396">
        <ele>1183.4756087616</ele>
        <time>2016-05-29T15:37:57Z</time>
      </trkpt>
      <trkpt lat="46.308034" lon="13.846526">
        <ele>1182.785617152</ele>
        <time>2016-05-29T15:38:05Z</time>
      </trkpt>
      <trkpt lat="46.307956" lon="13.846614">
        <ele>1182.5056205568</ele>
        <time>2016-05-29T15:38:13Z</time>
      </trkpt>
      <trkpt lat="46.307890" lon="13.846669">
        <ele>1181.885628096</ele>
        <time>2016-05-29T15:38:20Z</time>
      </trkpt>
      <trkpt lat="46.307792" lon="13.846785">
        <ele>1181.5656319872</ele>
        <time>2016-05-29T15:38:33Z</time>
      </trkpt>
      <trkpt lat="46.307728" lon="13.846876">
        <ele>1182.1056254208</ele>
        <time>2016-05-29T15:38:43Z</time>
      </trkpt>
      <trkpt lat="46.307678" lon="13.846996">
        <ele>1182.7056181248</ele>
        <time>2016-05-29T15:38:54Z</time>
      </trkpt>
      <trkpt lat="46.307679" lon="13.847093">
        <ele>1182.3256227456</ele>
        <time>2016-05-29T15:39:02Z</time>
      </trkpt>
      <trkpt lat="46.307635" lon="13.847255">
        <ele>1181.9656271232</ele>
        <time>2016-05-29T15:39:14Z</time>
      </trkpt>
      <trkpt lat="46.307577" lon="13.847359">
        <ele>1180.4256458496</ele>
        <time>2016-05-29T15:39:26Z</time>
      </trkpt>
      <trkpt lat="46.307527" lon="13.847463">
        <ele>1178.3256713856</ele>
        <time>2016-05-29T15:39:38Z</time>
      </trkpt>
      <trkpt lat="46.307494" lon="13.847509">
        <ele>1177.0056874368</ele>
        <time>2016-05-29T15:39:45Z</time>
      </trkpt>
      <trkpt lat="46.307487" lon="13.847570">
        <ele>1175.285708352</ele>
        <time>2016-05-29T15:39:57Z</time>
      </trkpt>
      <trkpt lat="46.307467" lon="13.847645">
        <ele>1173.6957276864</ele>
        <time>2016-05-29T15:40:08Z</time>
      </trkpt>
      <trkpt lat="46.307439" lon="13.847739">
        <ele>1171.9457489664</ele>
        <time>2016-05-29T15:40:20Z</time>
      </trkpt>
      <trkpt lat="46.307399" lon="13.847816">
        <ele>1170.4557670848</ele>
        <time>2016-05-29T15:40:30Z</time>
      </trkpt>
      <trkpt lat="46.307369" lon="13.847926">
        <ele>1169.0957836224</ele>
        <time>2016-05-29T15:40:39Z</time>
      </trkpt>
      <trkpt lat="46.307383" lon="13.848018">
        <ele>1167.4758033216</ele>
        <time>2016-05-29T15:40:50Z</time>
      </trkpt>
      <trkpt lat="46.307379" lon="13.848090">
        <ele>1166.085820224</ele>
        <time>2016-05-29T15:40:58Z</time>
      </trkpt>
      <trkpt lat="46.307411" lon="13.848257">
        <ele>1163.7558485568</ele>
        <time>2016-05-29T15:41:11Z</time>
      </trkpt>
      <trkpt lat="46.307443" lon="13.848368">
        <ele>1162.6458620544</ele>
        <time>2016-05-29T15:41:20Z</time>
      </trkpt>
      <trkpt lat="46.307399" lon="13.848527">
        <ele>1161.385877376</ele>
        <time>2016-05-29T15:41:30Z</time>
      </trkpt>
      <trkpt lat="46.307385" lon="13.848640">
        <ele>1160.8258841856</ele>
        <time>2016-05-29T15:41:38Z</time>
      </trkpt>
      <trkpt lat="46.307355" lon="13.848838">
        <ele>1158.7359096</ele>
        <time>2016-05-29T15:41:53Z</time>
      </trkpt>
      <trkpt lat="46.307340" lon="13.848912">
        <ele>1157.935919328</ele>
        <time>2016-05-29T15:42:00Z</time>
      </trkpt>
      <trkpt lat="46.307342" lon="13.848991">
        <ele>1156.8559324608</ele>
        <time>2016-05-29T15:42:05Z</time>
      </trkpt>
      <trkpt lat="46.307309" lon="13.849097">
        <ele>1155.0259547136</ele>
        <time>2016-05-29T15:42:14Z</time>
      </trkpt>
      <trkpt lat="46.307272" lon="13.849149">
        <ele>1154.2459641984</ele>
        <time>2016-05-29T15:42:19Z</time>
      </trkpt>
      <trkpt lat="46.307227" lon="13.849236">
        <ele>1152.7659821952</ele>
        <time>2016-05-29T15:42:27Z</time>
      </trkpt>
      <trkpt lat="46.307201" lon="13.849310">
        <ele>1150.1960134464</ele>
        <time>2016-05-29T15:42:39Z</time>
      </trkpt>
      <trkpt lat="46.307130" lon="13.849397">
        <ele>1147.7960426304</ele>
        <time>2016-05-29T15:42:51Z</time>
      </trkpt>
      <trkpt lat="46.307105" lon="13.849507">
        <ele>1145.4760708416</ele>
        <time>2016-05-29T15:43:02Z</time>
      </trkpt>
      <trkpt lat="46.307075" lon="13.849555">
        <ele>1144.136087136</ele>
        <time>2016-05-29T15:43:08Z</time>
      </trkpt>
      <trkpt lat="46.306980" lon="13.849617">
        <ele>1142.7661037952</ele>
        <time>2016-05-29T15:43:18Z</time>
      </trkpt>
      <trkpt lat="46.306867" lon="13.849661">
        <ele>1140.98612544</ele>
        <time>2016-05-29T15:43:32Z</time>
      </trkpt>
      <trkpt lat="46.306735" lon="13.849694">
        <ele>1139.7561403968</ele>
        <time>2016-05-29T15:43:43Z</time>
      </trkpt>
      <trkpt lat="46.306598" lon="13.849684">
        <ele>1138.2261590016</ele>
        <time>2016-05-29T15:43:56Z</time>
      </trkpt>
      <trkpt lat="46.306578" lon="13.849681">
        <ele>1137.98616192</ele>
        <time>2016-05-29T15:43:59Z</time>
      </trkpt>
      <trkpt lat="46.306357" lon="13.849690">
        <ele>1136.436180768</ele>
        <time>2016-05-29T15:44:15Z</time>
      </trkpt>
      <trkpt lat="46.306272" lon="13.849835">
        <ele>1136.0161858752</ele>
        <time>2016-05-29T15:44:27Z</time>
      </trkpt>
      <trkpt lat="46.306203" lon="13.849888">
        <ele>1134.7162016832</ele>
        <time>2016-05-29T15:44:38Z</time>
      </trkpt>
      <trkpt lat="46.306142" lon="13.849931">
        <ele>1134.2662071552</ele>
        <time>2016-05-29T15:44:46Z</time>
      </trkpt>
      <trkpt lat="46.306048" lon="13.849998">
        <ele>1133.7362136</ele>
        <time>2016-05-29T15:44:54Z</time>
      </trkpt>
      <trkpt lat="46.305956" lon="13.850159">
        <ele>1133.586215424</ele>
        <time>2016-05-29T15:45:08Z</time>
      </trkpt>
      <trkpt lat="46.305946" lon="13.850220">
        <ele>1133.436217248</ele>
        <time>2016-05-29T15:45:13Z</time>
      </trkpt>
      <trkpt lat="46.305946" lon="13.850235">
        <ele>1133.3762179776</ele>
        <time>2016-05-29T15:45:13Z</time>
      </trkpt>
      <trkpt lat="46.305926" lon="13.850308">
        <ele>1133.0962213824</ele>
        <time>2016-05-29T15:45:21Z</time>
      </trkpt>
      <trkpt lat="46.305901" lon="13.850446">
        <ele>1133.3462183424</ele>
        <time>2016-05-29T15:45:28Z</time>
      </trkpt>
      <trkpt lat="46.305871" lon="13.850524">
        <ele>1133.4762167616</ele>
        <time>2016-05-29T15:45:33Z</time>
      </trkpt>
      <trkpt lat="46.305858" lon="13.850604">
        <ele>1133.086221504</ele>
        <time>2016-05-29T15:45:40Z</time>
      </trkpt>
      <trkpt lat="46.305839" lon="13.850698">
        <ele>1132.8062249088</ele>
        <time>2016-05-29T15:45:48Z</time>
      </trkpt>
      <trkpt lat="46.305798" lon="13.850843">
        <ele>1132.7162260032</ele>
        <time>2016-05-29T15:45:55Z</time>
      </trkpt>
      <trkpt lat="46.305785" lon="13.850858">
        <ele>1132.7662253952</ele>
        <time>2016-05-29T15:45:55Z</time>
      </trkpt>
      <trkpt lat="46.305743" lon="13.850964">
        <ele>1132.7162260032</ele>
        <time>2016-05-29T15:46:03Z</time>
      </trkpt>
      <trkpt lat="46.305724" lon="13.851022">
        <ele>1132.5062285568</ele>
        <time>2016-05-29T15:46:08Z</time>
      </trkpt>
      <trkpt lat="46.305678" lon="13.851100">
        <ele>1132.1762325696</ele>
        <time>2016-05-29T15:46:14Z</time>
      </trkpt>
      <trkpt lat="46.305636" lon="13.851180">
        <ele>1131.636239136</ele>
        <time>2016-05-29T15:46:19Z</time>
      </trkpt>
      <trkpt lat="46.305611" lon="13.851264">
        <ele>1131.2462438784</ele>
        <time>2016-05-29T15:46:26Z</time>
      </trkpt>
      <trkpt lat="46.305582" lon="13.851348">
        <ele>1131.3462426624</ele>
        <time>2016-05-29T15:46:31Z</time>
      </trkpt>
      <trkpt lat="46.305551" lon="13.851424">
        <ele>1131.1262453376</ele>
        <time>2016-05-29T15:46:38Z</time>
      </trkpt>
      <trkpt lat="46.305514" lon="13.851515">
        <ele>1130.6262514176</ele>
        <time>2016-05-29T15:46:46Z</time>
      </trkpt>
      <trkpt lat="46.305483" lon="13.851664">
        <ele>1129.2162685632</ele>
        <time>2016-05-29T15:46:57Z</time>
      </trkpt>
      <trkpt lat="46.305468" lon="13.851716">
        <ele>1129.2762678336</ele>
        <time>2016-05-29T15:47:01Z</time>
      </trkpt>
      <trkpt lat="46.305405" lon="13.851909">
        <ele>1129.1462694144</ele>
        <time>2016-05-29T15:47:13Z</time>
      </trkpt>
      <trkpt lat="46.305368" lon="13.851978">
        <ele>1129.3162673472</ele>
        <time>2016-05-29T15:47:20Z</time>
      </trkpt>
      <trkpt lat="46.305323" lon="13.852050">
        <ele>1130.3962542144</ele>
        <time>2016-05-29T15:47:29Z</time>
      </trkpt>
      <trkpt lat="46.305341" lon="13.852170">
        <ele>1129.1462694144</ele>
        <time>2016-05-29T15:47:40Z</time>
      </trkpt>
      <trkpt lat="46.305274" lon="13.852263">
        <ele>1128.3462791424</ele>
        <time>2016-05-29T15:47:47Z</time>
      </trkpt>
      <trkpt lat="46.305266" lon="13.852328">
        <ele>1128.1562814528</ele>
        <time>2016-05-29T15:47:54Z</time>
      </trkpt>
      <trkpt lat="46.305262" lon="13.852342">
        <ele>1128.0762824256</ele>
        <time>2016-05-29T15:47:55Z</time>
      </trkpt>
      <trkpt lat="46.305232" lon="13.852451">
        <ele>1127.636287776</ele>
        <time>2016-05-29T15:48:03Z</time>
      </trkpt>
      <trkpt lat="46.305218" lon="13.852580">
        <ele>1126.7762982336</ele>
        <time>2016-05-29T15:48:18Z</time>
      </trkpt>
      <trkpt lat="46.305147" lon="13.852737">
        <ele>1126.2263049216</ele>
        <time>2016-05-29T15:48:32Z</time>
      </trkpt>
      <trkpt lat="46.305108" lon="13.852811">
        <ele>1125.586312704</ele>
        <time>2016-05-29T15:48:40Z</time>
      </trkpt>
      <trkpt lat="46.305058" lon="13.852925">
        <ele>1124.8963210944</ele>
        <time>2016-05-29T15:48:49Z</time>
      </trkpt>
      <trkpt lat="46.305039" lon="13.853147">
        <ele>1123.6763359296</ele>
        <time>2016-05-29T15:49:03Z</time>
      </trkpt>
      <trkpt lat="46.305038" lon="13.853193">
        <ele>1123.2663409152</ele>
        <time>2016-05-29T15:49:07Z</time>
      </trkpt>
      <trkpt lat="46.305012" lon="13.853338">
        <ele>1122.0963551424</ele>
        <time>2016-05-29T15:49:16Z</time>
      </trkpt>
      <trkpt lat="46.304994" lon="13.853412">
        <ele>1121.4763626816</ele>
        <time>2016-05-29T15:49:21Z</time>
      </trkpt>
      <trkpt lat="46.304980" lon="13.853533">
        <ele>1120.4963745984</ele>
        <time>2016-05-29T15:49:30Z</time>
      </trkpt>
      <trkpt lat="46.304956" lon="13.853633">
        <ele>1119.3063890688</ele>
        <time>2016-05-29T15:49:39Z</time>
      </trkpt>
      <trkpt lat="46.304935" lon="13.853731">
        <ele>1117.4564115648</ele>
        <time>2016-05-29T15:49:48Z</time>
      </trkpt>
      <trkpt lat="46.304896" lon="13.853820">
        <ele>1116.8764186176</ele>
        <time>2016-05-29T15:49:58Z</time>
      </trkpt>
      <trkpt lat="46.304860" lon="13.853932">
        <ele>1116.6764210496</ele>
        <time>2016-05-29T15:50:06Z</time>
      </trkpt>
      <trkpt lat="46.304803" lon="13.854099">
        <ele>1116.5664223872</ele>
        <time>2016-05-29T15:50:21Z</time>
      </trkpt>
      <trkpt lat="46.304803" lon="13.854133">
        <ele>1116.286425792</ele>
        <time>2016-05-29T15:50:24Z</time>
      </trkpt>
      <trkpt lat="46.304777" lon="13.854237">
        <ele>1115.5164351552</ele>
        <time>2016-05-29T15:50:33Z</time>
      </trkpt>
      <trkpt lat="46.304777" lon="13.854323">
        <ele>1114.3564492608</ele>
        <time>2016-05-29T15:50:38Z</time>
      </trkpt>
      <trkpt lat="46.304748" lon="13.854415">
        <ele>1112.7664685952</ele>
        <time>2016-05-29T15:50:49Z</time>
      </trkpt>
      <trkpt lat="46.304703" lon="13.854540">
        <ele>1110.686493888</ele>
        <time>2016-05-29T15:51:00Z</time>
      </trkpt>
      <trkpt lat="46.304672" lon="13.854588">
        <ele>1109.786504832</ele>
        <time>2016-05-29T15:51:04Z</time>
      </trkpt>
      <trkpt lat="46.304656" lon="13.854684">
        <ele>1107.5765317056</ele>
        <time>2016-05-29T15:51:19Z</time>
      </trkpt>
      <trkpt lat="46.304600" lon="13.854806">
        <ele>1107.2965351104</ele>
        <time>2016-05-29T15:51:28Z</time>
      </trkpt>
      <trkpt lat="46.304567" lon="13.854931">
        <ele>1107.186536448</ele>
        <time>2016-05-29T15:51:36Z</time>
      </trkpt>
      <trkpt lat="46.304526" lon="13.855137">
        <ele>1106.136549216</ele>
        <time>2016-05-29T15:51:50Z</time>
      </trkpt>
      <trkpt lat="46.304517" lon="13.855296">
        <ele>1104.2565720768</ele>
        <time>2016-05-29T15:52:01Z</time>
      </trkpt>
      <trkpt lat="46.304461" lon="13.855465">
        <ele>1102.9465880064</ele>
        <time>2016-05-29T15:52:13Z</time>
      </trkpt>
      <trkpt lat="46.304414" lon="13.855572">
        <ele>1102.4965934784</ele>
        <time>2016-05-29T15:52:22Z</time>
      </trkpt>
      <trkpt lat="46.304368" lon="13.855689">
        <ele>1102.7665901952</ele>
        <time>2016-05-29T15:52:29Z</time>
      </trkpt>
      <trkpt lat="46.304320" lon="13.855834">
        <ele>1102.536592992</ele>
        <time>2016-05-29T15:52:41Z</time>
      </trkpt>
      <trkpt lat="46.304255" lon="13.855977">
        <ele>1101.6266040576</ele>
        <time>2016-05-29T15:52:56Z</time>
      </trkpt>
      <trkpt lat="46.304186" lon="13.856130">
        <ele>1100.5466171904</ele>
        <time>2016-05-29T15:53:08Z</time>
      </trkpt>
      <trkpt lat="46.304129" lon="13.856193">
        <ele>1100.1466220544</ele>
        <time>2016-05-29T15:53:19Z</time>
      </trkpt>
      <trkpt lat="46.304085" lon="13.856207">
        <ele>1099.9766241216</ele>
        <time>2016-05-29T15:53:27Z</time>
      </trkpt>
      <trkpt lat="46.304104" lon="13.856258">
        <ele>1100.0066237568</ele>
        <time>2016-05-29T15:53:42Z</time>
      </trkpt>
      <trkpt lat="46.304069" lon="13.856270">
        <ele>1099.9666242432</ele>
        <time>2016-05-29T15:53:57Z</time>
      </trkpt>
      <trkpt lat="46.304049" lon="13.856355">
        <ele>1099.8766253376</ele>
        <time>2016-05-29T15:54:16Z</time>
      </trkpt>
      <trkpt lat="46.303974" lon="13.856423">
        <ele>1100.4666181632</ele>
        <time>2016-05-29T15:54:28Z</time>
      </trkpt>
      <trkpt lat="46.303957" lon="13.856445">
        <ele>1100.936612448</ele>
        <time>2016-05-29T15:54:40Z</time>
      </trkpt>
      <trkpt lat="46.303955" lon="13.856498">
        <ele>1101.0666108672</ele>
        <time>2016-05-29T15:54:58Z</time>
      </trkpt>
      <trkpt lat="46.303887" lon="13.856591">
        <ele>1101.036611232</ele>
        <time>2016-05-29T15:55:07Z</time>
      </trkpt>
      <trkpt lat="46.303834" lon="13.856625">
        <ele>1101.0266113536</ele>
        <time>2016-05-29T15:55:14Z</time>
      </trkpt>
      <trkpt lat="46.303799" lon="13.856675">
        <ele>1100.9666120832</ele>
        <time>2016-05-29T15:55:19Z</time>
      </trkpt>
      <trkpt lat="46.303784" lon="13.856712">
        <ele>1101.0566109888</ele>
        <time>2016-05-29T15:55:26Z</time>
      </trkpt>
      <trkpt lat="46.303769" lon="13.856738">
        <ele>1100.9766119616</ele>
        <time>2016-05-29T15:55:34Z</time>
      </trkpt>
      <trkpt lat="46.303734" lon="13.856799">
        <ele>1101.5666047872</ele>
        <time>2016-05-29T15:55:41Z</time>
      </trkpt>
      <trkpt lat="46.303685" lon="13.856850">
        <ele>1101.8666011392</ele>
        <time>2016-05-29T15:55:49Z</time>
      </trkpt>
      <trkpt lat="46.303653" lon="13.856923">
        <ele>1102.0565988288</ele>
        <time>2016-05-29T15:55:57Z</time>
      </trkpt>
      <trkpt lat="46.303599" lon="13.857037">
        <ele>1102.2765961536</ele>
        <time>2016-05-29T15:56:06Z</time>
      </trkpt>
      <trkpt lat="46.303574" lon="13.857093">
        <ele>1102.4465940864</ele>
        <time>2016-05-29T15:56:11Z</time>
      </trkpt>
      <trkpt lat="46.303569" lon="13.857238">
        <ele>1102.6565915328</ele>
        <time>2016-05-29T15:56:17Z</time>
      </trkpt>
      <trkpt lat="46.303544" lon="13.857348">
        <ele>1102.4965934784</ele>
        <time>2016-05-29T15:56:25Z</time>
      </trkpt>
      <trkpt lat="46.303541" lon="13.857360">
        <ele>1102.4665938432</ele>
        <time>2016-05-29T15:56:27Z</time>
      </trkpt>
      <trkpt lat="46.303507" lon="13.857466">
        <ele>1102.6665914112</ele>
        <time>2016-05-29T15:56:35Z</time>
      </trkpt>
      <trkpt lat="46.303498" lon="13.857556">
        <ele>1102.6965910464</ele>
        <time>2016-05-29T15:56:43Z</time>
      </trkpt>
      <trkpt lat="46.303522" lon="13.857636">
        <ele>1103.0465867904</ele>
        <time>2016-05-29T15:56:51Z</time>
      </trkpt>
      <trkpt lat="46.303493" lon="13.857703">
        <ele>1103.4065824128</ele>
        <time>2016-05-29T15:56:59Z</time>
      </trkpt>
      <trkpt lat="46.303495" lon="13.857886">
        <ele>1103.98657536</ele>
        <time>2016-05-29T15:57:11Z</time>
      </trkpt>
      <trkpt lat="46.303499" lon="13.858002">
        <ele>1104.2265724416</ele>
        <time>2016-05-29T15:57:19Z</time>
      </trkpt>
      <trkpt lat="46.303494" lon="13.858056">
        <ele>1104.336571104</ele>
        <time>2016-05-29T15:57:26Z</time>
      </trkpt>
      <trkpt lat="46.303469" lon="13.858119">
        <ele>1104.8465649024</ele>
        <time>2016-05-29T15:57:33Z</time>
      </trkpt>
      <trkpt lat="46.303469" lon="13.858137">
        <ele>1104.9065641728</ele>
        <time>2016-05-29T15:57:34Z</time>
      </trkpt>
      <trkpt lat="46.303458" lon="13.858221">
        <ele>1105.2765596736</ele>
        <time>2016-05-29T15:57:37Z</time>
      </trkpt>
      <trkpt lat="46.303456" lon="13.858347">
        <ele>1106.4165458112</ele>
        <time>2016-05-29T15:57:46Z</time>
      </trkpt>
      <trkpt lat="46.303436" lon="13.858430">
        <ele>1106.636543136</ele>
        <time>2016-05-29T15:57:52Z</time>
      </trkpt>
      <trkpt lat="46.303434" lon="13.858440">
        <ele>1106.636543136</ele>
        <time>2016-05-29T15:57:53Z</time>
      </trkpt>
      <trkpt lat="46.303415" lon="13.858585">
        <ele>1106.9665391232</ele>
        <time>2016-05-29T15:58:17Z</time>
      </trkpt>
      <trkpt lat="46.303405" lon="13.858701">
        <ele>1106.786541312</ele>
        <time>2016-05-29T15:58:31Z</time>
      </trkpt>
      <trkpt lat="46.303401" lon="13.858787">
        <ele>1106.786541312</ele>
        <time>2016-05-29T15:58:39Z</time>
      </trkpt>
      <trkpt lat="46.303415" lon="13.858864">
        <ele>1106.3065471488</ele>
        <time>2016-05-29T15:58:48Z</time>
      </trkpt>
      <trkpt lat="46.303389" lon="13.858927">
        <ele>1106.8065410688</ele>
        <time>2016-05-29T15:58:58Z</time>
      </trkpt>
      <trkpt lat="46.303338" lon="13.859047">
        <ele>1107.7265298816</ele>
        <time>2016-05-29T15:59:07Z</time>
      </trkpt>
      <trkpt lat="46.303307" lon="13.859201">
        <ele>1108.0765256256</ele>
        <time>2016-05-29T15:59:18Z</time>
      </trkpt>
      <trkpt lat="46.303292" lon="13.859289">
        <ele>1107.8965278144</ele>
        <time>2016-05-29T15:59:24Z</time>
      </trkpt>
      <trkpt lat="46.303291" lon="13.859372">
        <ele>1107.8165287872</ele>
        <time>2016-05-29T15:59:29Z</time>
      </trkpt>
      <trkpt lat="46.303307" lon="13.859420">
        <ele>1107.8565283008</ele>
        <time>2016-05-29T15:59:37Z</time>
      </trkpt>
      <trkpt lat="46.303312" lon="13.859443">
        <ele>1107.9965265984</ele>
        <time>2016-05-29T15:59:41Z</time>
      </trkpt>
      <trkpt lat="46.303394" lon="13.859513">
        <ele>1108.1165251392</ele>
        <time>2016-05-29T15:59:49Z</time>
      </trkpt>
      <trkpt lat="46.303452" lon="13.859547">
        <ele>1108.5565197888</ele>
        <time>2016-05-29T15:59:56Z</time>
      </trkpt>
      <trkpt lat="46.303604" lon="13.859563">
        <ele>1110.1565003328</ele>
        <time>2016-05-29T16:00:11Z</time>
      </trkpt>
      <trkpt lat="46.303733" lon="13.859792">
        <ele>1111.336485984</ele>
        <time>2016-05-29T16:00:23Z</time>
      </trkpt>
      <trkpt lat="46.303749" lon="13.859844">
        <ele>1111.6064827008</ele>
        <time>2016-05-29T16:00:27Z</time>
      </trkpt>
      <trkpt lat="46.303857" lon="13.859939">
        <ele>1112.1564760128</ele>
        <time>2016-05-29T16:00:38Z</time>
      </trkpt>
      <trkpt lat="46.303871" lon="13.859959">
        <ele>1112.186475648</ele>
        <time>2016-05-29T16:00:39Z</time>
      </trkpt>
      <trkpt lat="46.303995" lon="13.860114">
        <ele>1112.636470176</ele>
        <time>2016-05-29T16:00:51Z</time>
      </trkpt>
      <trkpt lat="46.304121" lon="13.860216">
        <ele>1112.8564675008</ele>
        <time>2016-05-29T16:01:02Z</time>
      </trkpt>
      <trkpt lat="46.304133" lon="13.860234">
        <ele>1112.8964670144</ele>
        <time>2016-05-29T16:01:05Z</time>
      </trkpt>
      <trkpt lat="46.304158" lon="13.860351">
        <ele>1112.7164692032</ele>
        <time>2016-05-29T16:01:17Z</time>
      </trkpt>
      <trkpt lat="46.304132" lon="13.860473">
        <ele>1111.3264861056</ele>
        <time>2016-05-29T16:01:29Z</time>
      </trkpt>
      <trkpt lat="46.304078" lon="13.860623">
        <ele>1109.4765086016</ele>
        <time>2016-05-29T16:01:41Z</time>
      </trkpt>
      <trkpt lat="46.304045" lon="13.860655">
        <ele>1108.7265177216</ele>
        <time>2016-05-29T16:01:47Z</time>
      </trkpt>
      <trkpt lat="46.303980" lon="13.860764">
        <ele>1107.5165324352</ele>
        <time>2016-05-29T16:01:55Z</time>
      </trkpt>
      <trkpt lat="46.303951" lon="13.860866">
        <ele>1106.6765426496</ele>
        <time>2016-05-29T16:02:00Z</time>
      </trkpt>
      <trkpt lat="46.303986" lon="13.861022">
        <ele>1105.5665561472</ele>
        <time>2016-05-29T16:02:11Z</time>
      </trkpt>
      <trkpt lat="46.304006" lon="13.861148">
        <ele>1105.1565611328</ele>
        <time>2016-05-29T16:02:19Z</time>
      </trkpt>
      <trkpt lat="46.304015" lon="13.861264">
        <ele>1104.8665646592</ele>
        <time>2016-05-29T16:02:23Z</time>
      </trkpt>
      <trkpt lat="46.303988" lon="13.861423">
        <ele>1104.3565708608</ele>
        <time>2016-05-29T16:02:31Z</time>
      </trkpt>
      <trkpt lat="46.303979" lon="13.861468">
        <ele>1104.0765742656</ele>
        <time>2016-05-29T16:02:34Z</time>
      </trkpt>
      <trkpt lat="46.303964" lon="13.861555">
        <ele>1103.336583264</ele>
        <time>2016-05-29T16:02:41Z</time>
      </trkpt>
      <trkpt lat="46.303928" lon="13.861712">
        <ele>1102.0465989504</ele>
        <time>2016-05-29T16:02:50Z</time>
      </trkpt>
      <trkpt lat="46.303920" lon="13.861925">
        <ele>1100.6466159744</ele>
        <time>2016-05-29T16:03:01Z</time>
      </trkpt>
      <trkpt lat="46.303855" lon="13.862092">
        <ele>1099.4066310528</ele>
        <time>2016-05-29T16:03:14Z</time>
      </trkpt>
      <trkpt lat="46.303757" lon="13.862230">
        <ele>1098.0066480768</ele>
        <time>2016-05-29T16:03:27Z</time>
      </trkpt>
      <trkpt lat="46.303646" lon="13.862318">
        <ele>1096.8766618176</ele>
        <time>2016-05-29T16:03:40Z</time>
      </trkpt>
      <trkpt lat="46.303592" lon="13.862363">
        <ele>1096.5166661952</ele>
        <time>2016-05-29T16:03:44Z</time>
      </trkpt>
      <trkpt lat="46.303517" lon="13.862379">
        <ele>1096.0066723968</ele>
        <time>2016-05-29T16:03:52Z</time>
      </trkpt>
      <trkpt lat="46.303384" lon="13.862346">
        <ele>1094.9266855296</ele>
        <time>2016-05-29T16:04:03Z</time>
      </trkpt>
      <trkpt lat="46.303294" lon="13.862354">
        <ele>1093.8666984192</ele>
        <time>2016-05-29T16:04:14Z</time>
      </trkpt>
      <trkpt lat="46.303131" lon="13.862365">
        <ele>1092.8567107008</ele>
        <time>2016-05-29T16:04:26Z</time>
      </trkpt>
      <trkpt lat="46.302959" lon="13.862367">
        <ele>1091.4267280896</ele>
        <time>2016-05-29T16:04:39Z</time>
      </trkpt>
      <trkpt lat="46.302828" lon="13.862325">
        <ele>1090.5267390336</ele>
        <time>2016-05-29T16:04:50Z</time>
      </trkpt>
      <trkpt lat="46.302707" lon="13.862261">
        <ele>1089.3667531392</ele>
        <time>2016-05-29T16:05:01Z</time>
      </trkpt>
      <trkpt lat="46.302608" lon="13.862146">
        <ele>1088.2667665152</ele>
        <time>2016-05-29T16:05:11Z</time>
      </trkpt>
      <trkpt lat="46.302545" lon="13.862086">
        <ele>1087.5067757568</ele>
        <time>2016-05-29T16:05:19Z</time>
      </trkpt>
      <trkpt lat="46.302344" lon="13.862054">
        <ele>1086.6167865792</ele>
        <time>2016-05-29T16:05:31Z</time>
      </trkpt>
      <trkpt lat="46.302154" lon="13.862073">
        <ele>1086.0467935104</ele>
        <time>2016-05-29T16:05:40Z</time>
      </trkpt>
      <trkpt lat="46.302130" lon="13.862086">
        <ele>1085.9967941184</ele>
        <time>2016-05-29T16:05:40Z</time>
      </trkpt>
      <trkpt lat="46.302013" lon="13.862227">
        <ele>1085.5467995904</ele>
        <time>2016-05-29T16:05:50Z</time>
      </trkpt>
      <trkpt lat="46.301969" lon="13.862402">
        <ele>1084.7468093184</ele>
        <time>2016-05-29T16:05:59Z</time>
      </trkpt>
      <trkpt lat="46.301945" lon="13.862548">
        <ele>1083.8668200192</ele>
        <time>2016-05-29T16:06:07Z</time>
      </trkpt>
      <trkpt lat="46.301917" lon="13.862694">
        <ele>1083.2068280448</ele>
        <time>2016-05-29T16:06:17Z</time>
      </trkpt>
      <trkpt lat="46.301882" lon="13.862857">
        <ele>1082.2268399616</ele>
        <time>2016-05-29T16:06:26Z</time>
      </trkpt>
      <trkpt lat="46.301870" lon="13.862890">
        <ele>1081.9568432448</ele>
        <time>2016-05-29T16:06:29Z</time>
      </trkpt>
      <trkpt lat="46.301863" lon="13.862942">
        <ele>1081.6568468928</ele>
        <time>2016-05-29T16:06:32Z</time>
      </trkpt>
      <trkpt lat="46.301872" lon="13.863197">
        <ele>1080.2268642816</ele>
        <time>2016-05-29T16:06:45Z</time>
      </trkpt>
      <trkpt lat="46.301886" lon="13.863262">
        <ele>1079.6168716992</ele>
        <time>2016-05-29T16:06:49Z</time>
      </trkpt>
      <trkpt lat="46.301898" lon="13.863341">
        <ele>1078.8768806976</ele>
        <time>2016-05-29T16:06:53Z</time>
      </trkpt>
      <trkpt lat="46.301878" lon="13.863559">
        <ele>1077.6068961408</ele>
        <time>2016-05-29T16:07:04Z</time>
      </trkpt>
      <trkpt lat="46.301857" lon="13.863693">
        <ele>1077.2169008832</ele>
        <time>2016-05-29T16:07:11Z</time>
      </trkpt>
      <trkpt lat="46.301858" lon="13.863716">
        <ele>1077.1669014912</ele>
        <time>2016-05-29T16:07:12Z</time>
      </trkpt>
      <trkpt lat="46.301846" lon="13.863817">
        <ele>1076.8669051392</ele>
        <time>2016-05-29T16:07:16Z</time>
      </trkpt>
      <trkpt lat="46.301822" lon="13.863937">
        <ele>1076.3469114624</ele>
        <time>2016-05-29T16:07:24Z</time>
      </trkpt>
      <trkpt lat="46.301798" lon="13.864035">
        <ele>1075.73691888</ele>
        <time>2016-05-29T16:07:31Z</time>
      </trkpt>
      <trkpt lat="46.301755" lon="13.864103">
        <ele>1075.086926784</ele>
        <time>2016-05-29T16:07:39Z</time>
      </trkpt>
      <trkpt lat="46.301658" lon="13.864270">
        <ele>1073.3169483072</ele>
        <time>2016-05-29T16:07:51Z</time>
      </trkpt>
      <trkpt lat="46.301571" lon="13.864423">
        <ele>1072.1069630208</ele>
        <time>2016-05-29T16:08:03Z</time>
      </trkpt>
      <trkpt lat="46.301472" lon="13.864521">
        <ele>1070.8769779776</ele>
        <time>2016-05-29T16:08:15Z</time>
      </trkpt>
      <trkpt lat="46.301405" lon="13.864520">
        <ele>1069.9069897728</ele>
        <time>2016-05-29T16:08:28Z</time>
      </trkpt>
      <trkpt lat="46.301372" lon="13.864593">
        <ele>1069.48699488</ele>
        <time>2016-05-29T16:08:37Z</time>
      </trkpt>
      <trkpt lat="46.301361" lon="13.864574">
        <ele>1068.5670060672</ele>
        <time>2016-05-29T16:17:14Z</time>
      </trkpt>
      <trkpt lat="46.301362" lon="13.864568">
        <ele>1068.6770047296</ele>
        <time>2016-05-29T16:17:29Z</time>
      </trkpt>
      <trkpt lat="46.301338" lon="13.864540">
        <ele>1068.587005824</ele>
        <time>2016-05-29T16:17:36Z</time>
      </trkpt>
      <trkpt lat="46.301310" lon="13.864546">
        <ele>1068.437007648</ele>
        <time>2016-05-29T16:17:45Z</time>
      </trkpt>
      <trkpt lat="46.301259" lon="13.864532">
        <ele>1068.2570098368</ele>
        <time>2016-05-29T16:17:52Z</time>
      </trkpt>
      <trkpt lat="46.301194" lon="13.864562">
        <ele>1067.387020416</ele>
        <time>2016-05-29T16:18:03Z</time>
      </trkpt>
      <trkpt lat="46.301163" lon="13.864565">
        <ele>1066.6670291712</ele>
        <time>2016-05-29T16:18:07Z</time>
      </trkpt>
      <trkpt lat="46.301125" lon="13.864575">
        <ele>1066.087036224</ele>
        <time>2016-05-29T16:18:11Z</time>
      </trkpt>
      <trkpt lat="46.301055" lon="13.864606">
        <ele>1065.2570463168</ele>
        <time>2016-05-29T16:18:19Z</time>
      </trkpt>
      <trkpt lat="46.301019" lon="13.864625">
        <ele>1064.837051424</ele>
        <time>2016-05-29T16:18:22Z</time>
      </trkpt>
      <trkpt lat="46.300914" lon="13.864688">
        <ele>1064.0770606656</ele>
        <time>2016-05-29T16:18:30Z</time>
      </trkpt>
      <trkpt lat="46.300887" lon="13.864709">
        <ele>1063.98706176</ele>
        <time>2016-05-29T16:18:31Z</time>
      </trkpt>
      <trkpt lat="46.300801" lon="13.864786">
        <ele>1063.787064192</ele>
        <time>2016-05-29T16:18:39Z</time>
      </trkpt>
      <trkpt lat="46.300742" lon="13.864879">
        <ele>1063.5170674752</ele>
        <time>2016-05-29T16:18:46Z</time>
      </trkpt>
      <trkpt lat="46.300726" lon="13.864909">
        <ele>1063.4070688128</ele>
        <time>2016-05-29T16:18:49Z</time>
      </trkpt>
      <trkpt lat="46.300624" lon="13.865008">
        <ele>1063.137072096</ele>
        <time>2016-05-29T16:18:58Z</time>
      </trkpt>
      <trkpt lat="46.300549" lon="13.865069">
        <ele>1062.9770740416</ele>
        <time>2016-05-29T16:19:06Z</time>
      </trkpt>
      <trkpt lat="46.300483" lon="13.865119">
        <ele>1062.8270758656</ele>
        <time>2016-05-29T16:19:13Z</time>
      </trkpt>
      <trkpt lat="46.300398" lon="13.865163">
        <ele>1062.8270758656</ele>
        <time>2016-05-29T16:19:21Z</time>
      </trkpt>
      <trkpt lat="46.300328" lon="13.865222">
        <ele>1062.3270819456</ele>
        <time>2016-05-29T16:19:29Z</time>
      </trkpt>
      <trkpt lat="46.300259" lon="13.865299">
        <ele>1061.2770947136</ele>
        <time>2016-05-29T16:19:37Z</time>
      </trkpt>
      <trkpt lat="46.300189" lon="13.865368">
        <ele>1059.6171148992</ele>
        <time>2016-05-29T16:19:48Z</time>
      </trkpt>
      <trkpt lat="46.300124" lon="13.865445">
        <ele>1057.98713472</ele>
        <time>2016-05-29T16:19:56Z</time>
      </trkpt>
      <trkpt lat="46.300043" lon="13.865520">
        <ele>1055.8671604992</ele>
        <time>2016-05-29T16:20:07Z</time>
      </trkpt>
      <trkpt lat="46.299952" lon="13.865577">
        <ele>1053.0671945472</ele>
        <time>2016-05-29T16:20:19Z</time>
      </trkpt>
      <trkpt lat="46.299841" lon="13.865617">
        <ele>1050.787222272</ele>
        <time>2016-05-29T16:20:31Z</time>
      </trkpt>
      <trkpt lat="46.299796" lon="13.865615">
        <ele>1049.9772321216</ele>
        <time>2016-05-29T16:20:35Z</time>
      </trkpt>
      <trkpt lat="46.299681" lon="13.865626">
        <ele>1048.3272521856</ele>
        <time>2016-05-29T16:20:45Z</time>
      </trkpt>
      <trkpt lat="46.299597" lon="13.865655">
        <ele>1047.7072597248</ele>
        <time>2016-05-29T16:20:51Z</time>
      </trkpt>
      <trkpt lat="46.299583" lon="13.865644">
        <ele>1047.6672602112</ele>
        <time>2016-05-29T16:20:53Z</time>
      </trkpt>
      <trkpt lat="46.299484" lon="13.865594">
        <ele>1047.1472665344</ele>
        <time>2016-05-29T16:21:01Z</time>
      </trkpt>
      <trkpt lat="46.299361" lon="13.865511">
        <ele>1047.087267264</ele>
        <time>2016-05-29T16:21:13Z</time>
      </trkpt>
      <trkpt lat="46.299239" lon="13.865494">
        <ele>1047.1072670208</ele>
        <time>2016-05-29T16:21:23Z</time>
      </trkpt>
      <trkpt lat="46.299210" lon="13.865484">
        <ele>1047.1272667776</ele>
        <time>2016-05-29T16:21:29Z</time>
      </trkpt>
      <trkpt lat="46.299129" lon="13.865436">
        <ele>1047.0972671424</ele>
        <time>2016-05-29T16:21:37Z</time>
      </trkpt>
      <trkpt lat="46.299003" lon="13.865394">
        <ele>1046.8772698176</ele>
        <time>2016-05-29T16:21:48Z</time>
      </trkpt>
      <trkpt lat="46.298906" lon="13.865360">
        <ele>1046.6172729792</ele>
        <time>2016-05-29T16:21:56Z</time>
      </trkpt>
      <trkpt lat="46.298844" lon="13.865326">
        <ele>1046.437275168</ele>
        <time>2016-05-29T16:22:03Z</time>
      </trkpt>
      <trkpt lat="46.298755" lon="13.865245">
        <ele>1046.2772771136</ele>
        <time>2016-05-29T16:22:11Z</time>
      </trkpt>
      <trkpt lat="46.298699" lon="13.865203">
        <ele>1045.787283072</ele>
        <time>2016-05-29T16:22:18Z</time>
      </trkpt>
      <trkpt lat="46.298595" lon="13.865182">
        <ele>1044.3673003392</ele>
        <time>2016-05-29T16:22:26Z</time>
      </trkpt>
      <trkpt lat="46.298555" lon="13.865178">
        <ele>1044.0673039872</ele>
        <time>2016-05-29T16:22:30Z</time>
      </trkpt>
      <trkpt lat="46.298460" lon="13.865131">
        <ele>1043.1673149312</ele>
        <time>2016-05-29T16:22:38Z</time>
      </trkpt>
      <trkpt lat="46.298394" lon="13.865096">
        <ele>1042.5073229568</ele>
        <time>2016-05-29T16:22:44Z</time>
      </trkpt>
      <trkpt lat="46.298290" lon="13.865043">
        <ele>1041.5673343872</ele>
        <time>2016-05-29T16:22:52Z</time>
      </trkpt>
      <trkpt lat="46.298233" lon="13.865036">
        <ele>1041.1773391296</ele>
        <time>2016-05-29T16:22:57Z</time>
      </trkpt>
      <trkpt lat="46.298200" lon="13.865019">
        <ele>1041.0273409536</ele>
        <time>2016-05-29T16:23:00Z</time>
      </trkpt>
      <trkpt lat="46.298139" lon="13.865011">
        <ele>1040.7473443584</ele>
        <time>2016-05-29T16:23:05Z</time>
      </trkpt>
      <trkpt lat="46.298051" lon="13.865120">
        <ele>1040.887342656</ele>
        <time>2016-05-29T16:23:16Z</time>
      </trkpt>
      <trkpt lat="46.297975" lon="13.865171">
        <ele>1040.8973425344</ele>
        <time>2016-05-29T16:23:23Z</time>
      </trkpt>
      <trkpt lat="46.297932" lon="13.865194">
        <ele>1040.9273421696</ele>
        <time>2016-05-29T16:23:27Z</time>
      </trkpt>
      <trkpt lat="46.297821" lon="13.865237">
        <ele>1041.4173362112</ele>
        <time>2016-05-29T16:23:36Z</time>
      </trkpt>
      <trkpt lat="46.297768" lon="13.865325">
        <ele>1042.1073278208</ele>
        <time>2016-05-29T16:23:44Z</time>
      </trkpt>
      <trkpt lat="46.297708" lon="13.865453">
        <ele>1042.4573235648</ele>
        <time>2016-05-29T16:23:55Z</time>
      </trkpt>
      <trkpt lat="46.297699" lon="13.865500">
        <ele>1042.3273251456</ele>
        <time>2016-05-29T16:23:58Z</time>
      </trkpt>
      <trkpt lat="46.297696" lon="13.865621">
        <ele>1041.637333536</ele>
        <time>2016-05-29T16:24:06Z</time>
      </trkpt>
      <trkpt lat="46.297657" lon="13.865785">
        <ele>1039.4173605312</ele>
        <time>2016-05-29T16:24:17Z</time>
      </trkpt>
      <trkpt lat="46.297574" lon="13.865915">
        <ele>1036.8173921472</ele>
        <time>2016-05-29T16:24:27Z</time>
      </trkpt>
      <trkpt lat="46.297537" lon="13.865990">
        <ele>1035.8774035776</ele>
        <time>2016-05-29T16:24:33Z</time>
      </trkpt>
      <trkpt lat="46.297474" lon="13.866127">
        <ele>1034.337422304</ele>
        <time>2016-05-29T16:24:42Z</time>
      </trkpt>
      <trkpt lat="46.297429" lon="13.866216">
        <ele>1032.3974458944</ele>
        <time>2016-05-29T16:24:52Z</time>
      </trkpt>
      <trkpt lat="46.297387" lon="13.866320">
        <ele>1030.2074725248</ele>
        <time>2016-05-29T16:25:01Z</time>
      </trkpt>
      <trkpt lat="46.297319" lon="13.866471">
        <ele>1028.287495872</ele>
        <time>2016-05-29T16:25:12Z</time>
      </trkpt>
      <trkpt lat="46.297248" lon="13.866626">
        <ele>1025.687527488</ele>
        <time>2016-05-29T16:25:24Z</time>
      </trkpt>
      <trkpt lat="46.297222" lon="13.866759">
        <ele>1023.5975529024</ele>
        <time>2016-05-29T16:25:35Z</time>
      </trkpt>
      <trkpt lat="46.297151" lon="13.866875">
        <ele>1021.3775798976</ele>
        <time>2016-05-29T16:25:47Z</time>
      </trkpt>
      <trkpt lat="46.297094" lon="13.866957">
        <ele>1019.2576056768</ele>
        <time>2016-05-29T16:25:58Z</time>
      </trkpt>
      <trkpt lat="46.297028" lon="13.867049">
        <ele>1017.9276218496</ele>
        <time>2016-05-29T16:26:05Z</time>
      </trkpt>
      <trkpt lat="46.296876" lon="13.867160">
        <ele>1016.5076391168</ele>
        <time>2016-05-29T16:26:15Z</time>
      </trkpt>
      <trkpt lat="46.296823" lon="13.867140">
        <ele>1015.73764848</ele>
        <time>2016-05-29T16:26:24Z</time>
      </trkpt>
      <trkpt lat="46.296766" lon="13.867083">
        <ele>1015.3676529792</ele>
        <time>2016-05-29T16:26:34Z</time>
      </trkpt>
      <trkpt lat="46.296658" lon="13.867071">
        <ele>1017.4576275648</ele>
        <time>2016-05-29T16:49:34Z</time>
      </trkpt>
      <trkpt lat="46.296666" lon="13.867103">
        <ele>1017.4176280512</ele>
        <time>2016-05-29T16:49:38Z</time>
      </trkpt>
      <trkpt lat="46.296675" lon="13.867121">
        <ele>1017.4076281728</ele>
        <time>2016-05-29T16:49:41Z</time>
      </trkpt>
      <trkpt lat="46.296708" lon="13.867141">
        <ele>1017.4576275648</ele>
        <time>2016-05-29T16:49:45Z</time>
      </trkpt>
      <trkpt lat="46.296741" lon="13.867200">
        <ele>1017.537626592</ele>
        <time>2016-05-29T16:49:49Z</time>
      </trkpt>
      <trkpt lat="46.296764" lon="13.867217">
        <ele>1017.6776248896</ele>
        <time>2016-05-29T16:49:57Z</time>
      </trkpt>
      <trkpt lat="46.296759" lon="13.867281">
        <ele>1017.7976234304</ele>
        <time>2016-05-29T16:50:06Z</time>
      </trkpt>
      <trkpt lat="46.296737" lon="13.867314">
        <ele>1017.7276242816</ele>
        <time>2016-05-29T16:50:23Z</time>
      </trkpt>
      <trkpt lat="46.296801" lon="13.867221">
        <ele>1017.8576227008</ele>
        <time>2016-05-29T16:50:32Z</time>
      </trkpt>
      <trkpt lat="46.296900" lon="13.867128">
        <ele>1018.4576154048</ele>
        <time>2016-05-29T16:50:40Z</time>
      </trkpt>
      <trkpt lat="46.296982" lon="13.867060">
        <ele>1019.7176000832</ele>
        <time>2016-05-29T16:50:50Z</time>
      </trkpt>
      <trkpt lat="46.297081" lon="13.866962">
        <ele>1021.9775726016</ele>
        <time>2016-05-29T16:51:03Z</time>
      </trkpt>
      <trkpt lat="46.297171" lon="13.866875">
        <ele>1024.187545728</ele>
        <time>2016-05-29T16:51:14Z</time>
      </trkpt>
      <trkpt lat="46.297209" lon="13.866776">
        <ele>1025.8675252992</ele>
        <time>2016-05-29T16:51:25Z</time>
      </trkpt>
      <trkpt lat="46.297240" lon="13.866642">
        <ele>1027.2775081536</ele>
        <time>2016-05-29T16:51:34Z</time>
      </trkpt>
      <trkpt lat="46.297285" lon="13.866544">
        <ele>1028.7574901568</ele>
        <time>2016-05-29T16:51:45Z</time>
      </trkpt>
      <trkpt lat="46.297328" lon="13.866443">
        <ele>1030.5074688768</ele>
        <time>2016-05-29T16:51:54Z</time>
      </trkpt>
      <trkpt lat="46.297375" lon="13.866346">
        <ele>1032.23744784</ele>
        <time>2016-05-29T16:52:07Z</time>
      </trkpt>
      <trkpt lat="46.297441" lon="13.866228">
        <ele>1033.7074299648</ele>
        <time>2016-05-29T16:52:20Z</time>
      </trkpt>
      <trkpt lat="46.297489" lon="13.866122">
        <ele>1035.6274066176</ele>
        <time>2016-05-29T16:52:32Z</time>
      </trkpt>
      <trkpt lat="46.297596" lon="13.866033">
        <ele>1037.1773877696</ele>
        <time>2016-05-29T16:52:46Z</time>
      </trkpt>
      <trkpt lat="46.297611" lon="13.865890">
        <ele>1038.8973668544</ele>
        <time>2016-05-29T16:52:58Z</time>
      </trkpt>
      <trkpt lat="46.297605" lon="13.865752">
        <ele>1040.7273446016</ele>
        <time>2016-05-29T16:53:10Z</time>
      </trkpt>
      <trkpt lat="46.297605" lon="13.865726">
        <ele>1041.2773379136</ele>
        <time>2016-05-29T16:53:14Z</time>
      </trkpt>
      <trkpt lat="46.297619" lon="13.865667">
        <ele>1042.1773269696</ele>
        <time>2016-05-29T16:53:18Z</time>
      </trkpt>
      <trkpt lat="46.297633" lon="13.865517">
        <ele>1043.9573053248</ele>
        <time>2016-05-29T16:53:29Z</time>
      </trkpt>
      <trkpt lat="46.297692" lon="13.865350">
        <ele>1044.5772977856</ele>
        <time>2016-05-29T16:53:40Z</time>
      </trkpt>
      <trkpt lat="46.297780" lon="13.865240">
        <ele>1044.637297056</ele>
        <time>2016-05-29T16:53:51Z</time>
      </trkpt>
      <trkpt lat="46.297849" lon="13.865185">
        <ele>1044.2473017984</ele>
        <time>2016-05-29T16:53:59Z</time>
      </trkpt>
      <trkpt lat="46.297924" lon="13.865131">
        <ele>1043.6773087296</ele>
        <time>2016-05-29T16:54:08Z</time>
      </trkpt>
      <trkpt lat="46.298023" lon="13.865013">
        <ele>1043.337312864</ele>
        <time>2016-05-29T16:54:19Z</time>
      </trkpt>
      <trkpt lat="46.298111" lon="13.864950">
        <ele>1043.1573150528</ele>
        <time>2016-05-29T16:54:24Z</time>
      </trkpt>
      <trkpt lat="46.298210" lon="13.864933">
        <ele>1042.9973169984</ele>
        <time>2016-05-29T16:54:28Z</time>
      </trkpt>
      <trkpt lat="46.298263" lon="13.864963">
        <ele>1043.0473163904</ele>
        <time>2016-05-29T16:54:31Z</time>
      </trkpt>
      <trkpt lat="46.298352" lon="13.865054">
        <ele>1043.4473115264</ele>
        <time>2016-05-29T16:54:39Z</time>
      </trkpt>
      <trkpt lat="46.298457" lon="13.865123">
        <ele>1044.387300096</ele>
        <time>2016-05-29T16:54:50Z</time>
      </trkpt>
      <trkpt lat="46.298530" lon="13.865173">
        <ele>1045.3572883008</ele>
        <time>2016-05-29T16:54:59Z</time>
      </trkpt>
      <trkpt lat="46.298604" lon="13.865199">
        <ele>1045.9472811264</ele>
        <time>2016-05-29T16:55:08Z</time>
      </trkpt>
      <trkpt lat="46.298668" lon="13.865203">
        <ele>1046.3772758976</ele>
        <time>2016-05-29T16:55:14Z</time>
      </trkpt>
      <trkpt lat="46.298730" lon="13.865232">
        <ele>1047.3672638592</ele>
        <time>2016-05-29T16:55:22Z</time>
      </trkpt>
      <trkpt lat="46.298789" lon="13.865298">
        <ele>1048.3972513344</ele>
        <time>2016-05-29T16:55:30Z</time>
      </trkpt>
      <trkpt lat="46.298856" lon="13.865373">
        <ele>1048.7072475648</ele>
        <time>2016-05-29T16:55:37Z</time>
      </trkpt>
      <trkpt lat="46.298918" lon="13.865395">
        <ele>1048.9772442816</ele>
        <time>2016-05-29T16:55:44Z</time>
      </trkpt>
      <trkpt lat="46.299001" lon="13.865430">
        <ele>1049.337239904</ele>
        <time>2016-05-29T16:55:51Z</time>
      </trkpt>
      <trkpt lat="46.299064" lon="13.865467">
        <ele>1049.537237472</ele>
        <time>2016-05-29T16:55:56Z</time>
      </trkpt>
      <trkpt lat="46.299156" lon="13.865499">
        <ele>1049.5472373504</ele>
        <time>2016-05-29T16:56:04Z</time>
      </trkpt>
      <trkpt lat="46.299235" lon="13.865518">
        <ele>1049.73723504</ele>
        <time>2016-05-29T16:56:11Z</time>
      </trkpt>
      <trkpt lat="46.299301" lon="13.865540">
        <ele>1049.6072366208</ele>
        <time>2016-05-29T16:56:18Z</time>
      </trkpt>
      <trkpt lat="46.299389" lon="13.865582">
        <ele>1049.6672358912</ele>
        <time>2016-05-29T16:56:26Z</time>
      </trkpt>
      <trkpt lat="46.299441" lon="13.865633">
        <ele>1049.8672334592</ele>
        <time>2016-05-29T16:56:31Z</time>
      </trkpt>
      <trkpt lat="46.299538" lon="13.865701">
        <ele>1049.9672322432</ele>
        <time>2016-05-29T16:56:41Z</time>
      </trkpt>
      <trkpt lat="46.299549" lon="13.865708">
        <ele>1049.9672322432</ele>
        <time>2016-05-29T16:56:42Z</time>
      </trkpt>
      <trkpt lat="46.299633" lon="13.865747">
        <ele>1050.037231392</ele>
        <time>2016-05-29T16:56:50Z</time>
      </trkpt>
      <trkpt lat="46.299704" lon="13.865743">
        <ele>1050.4172267712</ele>
        <time>2016-05-29T16:56:57Z</time>
      </trkpt>
      <trkpt lat="46.299776" lon="13.865730">
        <ele>1051.1472178944</ele>
        <time>2016-05-29T16:57:04Z</time>
      </trkpt>
      <trkpt lat="46.299791" lon="13.865716">
        <ele>1051.3972148544</ele>
        <time>2016-05-29T16:57:05Z</time>
      </trkpt>
      <trkpt lat="46.299886" lon="13.865696">
        <ele>1052.8571971008</ele>
        <time>2016-05-29T16:57:17Z</time>
      </trkpt>
      <trkpt lat="46.299967" lon="13.865625">
        <ele>1054.6571752128</ele>
        <time>2016-05-29T16:57:28Z</time>
      </trkpt>
      <trkpt lat="46.300032" lon="13.865545">
        <ele>1056.3571545408</ele>
        <time>2016-05-29T16:57:37Z</time>
      </trkpt>
      <trkpt lat="46.300114" lon="13.865481">
        <ele>1058.0571338688</ele>
        <time>2016-05-29T16:57:48Z</time>
      </trkpt>
      <trkpt lat="46.300196" lon="13.865411">
        <ele>1060.0071101568</ele>
        <time>2016-05-29T16:57:58Z</time>
      </trkpt>
      <trkpt lat="46.300260" lon="13.865319">
        <ele>1061.4270928896</ele>
        <time>2016-05-29T16:58:08Z</time>
      </trkpt>
      <trkpt lat="46.300312" lon="13.865255">
        <ele>1062.9470744064</ele>
        <time>2016-05-29T16:58:18Z</time>
      </trkpt>
      <trkpt lat="46.300399" lon="13.865154">
        <ele>1064.037061152</ele>
        <time>2016-05-29T16:58:27Z</time>
      </trkpt>
      <trkpt lat="46.300473" lon="13.865056">
        <ele>1064.4270564096</ele>
        <time>2016-05-29T16:58:35Z</time>
      </trkpt>
      <trkpt lat="46.300553" lon="13.865010">
        <ele>1064.5270551936</ele>
        <time>2016-05-29T16:58:42Z</time>
      </trkpt>
      <trkpt lat="46.300630" lon="13.864960">
        <ele>1064.5970543424</ele>
        <time>2016-05-29T16:58:49Z</time>
      </trkpt>
      <trkpt lat="46.300640" lon="13.864952">
        <ele>1064.6170540992</ele>
        <time>2016-05-29T16:58:49Z</time>
      </trkpt>
      <trkpt lat="46.300752" lon="13.864858">
        <ele>1064.7970519104</ele>
        <time>2016-05-29T16:59:01Z</time>
      </trkpt>
      <trkpt lat="46.300778" lon="13.864830">
        <ele>1065.0070493568</ele>
        <time>2016-05-29T16:59:04Z</time>
      </trkpt>
      <trkpt lat="46.300804" lon="13.864759">
        <ele>1065.2670461952</ele>
        <time>2016-05-29T16:59:09Z</time>
      </trkpt>
      <trkpt lat="46.300835" lon="13.864731">
        <ele>1065.337045344</ele>
        <time>2016-05-29T16:59:12Z</time>
      </trkpt>
      <trkpt lat="46.300870" lon="13.864712">
        <ele>1065.4270442496</ele>
        <time>2016-05-29T16:59:15Z</time>
      </trkpt>
      <trkpt lat="46.300950" lon="13.864628">
        <ele>1065.8270393856</ele>
        <time>2016-05-29T16:59:24Z</time>
      </trkpt>
      <trkpt lat="46.301002" lon="13.864596">
        <ele>1066.4470318464</ele>
        <time>2016-05-29T16:59:32Z</time>
      </trkpt>
      <trkpt lat="46.301016" lon="13.864576">
        <ele>1067.0270247936</ele>
        <time>2016-05-29T16:59:36Z</time>
      </trkpt>
      <trkpt lat="46.301106" lon="13.864549">
        <ele>1067.98701312</ele>
        <time>2016-05-29T16:59:47Z</time>
      </trkpt>
      <trkpt lat="46.301282" lon="13.864551">
        <ele>1069.7769913536</ele>
        <time>2016-05-29T16:59:59Z</time>
      </trkpt>
      <trkpt lat="46.301345" lon="13.864593">
        <ele>1070.7269798016</ele>
        <time>2016-05-29T17:00:07Z</time>
      </trkpt>
      <trkpt lat="46.301331" lon="13.864614">
        <ele>1071.4269712896</ele>
        <time>2016-05-29T17:00:18Z</time>
      </trkpt>
      <trkpt lat="46.301369" lon="13.864646">
        <ele>1070.9769767616</ele>
        <time>2016-05-29T17:00:33Z</time>
      </trkpt>
      <trkpt lat="46.301369" lon="13.864558">
        <ele>1071.036976032</ele>
        <time>2016-05-29T17:00:42Z</time>
      </trkpt>
      <trkpt lat="46.301302" lon="13.864563">
        <ele>1071.7469673984</ele>
        <time>2016-05-29T17:01:21Z</time>
      </trkpt>
    </trkseg>
  </trk>
</gpx>
